# Wetter Temperatur Luftdruck Luftfeuchtigkeit Sichtweite Windgeschwindigkeit Windrichtung Zeit
1 Clear 2 1024 69 10000 2.41 139 21:39 12.07.2020
2 Clear 2 1024 69 10000 2.62 132 21:19 12.07.2020
3 Clear 2 1024 69 10000 2.62 132 20:57 12.07.2020
4 Clear 2 1024 69 10000 2.62 132 20:57 12.07.2020
5 Clear 2 1024 69 10000 2.1 200 20:38 12.07.2020
6 Clear 2 1024 69 10000 2.1 200 20:19 12.07.2020
7 Clear 2 1025 69 10000 1 190 19:40 12.07.2020
8 Clear 2 1024 64 10000 1.5 180 19:22 12.07.2020
9 Clear 2 1024 64 10000 1.5 180 18:58 12.07.2020
10 Clear 5 1025 60 10000 2.1 190 18:39 12.07.2020
11 Clear 4 1024 60 10000 2.6 180 18:18 12.07.2020
12 Clear 4 1024 64 10000 1.5 170 17:39 12.07.2020
13 Clear 4 1024 64 10000 1.5 170 17:21 12.07.2020
14 Clear 5 1024 56 10000 3.6 139 16:56 12.07.2020
15 Clear 5 1024 60 10000 0.5 210 16:38 12.07.2020
16 Clear 5 1024 52 10000 3.56 129 16:18 12.07.2020
17 Clear 5 1024 52 10000 1.5 190 15:41 12.07.2020
18 Clear 5 1024 52 10000 1.5 190 15:21 12.07.2020
19 Clear 7 1024 52 10000 2.6 110 14:42 12.07.2020
20 Clear 7 1024 52 10000 2.6 110 14:23 12.07.2020
21 Clear 10 1024 49 10000 3.1 140 13:41 12.07.2020
22 Clear 10 1024 49 10000 3.1 140 13:22 12.07.2020
23 Clear 11 1024 46 10000 3.1 140 12:58 12.07.2020
24 Clear 11 1024 43 10000 3.6 160 12:39 12.07.2020
25 Clear 11 1024 43 10000 3.6 160 12:19 12.07.2020
26 Clear 12 1023 51 10000 3.1 160 11:55 12.07.2020
27 Clear 12 1023 43 10000 4.1 160 11:36 12.07.2020
28 Clear 12 1023 43 10000 4.1 160 11:18 12.07.2020
29 Clear 13 1023 38 10000 4.6 160 10:41 12.07.2020
30 Clear 13 1023 38 10000 4.6 160 10:19 12.07.2020
31 Clear 16 1022 36 10000 5.1 160 09:43 12.07.2020
32 Clear 16 1022 36 10000 5.1 160 09:21 12.07.2020
33 Clear 16 1022 36 10000 4.6 180 08:57 12.07.2020
34 Clear 16 1022 38 10000 4.6 160 08:38 12.07.2020
35 Clear 16 1022 38 10000 4.6 160 08:18 12.07.2020
36 Clear 16 1022 38 10000 4.6 130 07:47 12.07.2020
37 Clear 16 1022 38 10000 4.6 130 07:28 12.07.2020
38 Clear 15 1023 38 10000 4.1 180 06:53 12.07.2020
39 Clear 12 1024 44 10000 4.1 170 06:22 12.07.2020
40 Clear 12 1024 44 10000 4.1 170 05:59 12.07.2020
41 Clear 12 1024 47 10000 4.6 160 04:57 12.07.2020
42 Clouds 12 1025 50 10000 4.1 160 04:28 12.07.2020
43 Clouds 12 1025 54 10000 4.6 160 03:44 12.07.2020
44 Clouds 11 1026 62 10000 5.1 160 03:23 12.07.2020
45 Clear 10 1025 61 10000 2.1 210 01:52 12.07.2020
46 Clear 8 1024 69 10000 2.6 310 00:59 12.07.2020
47 Clear 3 1024 74 10000 2.6 340 00:39 12.07.2020
48 Clear 3 1024 74 10000 2.6 340 00:20 12.07.2020
49 Clear 3 1024 69 10000 2.6 300 23:40 11.07.2020
50 Clear 3 1024 69 10000 2.6 300 23:20 11.07.2020
51 Clear 4 1024 64 10000 2.6 330 22:56 11.07.2020
52 Clear 3 1023 64 10000 2.1 230 22:37 11.07.2020
53 Clear 3 1023 64 10000 2.1 230 22:18 11.07.2020
54 Clear 4 1023 64 10000 3.6 230 21:42 11.07.2020
55 Clear 4 1023 64 10000 3.6 230 21:23 11.07.2020
56 Clear 3 1023 64 10000 3.1 230 20:59 11.07.2020
57 Clear 3 1023 64 10000 3.1 230 20:59 11.07.2020
58 Clear 3 1023 64 10000 3.1 240 20:40 11.07.2020
59 Clear 3 1023 64 10000 3.1 240 20:40 11.07.2020
60 Clear 3 1023 64 10000 3.1 240 20:21 11.07.2020
61 Clear 4 1023 64 10000 2.6 250 19:58 11.07.2020
62 Clear 4 1023 64 10000 1.5 280 19:40 11.07.2020
63 Clear 4 1023 64 10000 1.5 280 19:22 11.07.2020
64 Clear 4 1023 64 10000 1.5 290 18:56 11.07.2020
65 Clear 6 1023 60 10000 2.1 340 18:37 11.07.2020
66 Clear 6 1023 60 10000 2.1 340 18:19 11.07.2020
67 Clear 7 1023 65 10000 2.1 320 17:48 11.07.2020
68 Clear 6 1024 66 10000 2.1 210 17:22 11.07.2020
69 Clear 6 1024 66 10000 2.1 210 16:59 11.07.2020
70 Clear 7 1024 65 10000 1.5 230 16:39 11.07.2020
71 Clear 7 1024 65 10000 1.5 230 16:20 11.07.2020
72 Clear 7 1024 56 10000 2.6 210 15:57 11.07.2020
73 Clear 8 1024 62 10000 2.6 200 15:37 11.07.2020
74 Clear 8 1024 62 10000 2.6 200 15:37 11.07.2020
75 Clear 8 1024 58 10000 2.6 200 15:18 11.07.2020
76 Clear 10 1024 58 10000 3.1 180 14:47 11.07.2020
77 Clear 10 1024 55 10000 3.6 180 14:23 11.07.2020
78 Clear 11 1023 50 10000 3.1 170 13:57 11.07.2020
79 Clear 11 1023 50 10000 3.6 170 13:38 11.07.2020
80 Clear 11 1023 50 10000 3.6 170 13:20 11.07.2020
81 Clear 12 1022 47 10000 3.6 170 12:44 11.07.2020
82 Clear 12 1022 47 10000 3.6 170 12:23 11.07.2020
83 Clear 12 1022 44 10000 3.1 170 11:59 11.07.2020
84 Clear 13 1022 41 10000 4.1 170 11:41 11.07.2020
85 Clear 13 1022 41 10000 4.1 170 11:19 11.07.2020
86 Clear 13 1021 38 10000 4.1 160 10:46 11.07.2020
87 Clear 14 1021 36 10000 4.6 170 10:28 11.07.2020
88 Clear 14 1021 33 10000 4.1 170 09:57 11.07.2020
89 Clear 17 1021 33 10000 4.6 170 09:37 11.07.2020
90 Clear 17 1021 33 10000 4.6 170 09:19 11.07.2020
91 Clear 17 1021 36 10000 4.1 170 08:41 11.07.2020
92 Clear 18 1021 34 10000 4.6 180 08:20 11.07.2020
93 Clear 18 1021 34 10000 4.6 180 07:54 11.07.2020
94 Clear 18 1022 36 10000 5.1 170 07:36 11.07.2020
95 Clear 17 1022 36 10000 5.1 160 07:18 11.07.2020
96 Clear 17 1022 39 10000 4.6 190 06:24 11.07.2020
97 Clear 17 1023 39 10000 3.6 130 05:54 11.07.2020
98 Clear 16 1024 41 10000 3.6 160 05:18 11.07.2020
99 Clear 13 1025 44 10000 4.1 130 04:39 11.07.2020
100 Clear 13 1025 44 10000 4.1 130 04:19 11.07.2020
101 Clear 12 1025 50 10000 4.1 160 02:52 11.07.2020
102 Clouds 11 1025 57 10000 4.1 170 01:56 11.07.2020
103 Clouds 11 1025 61 10000 3.1 180 01:21 11.07.2020
104 Clouds 7 1024 56 10000 3.1 230 00:41 11.07.2020
105 Clouds 7 1024 56 10000 3.1 230 00:23 11.07.2020
106 Clouds 8 1023 84 10000 2.1 240 23:58 10.07.2020
107 Clouds 8 1023 52 10000 2.1 220 23:40 10.07.2020
108 Clouds 8 1023 52 10000 2.1 220 23:21 10.07.2020
109 Clouds 8 1022 52 10000 2.1 230 22:49 10.07.2020
110 Clouds 8 1022 52 10000 2.1 230 22:24 10.07.2020
111 Clouds 8 1022 49 10000 2.1 260 21:59 10.07.2020
112 Clouds 9 1022 42 10000 2.6 300 21:38 10.07.2020
113 Clouds 9 1022 42 10000 2.6 300 21:20 10.07.2020
114 Clouds 10 1022 31 10000 1.5 70 20:43 10.07.2020
115 Clouds 10 1022 31 10000 1.5 70 20:24 10.07.2020
116 Clouds 12 1022 30 10000 5.1 160 19:59 10.07.2020
117 Clouds 10 1022 26 10000 4.1 200 19:41 10.07.2020
118 Clouds 10 1022 26 10000 4.1 200 19:21 10.07.2020
119 Clouds 9 1021 30 10000 2.6 300 18:54 10.07.2020
120 Clouds 10 1022 26 10000 2.1 280 18:36 10.07.2020
121 Clear 10 1022 26 10000 2.1 290 18:18 10.07.2020
122 Clear 10 1022 26 10000 1.5 320 17:41 10.07.2020
123 Clear 10 1022 26 10000 1.5 320 17:22 10.07.2020
124 Clear 10 1022 26 10000 2.1 320 16:57 10.07.2020
125 Clear 12 1022 23 10000 2.6 350 16:39 10.07.2020
126 Clear 12 1022 23 10000 2.6 350 16:18 10.07.2020
127 Clear 11 1022 23 10000 2.07 79 15:43 10.07.2020
128 Clear 11 1022 23 10000 2.22 109 15:21 10.07.2020
129 Clear 12 1023 22 10000 2.22 109 14:44 10.07.2020
130 Clear 12 1022 20 10000 1.5 30 14:23 10.07.2020
131 Clear 12 1022 19 10000 1.5 20 13:58 10.07.2020
132 Clear 13 1022 18 10000 2.6 50 13:40 10.07.2020
133 Clear 13 1022 17 10000 2.6 110 13:22 10.07.2020
134 Clear 13 1021 17 10000 3.1 150 12:59 10.07.2020
135 Clear 16 1021 17 10000 3.1 150 12:40 10.07.2020
136 Clear 16 1021 17 10000 3.1 150 12:22 10.07.2020
137 Clear 19 1021 14 10000 3.1 130 11:43 10.07.2020
138 Clear 19 1021 14 10000 3.1 130 11:24 10.07.2020
139 Clear 20 1020 13 10000 2.6 130 10:59 10.07.2020
140 Clear 20 1020 13 10000 2.6 130 10:59 10.07.2020
141 Clear 22 1020 12 10000 3.6 140 10:41 10.07.2020
142 Clear 22 1020 12 10000 3.6 140 10:21 10.07.2020
143 Clear 22 1020 12 10000 3.6 140 09:55 10.07.2020
144 Clear 23 1020 12 10000 2.6 110 09:36 10.07.2020
145 Clear 23 1020 12 10000 2.6 110 09:18 10.07.2020
146 Clear 22 1020 13 10000 1 20 08:43 10.07.2020
147 Clear 22 1020 13 10000 1 20 08:25 10.07.2020
148 Clear 22 1020 14 10000 3.6 90 07:58 10.07.2020
149 Clear 22 1020 13 10000 2.6 100 07:39 10.07.2020
150 Clear 21 1020 14 10000 4.1 90 07:19 10.07.2020
151 Clear 21 1021 15 10000 3.1 110 06:43 10.07.2020
152 Clear 20 1021 19 10000 2.6 70 05:50 10.07.2020
153 Clear 18 1022 27 10000 2.6 80 04:29 10.07.2020
154 Clear 14 1023 35 10000 0.5 270 02:55 10.07.2020
155 Clear 12 1023 37 10000 1.5 250 02:35 10.07.2020
156 Clear 5 1022 48 10000 2.1 320 00:56 10.07.2020
157 Clear 3 1022 55 10000 2.6 300 00:38 10.07.2020
158 Clear 3 1022 51 10000 2.1 280 00:18 10.07.2020
159 Clear 3 1021 55 10000 2.6 320 23:38 09.07.2020
160 Clear 3 1021 55 10000 2.6 320 23:19 09.07.2020
161 Clear 3 1021 51 10000 2.6 310 22:56 09.07.2020
162 Clear 4 1021 48 10000 2.6 310 22:38 09.07.2020
163 Clear 4 1021 48 10000 2.6 310 22:20 09.07.2020
164 Clear 3 1021 47 10000 2.6 280 21:55 09.07.2020
165 Clear 3 1020 47 10000 2.1 300 21:36 09.07.2020
166 Clear 3 1020 47 10000 2.1 300 21:36 09.07.2020
167 Clear 3 1020 47 10000 2.1 300 21:18 09.07.2020
168 Clear 4 1020 44 10000 2.6 270 20:41 09.07.2020
169 Clear 4 1020 44 10000 2.6 270 20:23 09.07.2020
170 Clear 5 1021 44 10000 2.6 330 19:43 09.07.2020
171 Clear 5 1021 44 10000 2.6 330 19:22 09.07.2020
172 Clear 5 1021 38 10000 2.6 270 18:59 09.07.2020
173 Clear 8 1021 38 10000 2.6 280 18:41 09.07.2020
174 Clear 8 1021 38 10000 2.1 310 18:19 09.07.2020
175 Clear 9 1021 33 10000 2.6 320 17:43 09.07.2020
176 Clear 9 1021 33 10000 2.6 320 17:24 09.07.2020
177 Clear 9 1021 33 10000 2.1 260 16:58 09.07.2020
178 Clear 9 1021 33 4500 2.6 260 16:39 09.07.2020
179 Clear 9 1021 33 4500 2.6 260 16:19 09.07.2020
180 Clear 9 1021 33 4500 2.6 260 16:19 09.07.2020
181 Clear 10 1021 31 10000 1.5 300 15:59 09.07.2020
182 Clear 10 1021 29 10000 2.1 310 15:38 09.07.2020
183 Clear 10 1021 29 10000 2.1 310 15:20 09.07.2020
184 Clear 11 1021 29 10000 2.1 290 14:58 09.07.2020
185 Clear 11 1021 29 10000 1.5 250 14:40 09.07.2020
186 Clear 11 1021 29 10000 1.5 250 14:21 09.07.2020
187 Clear 11 1021 29 10000 1.5 240 13:56 09.07.2020
188 Clear 11 1021 29 10000 1.5 240 13:56 09.07.2020
189 Clear 11 1021 27 10000 1.5 170 13:38 09.07.2020
190 Clear 11 1021 27 10000 1.5 170 13:19 09.07.2020
191 Clear 12 1020 24 10000 2.1 160 12:42 09.07.2020
192 Clear 12 1020 24 10000 2.1 160 12:24 09.07.2020
193 Clear 12 1020 24 10000 2.1 160 12:23 09.07.2020
194 Clear 13 1019 22 10000 2.6 170 11:58 09.07.2020
195 Clear 13 1019 21 10000 3.1 180 11:40 09.07.2020
196 Clear 13 1019 21 10000 3.1 180 11:19 09.07.2020
197 Clear 14 1019 20 10000 3.6 170 10:56 09.07.2020
198 Clear 15 1018 18 10000 2.1 210 10:38 09.07.2020
199 Clear 15 1018 18 10000 2.1 210 10:19 09.07.2020
200 Clear 20 1018 19 10000 2.1 160 09:43 09.07.2020
201 Clear 20 1018 19 10000 2.1 160 09:23 09.07.2020
202 Clear 21 1018 19 10000 1.5 150 08:52 09.07.2020
203 Clouds 21 1018 19 10000 3.1 180 08:27 09.07.2020
204 Clouds 20 1018 20 10000 2.1 110 07:56 09.07.2020
205 Clouds 20 1019 20 10000 1 180 07:38 09.07.2020
206 Clouds 20 1019 20 10000 1 180 07:20 09.07.2020
207 Clouds 19 1020 24 10000 2.6 90 06:21 09.07.2020
208 Clouds 18 1020 25 10000 2.1 90 05:53 09.07.2020
209 Clouds 13 1022 33 10000 1 300 04:29 09.07.2020
210 Clouds 12 1023 36 10000 1.5 10 03:19 09.07.2020
211 Clouds 12 1023 36 10000 1.5 10 03:19 09.07.2020
212 Clouds 10 1022 45 10000 1.5 360 01:55 09.07.2020
213 Clouds 6 1021 48 10000 1.5 40 00:59 09.07.2020
214 Clouds 6 1022 48 10000 1 220 00:38 09.07.2020
215 Clouds 6 1021 52 10000 1.48 102 00:19 09.07.2020
216 Clouds 5 1021 52 10000 1.5 30 23:43 08.07.2020
217 Clouds 5 1021 52 10000 1.5 30 23:24 08.07.2020
218 Clouds 5 1021 56 10000 1 360 22:55 08.07.2020
219 Clouds 6 1021 52 10000 1.5 270 22:36 08.07.2020
220 Clouds 6 1021 52 10000 1.5 270 22:18 08.07.2020
221 Clouds 5 1021 52 10000 1.97 111 21:40 08.07.2020
222 Clouds 5 1021 52 10000 2.59 107 21:22 08.07.2020
223 Clouds 5 1021 52 10000 2.59 107 20:59 08.07.2020
224 Clouds 5 1020 52 10000 0.5 220 20:41 08.07.2020
225 Clouds 5 1020 52 10000 0.5 220 20:23 08.07.2020
226 Clouds 4 1021 55 10000 2.6 270 19:43 08.07.2020
227 Clouds 4 1021 55 10000 2.6 270 19:25 08.07.2020
228 Clouds 2 1022 59 10000 1 330 18:59 08.07.2020
229 Clouds 2 1022 59 10000 2.02 103 18:40 08.07.2020
230 Clouds 2 1022 59 10000 1.35 104 18:21 08.07.2020
231 Clouds 2 1022 59 10000 1.35 104 17:56 08.07.2020
232 Clouds 3 1022 59 10000 2.1 270 17:38 08.07.2020
233 Clouds 3 1022 59 10000 2.1 270 17:20 08.07.2020
234 Clouds 3 1022 55 10000 2.6 280 16:56 08.07.2020
235 Clouds 4 1022 51 10000 1.99 116 16:37 08.07.2020
236 Clouds 4 1022 51 10000 2.83 101 16:18 08.07.2020
237 Clouds 5 1022 60 10000 1.5 330 15:56 08.07.2020
238 Clouds 5 1022 52 10000 2.1 320 15:37 08.07.2020
239 Clouds 5 1022 52 10000 2.1 320 15:18 08.07.2020
240 Clouds 8 1022 45 10000 2.6 100 14:42 08.07.2020
241 Clouds 8 1022 45 10000 2.6 100 14:20 08.07.2020
242 Clouds 10 1022 42 10000 3.1 110 13:46 08.07.2020
243 Clouds 11 1022 39 10000 3.1 110 13:27 08.07.2020
244 Clouds 11 1022 39 10000 3.1 120 12:58 08.07.2020
245 Clouds 11 1021 37 10000 3.1 140 12:40 08.07.2020
246 Clouds 12 1021 34 10000 3.1 150 12:19 08.07.2020
247 Clouds 12 1021 32 10000 3.1 150 11:39 08.07.2020
248 Clouds 12 1021 32 10000 3.1 150 11:20 08.07.2020
249 Clouds 13 1021 28 10000 3.1 150 10:56 08.07.2020
250 Clouds 13 1021 28 10000 3.1 150 10:56 08.07.2020
251 Clouds 13 1020 29 10000 3.1 130 10:38 08.07.2020
252 Clouds 13 1020 29 10000 4.6 130 10:19 08.07.2020
253 Clouds 17 1020 27 10000 4.6 120 09:41 08.07.2020
254 Clouds 17 1020 27 10000 4.6 120 09:23 08.07.2020
255 Clouds 17 1020 25 10000 3.6 100 08:43 08.07.2020
256 Clouds 17 1020 25 10000 3.6 100 08:24 08.07.2020
257 Clouds 17 1020 27 10000 4.1 110 07:48 08.07.2020
258 Clouds 17 1021 27 10000 3.6 100 07:24 08.07.2020
259 Clouds 16 1021 29 10000 3.6 100 06:55 08.07.2020
260 Clouds 15 1022 33 10000 4.1 110 06:36 08.07.2020
261 Clouds 15 1022 29 10000 3.6 110 05:55 08.07.2020
262 Clouds 14 1023 29 10000 3.1 110 05:33 08.07.2020
263 Clear 12 1024 43 10000 4.1 110 04:36 08.07.2020
264 Clear 11 1024 53 10000 2.6 100 02:48 08.07.2020
265 Clear 9 1024 60 10000 3.08 112 01:52 08.07.2020
266 Clear 8 1024 69 10000 1.5 280 01:32 08.07.2020
267 Clear 0 1024 83 10000 2.6 290 00:28 08.07.2020
268 Clear 1 1024 80 10000 2.6 280 23:59 07.07.2020
269 Clear 0 1024 83 10000 2.6 270 23:40 07.07.2020
270 Clear 0 1024 82 10000 2.6 270 23:19 07.07.2020
271 Clear 0 1023 82 10000 2.6 270 22:43 07.07.2020
272 Clear 0 1023 80 10000 2.6 270 22:23 07.07.2020
273 Clear 1 1023 74 10000 2.6 270 21:59 07.07.2020
274 Clear 1 1023 69 10000 2.1 290 21:40 07.07.2020
275 Clear 1 1023 69 10000 2.1 290 21:21 07.07.2020
276 Clear 2 1023 74 10000 2.6 290 20:57 07.07.2020
277 Clear 2 1023 74 10000 2.6 290 20:39 07.07.2020
278 Clear 2 1023 74 10000 2.6 290 20:20 07.07.2020
279 Clear 2 1023 69 10000 2.1 220 19:41 07.07.2020
280 Clear 3 1024 64 10000 1.5 220 19:21 07.07.2020
281 Clear 3 1024 64 10000 1.5 220 18:57 07.07.2020
282 Clear 3 1024 69 10000 1 230 18:38 07.07.2020
283 Clear 3 1023 69 10000 2.37 109 18:20 07.07.2020
284 Clear 3 1023 69 10000 2.37 109 17:58 07.07.2020
285 Clear 4 1024 64 10000 2.37 109 17:38 07.07.2020
286 Clear 4 1024 64 10000 2.84 108 17:20 07.07.2020
287 Clear 4 1024 64 10000 2.84 108 17:20 07.07.2020
288 Clear 5 1024 65 10000 2.84 108 16:43 07.07.2020
289 Clear 5 1024 65 10000 3.29 108 16:24 07.07.2020
290 Clear 6 1024 60 10000 2.1 140 15:58 07.07.2020
291 Clear 6 1024 56 10000 1 80 15:39 07.07.2020
292 Clear 6 1024 56 10000 1 80 15:20 07.07.2020
293 Clear 6 1024 56 10000 1 80 15:20 07.07.2020
294 Clear 10 1024 57 10000 2.6 110 14:46 07.07.2020
295 Clear 10 1024 57 10000 2.6 110 14:25 07.07.2020
296 Clear 10 1024 57 10000 2.6 110 14:25 07.07.2020
297 Clear 10 1024 56 10000 2.6 130 13:47 07.07.2020
298 Clear 11 1024 53 10000 3.1 130 13:22 07.07.2020
299 Clear 11 1024 53 10000 3.1 130 12:59 07.07.2020
300 Clear 12 1024 53 10000 3.6 130 12:40 07.07.2020
301 Clear 12 1024 48 10000 3.6 130 12:22 07.07.2020
302 Clear 12 1023 48 10000 3.6 140 11:49 07.07.2020
303 Clear 12 1023 42 10000 3.1 140 11:25 07.07.2020
304 Clear 13 1023 42 10000 3.6 140 10:59 07.07.2020
305 Clear 14 1022 42 10000 3.6 140 10:41 07.07.2020
306 Clear 14 1022 33 10000 3.6 140 10:21 07.07.2020
307 Clear 17 1022 33 10000 3.1 90 09:56 07.07.2020
308 Clear 17 1022 29 10000 3.1 90 09:37 07.07.2020
309 Clear 17 1022 29 10000 3.1 90 09:18 07.07.2020
310 Clear 17 1023 29 10000 3.6 130 08:41 07.07.2020
311 Clear 17 1023 29 10000 3.6 130 08:22 07.07.2020
312 Clear 16 1023 29 10000 3.6 60 07:42 07.07.2020
313 Clear 16 1023 30 10000 3.6 60 07:22 07.07.2020
314 Clear 15 1024 38 10000 3.6 100 06:49 07.07.2020
315 Clear 15 1024 38 10000 3.6 100 06:28 07.07.2020
316 Clear 12 1024 41 10000 3.6 70 05:51 07.07.2020
317 Clear 12 1025 44 10000 3.6 100 05:21 07.07.2020
318 Clear 12 1026 47 10000 5.1 70 04:38 07.07.2020
319 Clear 11 1027 50 10000 5.1 100 03:35 07.07.2020
320 Clear 10 1027 61 10000 0.5 150 02:21 07.07.2020
321 Clear 8 1026 65 10000 2.68 115 01:22 07.07.2020
322 Clear 0 1026 65 10000 2.68 115 00:42 07.07.2020
323 Clear -1 1025 86 10000 2 121 00:23 07.07.2020
324 Clear -1 1025 86 10000 2 121 23:46 06.07.2020
325 Clear 0 1025 85 10000 2.6 340 23:26 06.07.2020
326 Clear 0 1025 85 10000 3.1 270 22:59 06.07.2020
327 Clear -1 1025 80 10000 2.1 240 22:40 06.07.2020
328 Clear -1 1025 80 10000 2.1 240 22:40 06.07.2020
329 Clear -1 1025 80 10000 2.1 240 22:19 06.07.2020
330 Clear 0 1025 85 10000 1.5 280 21:57 06.07.2020
331 Clear 2 1025 74 10000 2.1 330 21:37 06.07.2020
332 Clear 2 1025 74 10000 2.1 330 21:19 06.07.2020
333 Clear 1 1025 80 10000 2.1 270 20:55 06.07.2020
334 Clear 1 1025 74 10000 2.13 115 20:36 06.07.2020
335 Clear 1 1025 74 10000 2.96 100 20:18 06.07.2020
336 Clear 2 1025 69 10000 2.1 210 19:54 06.07.2020
337 Clear 2 1025 69 10000 2.1 210 19:36 06.07.2020
338 Clear 1 1025 74 10000 1 210 19:18 06.07.2020
339 Clear 3 1025 74 10000 2.1 30 18:41 06.07.2020
340 Clear 2 1026 69 10000 3.5 105 18:23 06.07.2020
341 Clear 2 1026 69 10000 3.5 105 17:58 06.07.2020
342 Clear 4 1026 64 10000 3.5 105 17:39 06.07.2020
343 Clear 4 1026 64 10000 3.42 108 17:20 06.07.2020
344 Clear 5 1026 65 10000 3.42 108 16:43 06.07.2020
345 Clear 5 1026 65 10000 3.76 109 16:24 06.07.2020
346 Clear 5 1027 60 10000 3.76 109 15:57 06.07.2020
347 Clear 6 1027 67 10000 1.5 160 15:39 06.07.2020
348 Clear 6 1027 64 10000 1.5 160 15:20 06.07.2020
349 Clear 7 1027 64 10000 2.1 150 14:55 06.07.2020
350 Clear 7 1027 56 10000 2.1 140 14:36 06.07.2020
351 Clear 7 1027 56 10000 2.1 140 14:18 06.07.2020
352 Clear 11 1026 60 10000 3.6 130 13:43 06.07.2020
353 Clear 11 1026 57 10000 3.6 130 13:24 06.07.2020
354 Clear 11 1026 46 10000 3.6 130 12:54 06.07.2020
355 Clear 11 1026 43 10000 3.6 130 12:36 06.07.2020
356 Clear 12 1025 53 10000 4.1 120 12:18 06.07.2020
357 Clear 12 1025 53 10000 4.6 130 11:41 06.07.2020
358 Clear 12 1025 47 10000 4.6 130 11:23 06.07.2020
359 Clear 12 1025 47 10000 5.1 120 10:59 06.07.2020
360 Clear 13 1025 47 10000 6.2 120 10:40 06.07.2020
361 Clear 13 1025 37 10000 6.2 120 10:20 06.07.2020
362 Clear 15 1025 37 10000 5.7 110 09:54 06.07.2020
363 Clear 15 1025 37 10000 5.7 110 09:36 06.07.2020
364 Clear 15 1025 33 10000 5.7 110 09:18 06.07.2020
365 Clear 16 1025 32 10000 6.2 100 08:40 06.07.2020
366 Clear 16 1025 31 10000 6.2 100 08:22 06.07.2020
367 Clear 15 1025 31 10000 4.6 130 07:50 06.07.2020
368 Clear 16 1025 36 10000 4.6 120 07:30 06.07.2020
369 Clear 13 1025 38 10000 5.7 100 06:55 06.07.2020
370 Clear 13 1025 38 10000 5.7 100 06:37 06.07.2020
371 Clear 12 1026 44 10000 3.6 90 05:53 06.07.2020
372 Clear 12 1026 44 10000 5.7 80 05:26 06.07.2020
373 Clear 12 1028 50 10000 7.7 110 03:58 06.07.2020
374 Clear 10 1029 57 10000 2.6 100 02:32 06.07.2020
375 Clear 9 1029 65 10000 0.5 70 01:54 06.07.2020
376 Clear 0 1027 66 10000 4.77 110 00:49 06.07.2020
377 Clear 0 1027 81 10000 3.6 115 00:23 06.07.2020
378 Clear 1 1027 74 10000 2.1 250 23:56 05.07.2020
379 Clear 0 1027 81 10000 2.6 260 23:38 05.07.2020
380 Clear 0 1027 79 10000 2.6 260 23:19 05.07.2020
381 Clear 2 1026 74 10000 0.5 340 22:41 05.07.2020
382 Clear 2 1026 74 10000 0.5 340 22:21 05.07.2020
383 Clear 2 1026 74 10000 1 150 21:59 05.07.2020
384 Clear 2 1026 74 10000 4.07 118 21:40 05.07.2020
385 Clear 2 1026 74 10000 4.27 121 21:19 05.07.2020
386 Clear 3 1027 69 10000 2.1 160 20:58 05.07.2020
387 Clear 3 1027 69 10000 2.1 160 20:58 05.07.2020
388 Clear 2 1027 69 10000 4.21 122 20:40 05.07.2020
389 Clear 2 1027 69 10000 4.15 122 20:21 05.07.2020
390 Clear 4 1026 73 10000 1.5 90 19:55 05.07.2020
391 Clear 3 1026 69 10000 1.5 130 19:37 05.07.2020
392 Clear 4 1026 64 10000 2.6 130 19:19 05.07.2020
393 Clear 4 1026 69 10000 1.5 160 18:42 05.07.2020
394 Clear 4 1026 69 10000 1.5 160 18:22 05.07.2020
395 Clear 3 1026 59 10000 2.1 150 17:56 05.07.2020
396 Clear 3 1026 59 10000 2.1 150 17:56 05.07.2020
397 Clear 5 1027 60 10000 4.06 120 17:38 05.07.2020
398 Clear 5 1027 60 10000 4.5 120 17:19 05.07.2020
399 Clear 6 1027 56 10000 3.1 140 16:44 05.07.2020
400 Clear 6 1027 56 10000 3.1 140 16:25 05.07.2020
401 Clear 6 1027 60 10000 2.1 130 15:56 05.07.2020
402 Clear 7 1027 56 10000 2.6 120 15:37 05.07.2020
403 Clear 7 1027 56 10000 2.6 120 15:18 05.07.2020
404 Clear 8 1027 52 10000 3.1 130 14:41 05.07.2020
405 Clear 10 1027 52 10000 3.1 130 14:22 05.07.2020
406 Clear 11 1027 46 10000 2.6 130 13:42 05.07.2020
407 Clear 11 1027 46 10000 2.6 130 13:24 05.07.2020
408 Clear 11 1026 43 10000 3.6 130 12:56 05.07.2020
409 Clear 12 1026 40 10000 3.6 140 12:38 05.07.2020
410 Clear 12 1026 40 10000 3.6 140 12:19 05.07.2020
411 Clear 12 1025 33 10000 4.1 120 11:40 05.07.2020
412 Clear 12 1025 33 10000 4.1 120 11:21 05.07.2020
413 Clear 13 1025 30 10000 5.1 120 10:59 05.07.2020
414 Clear 13 1025 31 10000 6.2 110 10:40 05.07.2020
415 Clear 13 1025 31 10000 6.2 110 10:19 05.07.2020
416 Clear 17 1025 27 10000 6.2 110 09:56 05.07.2020
417 Clear 17 1025 27 10000 5.7 110 09:37 05.07.2020
418 Clear 17 1025 27 10000 6.2 100 09:19 05.07.2020
419 Clear 17 1025 27 10000 6.2 100 08:46 05.07.2020
420 Clouds 17 1025 27 10000 6.2 110 08:27 05.07.2020
421 Clouds 17 1025 27 10000 6.2 120 07:48 05.07.2020
422 Clouds 17 1025 27 10000 6.2 120 07:29 05.07.2020
423 Clouds 17 1026 27 10000 5.7 100 06:51 05.07.2020
424 Clouds 13 1027 38 10000 6.7 110 05:41 05.07.2020
425 Clouds 12 1029 54 10000 4.6 90 03:31 05.07.2020
426 Clouds 11 1029 62 10000 5.7 90 02:41 05.07.2020
427 Clouds 11 1029 62 10000 5.7 90 02:18 05.07.2020
428 Clouds 10 1028 70 10000 3.1 110 01:33 05.07.2020
429 Clouds 8 1027 70 0 4.6 80 00:58 05.07.2020
430 Clouds 4 1028 80 10000 6.55 107 00:38 05.07.2020
431 Clouds 4 1028 80 10000 5.29 116 00:20 05.07.2020
432 Clouds 6 1028 75 10000 2.6 110 23:46 04.07.2020
433 Clouds 6 1028 75 10000 2.6 110 23:28 04.07.2020
434 Clouds 5 1028 75 10000 3.1 180 22:55 04.07.2020
435 Clouds 6 1027 75 10000 3.1 150 22:37 04.07.2020
436 Clouds 6 1027 75 10000 3.1 150 22:18 04.07.2020
437 Clouds 9 1027 70 10000 3.6 180 21:42 04.07.2020
438 Clouds 9 1027 70 10000 3.6 180 21:23 04.07.2020
439 Clouds 10 1027 70 10000 3.1 170 20:57 04.07.2020
440 Clouds 10 1027 70 10000 2.1 200 20:38 04.07.2020
441 Clouds 10 1027 70 10000 2.1 200 20:18 04.07.2020
442 Clouds 10 1027 66 10000 2.1 150 19:43 04.07.2020
443 Clouds 10 1027 66 10000 2.1 150 19:22 04.07.2020
444 Clouds 10 1027 66 10000 2.1 150 19:22 04.07.2020
445 Clouds 10 1027 66 10000 2.6 150 18:55 04.07.2020
446 Clouds 10 1027 66 10000 2.6 150 18:37 04.07.2020
447 Clouds 11 1027 61 10000 2.6 150 18:19 04.07.2020
448 Clouds 11 1028 61 10000 3.1 150 17:42 04.07.2020
449 Clouds 11 1028 61 10000 3.1 150 17:23 04.07.2020
450 Clouds 11 1028 57 10000 3.1 150 16:57 04.07.2020
451 Clouds 11 1028 57 10000 3.1 130 16:37 04.07.2020
452 Clouds 11 1028 57 10000 3.1 130 16:19 04.07.2020
453 Clouds 11 1029 57 10000 2.6 130 15:46 04.07.2020
454 Clouds 11 1029 57 10000 2.6 130 15:27 04.07.2020
455 Clouds 11 1029 57 10000 2.6 140 14:59 04.07.2020
456 Clouds 11 1029 57 10000 2.6 140 14:59 04.07.2020
457 Clouds 12 1029 54 10000 2.6 150 14:37 04.07.2020
458 Clouds 12 1029 54 10000 2.6 150 14:19 04.07.2020
459 Clouds 12 1029 54 10000 3.1 140 13:56 04.07.2020
460 Clouds 12 1029 54 10000 3.1 140 13:37 04.07.2020
461 Clouds 12 1028 50 10000 3.6 130 13:18 04.07.2020
462 Clouds 12 1028 50 10000 3.6 130 12:41 04.07.2020
463 Clouds 12 1028 50 10000 3.6 130 12:20 04.07.2020
464 Clouds 12 1028 47 10000 4.1 130 11:46 04.07.2020
465 Clouds 12 1028 47 10000 4.6 130 11:25 04.07.2020
466 Clouds 12 1027 47 10000 4.6 130 10:59 04.07.2020
467 Clouds 13 1027 41 10000 5.7 120 10:39 04.07.2020
468 Clouds 13 1027 41 10000 5.7 120 10:21 04.07.2020
469 Clouds 15 1027 44 10000 5.1 130 09:55 04.07.2020
470 Clouds 15 1027 41 10000 6.7 110 09:36 04.07.2020
471 Clouds 16 1027 38 10000 6.2 110 09:18 04.07.2020
472 Clouds 16 1027 38 10000 6.2 110 08:45 04.07.2020
473 Clouds 16 1027 38 10000 6.7 110 08:26 04.07.2020
474 Clouds 16 1027 38 10000 7.2 100 07:43 04.07.2020
475 Clouds 16 1027 38 10000 7.2 100 07:25 04.07.2020
476 Clouds 13 1028 41 10000 7.7 100 06:48 04.07.2020
477 Clouds 13 1028 41 10000 7.7 100 06:20 04.07.2020
478 Clouds 13 1029 44 10000 6.7 110 05:32 04.07.2020
479 Clouds 12 1030 47 10000 8.2 110 04:23 04.07.2020
480 Clouds 12 1030 50 10000 3.1 100 02:49 04.07.2020
481 Clouds 11 1030 53 10000 2.1 80 01:54 04.07.2020
482 Clouds 9 1030 60 10000 5.44 120 00:59 04.07.2020
483 Clouds 6 1029 55 10000 5.44 120 00:40 04.07.2020
484 Clouds 6 1029 60 10000 3.69 132 00:21 04.07.2020
485 Clouds 6 1029 60 10000 3.69 132 23:39 03.07.2020
486 Clouds 6 1029 59 10000 3.89 131 23:18 03.07.2020
487 Clouds 6 1029 59 10000 3.89 131 23:18 03.07.2020
488 Clouds 7 1029 56 10000 3.89 131 22:43 03.07.2020
489 Clouds 7 1029 56 10000 3.85 124 22:25 03.07.2020
490 Clouds 7 1029 60 10000 2.6 80 21:59 03.07.2020
491 Clouds 7 1029 56 10000 3.85 124 21:39 03.07.2020
492 Clouds 7 1029 56 10000 3.43 120 21:19 03.07.2020
493 Clouds 7 1029 61 10000 3.56 122 20:43 03.07.2020
494 Clouds 7 1029 62 10000 3.39 114 20:25 03.07.2020
495 Clouds 7 1029 62 10000 3.39 114 19:59 03.07.2020
496 Clouds 7 1029 56 10000 3.39 114 19:39 03.07.2020
497 Clouds 7 1029 56 10000 3.61 112 19:18 03.07.2020
498 Clouds 7 1029 56 10000 3.61 112 19:18 03.07.2020
499 Clouds 9 1029 65 10000 3.61 112 18:45 03.07.2020
500 Clouds 9 1029 56 10000 1.5 150 18:24 03.07.2020
501 Clouds 9 1029 56 10000 1.5 150 17:56 03.07.2020
502 Clouds 9 1029 56 10000 1.5 150 17:38 03.07.2020
503 Clouds 10 1029 59 10000 2.6 150 17:20 03.07.2020
504 Clouds 10 1029 61 10000 2.6 140 16:40 03.07.2020
505 Clouds 10 1029 61 10000 2.6 140 16:21 03.07.2020
506 Clouds 10 1029 56 10000 2.6 150 15:45 03.07.2020
507 Clouds 10 1029 53 10000 2.6 130 15:24 03.07.2020
508 Clouds 11 1029 53 10000 3.1 130 14:57 03.07.2020
509 Clouds 11 1029 50 10000 2.6 130 14:39 03.07.2020
510 Clouds 11 1029 50 10000 2.6 130 14:19 03.07.2020
511 Clouds 12 1029 46 10000 2.6 140 13:47 03.07.2020
512 Clouds 12 1029 46 10000 3.1 130 13:28 03.07.2020
513 Clouds 12 1028 44 10000 4.6 130 12:45 03.07.2020
514 Clouds 12 1028 44 10000 4.6 130 12:24 03.07.2020
515 Clouds 13 1028 41 10000 3.6 130 11:58 03.07.2020
516 Clouds 13 1028 38 10000 4.1 130 11:40 03.07.2020
517 Clouds 13 1028 38 10000 4.1 130 11:21 03.07.2020
518 Clouds 13 1027 38 10000 4.6 120 10:55 03.07.2020
519 Clouds 14 1027 36 10000 5.7 120 10:37 03.07.2020
520 Clouds 14 1027 36 10000 5.7 120 10:18 03.07.2020
521 Clouds 18 1027 34 10000 6.7 130 09:54 03.07.2020
522 Clouds 18 1027 34 10000 6.2 120 09:36 03.07.2020
523 Clouds 18 1027 34 10000 6.2 120 09:18 03.07.2020
524 Clouds 19 1027 32 10000 6.7 120 08:39 03.07.2020
525 Clouds 19 1027 32 10000 6.7 120 08:18 03.07.2020
526 Clouds 18 1027 34 10000 7.7 120 07:47 03.07.2020
527 Clouds 19 1027 32 10000 6.7 140 07:24 03.07.2020
528 Clouds 18 1028 34 10000 6.7 130 06:47 03.07.2020
529 Clouds 18 1028 34 10000 6.2 120 05:56 03.07.2020
530 Clouds 17 1029 39 10000 7.2 110 04:35 03.07.2020
531 Clouds 13 1029 44 10000 5.1 100 02:57 03.07.2020
532 Clouds 12 1029 50 10000 3.6 90 02:36 03.07.2020
533 Clouds 11 1029 62 10000 2.6 110 01:54 03.07.2020
534 Clouds 10 1028 66 10000 6.53 124 01:23 03.07.2020
535 Clouds 5 1027 75 10000 6.53 124 00:44 03.07.2020
536 Clouds 5 1027 75 10000 4.88 126 00:20 03.07.2020
537 Clouds 5 1026 76 10000 4.88 126 23:43 02.07.2020
538 Clouds 5 1026 77 10000 4.93 124 23:20 02.07.2020
539 Clouds 5 1026 75 10000 4.93 124 22:57 02.07.2020
540 Clouds 6 1026 75 10000 4.93 124 22:38 02.07.2020
541 Clouds 6 1026 75 10000 5 124 22:20 02.07.2020
542 Clouds 6 1025 75 10000 2.1 120 21:54 02.07.2020
543 Clouds 7 1025 70 10000 1 150 21:36 02.07.2020
544 Clouds 7 1025 70 10000 1 150 21:18 02.07.2020
545 Clouds 7 1025 75 10000 2.1 180 20:42 02.07.2020
546 Clear 7 1025 72 10000 2.1 180 20:20 02.07.2020
547 Clear 7 1025 70 10000 3.1 170 19:56 02.07.2020
548 Clear 8 1025 65 10000 2.6 150 19:38 02.07.2020
549 Clear 8 1025 61 10000 2.6 160 19:19 02.07.2020
550 Clear 8 1025 61 10000 2.6 160 18:55 02.07.2020
551 Clear 8 1024 61 10000 2.6 170 18:37 02.07.2020
552 Clear 8 1024 61 10000 2.6 170 18:18 02.07.2020
553 Clear 9 1024 66 10000 4.68 121 17:39 02.07.2020
554 Clear 9 1024 66 10000 4.77 119 17:20 02.07.2020
555 Clear 10 1025 61 10000 4.77 119 16:55 02.07.2020
556 Clear 10 1025 61 10000 4.77 119 16:55 02.07.2020
557 Clear 10 1024 61 10000 4.77 119 16:37 02.07.2020
558 Clear 10 1024 61 10000 4.77 118 16:18 02.07.2020
559 Clear 12 1024 54 10000 2.1 150 15:39 02.07.2020
560 Clear 12 1024 54 10000 2.1 150 15:21 02.07.2020
561 Clear 12 1024 54 10000 2.6 150 14:46 02.07.2020
562 Clear 13 1024 50 10000 3.1 140 14:28 02.07.2020
563 Clear 14 1023 47 10000 3.1 140 13:57 02.07.2020
564 Clear 15 1023 44 10000 3.1 140 13:39 02.07.2020
565 Clear 15 1023 44 10000 3.1 140 13:20 02.07.2020
566 Clear 16 1022 41 10000 3.1 140 12:58 02.07.2020
567 Clear 16 1022 41 10000 3.6 130 12:38 02.07.2020
568 Clear 16 1022 41 10000 3.6 130 12:20 02.07.2020
569 Clear 16 1022 41 10000 3.6 130 12:20 02.07.2020
570 Clear 18 1021 36 10000 3.6 130 11:43 02.07.2020
571 Clear 18 1021 36 10000 3.6 130 11:25 02.07.2020
572 Clear 21 1020 30 10000 5.1 130 10:48 02.07.2020
573 Clear 21 1020 30 10000 5.1 130 10:27 02.07.2020
574 Clear 21 1020 30 10000 5.7 130 09:57 02.07.2020
575 Clear 22 1020 26 10000 5.1 140 09:39 02.07.2020
576 Clear 22 1020 26 10000 5.1 140 09:20 02.07.2020
577 Clear 22 1019 26 10000 4.6 130 08:44 02.07.2020
578 Clear 22 1019 26 10000 4.6 130 08:24 02.07.2020
579 Clear 23 1019 25 10000 4.6 130 07:56 02.07.2020
580 Clear 22 1020 26 10000 5.1 130 07:37 02.07.2020
581 Clear 22 1020 26 10000 5.1 120 07:18 02.07.2020
582 Clear 22 1020 26 10000 5.1 140 06:40 02.07.2020
583 Clear 21 1021 28 10000 5.1 130 06:20 02.07.2020
584 Clear 21 1021 28 10000 5.7 130 05:44 02.07.2020
585 Clear 19 1022 29 10000 5.7 110 03:55 02.07.2020
586 Clear 19 1022 29 10000 5.1 110 03:31 02.07.2020
587 Clear 9 1020 42 10000 2.1 320 00:48 02.07.2020
588 Clear 9 1020 42 10000 2.1 320 00:25 02.07.2020
589 Clear 9 1020 39 10000 2.6 300 23:47 01.07.2020
590 Clear 9 1019 39 10000 3.1 310 23:27 01.07.2020
591 Clear 10 1019 37 10000 2.6 320 22:57 01.07.2020
592 Clear 8 1019 39 10000 3.1 290 22:38 01.07.2020
593 Clear 8 1019 39 10000 3.1 290 22:19 01.07.2020
594 Clear 9 1019 39 10000 2.6 240 21:58 01.07.2020
595 Clear 9 1018 36 10000 2.6 300 21:40 01.07.2020
596 Clear 9 1018 36 10000 2.6 300 21:21 01.07.2020
597 Clear 9 1018 36 10000 2.6 300 21:21 01.07.2020
598 Clear 11 1018 34 10000 2.6 330 20:55 01.07.2020
599 Clear 11 1018 34 10000 2.6 330 20:55 01.07.2020
600 Clear 10 1018 34 10000 2.1 290 20:36 01.07.2020
601 Clouds 10 1018 34 10000 2.1 290 20:18 01.07.2020
602 Clouds 11 1018 32 10000 2.6 310 19:42 01.07.2020
603 Clouds 11 1018 32 10000 2.6 310 19:24 01.07.2020
604 Clouds 11 1018 32 10000 2.6 270 18:59 01.07.2020
605 Clouds 11 1018 32 10000 2.1 310 18:40 01.07.2020
606 Clouds 11 1018 32 10000 2.1 310 18:21 01.07.2020
607 Clouds 15 1019 26 10000 2.6 320 17:56 01.07.2020
608 Clouds 15 1019 26 10000 2.6 320 17:37 01.07.2020
609 Clouds 15 1019 26 10000 2.6 320 17:18 01.07.2020
610 Clouds 15 1019 26 10000 2.6 330 16:43 01.07.2020
611 Clouds 15 1019 26 10000 2.6 330 16:24 01.07.2020
612 Clouds 15 1019 24 10000 3.1 270 15:43 01.07.2020
613 Clouds 15 1019 24 10000 3.1 270 15:25 01.07.2020
614 Clouds 15 1019 22 10000 3.1 290 14:59 01.07.2020
615 Clouds 16 1018 23 10000 2.6 330 14:41 01.07.2020
616 Clouds 16 1018 23 10000 2.6 330 14:20 01.07.2020
617 Clouds 17 1018 20 10000 2.6 360 13:55 01.07.2020
618 Clouds 17 1018 20 10000 1.36 132 13:37 01.07.2020
619 Clouds 17 1018 20 10000 1.4 163 13:37 01.07.2020
620 Clouds 18 1018 18 10000 2.1 200 13:18 01.07.2020
621 Clouds 20 1017 18 10000 3.6 200 12:41 01.07.2020
622 Clouds 20 1017 18 10000 3.6 200 12:23 01.07.2020
623 Clouds 20 1017 18 10000 3.6 200 12:23 01.07.2020
624 Clouds 20 1017 18 10000 3.6 200 12:23 01.07.2020
625 Clouds 20 1017 16 10000 3.1 180 11:58 01.07.2020
626 Clouds 21 1016 15 10000 3.1 180 11:40 01.07.2020
627 Clouds 21 1016 15 10000 3.1 180 11:21 01.07.2020
628 Clouds 23 1016 13 10000 4.6 190 10:55 01.07.2020
629 Clouds 23 1016 13 10000 4.6 190 10:55 01.07.2020
630 Clouds 25 1016 14 10000 4.1 220 10:36 01.07.2020
631 Clouds 25 1016 14 10000 4.1 220 10:18 01.07.2020
632 Clouds 27 1015 13 10000 3.1 200 09:38 01.07.2020
633 Clear 27 1015 13 10000 3.1 200 09:20 01.07.2020
634 Clear 27 1015 13 10000 3.1 200 09:20 01.07.2020
635 Clear 27 1015 13 10000 3.33 271 08:57 01.07.2020
636 Clear 27 1015 13 10000 2.6 130 08:38 01.07.2020
637 Clear 27 1015 13 10000 2.6 130 08:19 01.07.2020
638 Clear 27 1015 13 10000 2.6 130 08:19 01.07.2020
639 Clear 27 1016 13 10000 4.6 230 07:40 01.07.2020
640 Clear 27 1016 13 10000 4.6 230 07:21 01.07.2020
641 Clear 26 1016 20 10000 3.6 270 06:51 01.07.2020
642 Clear 26 1016 21 10000 3.6 320 06:30 01.07.2020
643 Clear 26 1017 21 10000 3.6 310 05:30 01.07.2020
644 Clear 23 1019 31 10000 3.6 340 03:55 01.07.2020
645 Clear 22 1019 30 10000 0.5 30 03:36 01.07.2020
646 Clear 22 1019 30 10000 0.5 30 03:18 01.07.2020
647 Clear 14 1019 30 10000 1.5 270 01:53 01.07.2020
648 Clear 6 1018 38 10000 2.6 300 00:48 01.07.2020
649 Clear 6 1018 38 10000 2.6 300 00:26 01.07.2020
650 Clear 6 1018 35 10000 1.5 230 23:43 30.06.2020
651 Clear 6 1018 35 10000 1.5 230 23:23 30.06.2020
652 Clear 6 1017 38 3000 2.48 348 23:00 30.06.2020
653 Clear 6 1017 35 10000 2.48 348 22:41 30.06.2020
654 Clear 6 1017 35 10000 2.53 351 22:18 30.06.2020
655 Clear 7 1017 33 10000 2.1 350 21:41 30.06.2020
656 Clear 7 1017 33 10000 2.1 350 21:19 30.06.2020
657 Clear 8 1017 33 10000 2.6 300 20:57 30.06.2020
658 Clear 9 1017 31 10000 2.6 290 20:39 30.06.2020
659 Clear 8 1017 31 10000 2.6 280 20:20 30.06.2020
660 Clear 8 1017 31 10000 2.6 280 19:42 30.06.2020
661 Clear 8 1018 31 10000 2.6 280 19:20 30.06.2020
662 Clear 9 1017 31 10000 2.1 310 18:46 30.06.2020
663 Clear 9 1017 31 10000 2.1 310 18:21 30.06.2020
664 Clear 9 1018 29 10000 2.1 270 17:59 30.06.2020
665 Clear 10 1018 29 10000 2.1 290 17:38 30.06.2020
666 Clear 10 1018 29 10000 2.1 290 17:19 30.06.2020
667 Clear 10 1018 29 10000 1 250 16:54 30.06.2020
668 Clear 10 1018 27 10000 2.13 34 16:36 30.06.2020
669 Clear 10 1018 27 10000 2.17 58 16:18 30.06.2020
670 Clear 11 1018 27 10000 2.17 58 15:41 30.06.2020
671 Clear 11 1018 27 10000 2.17 80 15:22 30.06.2020
672 Clear 11 1018 27 10000 2.17 80 14:56 30.06.2020
673 Clear 13 1018 24 10000 2.1 40 14:38 30.06.2020
674 Clear 13 1018 24 10000 2.1 40 14:18 30.06.2020
675 Clear 14 1018 22 10000 1.5 20 13:41 30.06.2020
676 Clear 14 1018 22 10000 1.5 20 13:20 30.06.2020
677 Clear 16 1018 21 10000 1.5 80 12:58 30.06.2020
678 Clear 18 1018 18 10000 2.6 110 12:40 30.06.2020
679 Clear 18 1018 18 10000 2.6 110 12:21 30.06.2020
680 Clear 19 1017 17 10000 3.1 120 11:58 30.06.2020
681 Clear 19 1017 17 10000 3.1 120 11:58 30.06.2020
682 Clear 20 1017 16 10000 3.1 120 11:39 30.06.2020
683 Clear 20 1017 16 10000 3.1 120 11:19 30.06.2020
684 Clear 21 1016 14 10000 2.6 140 10:58 30.06.2020
685 Clear 5 1022 48 10000 3.26 100 16:39 28.06.2020
686 Clear 5 1022 48 10000 3.43 100 16:20 28.06.2020
687 Clear 7 1022 42 10000 1 330 15:56 28.06.2020
688 Clear 6 1022 41 10000 1.5 330 15:37 28.06.2020
689 Clear 6 1022 41 10000 1.5 330 15:18 28.06.2020
690 Clear 8 1022 39 10000 2.1 70 14:44 28.06.2020
691 Clear 8 1022 39 10000 2.1 70 14:25 28.06.2020
692 Clear 10 1022 37 10000 2.1 70 13:55 28.06.2020
693 Clear 10 1022 37 10000 2.6 130 13:37 28.06.2020
694 Clear 10 1022 34 10000 3.1 150 13:18 28.06.2020
695 Clear 10 1022 34 10000 3.1 150 12:55 28.06.2020
696 Clear 11 1021 32 10000 3.1 130 12:36 28.06.2020
697 Clear 12 1021 30 10000 3.1 130 12:18 28.06.2020
698 Clear 15 1020 24 10000 3.1 110 11:44 28.06.2020
699 Clear 15 1020 24 10000 3.1 110 11:21 28.06.2020
700 Clear 16 1020 23 10000 3.1 140 10:59 28.06.2020
701 Clear 17 1020 23 10000 4.1 130 10:41 28.06.2020
702 Clear 17 1020 23 10000 4.1 130 10:23 28.06.2020
703 Clear 18 1020 20 10000 3.6 120 09:43 28.06.2020
704 Clear 18 1020 20 10000 3.6 120 09:24 28.06.2020
705 Clear 18 1020 18 10000 3.1 110 08:58 28.06.2020
706 Clear 18 1020 18 10000 4.1 120 08:40 28.06.2020
707 Clear 18 1020 18 10000 4.1 120 08:21 28.06.2020
708 Clear 18 1021 22 10000 3.1 90 07:39 28.06.2020
709 Clear 17 1021 25 10000 2.6 160 06:58 28.06.2020
710 Clear 17 1021 25 10000 3.1 90 06:32 28.06.2020
711 Clear 16 1021 29 10000 3.6 80 05:54 28.06.2020
712 Clear 14 1023 35 10000 5.1 80 04:36 28.06.2020
713 Clear 13 1023 37 10000 4.6 90 03:18 28.06.2020
714 Clear 9 1024 45 10000 4.9 90 02:22 28.06.2020
715 Clear 4 1024 60 10000 0.5 290 01:45 28.06.2020
716 Clear 1 1023 69 10000 2.1 270 00:57 28.06.2020
717 Clear 0 1023 71 10000 2.1 260 00:30 28.06.2020
718 Clear 0 1023 71 10000 2.6 280 23:58 27.06.2020
719 Clear 0 1022 71 10000 2.6 280 23:39 27.06.2020
720 Clear 0 1022 70 10000 2.6 280 23:21 27.06.2020
721 Clear 0 1022 70 10000 2.1 290 22:42 27.06.2020
722 Clear 0 1022 68 10000 2.1 290 22:23 27.06.2020
723 Clear 1 1021 64 10000 2.88 96 21:59 27.06.2020
724 Clear 0 1021 68 10000 2.88 96 21:40 27.06.2020
725 Clear 0 1021 69 10000 2.72 102 21:20 27.06.2020
726 Clear 1 1022 64 10000 2.72 102 20:55 27.06.2020
727 Clear 2 1022 64 10000 2.72 102 20:37 27.06.2020
728 Clear 2 1022 64 10000 2.92 96 20:18 27.06.2020
729 Clear 2 1022 64 10000 2.92 96 19:37 27.06.2020
730 Clear 3 1022 59 10000 3.2 95 19:19 27.06.2020
731 Clear 3 1022 59 10000 3.2 95 19:19 27.06.2020
732 Clear 3 1022 55 10000 3.2 95 18:48 27.06.2020
733 Clear 3 1022 55 10000 3.34 96 18:28 27.06.2020
734 -273 0 0 0 0 0 17:59 27.06.2020
735 Clear 4 1023 55 10000 3.34 96 17:40 27.06.2020
736 Clear 4 1023 55 10000 3.58 98 17:20 27.06.2020
737 Clear 5 1023 56 10000 3.58 98 16:56 27.06.2020
738 Clear 5 1023 56 10000 3.58 98 16:38 27.06.2020
739 Clear 5 1023 56 10000 3.86 98 16:18 27.06.2020
740 Clear 7 1023 52 10000 1.5 70 15:42 27.06.2020
741 Clear 7 1023 52 10000 1.5 70 15:23 27.06.2020
742 Clear 7 1023 45 10000 2.1 110 14:54 27.06.2020
743 Clear 9 1023 45 10000 2.6 60 14:36 27.06.2020
744 Clear 9 1023 45 10000 2.6 60 14:18 27.06.2020
745 Clear 10 1022 43 10000 2.6 130 13:39 27.06.2020
746 Clear 10 1022 39 10000 3.1 130 13:20 27.06.2020
747 Clear 10 1022 39 10000 3.1 130 12:58 27.06.2020
748 Clear 11 1022 40 10000 3.1 140 12:40 27.06.2020
749 Clear 12 1022 34 10000 3.6 140 12:21 27.06.2020
750 Clear 12 1022 34 10000 3.6 140 11:55 27.06.2020
751 Clear 14 1021 33 10000 3.1 150 11:37 27.06.2020
752 Clear 14 1021 33 10000 3.1 150 11:18 27.06.2020
753 Clear 14 1021 33 10000 3.1 150 11:18 27.06.2020
754 Clear 17 1021 27 10000 3.6 120 10:39 27.06.2020
755 Clear 17 1021 27 10000 3.6 120 10:19 27.06.2020
756 Clear 18 1020 27 10000 4.1 130 09:41 27.06.2020
757 Clear 18 1020 27 10000 4.1 130 09:23 27.06.2020
758 Clear 18 1020 27 10000 4.6 120 08:59 27.06.2020
759 Clear 18 1020 27 10000 4.1 120 08:39 27.06.2020
760 Clear 18 1020 27 10000 4.1 120 08:21 27.06.2020
761 Clear 17 1020 29 10000 3.6 130 07:45 27.06.2020
762 Clear 17 1020 29 10000 3.6 130 07:24 27.06.2020
763 Clear 17 1021 29 10000 2.6 110 06:46 27.06.2020
764 Clear 17 1021 29 10000 2.6 110 06:27 27.06.2020
765 Clear 15 1023 33 10000 5.1 80 04:23 27.06.2020
766 Clear 14 1023 33 10000 3.6 90 03:52 27.06.2020
767 Clear 11 1023 37 10000 5.1 94 02:56 27.06.2020
768 Clear 9 1023 39 10000 5.1 94 02:34 27.06.2020
769 Clear 5 1023 48 10000 2.1 290 01:43 27.06.2020
770 Clear 1 1023 59 10000 2.1 280 00:57 27.06.2020
771 Clear 0 1022 49 10000 2.1 300 00:30 27.06.2020
772 Clear 0 1022 75 10000 2.6 300 23:44 26.06.2020
773 Clear 0 1022 76 10000 2.6 300 23:25 26.06.2020
774 Clear 0 1022 76 10000 2.6 320 22:56 26.06.2020
775 Clear 0 1022 76 10000 2.1 310 22:38 26.06.2020
776 Clear 0 1022 75 10000 2.1 310 22:19 26.06.2020
777 Clear 1 1022 64 10000 2.6 310 21:57 26.06.2020
778 Clear 1 1022 59 10000 2.6 310 21:37 26.06.2020
779 Clear 1 1022 59 10000 2.6 310 21:19 26.06.2020
780 Clear 0 1022 74 10000 2.1 270 21:19 26.06.2020
781 Clear 1 1022 64 10000 2.1 270 20:42 26.06.2020
782 Clear 1 1022 64 10000 2.1 270 20:19 26.06.2020
783 Clear 2 1022 55 10000 2.1 260 19:43 26.06.2020
784 Clear 2 1022 55 10000 2.1 260 19:23 26.06.2020
785 Clear 2 1022 59 10000 2.1 260 18:55 26.06.2020
786 Clear 3 1022 55 10000 2.1 270 18:37 26.06.2020
787 Clear 3 1022 55 10000 2.1 260 18:18 26.06.2020
788 Clear 4 1022 48 10000 2.1 250 17:43 26.06.2020
789 Clear 4 1022 48 10000 2.1 250 17:24 26.06.2020
790 Clear 3 1022 47 10000 2.1 250 16:48 26.06.2020
791 Clear 4 1022 44 10000 2.58 99 16:25 26.06.2020
792 Clear 6 1022 48 10000 2.58 99 15:55 26.06.2020
793 Clear 6 1022 48 10000 2.58 99 15:37 26.06.2020
794 Clear 6 1022 48 10000 2.92 101 15:18 26.06.2020
795 Clear 7 1022 45 10000 2.92 101 14:41 26.06.2020
796 Clear 7 1022 45 10000 3.25 108 14:22 26.06.2020
797 Clear 9 1022 39 10000 1.5 100 13:59 26.06.2020
798 Clear 9 1022 39 10000 2.6 120 13:41 26.06.2020
799 Clear 10 1022 37 10000 3.1 130 13:18 26.06.2020
800 Clear 11 1021 32 10000 3.1 130 12:41 26.06.2020
801 Clear 12 1021 30 10000 3.6 130 12:23 26.06.2020
802 Clear 12 1021 30 10000 3.6 130 11:59 26.06.2020
803 Clear 14 1021 28 10000 4.1 120 11:39 26.06.2020
804 Clear 14 1021 28 10000 4.1 120 11:21 26.06.2020
805 Clear 15 1020 26 10000 3.6 130 10:58 26.06.2020
806 Clear 17 1020 25 10000 4.6 120 10:38 26.06.2020
807 Clear 17 1020 25 10000 4.6 120 10:19 26.06.2020
808 Clear 18 1019 25 10000 4.1 100 09:44 26.06.2020
809 Clear 18 1019 25 10000 4.1 100 09:25 26.06.2020
810 Clear 18 1019 23 10000 3.6 90 08:56 26.06.2020
811 Clear 18 1019 23 10000 4.6 80 08:29 26.06.2020
812 Clear 18 1019 25 10000 4.1 120 07:53 26.06.2020
813 Clear 17 1020 29 10000 4.1 100 07:25 26.06.2020
814 Clear 17 1020 29 10000 5.7 110 06:59 26.06.2020
815 Clear 16 1020 31 10000 5.1 70 06:41 26.06.2020
816 Clear 17 1021 29 10000 5.7 100 06:18 26.06.2020
817 Clear 16 1022 29 10000 6.2 100 05:41 26.06.2020
818 Clear 12 1024 50 10000 6.2 80 03:52 26.06.2020
819 Clear 10 1024 53 10000 4.1 80 02:22 26.06.2020
820 Clear 2 1023 69 10000 1.5 310 01:19 26.06.2020
821 Clear 1 1023 74 10000 2.69 105 00:40 26.06.2020
822 Clear 0 1022 77 10000 2.44 96 00:19 26.06.2020
823 Clear 0 1022 77 10000 2.1 240 23:41 25.06.2020
824 Clear 0 1022 75 10000 2.1 240 23:18 25.06.2020
825 Clear 0 1022 75 10000 2.1 300 22:56 25.06.2020
826 Clear 0 1021 75 10000 1 310 22:36 25.06.2020
827 Clear 0 1021 75 10000 1 310 22:36 25.06.2020
828 Clear 0 1021 73 10000 1 310 22:18 25.06.2020
829 Clear 1 1022 64 10000 2.71 93 21:54 25.06.2020
830 Clear 0 1022 73 10000 2.79 95 21:36 25.06.2020
831 Clear 0 1022 72 10000 2.76 97 21:18 25.06.2020
832 Clear 2 1022 64 10000 2.76 97 20:44 25.06.2020
833 Clear 2 1022 64 10000 2.85 105 20:23 25.06.2020
834 Clear 2 1022 64 10000 1.5 340 19:57 25.06.2020
835 Clear 3 1022 59 10000 1.5 310 19:38 25.06.2020
836 Clear 2 1022 64 10000 2.72 109 19:18 25.06.2020
837 Clear 3 1022 59 10000 2.72 109 18:55 25.06.2020
838 Clear 3 1022 59 10000 2.72 109 18:36 25.06.2020
839 Clear 3 1022 59 10000 2.72 109 18:36 25.06.2020
840 Clear 3 1022 59 10000 2.93 107 18:18 25.06.2020
841 Clear 4 1022 60 10000 2.93 107 17:39 25.06.2020
842 Clear 4 1022 60 10000 3.22 107 17:19 25.06.2020
843 Clear 6 1023 52 10000 1.5 160 16:41 25.06.2020
844 Clear 6 1023 52 10000 1.5 160 16:21 25.06.2020
845 Clear 7 1023 52 10000 2.1 180 15:45 25.06.2020
846 Clear 7 1023 48 10000 2.6 180 15:27 25.06.2020
847 Clear 8 1023 49 10000 2.6 170 14:58 25.06.2020
848 Clear 11 1022 40 10000 3.1 110 14:40 25.06.2020
849 Clouds 11 1022 40 10000 3.1 110 14:22 25.06.2020
850 Clouds 10 1022 43 10000 3.6 110 13:56 25.06.2020
851 Clouds 11 1022 40 10000 3.6 110 13:37 25.06.2020
852 Clouds 11 1022 40 10000 3.6 110 13:19 25.06.2020
853 Clouds 12 1022 37 10000 3.6 140 12:44 25.06.2020
854 Clouds 13 1022 32 10000 3.6 130 12:20 25.06.2020
855 Clouds 14 1022 30 10000 3.6 130 11:44 25.06.2020
856 Clouds 14 1022 30 10000 3.6 130 11:25 25.06.2020
857 Clouds 15 1021 30 10000 5.1 120 10:58 25.06.2020
858 Clouds 17 1021 27 10000 5.7 120 10:40 25.06.2020
859 Clouds 17 1021 27 10000 5.7 120 10:21 25.06.2020
860 Clouds 18 1021 25 10000 6.2 140 09:41 25.06.2020
861 Clear 18 1021 25 10000 6.2 140 09:23 25.06.2020
862 Clear 18 1021 25 10000 6.7 110 08:47 25.06.2020
863 Clear 18 1021 25 10000 6.7 110 08:20 25.06.2020
864 Clear 18 1021 25 10000 6.7 110 07:46 25.06.2020
865 Clear 18 1021 23 10000 5.7 110 07:28 25.06.2020
866 Clear 18 1022 25 10000 6.7 110 06:53 25.06.2020
867 Clear 18 1022 25 10000 8.7 110 06:27 25.06.2020
868 Clear 18 1022 25 10000 8.7 110 05:51 25.06.2020
869 Clear 15 1024 33 10000 4.1 110 04:29 25.06.2020
870 Clear 14 1024 31 10000 2.6 80 03:35 25.06.2020
871 Clear 10 1024 46 10000 4.9 117 02:43 25.06.2020
872 Clear 8 1023 52 10000 2.76 109 01:59 25.06.2020
873 Clear 5 1023 56 10000 1.5 290 01:26 25.06.2020
874 Clear 1 1022 69 10000 2.6 280 00:44 25.06.2020
875 Clear 0 1022 75 10000 2.6 280 00:21 25.06.2020
876 Clear 1 1021 69 10000 2.6 270 23:44 24.06.2020
877 Clear 1 1021 69 10000 2.6 270 23:26 24.06.2020
878 Clear 1 1021 69 10000 2.1 290 22:59 24.06.2020
879 Clear 2 1021 64 10000 2.6 320 22:41 24.06.2020
880 Clear 2 1021 64 10000 2.6 320 22:20 24.06.2020
881 Clear 1 1021 69 10000 2.1 300 21:56 24.06.2020
882 Clear 1 1021 64 10000 2.6 280 21:37 24.06.2020
883 Clear 1 1021 64 10000 2.6 280 21:18 24.06.2020
884 Clear 1 1021 64 10000 2.1 290 20:58 24.06.2020
885 Clear 1 1021 59 10000 2.1 310 20:39 24.06.2020
886 Clear 1 1021 59 10000 2.1 310 20:20 24.06.2020
887 Clear 2 1021 55 10000 1 320 19:57 24.06.2020
888 Clear 3 1021 59 10000 2.1 300 19:37 24.06.2020
889 Clear 3 1021 59 10000 2.6 320 19:18 24.06.2020
890 Clear 3 1021 59 10000 2.6 320 18:57 24.06.2020
891 Clear 3 1021 59 10000 0.5 230 18:38 24.06.2020
892 Clear 4 1021 55 10000 2.1 240 18:20 24.06.2020
893 Clear 4 1021 55 10000 1.94 69 17:43 24.06.2020
894 Clear 4 1021 55 10000 1.99 74 17:21 24.06.2020
895 Clear 5 1021 48 10000 1.99 74 16:59 24.06.2020
896 Clear 5 1021 48 10000 1.5 360 16:40 24.06.2020
897 Clear 6 1021 48 10000 2.51 83 16:22 24.06.2020
898 Clear 6 1021 48 10000 2.51 83 15:58 24.06.2020
899 Clear 6 1021 48 10000 2.51 83 15:39 24.06.2020
900 Clear 7 1021 45 10000 3.03 98 15:20 24.06.2020
901 Clear 7 1021 45 10000 3.03 98 14:54 24.06.2020
902 Clear 8 1021 42 10000 1.5 80 14:36 24.06.2020
903 Clear 8 1021 42 10000 1.5 80 14:18 24.06.2020
904 Clear 10 1021 39 10000 2.6 160 13:41 24.06.2020
905 Clear 11 1020 37 10000 2.6 130 13:20 24.06.2020
906 Clear 12 1020 32 10000 2.6 130 12:41 24.06.2020
907 Clear 13 1020 32 10000 3.1 150 12:21 24.06.2020
908 Clear 13 1020 32 10000 3.1 150 11:57 24.06.2020
909 Clear 15 1020 28 10000 3.1 160 11:39 24.06.2020
910 Clear 15 1020 28 10000 3.1 160 11:21 24.06.2020
911 Clear 18 1019 25 10000 3.1 160 10:44 24.06.2020
912 Clear 18 1019 25 10000 3.1 160 10:19 24.06.2020
913 Clear 19 1019 24 10000 3.6 160 09:45 24.06.2020
914 Clear 19 1019 24 10000 3.6 160 09:23 24.06.2020
915 Clear 19 1019 25 10000 3.1 160 08:54 24.06.2020
916 Clear 19 1019 25 10000 1.5 200 08:36 24.06.2020
917 Clear 19 1019 25 10000 2.6 140 08:18 24.06.2020
918 Clear 18 1019 27 10000 2.6 120 07:42 24.06.2020
919 Clear 17 1020 29 10000 2.6 130 07:23 24.06.2020
920 Clear 17 1020 29 10000 2.1 170 06:40 24.06.2020
921 Clear 16 1021 31 10000 3.1 150 06:22 24.06.2020
922 Clear 16 1021 28 10000 2.1 230 05:38 24.06.2020
923 Clear 15 1022 30 10000 1.5 270 04:38 24.06.2020
924 Clear 14 1022 41 10000 2.6 20 03:37 24.06.2020
925 Clear 13 1023 43 10000 1.5 340 02:53 24.06.2020
926 Clear 8 1022 45 10000 1.15 43 01:59 24.06.2020
927 Clear 1 1022 74 10000 2.1 290 00:51 24.06.2020
928 Clear 1 1022 74 10000 2.1 290 00:33 24.06.2020
929 Clear 1 1021 74 10000 2.1 320 23:47 23.06.2020
930 Clear 1 1021 74 10000 2.1 320 23:21 23.06.2020
931 Clear 1 1021 74 10000 2.6 330 22:57 23.06.2020
932 Clear 1 1021 74 10000 2.6 300 22:39 23.06.2020
933 Clear 1 1021 74 10000 2.1 260 22:18 23.06.2020
934 Clear 1 1021 74 10000 2.1 260 22:18 23.06.2020
935 Clear 1 1021 74 10000 2.1 290 21:42 23.06.2020
936 Clear 1 1021 74 10000 2.1 290 21:20 23.06.2020
937 Clear 1 1021 69 10000 2.1 280 20:56 23.06.2020
938 Clear 2 1021 69 10000 1.5 300 20:38 23.06.2020
939 Clear 2 1021 69 10000 1.5 300 20:19 23.06.2020
940 Clear 3 1021 64 10000 2.6 290 19:49 23.06.2020
941 Clear 3 1021 64 10000 2.1 260 19:28 23.06.2020
942 Clear 3 1021 59 10000 2.1 240 18:55 23.06.2020
943 Clear 3 1021 59 10000 2.1 240 18:37 23.06.2020
944 Clear 4 1021 60 10000 1.5 250 18:18 23.06.2020
945 Clear 4 1021 60 10000 2.11 88 17:39 23.06.2020
946 Clear 4 1021 60 10000 2.13 99 17:21 23.06.2020
947 Clear 4 1021 64 10000 2.13 99 16:56 23.06.2020
948 Clear 5 1022 60 10000 1.5 130 16:38 23.06.2020
949 Clear 5 1022 60 10000 1.5 130 16:38 23.06.2020
950 Clear 5 1022 60 10000 1.5 130 16:20 23.06.2020
951 Clear 6 1022 52 10000 2.42 96 15:45 23.06.2020
952 Clear 6 1022 52 10000 3.07 88 15:25 23.06.2020
953 Clear 9 1022 60 10000 3.07 88 14:59 23.06.2020
954 Clear 8 1022 49 10000 0.5 90 14:41 23.06.2020
955 Clear 9 1022 49 10000 2.6 110 14:18 23.06.2020
956 Clear 10 1022 46 10000 2.6 110 13:55 23.06.2020
957 Clear 10 1022 46 10000 2.6 110 13:37 23.06.2020
958 Clear 10 1021 43 10000 2.6 120 13:19 23.06.2020
959 Clear 12 1021 37 10000 2.6 70 12:41 23.06.2020
960 Clear 13 1020 35 10000 2.6 60 12:22 23.06.2020
961 Clear 13 1020 35 10000 2.6 60 11:54 23.06.2020
962 Clear 13 1020 35 10000 2.6 60 11:54 23.06.2020
963 Clear 13 1020 35 10000 2.6 70 11:36 23.06.2020
964 Clear 15 1020 30 10000 2.6 80 11:18 23.06.2020
965 Clear 16 1020 29 10000 2.6 90 10:41 23.06.2020
966 Clear 16 1020 29 10000 2.6 90 10:22 23.06.2020
967 Clear 17 1019 29 10000 2.6 50 09:59 23.06.2020
968 Clear 17 1019 37 10000 3.1 110 09:41 23.06.2020
969 Clear 17 1019 30 10000 3.1 110 09:20 23.06.2020
970 Clear 17 1020 29 10000 2.6 100 08:47 23.06.2020
971 Clear 17 1020 29 10000 2.6 100 08:28 23.06.2020
972 Clear 16 1020 31 10000 2.1 90 07:58 23.06.2020
973 Clear 17 1020 30 10000 2.1 70 07:38 23.06.2020
974 Clear 17 1020 30 10000 2.1 70 07:38 23.06.2020
975 Clear 16 1020 31 10000 3.1 100 07:19 23.06.2020
976 Clear 16 1020 31 10000 3.1 100 07:19 23.06.2020
977 Clear 16 1021 36 10000 4.1 90 06:43 23.06.2020
978 Clear 16 1021 36 10000 4.1 90 06:25 23.06.2020
979 Clear 15 1022 44 10000 2.1 130 05:29 23.06.2020
980 Clear 13 1024 50 10000 3.6 110 03:23 23.06.2020
981 Clear 11 1024 57 10000 2.6 110 02:53 23.06.2020
982 Clear 10 1024 57 10000 1.5 190 02:34 23.06.2020
983 Clear 5 1022 54 10000 2.1 270 01:46 23.06.2020
984 Clear 5 1022 61 10000 2.1 270 01:25 23.06.2020
985 Clear 1 1022 80 10000 2.1 290 00:49 23.06.2020
986 Clear 1 1022 80 10000 1.5 300 00:21 23.06.2020
987 Clear 1 1022 80 10000 1.5 300 23:55 22.06.2020
988 Clear 0 1022 80 10000 2.1 300 23:36 22.06.2020
989 Clear 0 1022 79 10000 2.1 300 23:18 22.06.2020
990 Clear 2 1022 80 10000 2.1 300 22:54 22.06.2020
991 Clear 1 1022 80 10000 2.1 280 22:36 22.06.2020
992 Clear 1 1021 80 10000 2.6 310 22:18 22.06.2020
993 Clear 1 1021 74 10000 1.94 119 21:41 22.06.2020
994 Clear 1 1021 74 10000 2.24 118 21:22 22.06.2020
995 Clear 1 1021 74 10000 2.24 118 20:59 22.06.2020
996 Clear 1 1021 74 10000 2.24 118 20:59 22.06.2020
997 Clear 3 1021 74 10000 2.24 118 20:40 22.06.2020
998 Clear 3 1021 74 10000 2.27 115 20:20 22.06.2020
999 Clear 3 1022 69 10000 2.6 310 19:44 22.06.2020
1000 Clear 3 1022 69 10000 2.6 310 19:19 22.06.2020
1001 Clear 4 1022 69 10000 2.04 107 18:57 22.06.2020
1002 Clear 4 1022 69 10000 2.04 107 18:37 22.06.2020
1003 Clear 4 1022 64 10000 2.6 180 18:19 22.06.2020
1004 Clear 4 1022 64 10000 2.6 180 17:55 22.06.2020
1005 Clear 5 1022 65 10000 1 210 17:37 22.06.2020
1006 Clear 6 1022 60 10000 2.52 112 17:18 22.06.2020
1007 Clear 5 1023 60 10000 0.5 350 16:43 22.06.2020
1008 Clear 6 1023 60 10000 2.62 112 16:19 22.06.2020
1009 Clear 6 1023 60 10000 2.62 112 15:57 22.06.2020
1010 Clear 6 1023 72 10000 1.5 110 15:39 22.06.2020
1011 Clear 6 1023 68 10000 1.5 110 15:21 22.06.2020
1012 Clear 8 1023 68 10000 2.6 140 14:39 22.06.2020
1013 Clear 8 1023 65 10000 2.6 140 14:20 22.06.2020
1014 Clear 9 1023 57 10000 2.6 130 13:57 22.06.2020
1015 Clear 10 1023 65 10000 2.6 130 13:38 22.06.2020
1016 Clear 10 1023 59 10000 2.6 130 13:20 22.06.2020
1017 Clear 11 1022 50 10000 3.1 140 12:43 22.06.2020
1018 Clear 11 1022 50 10000 3.1 140 12:23 22.06.2020
1019 Clear 13 1022 43 10000 3.1 140 11:58 22.06.2020
1020 Clear 14 1021 41 10000 3.1 140 11:37 22.06.2020
1021 Clear 15 1021 38 10000 3.6 130 11:18 22.06.2020
1022 Clear 15 1021 38 10000 3.6 130 10:54 22.06.2020
1023 Clear 15 1021 38 10000 3.6 130 10:54 22.06.2020
1024 Clear 16 1021 36 10000 4.6 110 10:36 22.06.2020
1025 Clear 16 1021 36 10000 4.6 110 10:36 22.06.2020
1026 Clear 17 1021 33 10000 4.6 110 10:18 22.06.2020
1027 Clear 17 1021 36 10000 4.1 140 09:41 22.06.2020
1028 Clear 17 1021 36 10000 4.1 140 09:20 22.06.2020
1029 Clear 17 1021 33 10000 4.1 120 08:59 22.06.2020
1030 Clear 17 1021 33 10000 5.1 110 08:39 22.06.2020
1031 Clear 17 1021 33 10000 5.1 110 08:39 22.06.2020
1032 Clear 17 1021 33 10000 5.1 110 08:39 22.06.2020
1033 Clear 17 1021 33 10000 5.1 110 08:20 22.06.2020
1034 Clear 16 1021 36 10000 3.6 110 07:52 22.06.2020
1035 Clear 16 1021 36 10000 4.1 110 07:33 22.06.2020
1036 Clear 15 1021 38 10000 3.6 150 06:45 22.06.2020
1037 Clear 15 1021 38 10000 3.6 150 06:26 22.06.2020
1038 Clear 15 1022 41 10000 5.1 110 05:58 22.06.2020
1039 Clear 14 1023 47 10000 5.1 130 04:59 22.06.2020
1040 Clear 12 1024 54 10000 5.1 110 02:54 22.06.2020
1041 Clear 6 1023 52 10000 1 290 01:25 22.06.2020
1042 Clear 1 1023 69 10000 2.6 280 00:41 22.06.2020
1043 Clear 1 1022 69 10000 2.1 300 23:59 21.06.2020
1044 Clear 2 1022 64 10000 3.1 260 23:39 21.06.2020
1045 Clear 2 1022 64 10000 3.1 260 23:21 21.06.2020
1046 Clear 2 1022 64 10000 2.6 270 22:57 21.06.2020
1047 Clear 2 1022 64 10000 3.1 270 22:37 21.06.2020
1048 Clear 2 1022 64 10000 2.6 270 22:19 21.06.2020
1049 Clear 2 1022 64 10000 2.6 270 21:57 21.06.2020
1050 Clear 2 1022 64 10000 2.6 270 21:39 21.06.2020
1051 Clear 2 1022 64 10000 2.6 270 21:20 21.06.2020
1052 Clear 2 1022 64 10000 2.6 290 20:57 21.06.2020
1053 Clear 2 1022 59 10000 2.6 300 20:37 21.06.2020
1054 Clear 3 1022 59 10000 0.5 340 20:18 21.06.2020
1055 Clear 3 1022 59 10000 0.5 340 19:55 21.06.2020
1056 Clear 3 1022 59 10000 1 230 19:37 21.06.2020
1057 Clear 4 1022 55 10000 2.1 160 19:18 21.06.2020
1058 Clear 5 1022 52 10000 1.5 190 18:40 21.06.2020
1059 Clear 5 1022 52 10000 1.5 190 18:22 21.06.2020
1060 Clear 5 1022 56 10000 2.6 180 17:58 21.06.2020
1061 Clear 4 1022 55 10000 2.1 190 17:38 21.06.2020
1062 Clear 4 1022 51 10000 1.5 200 17:19 21.06.2020
1063 Clear 5 1022 48 10000 1.5 190 16:41 21.06.2020
1064 Clear 5 1022 48 10000 1.5 190 16:23 21.06.2020
1065 Clear 5 1022 48 10000 2.61 142 15:57 21.06.2020
1066 Clear 6 1022 52 10000 2.61 142 15:37 21.06.2020
1067 Clear 7 1022 48 10000 0.5 140 15:18 21.06.2020
1068 Clear 8 1022 45 10000 2.1 160 14:39 21.06.2020
1069 Clear 9 1022 42 10000 2.1 150 14:20 21.06.2020
1070 Clear 9 1022 42 10000 2.1 150 13:56 21.06.2020
1071 Clear 9 1022 39 10000 2.6 160 13:38 21.06.2020
1072 Clear 11 1022 37 10000 3.1 170 13:19 21.06.2020
1073 Clear 11 1022 34 10000 2.6 170 12:44 21.06.2020
1074 Clear 11 1022 34 10000 2.6 170 12:25 21.06.2020
1075 Clear 11 1022 34 10000 2.6 170 12:25 21.06.2020
1076 Clear 11 1022 34 10000 2.6 170 12:25 21.06.2020
1077 Clear 12 1021 34 10000 2.6 180 11:58 21.06.2020
1078 Clear 13 1021 32 10000 3.1 160 11:39 21.06.2020
1079 Clear 15 1020 28 10000 3.6 170 11:21 21.06.2020
1080 Clear 15 1020 28 10000 3.6 170 10:55 21.06.2020
1081 Clear 16 1020 26 10000 4.1 160 10:36 21.06.2020
1082 Clear 17 1020 27 10000 2.6 170 10:18 21.06.2020
1083 Clear 17 1020 25 10000 4.1 170 09:41 21.06.2020
1084 Clear 17 1020 27 10000 4.1 150 09:19 21.06.2020
1085 Clear 17 1020 27 10000 4.1 150 08:56 21.06.2020
1086 Clear 17 1020 29 10000 4.6 180 08:37 21.06.2020
1087 Clear 17 1021 29 10000 3.6 180 08:19 21.06.2020
1088 Clear 17 1021 29 10000 2.6 180 07:41 21.06.2020
1089 Clear 17 1021 29 10000 2.6 180 07:22 21.06.2020
1090 Clear 17 1022 30 10000 3.6 180 06:49 21.06.2020
1091 Clear 16 1022 31 10000 2.6 170 05:59 21.06.2020
1092 Clear 15 1023 33 10000 3.6 150 05:31 21.06.2020
1093 Clear 14 1024 33 10000 5.1 110 03:40 21.06.2020
1094 Clear 13 1024 35 10000 3.1 150 03:18 21.06.2020
1095 Clear 10 1024 43 10000 2.1 250 02:19 21.06.2020
1096 Clear 9 1024 53 10000 2.6 250 01:24 21.06.2020
1097 Clear 6 1024 56 10000 2.6 260 00:56 21.06.2020
1098 Clear 4 1023 69 10000 1.5 260 00:38 21.06.2020
1099 Clear 4 1023 64 10000 2.1 270 00:19 21.06.2020
1100 Clear 5 1023 65 10000 2.1 280 23:44 20.06.2020
1101 Clear 5 1023 65 10000 2.1 280 23:22 20.06.2020
1102 Clear 3 1022 69 10000 2.1 260 22:56 20.06.2020
1103 Clear 4 1022 64 10000 2.6 260 22:37 20.06.2020
1104 Clear 5 1022 60 10000 2.6 250 22:18 20.06.2020
1105 Clear 5 1022 60 10000 2.6 250 21:56 20.06.2020
1106 Clear 5 1022 60 10000 2.6 290 21:38 20.06.2020
1107 Clear 5 1022 60 10000 2.6 300 21:19 20.06.2020
1108 Clear 6 1022 60 10000 2.6 280 20:56 20.06.2020
1109 Clear 6 1022 60 10000 2.6 280 20:38 20.06.2020
1110 Clear 6 1022 56 10000 2.1 260 20:19 20.06.2020
1111 Clear 6 1022 56 10000 2.1 260 20:19 20.06.2020
1112 Clear 6 1022 56 10000 2.1 250 19:43 20.06.2020
1113 Clear 6 1022 56 10000 2.1 250 19:22 20.06.2020
1114 Clear 6 1022 56 10000 2.1 250 19:22 20.06.2020
1115 Clear 7 1023 56 10000 2.1 270 18:54 20.06.2020
1116 Clear 6 1023 56 10000 2.1 280 18:36 20.06.2020
1117 Clear 7 1023 56 10000 2.83 145 18:18 20.06.2020
1118 Clear 7 1023 56 10000 2.83 145 17:54 20.06.2020
1119 Clear 9 1023 58 10000 2.83 145 17:36 20.06.2020
1120 Clear 8 1023 52 10000 2.54 136 17:18 20.06.2020
1121 Clear 8 1023 52 10000 2.54 136 16:39 20.06.2020
1122 Clear 8 1023 49 10000 2.62 132 16:18 20.06.2020
1123 Clear 8 1023 49 10000 2.62 132 16:18 20.06.2020
1124 Clear 9 1023 49 10000 2.62 132 15:42 20.06.2020
1125 Clear 10 1023 46 10000 2.77 134 15:18 20.06.2020
1126 Clear 10 1023 46 10000 2.77 134 14:56 20.06.2020
1127 Clear 11 1023 54 10000 2.1 190 14:38 20.06.2020
1128 Clear 12 1023 40 10000 3.1 170 14:18 20.06.2020
1129 Clear 13 1023 51 10000 3.1 180 13:41 20.06.2020
1130 Clear 13 1023 37 10000 3.1 170 13:19 20.06.2020
1131 Clear 14 1022 48 10000 3.1 160 12:43 20.06.2020
1132 Clear 14 1022 45 10000 3.1 160 12:22 20.06.2020
1133 Clear 15 1022 33 10000 3.1 150 11:58 20.06.2020
1134 Clear 17 1022 45 10000 3.1 140 11:38 20.06.2020
1135 Clear 17 1022 42 10000 3.1 140 11:20 20.06.2020
1136 Clear 18 1022 42 10000 3.1 140 10:55 20.06.2020
1137 Clear 19 1021 42 10000 4.1 150 10:37 20.06.2020
1138 Clear 20 1021 28 10000 3.6 130 10:18 20.06.2020
1139 Clear 20 1021 28 10000 3.1 140 09:40 20.06.2020
1140 Clear 20 1021 28 10000 3.1 140 09:22 20.06.2020
1141 Clear 20 1021 28 10000 3.6 130 08:56 20.06.2020
1142 Clear 20 1021 28 10000 4.1 150 08:37 20.06.2020
1143 Clear 20 1022 28 10000 4.1 160 08:18 20.06.2020
1144 Clear 20 1022 28 10000 4.1 100 07:44 20.06.2020
1145 Clear 20 1022 28 10000 4.1 100 07:25 20.06.2020
1146 Clear 19 1023 34 10000 4.6 110 06:24 20.06.2020
1147 Clear 18 1023 31 10000 3.6 140 05:55 20.06.2020
1148 Clear 19 1024 29 10000 4.6 130 05:30 20.06.2020
1149 Clear 16 1025 38 10000 4.6 130 02:56 20.06.2020
1150 Clear 12 1024 54 10000 3.1 210 01:50 20.06.2020
1151 Clear 12 1024 54 10000 3.1 210 01:27 20.06.2020
1152 Clear 9 1024 61 10000 3.6 250 00:22 20.06.2020
1153 Clear 10 1023 57 10000 3.6 260 23:58 19.06.2020
1154 Clear 9 1023 57 10000 3.6 270 23:39 19.06.2020
1155 Clear 10 1022 53 10000 3.1 280 23:18 19.06.2020
1156 Clear 10 1022 53 10000 3.1 280 23:18 19.06.2020
1157 Clear 10 1022 53 10000 3.1 270 22:42 19.06.2020
1158 Clear 10 1022 53 10000 3.1 270 22:23 19.06.2020
1159 Clear 10 1022 55 10000 3.1 300 21:59 19.06.2020
1160 Clear 9 1022 49 10000 3.1 280 21:39 19.06.2020
1161 Clear 10 1022 46 10000 3.1 250 21:18 19.06.2020
1162 Clear 10 1022 46 10000 3.1 250 20:59 19.06.2020
1163 Clear 10 1022 54 10000 3.1 310 20:40 19.06.2020
1164 Clear 10 1022 65 10000 3.1 310 20:21 19.06.2020
1165 Clear 10 1022 65 10000 3.1 310 20:21 19.06.2020
1166 Clear 10 1022 46 10000 2.1 270 19:57 19.06.2020
1167 Clear 10 1022 46 10000 2.6 290 19:39 19.06.2020
1168 Clear 10 1022 43 10000 2.6 290 19:21 19.06.2020
1169 Clear 10 1022 43 10000 2.6 290 18:55 19.06.2020
1170 Clear 11 1022 43 10000 2.6 320 18:37 19.06.2020
1171 Clear 11 1022 43 10000 2.6 320 18:37 19.06.2020
1172 Clear 12 1022 40 10000 2.6 320 18:19 19.06.2020
1173 Clear 11 1023 40 10000 2.6 290 17:40 19.06.2020
1174 Clear 11 1023 40 10000 2.6 290 17:22 19.06.2020
1175 Clear 13 1023 37 10000 2.1 290 16:56 19.06.2020
1176 Clear 12 1023 37 10000 0.95 138 16:37 19.06.2020
1177 Clear 16 1023 55 10000 1.24 101 16:19 19.06.2020
1178 Clear 14 1023 35 10000 2.1 200 15:43 19.06.2020
1179 Clear 14 1023 35 10000 2.1 200 15:24 19.06.2020
1180 Clear 16 1023 36 10000 2.1 330 14:56 19.06.2020
1181 Clear 15 1023 49 10000 2.1 250 14:38 19.06.2020
1182 Clear 15 1023 42 10000 2.1 250 14:19 19.06.2020
1183 Clear 16 1022 42 10000 1 170 13:45 19.06.2020
1184 Clear 16 1022 37 10000 1 170 13:26 19.06.2020
1185 Clear 19 1022 29 10000 3.1 170 12:49 19.06.2020
1186 Clear 19 1022 29 10000 3.1 170 12:24 19.06.2020
1187 Clear 21 1021 28 10000 3.1 170 11:59 19.06.2020
1188 Clear 21 1021 28 10000 3.1 170 11:40 19.06.2020
1189 Clear 23 1021 25 10000 3.1 160 11:19 19.06.2020
1190 Clear 23 1021 25 10000 3.1 160 10:55 19.06.2020
1191 Clear 23 1021 25 10000 3.1 160 10:55 19.06.2020
1192 Clear 25 1021 22 10000 3.1 180 10:37 19.06.2020
1193 Clear 25 1020 23 10000 3.6 200 10:18 19.06.2020
1194 Clear 26 1020 24 10000 3.1 180 09:41 19.06.2020
1195 Clear 26 1020 24 10000 3.1 180 09:21 19.06.2020
1196 Clear 26 1020 22 10000 4.6 190 08:45 19.06.2020
1197 Clear 26 1020 22 10000 4.6 190 08:27 19.06.2020
1198 Clear 27 1020 22 10000 4.1 210 07:57 19.06.2020
1199 Clear 26 1020 24 10000 4.1 210 07:39 19.06.2020
1200 Clear 26 1020 24 10000 4.1 210 07:39 19.06.2020
1201 Clear 26 1020 24 10000 4.1 210 07:20 19.06.2020
1202 Clear 26 1021 24 10000 2.6 230 06:28 19.06.2020
1203 Clear 26 1021 26 10000 2.1 250 05:50 19.06.2020
1204 Clear 24 1023 33 10000 1.5 10 04:27 19.06.2020
1205 Clear 16 1023 44 10000 1.69 14 02:52 19.06.2020
1206 Clear 10 1023 49 10000 2.1 290 00:59 19.06.2020
1207 Clear 9 1023 56 10000 2.1 290 00:40 19.06.2020
1208 Clear 9 1023 56 10000 2.1 290 00:21 19.06.2020
1209 Clear 9 1022 56 10000 2.1 260 23:41 18.06.2020
1210 Clear 9 1022 56 10000 2.1 260 23:23 18.06.2020
1211 Clear 9 1022 52 10000 2.1 270 22:59 18.06.2020
1212 Clear 10 1022 52 10000 1.5 290 22:39 18.06.2020
1213 Clear 10 1022 49 10000 2.1 310 22:18 18.06.2020
1214 Clear 10 1022 49 10000 2.6 270 21:39 18.06.2020
1215 Clear 10 1022 49 10000 2.6 270 21:20 18.06.2020
1216 Clear 10 1022 49 10000 2.6 270 20:57 18.06.2020
1217 Clear 10 1022 49 10000 2.6 280 20:38 18.06.2020
1218 Clear 10 1022 45 10000 2.6 280 20:19 18.06.2020
1219 Clear 10 1022 49 10000 2.1 280 19:42 18.06.2020
1220 Clear 10 1022 49 10000 2.6 300 19:22 18.06.2020
1221 Clear 10 1022 49 10000 2.6 300 18:57 18.06.2020
1222 Clear 10 1023 49 10000 2.6 290 18:37 18.06.2020
1223 Clear 10 1023 49 10000 2.6 290 18:37 18.06.2020
1224 Clear 10 1023 45 10000 1.5 230 18:19 18.06.2020
1225 Clear 10 1022 45 10000 1 200 17:45 18.06.2020
1226 Clear 10 1022 45 10000 1 200 17:25 18.06.2020
1227 Clear 11 1023 39 10000 2.1 230 16:56 18.06.2020
1228 Clear 11 1022 43 10000 1.5 330 16:37 18.06.2020
1229 Clear 11 1023 43 10000 2.15 64 16:18 18.06.2020
1230 Clear 11 1023 43 10000 2.15 64 15:55 18.06.2020
1231 Clear 12 1023 40 10000 2.15 64 15:37 18.06.2020
1232 Clear 12 1023 37 10000 2.1 140 15:18 18.06.2020
1233 Clear 12 1023 37 10000 0.5 130 14:41 18.06.2020
1234 Clear 12 1023 37 10000 0.5 130 14:23 18.06.2020
1235 Clear 12 1022 37 10000 2.1 100 13:58 18.06.2020
1236 Clear 13 1022 33 10000 2.6 110 13:40 18.06.2020
1237 Clear 13 1022 33 10000 2.6 110 13:40 18.06.2020
1238 Clear 13 1022 42 10000 2.1 110 13:20 18.06.2020
1239 Clear 13 1022 42 10000 2.1 110 12:55 18.06.2020
1240 Clear 18 1022 42 10000 2.6 90 12:37 18.06.2020
1241 Clear 19 1021 40 10000 2.6 90 12:19 18.06.2020
1242 Clear 20 1021 40 10000 3.1 100 11:46 18.06.2020
1243 Clear 20 1021 34 10000 3.1 100 11:21 18.06.2020
1244 Clear 23 1021 34 10000 4.1 110 10:41 18.06.2020
1245 Clear 23 1021 26 10000 4.1 110 10:20 18.06.2020
1246 Clear 24 1021 26 10000 4.1 110 09:58 18.06.2020
1247 Clear 24 1021 22 10000 4.1 130 09:39 18.06.2020
1248 Clear 24 1021 22 10000 4.1 130 09:39 18.06.2020
1249 Clear 24 1021 22 10000 4.1 130 09:21 18.06.2020
1250 Clear 24 1021 22 10000 3.1 90 08:40 18.06.2020
1251 Clear 24 1021 22 10000 3.1 90 08:22 18.06.2020
1252 Clear 24 1021 22 10000 3.6 50 07:47 18.06.2020
1253 Clear 24 1021 22 10000 3.6 50 07:27 18.06.2020
1254 Clear 23 1022 20 10000 3.6 140 06:59 18.06.2020
1255 Clear 23 1022 22 10000 3.1 80 06:20 18.06.2020
1256 Clear 18 1025 25 10000 2.6 80 04:25 18.06.2020
1257 Clear 11 1026 37 10000 0.5 260 02:51 18.06.2020
1258 Clear 7 1026 45 10000 1.5 300 01:30 18.06.2020
1259 Clear 3 1026 51 10000 2.1 290 00:57 18.06.2020
1260 Clear 1 1025 55 10000 1.5 270 00:38 18.06.2020
1261 Clear 1 1025 55 10000 1.5 270 00:20 18.06.2020
1262 Clear 1 1025 55 10000 2.1 310 23:43 17.06.2020
1263 Clear 1 1025 55 10000 2.1 310 23:21 17.06.2020
1264 Clear 1 1024 55 10000 1 320 22:57 17.06.2020
1265 Clear 1 1024 50 10000 2.28 95 22:38 17.06.2020
1266 Clear 1 1024 50 10000 2.59 99 22:20 17.06.2020
1267 Clear 2 1024 51 10000 1 280 21:55 17.06.2020
1268 Clear 1 1024 50 10000 2.7 98 21:37 17.06.2020
1269 Clear 3 1024 47 10000 1.5 300 21:18 17.06.2020
1270 Clear 3 1024 47 10000 1.5 300 21:18 17.06.2020
1271 Clear 2 1024 47 10000 2.85 95 20:38 17.06.2020
1272 Clear 2 1024 47 10000 2.85 95 20:38 17.06.2020
1273 Clear 2 1024 47 10000 2.85 95 20:38 17.06.2020
1274 Clear 2 1024 47 10000 2.76 91 20:20 17.06.2020
1275 Clear 3 1025 47 10000 2.76 91 19:55 17.06.2020
1276 Clear 3 1025 47 10000 2.76 91 19:55 17.06.2020
1277 Clear 3 1025 44 10000 2.76 91 19:36 17.06.2020
1278 Clear 3 1025 51 10000 2.55 92 19:18 17.06.2020
1279 Clear 4 1025 44 10000 2.55 92 18:41 17.06.2020
1280 Clear 4 1025 44 10000 2.6 92 18:23 17.06.2020
1281 Clear 5 1026 41 10000 2.6 92 17:44 17.06.2020
1282 Clear 6 1026 38 10000 1 170 17:22 17.06.2020
1283 Clear 6 1026 38 10000 1 170 16:57 17.06.2020
1284 Clear 7 1026 39 10000 1.5 80 16:39 17.06.2020
1285 Clear 7 1026 39 10000 1.5 80 16:20 17.06.2020
1286 Clear 10 1026 36 10000 2.1 70 15:56 17.06.2020
1287 Clear 10 1026 31 10000 1.5 60 15:38 17.06.2020
1288 Clear 11 1026 34 10000 2.1 50 15:19 17.06.2020
1289 Clear 11 1026 34 10000 2.1 50 14:57 17.06.2020
1290 Clear 11 1026 34 10000 2.1 50 14:57 17.06.2020
1291 Clear 10 1026 31 10000 2.1 70 14:38 17.06.2020
1292 Clear 11 1026 31 10000 3.1 80 14:19 17.06.2020
1293 Clear 11 1026 29 10000 3.1 110 13:42 17.06.2020
1294 Clear 11 1026 29 10000 3.1 110 13:22 17.06.2020
1295 Clear 11 1026 29 10000 3.1 110 12:59 17.06.2020
1296 Clear 12 1025 26 10000 3.6 120 12:40 17.06.2020
1297 Clear 12 1025 26 10000 3.6 120 12:20 17.06.2020
1298 Clear 13 1025 22 10000 3.6 80 11:44 17.06.2020
1299 Clear 13 1025 22 10000 3.6 80 11:26 17.06.2020
1300 Clear 13 1025 22 10000 3.6 80 11:26 17.06.2020
1301 Clear 14 1024 20 10000 3.6 70 10:56 17.06.2020
1302 Clear 14 1024 20 10000 4.6 80 10:37 17.06.2020
1303 Clear 15 1024 19 10000 5.7 80 10:18 17.06.2020
1304 Clear 19 1024 19 10000 5.7 80 09:55 17.06.2020
1305 Clear 19 1024 17 10000 5.7 110 09:36 17.06.2020
1306 Clear 20 1024 18 10000 4.6 100 09:18 17.06.2020
1307 Clear 20 1024 18 10000 4.6 100 08:42 17.06.2020
1308 Clear 19 1024 20 10000 5.7 110 08:19 17.06.2020
1309 Clear 19 1024 22 10000 5.7 80 07:43 17.06.2020
1310 Clear 19 1024 22 10000 5.7 80 07:23 17.06.2020
1311 Clear 18 1025 23 10000 6.2 70 06:57 17.06.2020
1312 Clear 17 1025 25 10000 6.7 100 06:39 17.06.2020
1313 Clear 17 1025 25 10000 6.7 100 06:21 17.06.2020
1314 Clear 17 1026 27 10000 7.7 90 05:45 17.06.2020
1315 Clear 13 1028 33 10000 10.8 70 04:18 17.06.2020
1316 Clear 9 1028 48 10000 1.5 310 01:55 17.06.2020
1317 Clear 0 1027 55 10000 2.6 220 00:48 17.06.2020
1318 Clear 0 1027 68 10000 2.6 220 00:25 17.06.2020
1319 Clear 0 1027 68 10000 2.6 200 23:57 16.06.2020
1320 Clear 1 1026 55 10000 1.5 320 23:38 16.06.2020
1321 Clear 1 1026 55 10000 1.5 320 23:38 16.06.2020
1322 Clear 1 1026 55 10000 1.5 320 23:20 16.06.2020
1323 Clear 1 1026 59 10000 2.1 310 22:56 16.06.2020
1324 Clear 1 1026 55 10000 1.5 300 22:37 16.06.2020
1325 Clear 0 1026 64 10000 2.6 280 22:19 16.06.2020
1326 Clear 0 1026 64 10000 2.6 280 21:54 16.06.2020
1327 Clear 1 1026 50 10000 4.24 113 21:36 16.06.2020
1328 Clear 2 1026 47 10000 1.5 350 21:18 16.06.2020
1329 Clear 2 1026 51 10000 3.88 112 20:42 16.06.2020
1330 Clear 3 1026 51 10000 3.9 109 20:19 16.06.2020
1331 Clear 3 1026 51 10000 3.9 109 19:58 16.06.2020
1332 Clear 3 1026 47 10000 0.5 10 19:39 16.06.2020
1333 Clear 3 1026 47 10000 0.5 10 19:21 16.06.2020
1334 Clear 4 1026 48 10000 4.4 111 18:55 16.06.2020
1335 Clear 4 1027 48 10000 4.4 111 18:37 16.06.2020
1336 Clear 5 1027 44 10000 1 200 18:19 16.06.2020
1337 Clear 5 1027 44 10000 1 200 17:55 16.06.2020
1338 Clear 3 1027 44 10000 0.5 170 17:36 16.06.2020
1339 Clear 5 1027 41 10000 4.53 110 17:18 16.06.2020
1340 Clear 9 1027 38 10000 2.6 180 16:42 16.06.2020
1341 Clear 9 1027 38 10000 2.6 180 16:42 16.06.2020
1342 Clear 9 1027 39 10000 2.6 170 16:20 16.06.2020
1343 Clear 9 1027 39 10000 2.6 170 15:58 16.06.2020
1344 Clear 9 1027 41 10000 2.6 170 15:40 16.06.2020
1345 Clear 9 1027 41 10000 2.6 170 15:21 16.06.2020
1346 Clear 9 1027 36 10000 2.1 170 14:57 16.06.2020
1347 Clear 9 1027 36 10000 2.1 170 14:57 16.06.2020
1348 Clear 10 1027 33 10000 2.1 170 14:38 16.06.2020
1349 Clear 10 1027 36 10000 3.1 130 14:20 16.06.2020
1350 Clear 10 1027 34 10000 3.1 130 13:46 16.06.2020
1351 Clear 10 1027 34 10000 3.1 130 13:26 16.06.2020
1352 Clear 11 1026 31 10000 3.1 120 12:55 16.06.2020
1353 Clear 11 1026 29 10000 3.1 130 12:37 16.06.2020
1354 Clear 12 1026 27 10000 3.1 130 12:18 16.06.2020
1355 Clear 12 1025 24 10000 3.6 130 11:42 16.06.2020
1356 Clear 12 1025 24 10000 3.6 130 11:23 16.06.2020
1357 Clear 13 1025 21 10000 4.1 130 10:59 16.06.2020
1358 Clear 14 1025 20 10000 5.1 120 10:41 16.06.2020
1359 Clear 14 1025 20 10000 6.2 120 10:20 16.06.2020
1360 Clear 14 1024 20 10000 6.7 120 09:48 16.06.2020
1361 Clear 18 1024 20 10000 6.7 120 09:26 16.06.2020
1362 Clouds 19 1024 19 10000 6.2 140 08:58 16.06.2020
1363 Clouds 19 1024 19 10000 6.2 140 08:58 16.06.2020
1364 Clouds 19 1024 19 10000 6.2 140 08:58 16.06.2020
1365 Clouds 18 1024 20 10000 6.7 110 08:40 16.06.2020
1366 Clouds 18 1024 20 10000 6.7 110 08:22 16.06.2020
1367 Clouds 19 1024 20 10000 7.2 100 07:42 16.06.2020
1368 Clouds 19 1024 20 10000 7.2 100 07:24 16.06.2020
1369 Clouds 18 1025 20 10000 6.7 110 06:34 16.06.2020
1370 Clouds 18 1025 23 10000 6.2 130 05:52 16.06.2020
1371 Clouds 16 1026 26 10000 6.7 110 05:19 16.06.2020
1372 Clouds 13 1027 31 10000 6.2 110 04:26 16.06.2020
1373 Clouds 12 1028 37 10000 2.6 80 02:46 16.06.2020
1374 Clouds 10 1027 45 10000 6.43 116 01:34 16.06.2020
1375 Clouds 8 1026 55 10000 4.26 119 00:58 16.06.2020
1376 Clouds 4 1026 55 10000 3.29 119 00:27 16.06.2020
1377 Clouds 4 1026 60 10000 3.29 119 23:57 15.06.2020
1378 Clouds 4 1026 60 10000 3.29 119 23:57 15.06.2020
1379 Clouds 4 1026 55 10000 3.29 119 23:38 15.06.2020
1380 Clouds 9 1026 56 10000 3.48 118 23:20 15.06.2020
1381 Clouds 8 1025 56 10000 3.48 118 22:42 15.06.2020
1382 Clouds 8 1025 60 10000 3.71 122 22:22 15.06.2020
1383 Clouds 8 1025 60 10000 3.71 122 21:58 15.06.2020
1384 Clouds 8 1025 52 10000 3.8 122 21:38 15.06.2020
1385 Clouds 8 1025 52 10000 3.68 123 21:20 15.06.2020
1386 Clouds 8 1025 52 10000 3.68 123 20:58 15.06.2020
1387 Clouds 9 1025 52 10000 3.68 123 20:39 15.06.2020
1388 Clouds 9 1025 56 10000 3.57 124 20:19 15.06.2020
1389 Clouds 9 1025 56 10000 3.57 124 19:57 15.06.2020
1390 Clouds 9 1025 56 10000 3.57 124 19:39 15.06.2020
1391 Clouds 10 1025 49 10000 3.39 121 19:20 15.06.2020
1392 Clouds 10 1025 49 10000 3.39 121 18:56 15.06.2020
1393 Clouds 10 1025 49 10000 3.39 121 18:37 15.06.2020
1394 Clouds 9 1025 52 10000 3.4 118 18:19 15.06.2020
1395 Clouds 9 1025 52 10000 3.4 118 17:56 15.06.2020
1396 Clouds 10 1025 49 10000 1.5 170 17:37 15.06.2020
1397 Clouds 10 1025 49 10000 3.46 119 17:18 15.06.2020
1398 Clouds 10 1025 45 10000 3.46 119 16:41 15.06.2020
1399 Clouds 11 1025 46 10000 3.69 114 16:19 15.06.2020
1400 Clouds 11 1025 46 10000 3.69 114 15:56 15.06.2020
1401 Clouds 11 1026 46 10000 1.5 100 15:38 15.06.2020
1402 Clouds 11 1026 43 10000 1.5 100 15:19 15.06.2020
1403 Clouds 11 1026 40 10000 2.6 120 14:42 15.06.2020
1404 Clouds 11 1025 40 10000 3.1 140 14:21 15.06.2020
1405 Clouds 12 1025 40 10000 3.1 140 13:59 15.06.2020
1406 Clouds 12 1025 37 10000 3.1 140 13:41 15.06.2020
1407 Clouds 12 1025 37 10000 3.1 140 13:22 15.06.2020
1408 Clouds 12 1025 37 10000 3.1 140 12:58 15.06.2020
1409 Clouds 13 1024 33 10000 3.1 140 12:39 15.06.2020
1410 Clouds 13 1024 33 10000 3.1 140 12:21 15.06.2020
1411 Clouds 14 1024 29 10000 3.6 130 11:44 15.06.2020
1412 Clear 14 1024 29 10000 3.6 130 11:25 15.06.2020
1413 Clear 15 1023 41 10000 5.1 130 10:45 15.06.2020
1414 Clear 15 1023 36 10000 5.1 130 10:23 15.06.2020
1415 Clear 15 1023 36 10000 6.2 110 09:56 15.06.2020
1416 Clear 20 1023 28 10000 5.1 120 09:38 15.06.2020
1417 Clouds 20 1022 28 10000 4.6 130 09:19 15.06.2020
1418 Clouds 20 1022 28 10000 5.7 90 08:39 15.06.2020
1419 Clouds 20 1022 28 10000 5.7 90 08:21 15.06.2020
1420 Clouds 20 1023 30 10000 5.1 90 07:46 15.06.2020
1421 Clouds 20 1023 30 10000 5.1 90 07:46 15.06.2020
1422 Clouds 20 1023 30 10000 5.1 90 07:28 15.06.2020
1423 Clouds 20 1023 30 10000 5.1 90 06:49 15.06.2020
1424 Clouds 20 1023 30 10000 5.1 90 06:25 15.06.2020
1425 Clouds 18 1025 34 10000 5.7 110 05:46 15.06.2020
1426 Clouds 18 1025 34 10000 5.7 110 05:26 15.06.2020
1427 Clouds 15 1026 47 10000 5.1 70 04:20 15.06.2020
1428 Clouds 15 1027 47 10000 5.1 70 03:41 15.06.2020
1429 Clouds 12 1027 50 10000 3.6 40 02:54 15.06.2020
1430 Clouds 12 1027 50 10000 2.6 40 01:57 15.06.2020
1431 Clouds 11 1026 66 10000 6.65 116 01:34 15.06.2020
1432 Clouds 11 1026 66 10000 1.5 350 00:58 15.06.2020
1433 Clouds 10 1026 70 10000 1.5 230 00:39 15.06.2020
1434 Clouds 10 1026 70 10000 3.49 122 00:20 15.06.2020
1435 Clouds 9 1025 75 10000 3.49 122 23:46 14.06.2020
1436 Clouds 9 1025 75 10000 3.72 112 23:24 14.06.2020
1437 Clouds 9 1025 75 10000 3.72 112 22:58 14.06.2020
1438 Clouds 9 1025 75 10000 1.5 40 22:39 14.06.2020
1439 Clouds 9 1025 75 10000 2.1 300 22:19 14.06.2020
1440 Clouds 9 1025 75 10000 2.1 300 21:57 14.06.2020
1441 Clouds 10 1024 75 10000 1.5 80 21:38 14.06.2020
1442 Clouds 9 1024 81 10000 1 350 21:19 14.06.2020
1443 Clouds 9 1024 81 10000 1 350 21:19 14.06.2020
1444 Clouds 9 1024 81 10000 1 350 20:58 14.06.2020
1445 Clouds 9 1024 81 10000 3.83 121 20:38 14.06.2020
1446 Clouds 10 1025 75 10000 1.5 300 20:19 14.06.2020
1447 Clouds 10 1025 75 10000 1.5 300 19:58 14.06.2020
1448 Clouds 10 1024 81 10000 3.66 127 19:38 14.06.2020
1449 Clouds 10 1025 81 10000 2.1 250 19:19 14.06.2020
1450 Clouds 10 1025 81 10000 2.1 250 18:57 14.06.2020
1451 Clouds 11 1025 71 10000 0.5 130 18:38 14.06.2020
1452 Clouds 11 1024 76 10000 2.1 170 18:19 14.06.2020
1453 Clouds 11 1024 76 10000 2.1 170 17:57 14.06.2020
1454 Clouds 11 1025 71 10000 2.6 210 17:38 14.06.2020
1455 Clouds 11 1025 71 10000 2.6 210 17:38 14.06.2020
1456 Clouds 11 1025 66 10000 3.1 150 17:19 14.06.2020
1457 Clouds 11 1025 62 10000 2.1 110 16:41 14.06.2020
1458 Clouds 12 1025 58 10000 2.6 100 16:21 14.06.2020
1459 Clouds 12 1025 58 10000 2.6 100 15:59 14.06.2020
1460 Clouds 12 1025 58 10000 3.6 70 15:40 14.06.2020
1461 Clouds 12 1025 58 10000 3.6 60 15:18 14.06.2020
1462 Clouds 12 1025 58 10000 3.6 60 14:58 14.06.2020
1463 Clouds 12 1025 58 10000 3.6 90 14:40 14.06.2020
1464 Clouds 12 1025 58 10000 2.1 180 14:19 14.06.2020
1465 Clouds 12 1025 58 10000 2.1 180 13:55 14.06.2020
1466 Clouds 12 1025 54 10000 2.6 170 13:36 14.06.2020
1467 Clouds 13 1025 54 10000 2.1 90 13:18 14.06.2020
1468 Clouds 13 1025 54 10000 2.1 90 12:54 14.06.2020
1469 Clouds 13 1025 54 10000 2.6 100 12:36 14.06.2020
1470 Clouds 13 1024 54 10000 2.1 130 12:18 14.06.2020
1471 Clouds 13 1024 54 10000 2.1 130 11:55 14.06.2020
1472 Clouds 13 1024 54 10000 2.6 120 11:36 14.06.2020
1473 Clouds 13 1024 54 10000 3.1 110 11:18 14.06.2020
1474 Rain 13 1024 54 10000 3.1 130 10:40 14.06.2020
1475 Clouds 13 1023 51 10000 3.6 140 10:19 14.06.2020
1476 Clouds 13 1023 51 10000 3.6 130 09:44 14.06.2020
1477 Clouds 15 1023 51 10000 3.6 130 09:24 14.06.2020
1478 Clouds 15 1023 51 10000 4.6 130 08:44 14.06.2020
1479 Clouds 15 1023 51 10000 4.6 130 08:22 14.06.2020
1480 Clouds 16 1023 48 10000 5.1 150 07:56 14.06.2020
1481 Clouds 17 1023 45 10000 4.6 130 07:35 14.06.2020
1482 Clouds 16 1023 44 10000 4.6 120 06:59 14.06.2020
1483 Clouds 13 1024 48 10000 4.1 130 05:56 14.06.2020
1484 Clouds 13 1024 51 10000 4.6 120 05:34 14.06.2020
1485 Rain 13 1025 51 10000 5.1 110 04:41 14.06.2020
1486 Clouds 13 1025 51 10000 6.2 110 03:55 14.06.2020
1487 Clouds 13 1025 51 10000 5.7 110 02:43 14.06.2020
1488 Clouds 13 1025 51 10000 5.7 110 02:23 14.06.2020
1489 Clouds 12 1025 54 10000 3.6 130 01:31 14.06.2020
1490 Clouds 12 1024 54 10000 5.1 120 00:49 14.06.2020
1491 Clouds 12 1024 54 10000 5.1 120 00:29 14.06.2020
1492 Clouds 13 1023 54 10000 5.7 120 23:49 13.06.2020
1493 Clouds 13 1023 54 10000 5.7 120 23:31 13.06.2020
1494 Clouds 13 1022 58 10000 4.6 120 22:59 13.06.2020
1495 Clouds 13 1022 58 10000 4.6 120 22:38 13.06.2020
1496 Clouds 13 1022 55 10000 4.1 130 22:19 13.06.2020
1497 Clouds 13 1022 55 10000 4.1 130 21:58 13.06.2020
1498 Clouds 13 1021 59 10000 4.6 120 21:40 13.06.2020
1499 Clouds 13 1021 59 10000 4.1 120 21:21 13.06.2020
1500 Clouds 13 1021 59 10000 4.1 120 20:54 13.06.2020
1501 Clouds 13 1021 59 10000 4.1 120 20:54 13.06.2020
1502 Clouds 13 1021 59 10000 4.6 120 20:36 13.06.2020
1503 Clouds 13 1021 63 10000 3.1 130 20:18 13.06.2020
1504 Clouds 13 1021 63 10000 4.1 130 19:38 13.06.2020
1505 Clouds 13 1021 63 10000 3.6 130 19:19 13.06.2020
1506 Clouds 13 1021 63 10000 3.6 130 18:58 13.06.2020
1507 Clouds 13 1021 63 10000 3.6 140 18:38 13.06.2020
1508 Clouds 14 1021 59 10000 4.6 150 18:19 13.06.2020
1509 Clouds 14 1021 59 10000 4.6 150 17:55 13.06.2020
1510 Clouds 14 1021 55 10000 5.1 150 17:37 13.06.2020
1511 Clouds 14 1021 55 10000 2.6 160 17:19 13.06.2020
1512 Clouds 14 1021 55 10000 3.1 170 16:41 13.06.2020
1513 Clouds 14 1020 55 10000 4.6 160 16:20 13.06.2020
1514 Clouds 14 1020 55 10000 4.6 160 15:59 13.06.2020
1515 Clouds 14 1020 52 10000 3.1 160 15:39 13.06.2020
1516 Clouds 15 1020 45 10000 4.1 160 15:20 13.06.2020
1517 Clouds 15 1019 37 10000 3.6 180 14:43 13.06.2020
1518 Clouds 20 1019 32 10000 2.1 360 14:22 13.06.2020
1519 Clouds 20 1019 32 10000 2.1 360 13:56 13.06.2020
1520 Clouds 20 1019 32 10000 5.87 182 13:37 13.06.2020
1521 Clouds 21 1018 30 10000 1.5 190 13:18 13.06.2020
1522 Clouds 21 1018 30 10000 2.6 180 12:42 13.06.2020
1523 Clouds 23 1018 27 10000 4.1 190 12:24 13.06.2020
1524 Clouds 23 1018 27 10000 4.1 190 11:55 13.06.2020
1525 Clouds 23 1017 27 10000 4.6 190 11:37 13.06.2020
1526 Clouds 24 1016 25 10000 5.7 200 11:18 13.06.2020
1527 Clouds 25 1016 23 10000 6.2 200 10:42 13.06.2020
1528 Clouds 25 1016 23 10000 6.2 200 10:23 13.06.2020
1529 Clouds 26 1015 22 10000 7.2 190 09:55 13.06.2020
1530 Clouds 26 1015 22 10000 7.2 190 09:36 13.06.2020
1531 Clear 27 1015 19 10000 5.1 250 09:18 13.06.2020
1532 Clear 27 1015 19 10000 6.2 260 08:44 13.06.2020
1533 Clear 27 1015 19 10000 6.2 260 08:26 13.06.2020
1534 Clear 28 1014 20 10000 6.7 280 07:44 13.06.2020
1535 Clear 28 1014 20 10000 6.7 280 07:25 13.06.2020
1536 Clear 27 1015 18 10000 6.2 310 06:44 13.06.2020
1537 Clear 27 1015 18 10000 6.2 310 06:25 13.06.2020
1538 Clear 26 1016 19 10000 7.7 320 05:29 13.06.2020
1539 Clear 24 1017 19 10000 7.7 310 04:38 13.06.2020
1540 Clear 23 1017 20 10000 7.7 320 03:43 13.06.2020
1541 Clear 21 1017 21 10000 7.2 330 02:45 13.06.2020
1542 Clear 15 1016 25 10000 4.6 350 01:49 13.06.2020
1543 Clear 15 1016 25 10000 4.6 350 01:23 13.06.2020
1544 Clear 14 1016 29 10000 6.2 340 00:54 13.06.2020
1545 Clear 14 1016 27 10000 4.6 350 00:27 13.06.2020
1546 Clear 13 1016 29 10000 3.1 340 23:58 12.06.2020
1547 Clear 13 1015 29 10000 4.1 330 23:38 12.06.2020
1548 Clear 13 1015 30 10000 4.1 330 23:18 12.06.2020
1549 Clear 13 1015 30 10000 4.1 330 23:18 12.06.2020
1550 Clear 12 1015 33 10000 4.6 320 22:43 12.06.2020
1551 Clear 12 1015 33 10000 2.6 360 22:19 12.06.2020
1552 Clear 12 1015 33 10000 2.6 360 21:59 12.06.2020
1553 Clear 12 1015 34 10000 2.1 360 21:40 12.06.2020
1554 Clear 12 1014 37 10000 2.6 10 21:21 12.06.2020
1555 Clear 12 1014 37 10000 2.6 10 20:56 12.06.2020
1556 Clear 12 1014 37 10000 1.5 360 20:37 12.06.2020
1557 Clear 12 1015 38 10000 0.5 350 20:19 12.06.2020
1558 Clear 11 1015 43 10000 5.15 339 19:40 12.06.2020
1559 Clear 11 1015 43 10000 4.96 347 19:21 12.06.2020
1560 Clear 11 1015 46 10000 4.96 347 18:58 12.06.2020
1561 Clear 12 1015 37 10000 4.96 347 18:36 12.06.2020
1562 Clear 12 1015 37 10000 4.51 353 18:18 12.06.2020
1563 Clear 12 1015 37 10000 3.1 50 17:40 12.06.2020
1564 Clear 12 1015 37 10000 3.1 50 17:40 12.06.2020
1565 Clear 12 1015 37 10000 3.1 50 17:21 12.06.2020
1566 Clear 12 1016 37 10000 2.6 70 16:45 12.06.2020
1567 Clear 12 1016 39 10000 2.6 70 16:21 12.06.2020
1568 Clear 12 1016 37 10000 3.1 90 15:49 12.06.2020
1569 Clear 12 1016 37 10000 3.1 90 15:28 12.06.2020
1570 Clear 12 1016 35 10000 2.6 120 14:58 12.06.2020
1571 Clear 14 1016 33 10000 3.6 30 14:39 12.06.2020
1572 Clear 14 1016 33 10000 3.6 30 14:21 12.06.2020
1573 Clear 13 1016 33 10000 2.28 55 13:43 12.06.2020
1574 Clear 13 1016 31 10000 3.1 30 13:22 12.06.2020
1575 Clear 13 1016 31 10000 3.1 30 12:55 12.06.2020
1576 Clear 14 1015 41 10000 3.1 40 12:37 12.06.2020
1577 Clear 14 1015 38 10000 2.6 70 12:18 12.06.2020
1578 Clear 15 1015 38 10000 2.6 80 11:42 12.06.2020
1579 Clear 15 1015 35 10000 2.6 80 11:23 12.06.2020
1580 Clear 16 1014 35 10000 2.1 250 10:49 12.06.2020
1581 Clear 16 1014 26 10000 2.1 250 10:26 12.06.2020
1582 Clear 17 1014 26 10000 2.6 170 09:58 12.06.2020
1583 Clear 24 1014 26 10000 1.5 240 09:38 12.06.2020
1584 Clear 24 1014 20 10000 2.6 60 09:18 12.06.2020
1585 Clear 24 1014 20 10000 3.6 250 08:41 12.06.2020
1586 Clear 24 1015 20 10000 2.6 270 08:22 12.06.2020
1587 Clear 24 1015 22 10000 2.6 20 07:40 12.06.2020
1588 Clear 24 1015 22 10000 2.6 20 07:22 12.06.2020
1589 Clear 24 1016 22 10000 4.6 280 06:40 12.06.2020
1590 Clear 24 1016 22 10000 2.1 240 06:19 12.06.2020
1591 Clear 23 1017 23 10000 3.6 330 05:49 12.06.2020
1592 Clear 23 1017 23 10000 3.6 330 05:23 12.06.2020
1593 Clear 21 1019 28 10000 6.2 50 03:47 12.06.2020
1594 Clear 14 1020 36 10000 2.6 30 02:24 12.06.2020
1595 Clear 12 1019 47 10000 1.5 60 01:33 12.06.2020
1596 Clear 11 1019 50 10000 2.6 30 00:57 12.06.2020
1597 Clear 9 1019 70 10000 2.6 50 00:38 12.06.2020
1598 Clear 8 1019 69 10000 3.28 42 00:19 12.06.2020
1599 Clear 8 1019 69 10000 3.28 42 00:19 12.06.2020
1600 Clear 8 1019 69 10000 3.28 42 23:56 11.06.2020
1601 Clear 8 1019 53 10000 3.28 42 23:36 11.06.2020
1602 Clear 8 1019 60 10000 2.89 44 23:18 11.06.2020
1603 Clear 9 1019 70 10000 2.89 44 22:40 11.06.2020
1604 Clear 9 1019 70 10000 2.76 51 22:21 11.06.2020
1605 Clear 9 1019 70 10000 0.5 320 21:57 11.06.2020
1606 Clear 9 1019 57 10000 2.76 51 21:38 11.06.2020
1607 Clear 9 1019 65 10000 1.5 250 21:20 11.06.2020
1608 Clear 9 1019 65 10000 1.5 260 20:45 11.06.2020
1609 Clear 9 1019 59 10000 1.5 240 20:22 11.06.2020
1610 Clear 9 1019 59 10000 1.5 240 19:58 11.06.2020
1611 Clear 9 1019 56 10000 2.1 220 19:40 11.06.2020
1612 Clear 9 1019 56 10000 2.1 220 19:22 11.06.2020
1613 Clear 10 1019 61 10000 2.1 270 18:42 11.06.2020
1614 Clear 10 1019 52 10000 1.5 300 18:24 11.06.2020
1615 Clear 10 1019 52 10000 1.5 300 17:57 11.06.2020
1616 Clear 10 1019 54 10000 0.5 330 17:38 11.06.2020
1617 Clear 10 1020 52 10000 3.8 73 17:20 11.06.2020
1618 Clear 10 1020 52 10000 3.8 73 16:57 11.06.2020
1619 Clear 11 1020 53 10000 3.8 73 16:38 11.06.2020
1620 Clear 11 1020 50 10000 1 40 16:20 11.06.2020
1621 Clear 11 1020 50 10000 1 40 15:55 11.06.2020
1622 Clear 11 1020 50 10000 1 40 15:37 11.06.2020
1623 Clear 11 1020 50 10000 1 40 15:18 11.06.2020
1624 Clear 12 1020 50 10000 3.2 73 14:42 11.06.2020
1625 Clear 12 1020 50 10000 3.59 90 14:20 11.06.2020
1626 Clear 12 1020 47 10000 3.59 90 13:55 11.06.2020
1627 Clear 12 1020 41 10000 2.6 120 13:37 11.06.2020
1628 Clouds 13 1019 38 10000 3.1 120 13:18 11.06.2020
1629 Clouds 13 1019 38 10000 3.1 120 13:18 11.06.2020
1630 Clouds 14 1019 33 10000 3.1 110 12:54 11.06.2020
1631 Clouds 14 1019 33 10000 3.1 110 12:36 11.06.2020
1632 Clouds 18 1019 34 10000 2.1 120 12:18 11.06.2020
1633 Clouds 18 1019 34 10000 2.1 120 11:56 11.06.2020
1634 Clouds 19 1019 32 10000 3.6 120 11:37 11.06.2020
1635 Clouds 20 1018 30 10000 3.6 110 11:18 11.06.2020
1636 Clouds 22 1018 26 10000 4.6 110 10:42 11.06.2020
1637 Clouds 22 1018 26 10000 4.6 110 10:20 11.06.2020
1638 Clouds 23 1018 27 10000 4.6 120 09:45 11.06.2020
1639 Clouds 23 1018 27 10000 4.6 120 09:26 11.06.2020
1640 Clouds 23 1018 25 10000 3.6 90 08:55 11.06.2020
1641 Clouds 23 1018 27 10000 2.6 70 08:37 11.06.2020
1642 Clouds 23 1018 27 10000 4.1 70 08:18 11.06.2020
1643 Clouds 23 1019 27 10000 5.1 40 07:41 11.06.2020
1644 Clouds 22 1019 30 10000 3.1 80 07:23 11.06.2020
1645 Clouds 22 1020 28 10000 3.6 120 06:33 11.06.2020
1646 Clouds 22 1020 28 10000 3.6 120 06:33 11.06.2020
1647 Clouds 22 1020 30 10000 5.7 100 05:57 11.06.2020
1648 Clear 20 1022 32 10000 4.1 90 04:41 11.06.2020
1649 Clear 17 1023 33 10000 3.6 90 03:25 11.06.2020
1650 Clear 12 1023 40 10000 2.6 110 02:46 11.06.2020
1651 Clouds 11 1023 43 10000 3.81 91 01:56 11.06.2020
1652 Clouds 10 1023 49 10000 3.81 91 01:35 11.06.2020
1653 Clouds 4 1022 60 10000 2.1 270 00:57 11.06.2020
1654 Clouds 4 1022 60 10000 2.1 270 00:38 11.06.2020
1655 Clear 8 1022 64 10000 1.5 270 00:19 11.06.2020
1656 Clear 8 1022 64 10000 1.5 270 23:40 10.06.2020
1657 Clear 8 1022 64 10000 2.1 270 23:21 10.06.2020
1658 Clear 8 1022 64 10000 2.1 290 22:41 10.06.2020
1659 Clear 8 1022 64 10000 2.1 290 22:22 10.06.2020
1660 Clear 8 1022 56 10000 2.1 260 21:59 10.06.2020
1661 Clear 8 1022 65 10000 2.1 270 21:41 10.06.2020
1662 Clear 8 1022 60 10000 2.1 280 21:19 10.06.2020
1663 Clear 8 1022 60 10000 2.1 280 20:58 10.06.2020
1664 Clear 8 1022 60 10000 2.1 280 20:40 10.06.2020
1665 Clear 8 1022 60 10000 2.1 280 20:40 10.06.2020
1666 Clouds 8 1022 60 10000 0.5 230 20:21 10.06.2020
1667 Clouds 8 1022 60 10000 0.5 230 19:58 10.06.2020
1668 Clouds 9 1022 56 10000 2.25 89 19:38 10.06.2020
1669 Clouds 9 1022 56 10000 1.5 260 19:18 10.06.2020
1670 Clouds 9 1022 52 10000 1.5 270 18:42 10.06.2020
1671 Clouds 9 1022 56 10000 2.61 108 18:20 10.06.2020
1672 Clouds 9 1022 56 10000 2.61 108 17:59 10.06.2020
1673 Clouds 9 1022 52 10000 2.61 108 17:40 10.06.2020
1674 Clouds 10 1022 49 10000 2.74 110 17:20 10.06.2020
1675 Clouds 10 1022 49 10000 2.74 110 16:58 10.06.2020
1676 Clouds 10 1023 52 10000 2.74 110 16:40 10.06.2020
1677 Clouds 10 1023 49 10000 3.12 105 16:20 10.06.2020
1678 Clouds 10 1023 49 10000 3.12 105 16:20 10.06.2020
1679 Clouds 10 1023 49 10000 3.12 105 16:20 10.06.2020
1680 Clouds 10 1023 49 10000 3.12 105 15:55 10.06.2020
1681 Clouds 11 1023 46 10000 3.12 105 15:36 10.06.2020
1682 Clouds 11 1023 47 10000 1.5 70 15:18 10.06.2020
1683 Clouds 12 1023 40 10000 1.5 80 14:40 10.06.2020
1684 Clear 12 1023 40 10000 1.5 80 14:21 10.06.2020
1685 Clear 12 1023 45 10000 2.6 120 13:43 10.06.2020
1686 Clouds 12 1022 43 10000 3.1 130 13:22 10.06.2020
1687 Clouds 13 1022 43 10000 3.6 130 12:55 10.06.2020
1688 Clouds 13 1022 43 10000 3.6 130 12:55 10.06.2020
1689 Clouds 13 1022 43 10000 3.6 130 12:37 10.06.2020
1690 Clear 16 1021 40 10000 3.6 130 12:18 10.06.2020
1691 Clear 18 1021 40 10000 4.1 130 11:42 10.06.2020
1692 Clear 19 1021 29 10000 4.1 130 11:20 10.06.2020
1693 Clear 20 1020 28 10000 4.1 130 10:58 10.06.2020
1694 Clear 20 1020 28 10000 4.1 130 10:40 10.06.2020
1695 Clear 21 1020 26 10000 4.6 130 10:21 10.06.2020
1696 Clear 22 1020 26 10000 3.6 110 09:43 10.06.2020
1697 Clear 22 1020 26 10000 3.6 110 09:43 10.06.2020
1698 Clear 22 1020 26 10000 2.1 110 09:24 10.06.2020
1699 Clear 22 1020 24 10000 3.6 130 08:57 10.06.2020
1700 Clear 22 1020 24 10000 3.6 130 08:39 10.06.2020
1701 Clear 21 1020 26 10000 3.1 130 08:20 10.06.2020
1702 Clear 21 1021 26 10000 3.1 90 07:39 10.06.2020
1703 Clear 21 1021 26 10000 3.1 70 07:21 10.06.2020
1704 Clear 20 1022 28 10000 3.1 110 06:47 10.06.2020
1705 Clear 19 1022 27 10000 3.1 110 06:25 10.06.2020
1706 Clear 19 1022 27 10000 3.1 110 05:58 10.06.2020
1707 Clear 18 1023 29 10000 3.1 80 05:28 10.06.2020
1708 Clear 16 1024 29 10000 3.6 100 04:36 10.06.2020
1709 Clear 12 1025 35 10000 3.6 100 02:57 10.06.2020
1710 Clear 12 1025 37 10000 3.95 111 02:22 10.06.2020
1711 Clear 9 1025 48 10000 2.1 270 01:37 10.06.2020
1712 Clear 3 1024 59 10000 2.6 270 00:40 10.06.2020
1713 Clear 3 1024 55 10000 2.6 300 00:22 10.06.2020
1714 Clear 3 1024 55 10000 2.6 300 23:57 09.06.2020
1715 Clear 3 1024 59 10000 2.1 300 23:38 09.06.2020
1716 Clear 3 1024 59 10000 2.1 300 23:20 09.06.2020
1717 Clear 3 1024 59 10000 2.6 290 22:56 09.06.2020
1718 Clear 3 1024 59 10000 2.6 310 22:37 09.06.2020
1719 Clear 3 1024 59 10000 2.6 310 22:19 09.06.2020
1720 Clear 3 1023 59 10000 2.6 270 21:56 09.06.2020
1721 Clear 8 1024 51 10000 2.6 270 21:38 09.06.2020
1722 Clear 8 1024 51 10000 2.6 270 21:19 09.06.2020
1723 Clear 8 1023 55 10000 2.1 300 20:56 09.06.2020
1724 Clear 8 1024 52 10000 2.6 310 20:38 09.06.2020
1725 Clear 8 1024 56 10000 2.6 280 20:18 09.06.2020
1726 Clear 8 1024 56 10000 2.6 280 19:56 09.06.2020
1727 Clear 8 1024 52 10000 2.6 280 19:38 09.06.2020
1728 Clear 8 1024 52 10000 2.6 280 19:19 09.06.2020
1729 Clear 9 1024 48 10000 2.1 290 18:45 09.06.2020
1730 Clear 9 1024 48 10000 2.1 290 18:26 09.06.2020
1731 Clear 8 1024 48 10000 2.1 290 17:58 09.06.2020
1732 Clear 9 1024 52 10000 1.5 290 17:40 09.06.2020
1733 Clear 9 1024 52 10000 1.5 290 17:22 09.06.2020
1734 Clear 9 1024 45 10000 1.5 260 16:57 09.06.2020
1735 Clear 9 1024 45 10000 2.1 280 16:39 09.06.2020
1736 Clear 9 1024 45 10000 2.1 280 16:20 09.06.2020
1737 Clear 10 1024 42 10000 2.66 106 15:40 09.06.2020
1738 Clear 10 1024 42 10000 2.87 101 15:22 09.06.2020
1739 Clear 10 1024 42 10000 2.87 101 15:22 09.06.2020
1740 Clear 10 1024 42 10000 2.87 101 14:57 09.06.2020
1741 Clear 11 1024 39 10000 0.5 90 14:39 09.06.2020
1742 Clear 11 1024 39 10000 0.5 90 14:39 09.06.2020
1743 Clear 12 1024 34 10000 2.1 100 14:19 09.06.2020
1744 Clear 12 1024 34 10000 2.1 100 13:54 09.06.2020
1745 Clear 11 1024 34 10000 2.6 120 13:36 09.06.2020
1746 Clear 12 1023 32 10000 3.1 130 13:18 09.06.2020
1747 Clear 12 1023 32 10000 3.6 150 12:42 09.06.2020
1748 Clear 13 1023 28 10000 3.6 150 12:20 09.06.2020
1749 Clear 13 1023 28 10000 3.6 150 11:57 09.06.2020
1750 Clear 13 1022 28 10000 3.6 140 11:38 09.06.2020
1751 Clear 13 1022 28 10000 3.6 140 11:20 09.06.2020
1752 Clear 14 1022 25 10000 2.6 130 10:55 09.06.2020
1753 Clear 15 1022 24 10000 2.6 140 10:36 09.06.2020
1754 Clear 15 1022 24 10000 2.6 110 10:18 09.06.2020
1755 Clear 20 1022 22 10000 2.6 130 09:40 09.06.2020
1756 Clear 20 1022 22 10000 2.6 130 09:19 09.06.2020
1757 Clear 20 1022 22 10000 4.1 110 08:40 09.06.2020
1758 Clear 20 1022 22 10000 4.1 110 08:21 09.06.2020
1759 Clear 20 1022 22 10000 3.1 100 07:59 09.06.2020
1760 Clear 20 1022 22 10000 4.6 90 07:36 09.06.2020
1761 Clear 19 1022 24 10000 3.6 110 07:18 09.06.2020
1762 Clear 20 1023 24 10000 3.6 110 06:51 09.06.2020
1763 Clear 20 1023 24 10000 3.6 110 06:27 09.06.2020
1764 Clear 16 1025 28 10000 5.1 80 04:35 09.06.2020
1765 Clear 11 1025 35 10000 1 270 02:50 09.06.2020
1766 Clear 9 1025 56 10000 1.5 310 01:39 09.06.2020
1767 Clear 8 1025 60 10000 2.1 320 01:19 09.06.2020
1768 Clear 2 1024 69 10000 2.1 280 00:44 09.06.2020
1769 Clear 1 1024 74 10000 2.6 270 00:20 09.06.2020
1770 Clear 2 1024 69 10000 2.1 320 23:43 08.06.2020
1771 Clear 1 1024 69 10000 2.6 270 23:22 08.06.2020
1772 Clear 1 1024 69 10000 2.6 270 22:59 08.06.2020
1773 Clear 2 1023 64 10000 2.1 290 22:39 08.06.2020
1774 Clear 2 1024 64 10000 2.1 280 22:20 08.06.2020
1775 Clear 2 1024 64 10000 2.1 280 21:56 08.06.2020
1776 Clear 2 1024 64 10000 2.6 320 21:38 08.06.2020
1777 Clear 3 1024 69 10000 2.1 310 21:19 08.06.2020
1778 Clear 3 1024 69 10000 2.1 310 20:55 08.06.2020
1779 Clear 2 1024 64 10000 2.1 270 20:37 08.06.2020
1780 Clear 3 1023 69 10000 2.1 290 20:18 08.06.2020
1781 Clear 4 1023 64 10000 2.6 280 19:43 08.06.2020
1782 Clear 3 1024 64 10000 2.6 260 19:21 08.06.2020
1783 Clear 3 1024 59 10000 2.6 250 18:44 08.06.2020
1784 Clear 3 1024 59 10000 2.72 97 18:22 08.06.2020
1785 Clear 3 1024 59 10000 2.72 97 17:58 08.06.2020
1786 Clear 4 1024 55 10000 2.72 97 17:40 08.06.2020
1787 Clear 4 1024 55 10000 3.1 93 17:22 08.06.2020
1788 Clear 4 1024 60 10000 0.5 50 16:58 08.06.2020
1789 Clear 4 1024 60 10000 0.5 50 16:58 08.06.2020
1790 Clear 5 1024 65 10000 3.1 93 16:40 08.06.2020
1791 Clear 5 1024 65 10000 3.3 96 16:21 08.06.2020
1792 Clear 9 1024 56 10000 3.3 96 15:44 08.06.2020
1793 Clear 9 1024 56 10000 3.43 92 15:22 08.06.2020
1794 Clear 9 1024 56 10000 2.1 90 14:58 08.06.2020
1795 Clear 10 1024 49 10000 2.6 80 14:39 08.06.2020
1796 Clouds 11 1024 46 10000 2.1 60 14:19 08.06.2020
1797 Clouds 11 1024 43 10000 2.1 100 13:43 08.06.2020
1798 Clouds 11 1024 43 10000 3.1 120 13:23 08.06.2020
1799 Clouds 12 1023 40 10000 3.1 130 12:43 08.06.2020
1800 Clouds 12 1023 37 10000 3.6 120 12:20 08.06.2020
1801 Clouds 12 1023 37 10000 3.6 120 11:59 08.06.2020
1802 Clouds 12 1023 35 10000 4.1 130 11:40 08.06.2020
1803 Clouds 12 1023 35 10000 4.1 130 11:22 08.06.2020
1804 Clouds 12 1023 35 10000 4.1 130 11:22 08.06.2020
1805 Clouds 13 1022 33 10000 4.6 130 10:58 08.06.2020
1806 Clouds 13 1022 31 10000 5.1 120 10:38 08.06.2020
1807 Clouds 13 1022 31 10000 5.1 120 10:20 08.06.2020
1808 Clouds 17 1022 29 10000 5.7 120 09:57 08.06.2020
1809 Clouds 17 1022 33 10000 5.7 130 09:39 08.06.2020
1810 Clear 17 1022 28 10000 5.7 130 09:20 08.06.2020
1811 Clear 18 1021 27 10000 5.7 110 08:41 08.06.2020
1812 Clouds 18 1021 27 10000 5.7 110 08:20 08.06.2020
1813 Clouds 17 1022 27 10000 5.1 110 07:42 08.06.2020
1814 Clouds 16 1022 27 10000 5.1 110 07:21 08.06.2020
1815 Clouds 16 1022 27 10000 5.7 100 06:43 08.06.2020
1816 Clouds 16 1023 29 10000 5.7 80 06:25 08.06.2020
1817 Clouds 15 1024 38 10000 6.7 80 05:42 08.06.2020
1818 Clouds 12 1025 50 10000 5.1 100 03:43 08.06.2020
1819 Clouds 11 1025 57 10000 2.6 80 02:27 08.06.2020
1820 Clouds 9 1025 55 10000 5.52 115 01:45 08.06.2020
1821 Clouds 7 1024 74 10000 3.77 125 01:20 08.06.2020
1822 Clouds 2 1024 74 10000 2.45 139 00:28 08.06.2020
1823 Clouds 2 1024 74 10000 2.1 340 23:40 07.06.2020
1824 Clouds 2 1024 74 10000 2.1 340 23:19 07.06.2020
1825 Clouds 2 1024 74 10000 2.1 340 23:19 07.06.2020
1826 Clouds 2 1023 74 10000 0.5 10 22:58 07.06.2020
1827 Clouds 2 1023 69 10000 2.64 121 22:38 07.06.2020
1828 Clouds 2 1023 69 10000 2.89 118 22:19 07.06.2020
1829 Clouds 3 1023 69 10000 2.1 110 21:58 07.06.2020
1830 Clouds 3 1023 69 10000 1.5 120 21:37 07.06.2020
1831 Clouds 3 1023 69 10000 1.5 120 21:19 07.06.2020
1832 Clouds 4 1024 69 10000 3.31 121 20:40 07.06.2020
1833 Clouds 4 1024 69 10000 3.51 125 20:21 07.06.2020
1834 Clouds 3 1024 64 10000 1.5 330 19:59 07.06.2020
1835 Clouds 3 1024 64 10000 3.51 125 19:41 07.06.2020
1836 Clouds 5 1024 65 10000 3.65 119 19:21 07.06.2020
1837 Clouds 5 1024 65 10000 3.65 119 18:59 07.06.2020
1838 Clouds 4 1024 64 10000 3.65 119 18:38 07.06.2020
1839 Clouds 5 1024 60 10000 0.5 180 18:20 07.06.2020
1840 Clouds 5 1024 60 10000 0.5 180 17:57 07.06.2020
1841 Clear 6 1024 60 10000 2.1 160 17:38 07.06.2020
1842 Clear 6 1024 60 10000 2.1 160 17:20 07.06.2020
1843 Clear 7 1024 56 10000 2.1 150 16:43 07.06.2020
1844 Clear 7 1024 56 10000 2.1 150 16:21 07.06.2020
1845 Clear 7 1024 52 10000 3.1 150 15:44 07.06.2020
1846 Clear 7 1024 52 10000 3.1 150 15:44 07.06.2020
1847 Clear 7 1024 52 10000 3.1 150 15:44 07.06.2020
1848 Clear 7 1024 52 10000 3.1 150 15:44 07.06.2020
1849 Clear 7 1024 52 10000 3.1 150 15:22 07.06.2020
1850 Clear 10 1024 52 10000 3.1 140 14:41 07.06.2020
1851 Clear 11 1023 46 10000 2.6 120 14:22 07.06.2020
1852 Clear 11 1023 46 10000 2.6 120 13:55 07.06.2020
1853 Clear 11 1023 46 10000 3.1 130 13:23 07.06.2020
1854 Clear 11 1023 43 10000 3.1 130 12:58 07.06.2020
1855 Clear 12 1022 40 10000 3.6 130 12:40 07.06.2020
1856 Clear 12 1022 35 10000 3.6 130 12:20 07.06.2020
1857 Clear 12 1022 35 10000 3.6 130 11:55 07.06.2020
1858 Clear 12 1021 33 10000 3.6 130 11:37 07.06.2020
1859 Clear 12 1021 33 10000 3.6 130 11:37 07.06.2020
1860 Clear 12 1021 33 10000 3.6 130 11:18 07.06.2020
1861 Clear 14 1021 27 10000 4.6 130 10:45 07.06.2020
1862 Clear 14 1021 27 10000 4.6 130 10:21 07.06.2020
1863 Clear 14 1020 27 10000 4.6 120 09:59 07.06.2020
1864 Clear 14 1020 25 10000 4.6 110 09:39 07.06.2020
1865 Clear 18 1020 25 10000 4.6 110 09:21 07.06.2020
1866 Clear 18 1020 25 10000 5.1 140 08:58 07.06.2020
1867 Clear 18 1020 25 10000 5.1 140 08:58 07.06.2020
1868 Clear 18 1020 25 10000 5.7 150 08:39 07.06.2020
1869 Clear 18 1020 27 10000 5.1 150 08:21 07.06.2020
1870 Clear 18 1020 25 10000 5.7 150 08:21 07.06.2020
1871 Clear 18 1020 27 10000 4.6 130 07:39 07.06.2020
1872 Clear 17 1021 26 10000 5.7 120 06:55 07.06.2020
1873 Clear 17 1022 29 10000 4.6 110 05:54 07.06.2020
1874 Clear 13 1023 33 10000 6.2 120 04:22 07.06.2020
1875 Clear 12 1024 33 10000 6.2 130 03:48 07.06.2020
1876 Clear 11 1024 43 10000 2.6 110 02:18 07.06.2020
1877 Clear 9 1024 53 10000 1 290 01:26 07.06.2020
1878 Clear 8 1023 69 10000 2.1 280 00:48 07.06.2020
1879 Clear 2 1022 74 10000 1.5 300 00:21 07.06.2020
1880 Clear 2 1022 74 10000 1.5 300 23:59 06.06.2020
1881 Clear 3 1022 69 10000 1.5 300 23:38 06.06.2020
1882 Clear 3 1022 69 10000 1.5 300 23:20 06.06.2020
1883 Clear 3 1022 69 10000 1.5 300 23:20 06.06.2020
1884 Clear 3 1022 69 10000 1.5 320 22:56 06.06.2020
1885 Clear 4 1022 64 10000 2.1 330 22:38 06.06.2020
1886 Clear 4 1022 69 10000 2.76 142 22:19 06.06.2020
1887 Clear 4 1022 64 10000 2.1 330 21:47 06.06.2020
1888 Clear 4 1022 64 10000 2.1 330 21:23 06.06.2020
1889 Clear 5 1022 70 10000 1.5 310 20:58 06.06.2020
1890 Clear 5 1022 65 10000 2.6 350 20:40 06.06.2020
1891 Clear 5 1022 68 10000 2.72 141 20:19 06.06.2020
1892 Clear 5 1022 68 10000 2.72 141 19:57 06.06.2020
1893 Clear 4 1022 64 10000 2.72 141 19:38 06.06.2020
1894 Clear 6 1023 65 10000 0.5 130 19:20 06.06.2020
1895 Clear 5 1023 65 10000 2.81 133 18:54 06.06.2020
1896 Clear 5 1023 65 10000 2.81 133 18:36 06.06.2020
1897 Clear 7 1022 62 10000 2.1 180 18:18 06.06.2020
1898 Clear 6 1022 60 10000 1 170 17:41 06.06.2020
1899 Clear 8 1023 61 10000 3.12 127 17:19 06.06.2020
1900 Clear 8 1023 61 10000 3.12 127 17:19 06.06.2020
1901 Clear 8 1023 61 10000 1.5 160 16:48 06.06.2020
1902 Clear 9 1023 57 10000 3.1 170 16:23 06.06.2020
1903 Clear 9 1023 57 10000 3.1 170 15:58 06.06.2020
1904 Clear 9 1023 57 10000 2.1 150 15:40 06.06.2020
1905 Clear 10 1023 57 10000 2.1 150 15:20 06.06.2020
1906 Clear 11 1023 57 10000 2.6 160 14:44 06.06.2020
1907 Clear 11 1023 57 10000 2.6 160 14:25 06.06.2020
1908 Clear 11 1023 50 10000 2.6 140 13:59 06.06.2020
1909 Clear 11 1023 50 10000 3.1 150 13:41 06.06.2020
1910 Clear 12 1023 43 10000 3.1 140 13:18 06.06.2020
1911 Clear 12 1022 44 10000 3.6 150 12:43 06.06.2020
1912 Clear 12 1022 44 10000 3.6 150 12:24 06.06.2020
1913 Clear 13 1022 41 10000 3.1 140 11:58 06.06.2020
1914 Clear 13 1022 41 10000 3.1 140 11:39 06.06.2020
1915 Clear 13 1022 41 10000 3.1 140 11:20 06.06.2020
1916 Clear 14 1022 33 10000 3.1 140 10:58 06.06.2020
1917 Clear 14 1022 33 10000 3.1 140 10:58 06.06.2020
1918 Clear 14 1021 34 10000 4.1 140 10:39 06.06.2020
1919 Clear 14 1021 34 10000 4.1 140 10:21 06.06.2020
1920 Clear 15 1020 32 10000 3.6 110 09:46 06.06.2020
1921 Clear 15 1020 32 10000 3.6 110 09:46 06.06.2020
1922 Clear 19 1020 32 10000 3.6 110 09:28 06.06.2020
1923 Clear 19 1021 32 10000 3.6 140 08:58 06.06.2020
1924 Clear 20 1021 32 10000 3.6 130 08:40 06.06.2020
1925 Clear 20 1021 32 10000 3.6 130 08:20 06.06.2020
1926 Clear 19 1021 32 10000 4.1 140 07:45 06.06.2020
1927 Clear 19 1021 32 10000 3.6 130 07:22 06.06.2020
1928 Clear 18 1021 34 10000 4.1 110 06:47 06.06.2020
1929 Clear 18 1021 34 10000 4.1 110 06:29 06.06.2020
1930 Clear 18 1022 34 10000 3.6 110 05:54 06.06.2020
1931 Clear 17 1023 33 10000 4.1 140 05:28 06.06.2020
1932 Clear 15 1023 38 10000 3.6 90 04:43 06.06.2020
1933 Clear 12 1024 46 10000 2.1 140 02:49 06.06.2020
1934 Clear 10 1024 57 10000 1.5 200 01:54 06.06.2020
1935 Clear 8 1023 64 10000 2.6 300 01:18 06.06.2020
1936 Clear 2 1023 74 10000 2.1 330 00:43 06.06.2020
1937 Clear 2 1023 74 10000 2.1 330 00:25 06.06.2020
1938 Clear 2 1023 74 10000 2.6 260 23:40 05.06.2020
1939 Clear 2 1023 74 10000 2.6 260 23:21 05.06.2020
1940 Clear 3 1023 74 10000 2.6 290 22:59 05.06.2020
1941 Clear 3 1023 69 10000 2.6 290 22:41 05.06.2020
1942 Clear 3 1023 69 10000 2.6 290 22:23 05.06.2020
1943 Clear 3 1023 74 10000 2.6 290 21:58 05.06.2020
1944 Clear 2 1023 74 10000 2.6 300 21:40 05.06.2020
1945 Clear 3 1023 74 10000 2.6 240 21:20 05.06.2020
1946 Clear 3 1023 74 10000 2.6 240 20:56 05.06.2020
1947 Clear 3 1023 69 10000 2.1 280 20:37 05.06.2020
1948 Clear 4 1023 60 10000 0.5 310 20:19 05.06.2020
1949 Clear 5 1023 65 10000 1.5 310 19:40 05.06.2020
1950 Clear 5 1023 65 10000 1.5 310 19:40 05.06.2020
1951 Clear 4 1023 64 10000 2.1 310 19:22 05.06.2020
1952 Clear 5 1024 65 10000 2.6 320 18:54 05.06.2020
1953 Clear 5 1024 65 10000 2.6 320 18:36 05.06.2020
1954 Clear 5 1024 65 10000 0.5 190 18:18 05.06.2020
1955 Clear 5 1024 65 10000 0.5 190 17:55 05.06.2020
1956 Clear 7 1024 65 10000 2.89 122 17:37 05.06.2020
1957 Clear 7 1024 65 10000 3.27 128 17:18 05.06.2020
1958 Clear 7 1024 60 10000 3.27 128 16:37 05.06.2020
1959 Clear 7 1025 57 10000 1 120 16:19 05.06.2020
1960 Clear 11 1025 57 10000 2.1 130 15:40 05.06.2020
1961 Clear 11 1025 57 10000 2.1 130 15:21 05.06.2020
1962 Clear 11 1025 57 10000 2.1 160 14:58 05.06.2020
1963 Clear 11 1025 53 10000 1.5 170 14:40 05.06.2020
1964 Clear 11 1025 53 10000 1.5 170 14:40 05.06.2020
1965 Clear 11 1025 53 10000 1.5 170 14:21 05.06.2020
1966 Clear 11 1024 50 10000 2.6 140 13:47 05.06.2020
1967 Clear 11 1024 50 10000 2.6 140 13:28 05.06.2020
1968 Clear 12 1024 47 10000 3.1 130 12:57 05.06.2020
1969 Clear 12 1024 44 10000 3.6 140 12:38 05.06.2020
1970 Clear 13 1024 41 10000 4.1 140 12:19 05.06.2020
1971 Clear 13 1024 38 10000 3.6 140 11:43 05.06.2020
1972 Clear 13 1024 38 10000 3.6 140 11:24 05.06.2020
1973 Clear 14 1023 33 10000 4.6 140 10:58 05.06.2020
1974 Clear 14 1023 31 10000 4.6 130 10:39 05.06.2020
1975 Clear 14 1023 31 10000 4.6 130 10:39 05.06.2020
1976 Clear 15 1023 29 10000 5.1 130 10:19 05.06.2020
1977 Clear 15 1023 29 10000 5.1 130 09:57 05.06.2020
1978 Clear 19 1022 29 10000 4.6 130 09:37 05.06.2020
1979 Clear 19 1022 29 10000 4.6 130 09:19 05.06.2020
1980 Clear 20 1022 30 10000 5.1 100 08:57 05.06.2020
1981 Clear 20 1022 30 10000 5.7 130 08:38 05.06.2020
1982 Clear 19 1022 29 10000 5.1 120 08:18 05.06.2020
1983 Clear 19 1023 34 10000 4.6 90 07:48 05.06.2020
1984 Clear 19 1023 34 10000 4.6 90 07:30 05.06.2020
1985 Clear 18 1024 36 10000 3.6 120 06:37 05.06.2020
1986 Clear 17 1025 42 10000 6.7 70 05:22 05.06.2020
1987 Clear 13 1026 48 10000 5.7 70 04:27 05.06.2020
1988 Clear 12 1026 54 10000 6.2 90 03:29 05.06.2020
1989 Clear 11 1027 66 10000 3.1 100 02:26 05.06.2020
1990 Clear 10 1026 70 10000 1 180 01:57 05.06.2020
1991 Clear 9 1026 75 10000 1 290 01:30 05.06.2020
1992 Clear 3 1026 86 10000 2.6 250 00:43 05.06.2020
1993 Clear 3 1026 86 10000 2.6 310 00:21 05.06.2020
1994 Clear 2 1025 86 10000 2.1 230 23:47 04.06.2020
1995 Clear 2 1025 85 10000 2.1 230 23:28 04.06.2020
1996 Clear 3 1025 85 10000 2.1 260 22:56 04.06.2020
1997 Clear 3 1025 85 10000 2.6 270 22:37 04.06.2020
1998 Clear 3 1025 86 10000 1.5 220 22:18 04.06.2020
1999 Clear 3 1025 86 10000 1.5 220 21:56 04.06.2020
2000 Clear 4 1025 80 10000 1.5 250 21:37 04.06.2020
2001 Clear 4 1025 83 10000 2.95 123 21:19 04.06.2020
2002 Clear 4 1025 83 10000 2.95 123 20:54 04.06.2020
2003 Clear 5 1025 75 10000 2.1 310 20:36 04.06.2020
2004 Clear 5 1025 75 10000 2.1 310 20:18 04.06.2020
2005 Clear 4 1025 81 10000 1.5 130 19:39 04.06.2020
2006 Clear 4 1025 81 10000 1.5 130 19:39 04.06.2020
2007 Clear 6 1025 81 10000 2.6 110 19:21 04.06.2020
2008 Clear 6 1025 75 10000 2.1 130 18:56 04.06.2020
2009 Clear 6 1025 75 10000 2.1 130 18:38 04.06.2020
2010 Clear 6 1025 75 10000 2.1 130 18:38 04.06.2020
2011 Clear 6 1025 75 10000 2.1 110 18:19 04.06.2020
2012 Clear 6 1025 70 10000 1.5 130 17:42 04.06.2020
2013 Clear 6 1025 70 10000 1.5 130 17:21 04.06.2020
2014 Clear 6 1026 70 10000 2.6 150 16:56 04.06.2020
2015 Clear 6 1026 70 10000 2.1 160 16:38 04.06.2020
2016 Clear 7 1026 70 10000 2.1 150 16:18 04.06.2020
2017 Clear 10 1026 65 10000 1.5 190 15:42 04.06.2020
2018 Clear 10 1026 65 10000 1.5 190 15:24 04.06.2020
2019 Clear 10 1026 65 10000 1.5 150 14:39 04.06.2020
2020 Clouds 11 1026 57 10000 3.1 130 14:20 04.06.2020
2021 Clouds 11 1026 57 10000 3.1 130 13:56 04.06.2020
2022 Clouds 11 1026 57 10000 3.1 130 13:56 04.06.2020
2023 Clouds 11 1026 57 10000 2.6 130 13:38 04.06.2020
2024 Clouds 11 1026 53 10000 2.6 120 13:19 04.06.2020
2025 Clouds 11 1026 50 10000 3.1 120 12:55 04.06.2020
2026 Clouds 12 1026 50 10000 3.1 120 12:36 04.06.2020
2027 Clouds 12 1025 44 10000 3.1 110 12:18 04.06.2020
2028 Clouds 13 1025 41 10000 3.6 110 11:40 04.06.2020
2029 Clouds 13 1025 41 10000 3.6 110 11:20 04.06.2020
2030 Clouds 13 1025 41 10000 3.6 110 11:20 04.06.2020
2031 Clouds 13 1025 44 10000 4.1 130 10:59 04.06.2020
2032 Clouds 13 1024 38 10000 4.6 130 10:38 04.06.2020
2033 Clouds 13 1024 38 10000 4.6 130 10:38 04.06.2020
2034 Clouds 13 1024 38 10000 4.6 130 10:20 04.06.2020
2035 Clouds 17 1024 39 10000 4.1 110 09:46 04.06.2020
2036 Clouds 17 1024 39 10000 4.1 110 09:28 04.06.2020
2037 Clouds 18 1024 36 10000 5.1 110 08:50 04.06.2020
2038 Clouds 18 1024 36 10000 5.1 120 08:30 04.06.2020
2039 Clouds 17 1024 39 10000 5.1 80 07:59 04.06.2020
2040 Clouds 17 1025 39 10000 5.1 120 07:30 04.06.2020
2041 Clouds 17 1025 42 10000 6.2 110 06:45 04.06.2020
2042 Clouds 17 1026 42 10000 6.2 120 06:26 04.06.2020
2043 Clouds 16 1027 44 10000 6.7 120 05:51 04.06.2020
2044 Clouds 16 1027 44 10000 6.7 120 05:30 04.06.2020
2045 Clouds 12 1029 58 10000 6.7 80 03:31 04.06.2020
2046 Clouds 11 1028 62 10000 4.1 100 01:58 04.06.2020
2047 Clouds 8 1028 75 10000 2.1 170 01:20 04.06.2020
2048 Clouds 3 1027 74 10000 2.1 120 00:51 04.06.2020
2049 Clouds 3 1027 74 10000 3.09 120 23:56 03.06.2020
2050 Clouds 4 1027 71 10000 3.09 120 23:36 03.06.2020
2051 Clouds 5 1026 72 10000 1.5 340 23:18 03.06.2020
2052 Clouds 4 1026 80 10000 1 250 22:40 03.06.2020
2053 Clouds 5 1026 72 10000 0.5 30 22:19 03.06.2020
2054 Clouds 5 1026 72 10000 0.5 30 21:58 03.06.2020
2055 Clouds 5 1026 72 10000 0.5 150 21:40 03.06.2020
2056 Clouds 5 1026 72 10000 0.5 150 21:21 03.06.2020
2057 Clouds 5 1026 72 10000 0.5 150 21:21 03.06.2020
2058 Clouds 5 1026 75 10000 2.1 150 20:57 03.06.2020
2059 Clouds 5 1026 72 10000 3.13 119 20:38 03.06.2020
2060 Clouds 6 1026 71 10000 3.1 90 20:20 03.06.2020
2061 Clouds 6 1026 71 10000 3.1 90 19:56 03.06.2020
2062 Clouds 6 1027 75 10000 3.6 170 19:37 03.06.2020
2063 Clouds 7 1027 65 10000 4.1 160 19:19 03.06.2020
2064 Clouds 8 1027 65 10000 3.6 170 18:54 03.06.2020
2065 Clouds 8 1027 65 10000 3.6 170 18:36 03.06.2020
2066 Clouds 8 1027 65 10000 3.1 170 18:18 03.06.2020
2067 Clouds 10 1027 61 10000 2.6 180 17:41 03.06.2020
2068 Clouds 10 1027 61 10000 3.1 170 17:21 03.06.2020
2069 Clouds 10 1027 61 10000 3.1 170 16:55 03.06.2020
2070 Clouds 10 1028 61 10000 2.6 150 16:37 03.06.2020
2071 Clouds 11 1027 53 10000 3.1 140 16:18 03.06.2020
2072 Clouds 11 1028 53 10000 3.6 140 15:41 03.06.2020
2073 Clouds 11 1028 53 10000 3.6 140 15:21 03.06.2020
2074 Clouds 12 1028 50 10000 2.6 130 14:57 03.06.2020
2075 Clouds 12 1028 47 10000 3.6 130 14:37 03.06.2020
2076 Clouds 12 1028 47 10000 3.6 130 14:19 03.06.2020
2077 Clouds 12 1027 41 10000 4.1 120 13:38 03.06.2020
2078 Clouds 12 1027 41 10000 3.6 120 13:19 03.06.2020
2079 Clouds 13 1027 38 10000 4.1 130 12:43 03.06.2020
2080 Clouds 13 1026 45 10000 4.1 130 12:21 03.06.2020
2081 Clouds 13 1026 45 10000 4.6 130 11:46 03.06.2020
2082 Clouds 13 1026 43 10000 4.6 130 11:27 03.06.2020
2083 Clouds 13 1026 43 10000 5.1 130 10:57 03.06.2020
2084 Clouds 14 1025 43 10000 5.1 120 10:39 03.06.2020
2085 Clouds 14 1025 36 10000 5.1 120 10:20 03.06.2020
2086 Clouds 17 1025 36 10000 5.7 110 09:44 03.06.2020
2087 Clouds 17 1025 32 10000 5.7 110 09:20 03.06.2020
2088 Clouds 18 1025 27 10000 6.2 120 08:48 03.06.2020
2089 Clouds 18 1025 27 10000 6.2 120 08:28 03.06.2020
2090 Clouds 18 1025 27 10000 5.7 120 07:59 03.06.2020
2091 Clouds 18 1026 27 10000 6.2 120 07:41 03.06.2020
2092 Clouds 18 1026 27 10000 6.2 120 07:19 03.06.2020
2093 Clouds 17 1026 29 10000 6.7 110 06:49 03.06.2020
2094 Clouds 17 1026 29 10000 6.7 110 06:30 03.06.2020
2095 Clouds 17 1028 29 10000 5.1 110 05:46 03.06.2020
2096 Clouds 13 1029 34 10000 4.6 100 04:44 03.06.2020
2097 Clouds 13 1029 37 10000 5.7 90 03:50 03.06.2020
2098 Clouds 11 1029 50 10000 5.7 100 02:46 03.06.2020
2099 Clouds 9 1029 65 10000 1.5 290 01:48 03.06.2020
2100 Clouds 4 1028 53 10000 1.5 250 00:41 03.06.2020
2101 Clouds 4 1028 63 10000 1.5 250 00:23 03.06.2020
2102 Clouds 3 1028 74 10000 3.1 290 23:51 02.06.2020
2103 Clouds 3 1028 74 10000 3.1 290 23:27 02.06.2020
2104 Clouds 3 1028 69 10000 2.6 260 22:56 02.06.2020
2105 Clouds 2 1027 80 10000 1.5 300 22:37 02.06.2020
2106 Clouds 2 1027 80 10000 1.5 300 22:18 02.06.2020
2107 Clouds 3 1027 69 10000 2.1 320 21:55 02.06.2020
2108 Clouds 3 1027 65 10000 0.5 310 21:36 02.06.2020
2109 Clouds 3 1027 63 10000 0.5 310 21:18 02.06.2020
2110 Clouds 3 1027 65 10000 0.5 310 21:18 02.06.2020
2111 Clouds 4 1027 69 10000 1 250 20:42 02.06.2020
2112 Clear 4 1027 69 10000 1 250 20:24 02.06.2020
2113 Clear 5 1027 63 10000 1.5 250 19:59 02.06.2020
2114 Clear 5 1027 65 10000 2.6 250 19:40 02.06.2020
2115 Clear 4 1027 69 10000 2.6 250 19:22 02.06.2020
2116 Clear 4 1027 69 10000 2.6 250 18:56 02.06.2020
2117 Clear 5 1027 62 10000 2.6 290 18:37 02.06.2020
2118 Clear 5 1027 60 10000 2.1 310 18:19 02.06.2020
2119 Clear 7 1027 65 10000 3.65 124 17:42 02.06.2020
2120 Clear 7 1027 65 10000 3.77 122 17:23 02.06.2020
2121 Clear 7 1027 65 10000 3.77 122 17:23 02.06.2020
2122 Clear 6 1027 58 10000 3.77 122 16:57 02.06.2020
2123 Clear 7 1028 58 10000 3.77 122 16:38 02.06.2020
2124 Clear 7 1028 56 10000 3.81 122 16:20 02.06.2020
2125 Clear 9 1028 57 10000 3.81 122 15:46 02.06.2020
2126 Clear 10 1028 57 10000 3.88 119 15:24 02.06.2020
2127 Clear 10 1028 57 10000 2.6 130 14:56 02.06.2020
2128 Clear 10 1028 57 10000 2.6 120 14:37 02.06.2020
2129 Clear 10 1028 57 10000 2.6 120 14:19 02.06.2020
2130 Clear 11 1028 50 10000 2.6 130 13:39 02.06.2020
2131 Clear 12 1027 46 10000 3.1 130 13:19 02.06.2020
2132 Clear 12 1027 46 10000 3.1 130 12:58 02.06.2020
2133 Clear 12 1027 43 10000 3.1 140 12:40 02.06.2020
2134 Clear 12 1027 44 10000 3.1 140 12:21 02.06.2020
2135 Clear 12 1027 44 10000 3.1 140 11:56 02.06.2020
2136 Clear 13 1026 41 10000 3.6 140 11:38 02.06.2020
2137 Clear 13 1026 38 10000 4.1 130 11:20 02.06.2020
2138 Clear 17 1025 36 10000 4.1 130 10:47 02.06.2020
2139 Clear 17 1025 36 10000 4.1 130 10:28 02.06.2020
2140 Clear 17 1025 36 10000 6.2 110 09:56 02.06.2020
2141 Clear 17 1025 36 10000 6.2 110 09:56 02.06.2020
2142 Clear 18 1025 36 10000 5.7 130 09:37 02.06.2020
2143 Clear 18 1025 36 10000 5.7 130 09:19 02.06.2020
2144 Clear 18 1025 36 10000 6.2 120 08:47 02.06.2020
2145 Clear 18 1025 36 10000 6.2 120 08:20 02.06.2020
2146 Clear 18 1025 39 10000 6.7 140 07:46 02.06.2020
2147 Clear 18 1025 39 10000 6.7 140 07:25 02.06.2020
2148 Clear 18 1026 42 10000 5.7 100 06:43 02.06.2020
2149 Clear 17 1027 45 10000 6.2 110 05:57 02.06.2020
2150 Clear 17 1027 45 10000 6.2 110 05:19 02.06.2020
2151 Clouds 15 1028 58 10000 5.7 110 03:22 02.06.2020
2152 Clear 13 1028 62 10000 4.6 110 02:25 02.06.2020
2153 Clear 9 1027 70 10000 0.5 240 01:21 02.06.2020
2154 Clear 5 1027 87 10000 3.69 132 00:25 02.06.2020
2155 Clear 5 1026 75 10000 1.5 310 23:55 01.06.2020
2156 Clear 5 1026 75 10000 1 310 23:36 01.06.2020
2157 Clear 6 1026 70 10000 1.5 310 23:18 01.06.2020
2158 Clear 5 1025 75 10000 1.5 330 22:41 01.06.2020
2159 Clear 5 1025 75 10000 1.5 330 22:21 01.06.2020
2160 Clear 7 1025 65 10000 1.5 290 21:57 01.06.2020
2161 Clear 6 1025 83 10000 2.1 300 21:37 01.06.2020
2162 Clear 6 1025 78 10000 2.1 300 21:18 01.06.2020
2163 Clear 6 1025 60 10000 0.5 210 20:55 01.06.2020
2164 Clear 7 1025 56 10000 4.19 134 20:37 01.06.2020
2165 Clear 7 1025 56 10000 4.18 138 20:18 01.06.2020
2166 Clear 8 1025 72 10000 1.5 20 19:43 01.06.2020
2167 Clear 7 1025 56 10000 2.1 80 19:21 01.06.2020
2168 Clear 7 1025 56 10000 2.1 80 18:59 01.06.2020
2169 Clear 9 1025 65 10000 4.17 141 18:39 01.06.2020
2170 Clear 8 1025 52 10000 3.62 136 18:19 01.06.2020
2171 Clear 9 1025 57 10000 1.5 290 17:55 01.06.2020
2172 Clear 9 1025 57 10000 1.5 290 17:36 01.06.2020
2173 Clear 9 1025 58 10000 3.64 139 17:18 01.06.2020
2174 Clear 9 1025 45 10000 3.64 139 16:39 01.06.2020
2175 Clear 10 1025 55 10000 3.64 144 16:20 01.06.2020
2176 Clear 10 1025 55 10000 3.64 144 15:55 01.06.2020
2177 Clear 11 1025 55 10000 2.6 150 15:37 01.06.2020
2178 Clear 11 1025 56 10000 2.6 150 15:18 01.06.2020
2179 Clear 12 1025 56 10000 2.6 160 14:56 01.06.2020
2180 Clear 12 1025 56 10000 2.1 160 14:38 01.06.2020
2181 Clear 13 1024 52 10000 3.1 170 14:19 01.06.2020
2182 Clear 13 1024 52 10000 3.1 170 13:43 01.06.2020
2183 Clear 14 1024 49 10000 2.1 180 13:21 01.06.2020
2184 Clear 14 1024 49 10000 2.1 180 12:58 01.06.2020
2185 Clear 15 1024 49 10000 2.6 160 12:40 01.06.2020
2186 Clear 15 1024 45 10000 2.6 160 12:21 01.06.2020
2187 Clear 16 1024 45 10000 3.1 150 11:57 01.06.2020
2188 Clear 17 1023 45 10000 2.6 150 11:37 01.06.2020
2189 Clear 18 1022 39 10000 4.1 170 11:18 01.06.2020
2190 Clear 18 1022 39 10000 4.1 170 10:54 01.06.2020
2191 Clear 20 1022 28 10000 4.6 180 10:36 01.06.2020
2192 Clear 20 1022 28 10000 4.1 180 10:18 01.06.2020
2193 Clear 21 1022 26 10000 4.6 170 09:43 01.06.2020
2194 Clear 21 1022 26 10000 4.6 170 09:24 01.06.2020
2195 Clear 21 1022 26 10000 5.1 190 08:54 01.06.2020
2196 Clear 21 1022 27 10000 3.6 140 08:31 01.06.2020
2197 Clear 21 1022 25 10000 4.6 160 07:57 01.06.2020
2198 Clear 20 1022 25 10000 3.6 140 07:38 01.06.2020
2199 Clear 20 1022 25 10000 3.6 140 07:20 01.06.2020
2200 Clear 20 1023 25 10000 3.6 130 06:49 01.06.2020
2201 Clear 19 1024 25 10000 4.6 160 05:54 01.06.2020
2202 Clear 19 1025 25 10000 5.1 150 04:50 01.06.2020
2203 Clear 18 1026 25 10000 5.1 140 03:50 01.06.2020
2204 Clear 17 1026 29 10000 5.1 140 03:32 01.06.2020
2205 Clear 15 1026 33 10000 2.6 170 02:32 01.06.2020
2206 Clouds 12 1025 50 10000 2.1 210 01:35 01.06.2020
2207 Clouds 11 1025 57 10000 1 300 00:58 01.06.2020
2208 Clouds 9 1024 66 10000 1.5 200 00:40 01.06.2020
2209 Clouds 9 1024 66 10000 1.5 200 00:21 01.06.2020
2210 Clouds 10 1024 61 10000 2.1 210 23:58 31.05.2020
2211 Clouds 10 1023 61 10000 2.1 200 23:38 31.05.2020
2212 Clouds 10 1023 61 10000 2.1 200 23:20 31.05.2020
2213 Clouds 10 1023 71 10000 3.1 190 22:54 31.05.2020
2214 Clouds 9 1022 76 10000 1.5 210 22:36 31.05.2020
2215 Clear 9 1022 76 10000 2.6 210 22:18 31.05.2020
2216 Clear 10 1022 71 10000 3.1 200 21:42 31.05.2020
2217 Clear 10 1022 71 10000 3.1 200 21:23 31.05.2020
2218 Clear 10 1022 71 10000 2.1 270 20:58 31.05.2020
2219 Clear 10 1021 71 10000 2.6 240 20:40 31.05.2020
2220 Clear 10 1021 71 10000 2.6 240 20:21 31.05.2020
2221 Clear 11 1021 71 10000 3.1 220 19:56 31.05.2020
2222 Clear 11 1021 66 10000 2.6 270 19:37 31.05.2020
2223 Clear 11 1021 66 10000 2.6 270 19:19 31.05.2020
2224 Clear 12 1021 62 10000 1.5 230 18:44 31.05.2020
2225 Clear 12 1021 62 10000 1.5 230 18:25 31.05.2020
2226 Clear 12 1021 62 10000 2.6 270 17:46 31.05.2020
2227 Clear 12 1021 62 10000 2.6 270 17:25 31.05.2020
2228 Clear 13 1021 62 10000 1.5 240 16:59 31.05.2020
2229 Clear 14 1021 54 10000 2.6 210 16:40 31.05.2020
2230 Clear 14 1021 58 10000 1.79 127 16:19 31.05.2020
2231 Clear 14 1021 54 10000 1.79 127 15:39 31.05.2020
2232 Clear 16 1021 51 10000 2.82 136 15:21 31.05.2020
2233 Clear 16 1021 55 10000 0.5 20 14:47 31.05.2020
2234 Clouds 16 1021 55 10000 0.5 20 14:22 31.05.2020
2235 Clouds 18 1021 48 10000 2.1 100 13:57 31.05.2020
2236 Clouds 19 1021 45 10000 2.6 170 13:38 31.05.2020
2237 Clouds 19 1021 45 10000 2.6 170 13:20 31.05.2020
2238 Clouds 19 1020 45 10000 3.6 180 12:57 31.05.2020
2239 Clouds 20 1020 42 10000 2.6 150 12:38 31.05.2020
2240 Clouds 20 1020 42 10000 2.6 150 12:19 31.05.2020
2241 Clouds 20 1020 42 10000 2.6 150 12:19 31.05.2020
2242 Clouds 22 1019 37 10000 3.6 120 11:48 31.05.2020
2243 Clouds 22 1019 37 10000 3.6 120 11:23 31.05.2020
2244 Clouds 23 1019 35 10000 3.6 150 10:57 31.05.2020
2245 Clouds 24 1018 33 10000 4.6 190 10:39 31.05.2020
2246 Clouds 25 1018 33 10000 3.6 210 10:19 31.05.2020
2247 Clouds 25 1018 31 10000 3.6 200 09:42 31.05.2020
2248 Clouds 25 1018 31 10000 3.6 200 09:23 31.05.2020
2249 Clouds 26 1018 31 10000 4.6 170 08:58 31.05.2020
2250 Clouds 26 1018 29 10000 3.6 230 08:37 31.05.2020
2251 Clouds 26 1018 29 10000 3.6 230 08:19 31.05.2020
2252 Clouds 26 1018 31 10000 2.6 230 07:43 31.05.2020
2253 Clouds 26 1018 31 10000 2.6 230 07:21 31.05.2020
2254 Clouds 26 1019 31 10000 4.6 200 06:54 31.05.2020
2255 Clouds 25 1019 31 10000 2.1 310 06:31 31.05.2020
2256 Clear 23 1020 38 10000 2.6 130 05:44 31.05.2020
2257 Clear 22 1021 40 10000 3.6 110 04:29 31.05.2020
2258 Clouds 21 1022 43 10000 4.1 100 03:48 31.05.2020
2259 Clouds 20 1022 45 10000 3.6 130 02:59 31.05.2020
2260 Clouds 18 1021 55 10000 3.85 188 01:49 31.05.2020
2261 Clear 16 1021 63 10000 2.1 250 01:27 31.05.2020
2262 Clouds 13 1020 76 10000 2.6 260 00:30 31.05.2020
2263 Clouds 12 1020 76 10000 2.6 260 23:56 30.05.2020
2264 Clear 12 1020 76 10000 2.6 260 23:38 30.05.2020
2265 Clear 12 1020 76 10000 2.6 260 23:38 30.05.2020
2266 Clear 12 1020 76 10000 2.6 260 23:19 30.05.2020
2267 Clear 14 1019 71 10000 2.1 300 22:41 30.05.2020
2268 Clear 14 1019 71 10000 3.1 340 22:22 30.05.2020
2269 Clear 14 1019 71 10000 3.1 340 21:56 30.05.2020
2270 Clear 14 1019 71 10000 3.1 340 21:56 30.05.2020
2271 Clouds 12 1018 71 10000 1.5 190 21:37 30.05.2020
2272 Clouds 12 1018 71 10000 1.5 190 21:19 30.05.2020
2273 Clear 14 1018 71 10000 3.6 190 20:56 30.05.2020
2274 Clouds 12 1018 71 10000 1 290 20:37 30.05.2020
2275 Clouds 12 1018 71 10000 1 290 20:37 30.05.2020
2276 Clouds 14 1018 71 10000 3.1 300 20:19 30.05.2020
2277 Clouds 13 1018 76 10000 3.1 290 19:42 30.05.2020
2278 Clear 13 1018 66 10000 1 350 19:22 30.05.2020
2279 Clouds 14 1018 71 10000 2.1 270 18:46 30.05.2020
2280 Clouds 14 1018 71 10000 2.1 270 18:24 30.05.2020
2281 Clouds 14 1019 71 10000 2.1 230 17:55 30.05.2020
2282 Clouds 14 1019 62 10000 2.1 240 17:37 30.05.2020
2283 Clear 18 1019 59 10000 2.1 340 17:18 30.05.2020
2284 Clear 17 1019 63 10000 2.6 320 16:41 30.05.2020
2285 Clear 17 1020 59 10000 2.1 350 16:22 30.05.2020
2286 Clear 17 1020 59 10000 2.1 350 15:48 30.05.2020
2287 Clear 16 1020 59 10000 2.1 350 15:29 30.05.2020
2288 Clear 17 1020 55 10000 3.1 340 14:48 30.05.2020
2289 Clear 17 1020 55 10000 3.1 340 14:30 30.05.2020
2290 Clear 17 1020 55 10000 3.6 340 13:47 30.05.2020
2291 Clear 17 1020 55 10000 3.6 340 13:27 30.05.2020
2292 Clear 17 1019 55 10000 3.6 350 12:57 30.05.2020
2293 Clear 18 1019 52 10000 3.6 350 12:39 30.05.2020
2294 Clear 18 1019 52 10000 3.6 350 12:19 30.05.2020
2295 Clear 19 1019 48 10000 4.1 350 11:41 30.05.2020
2296 Clouds 20 1018 42 10000 4.6 350 11:23 30.05.2020
2297 Clouds 20 1018 42 10000 4.6 350 10:58 30.05.2020
2298 Clouds 20 1018 42 10000 4.6 350 10:58 30.05.2020
2299 Clouds 22 1018 35 10000 4.6 350 10:38 30.05.2020
2300 Clouds 23 1018 33 10000 5.1 320 10:20 30.05.2020
2301 Clouds 23 1018 33 10000 6.2 290 09:44 30.05.2020
2302 Clouds 23 1018 33 10000 6.2 290 09:25 30.05.2020
2303 Clouds 23 1018 28 10000 7.2 320 08:44 30.05.2020
2304 Clouds 23 1018 28 10000 7.2 320 08:44 30.05.2020
2305 Clouds 23 1018 28 10000 7.2 320 08:26 30.05.2020
2306 Clouds 24 1018 28 10000 7.7 310 07:40 30.05.2020
2307 Clouds 24 1018 26 10000 7.7 310 07:19 30.05.2020
2308 Clouds 24 1018 22 10000 7.7 300 06:30 30.05.2020
2309 Clouds 25 1019 25 10000 6.2 310 05:52 30.05.2020
2310 Clouds 25 1020 23 10000 7.7 320 04:59 30.05.2020
2311 Clouds 21 1022 23 10000 4.6 350 02:53 30.05.2020
2312 Clouds 19 1021 25 10000 4.6 360 02:23 30.05.2020
2313 Clouds 11 1021 40 10000 5.91 11 00:45 30.05.2020
2314 Clouds 11 1021 40 10000 5 15 00:25 30.05.2020
2315 Clouds 9 1021 42 10000 2.1 320 23:59 29.05.2020
2316 Clouds 8 1021 45 10000 2.1 290 23:38 29.05.2020
2317 Clouds 9 1020 45 10000 0.5 330 23:19 29.05.2020
2318 Clouds 9 1020 45 10000 0.5 330 23:19 29.05.2020
2319 Clouds 9 1020 45 10000 0.5 330 22:54 29.05.2020
2320 Clouds 8 1020 45 10000 4.28 18 22:36 29.05.2020
2321 Clouds 6 1020 48 10000 2.1 90 22:18 29.05.2020
2322 Clouds 6 1020 45 10000 1.5 80 21:40 29.05.2020
2323 Clear 6 1020 45 10000 1.5 80 21:21 29.05.2020
2324 Clear 6 1020 48 10000 3.76 30 20:58 29.05.2020
2325 Clear 6 1020 41 10000 2.1 60 20:38 29.05.2020
2326 Clear 6 1020 41 10000 2.1 60 20:19 29.05.2020
2327 Clear 7 1021 48 10000 3.52 37 19:42 29.05.2020
2328 Clear 7 1021 48 10000 3.69 44 19:24 29.05.2020
2329 Clear 7 1022 39 10000 3.69 44 18:48 29.05.2020
2330 Clear 7 1022 39 10000 3.33 48 18:23 29.05.2020
2331 Clear 8 1022 42 10000 3.33 48 17:59 29.05.2020
2332 Clear 9 1022 42 10000 3.33 48 17:39 29.05.2020
2333 Clear 9 1022 42 10000 3.53 54 17:20 29.05.2020
2334 Clear 9 1022 45 10000 3.53 54 16:46 29.05.2020
2335 Clear 9 1022 45 10000 3.53 54 16:46 29.05.2020
2336 Clear 9 1022 45 10000 3.44 59 16:28 29.05.2020
2337 Clear 9 1022 39 10000 2.1 90 15:59 29.05.2020
2338 Clear 11 1022 37 10000 2.1 120 15:40 29.05.2020
2339 Clear 11 1022 37 10000 2.1 120 15:21 29.05.2020
2340 Clear 12 1022 32 10000 2.1 110 14:54 29.05.2020
2341 Clear 12 1022 34 10000 2.6 120 14:36 29.05.2020
2342 Clear 13 1022 32 10000 2.6 100 14:18 29.05.2020
2343 Clear 15 1022 30 10000 3.1 50 13:41 29.05.2020
2344 Clear 15 1022 30 10000 3.1 50 13:21 29.05.2020
2345 Clear 16 1021 26 10000 1.5 130 12:46 29.05.2020
2346 Clear 16 1021 26 10000 1.5 130 12:26 29.05.2020
2347 Clear 16 1021 26 10000 1.5 130 12:26 29.05.2020
2348 Clear 16 1021 26 10000 3.1 130 11:59 29.05.2020
2349 Clear 17 1021 25 10000 3.1 150 11:41 29.05.2020
2350 Clear 20 1020 22 10000 2.6 150 11:22 29.05.2020
2351 Clear 21 1020 19 10000 2.6 140 10:43 29.05.2020
2352 Clear 21 1020 19 10000 2.6 140 10:23 29.05.2020
2353 Clear 23 1020 18 10000 2.6 90 09:56 29.05.2020
2354 Clear 23 1020 18 10000 2.1 150 09:37 29.05.2020
2355 Clear 23 1020 20 10000 1.5 350 09:18 29.05.2020
2356 Clear 22 1020 21 10000 2.6 80 08:44 29.05.2020
2357 Clear 22 1020 21 10000 2.6 80 08:22 29.05.2020
2358 Clear 23 1021 20 10000 3.1 90 07:46 29.05.2020
2359 Clear 23 1021 20 10000 3.1 90 07:28 29.05.2020
2360 Clear 22 1021 21 10000 3.6 50 06:52 29.05.2020
2361 Clear 20 1022 24 10000 3.6 40 06:30 29.05.2020
2362 Clear 21 1022 22 10000 3.1 30 05:58 29.05.2020
2363 Clear 20 1024 22 10000 3.1 70 04:53 29.05.2020
2364 Clear 11 1025 50 10000 6.3 63 01:48 29.05.2020
2365 Clear 11 1025 50 10000 4.24 63 01:25 29.05.2020
2366 Clear 8 1025 52 10000 2.1 320 00:49 29.05.2020
2367 Clear 4 1024 60 10000 3.27 63 00:23 29.05.2020
2368 Clear 4 1024 64 10000 3.27 63 23:41 28.05.2020
2369 Clear 4 1024 64 10000 3.08 65 23:19 28.05.2020
2370 Clear 4 1024 64 10000 3.08 65 23:19 28.05.2020
2371 Clear 5 1023 60 10000 3.08 65 22:59 28.05.2020
2372 Clear 5 1023 60 10000 1.5 50 22:39 28.05.2020
2373 Clear 6 1023 52 10000 2.6 50 22:18 28.05.2020
2374 Clear 6 1023 52 10000 2.6 50 21:54 28.05.2020
2375 Clear 8 1023 62 10000 1 50 21:36 28.05.2020
2376 Clear 7 1023 56 10000 1.5 70 21:18 28.05.2020
2377 Clear 7 1023 56 10000 2.6 70 20:40 28.05.2020
2378 Clear 8 1023 55 10000 2.1 90 20:19 28.05.2020
2379 Clear 8 1023 55 10000 2.1 90 19:58 28.05.2020
2380 Clear 11 1023 50 10000 3.1 90 19:40 28.05.2020
2381 Clear 11 1023 50 10000 3.6 90 19:20 28.05.2020
2382 Clear 11 1023 50 10000 3.6 90 18:46 28.05.2020
2383 Clear 11 1023 50 10000 3.6 90 18:27 28.05.2020
2384 Clear 12 1023 46 10000 3.1 80 17:59 28.05.2020
2385 Clear 12 1023 46 10000 2.6 80 17:39 28.05.2020
2386 Clear 12 1023 46 10000 2.6 80 17:20 28.05.2020
2387 Clear 13 1024 43 10000 2.6 70 16:46 28.05.2020
2388 Clear 14 1024 41 10000 3.6 90 16:21 28.05.2020
2389 Clear 14 1024 41 10000 3.6 90 15:54 28.05.2020
2390 Clear 13 1024 43 10000 3.6 90 15:36 28.05.2020
2391 Clear 14 1024 41 10000 3.6 80 15:18 28.05.2020
2392 Clear 14 1024 41 10000 3.6 90 14:41 28.05.2020
2393 Clear 14 1024 41 10000 3.6 90 14:22 28.05.2020
2394 Clear 16 1023 36 10000 3.1 80 13:46 28.05.2020
2395 Clear 16 1023 36 10000 3.1 80 13:27 28.05.2020
2396 Clear 18 1023 31 10000 3.1 100 12:44 28.05.2020
2397 Clear 18 1023 31 10000 3.1 100 12:20 28.05.2020
2398 Clear 18 1022 31 10000 3.1 100 11:57 28.05.2020
2399 Clear 18 1022 31 10000 3.1 100 11:57 28.05.2020
2400 Clear 19 1022 29 10000 4.1 100 11:39 28.05.2020
2401 Clear 19 1022 29 10000 4.1 100 11:20 28.05.2020
2402 Clear 22 1021 24 10000 4.6 100 10:43 28.05.2020
2403 Clear 22 1021 24 10000 4.6 100 10:25 28.05.2020
2404 Clear 22 1021 24 10000 5.7 90 09:56 28.05.2020
2405 Clear 23 1021 25 10000 5.1 100 09:38 28.05.2020
2406 Clear 23 1020 25 10000 3.6 90 09:18 28.05.2020
2407 Clear 23 1020 25 10000 5.7 90 08:43 28.05.2020
2408 Clear 23 1020 25 10000 5.7 90 08:22 28.05.2020
2409 Clear 22 1021 28 10000 3.6 50 07:41 28.05.2020
2410 Clear 22 1021 28 10000 3.6 50 07:23 28.05.2020
2411 Clear 22 1021 28 10000 3.6 90 06:44 28.05.2020
2412 Clear 22 1021 28 10000 3.6 90 06:26 28.05.2020
2413 Clear 22 1022 28 10000 2.6 170 05:39 28.05.2020
2414 Clear 21 1023 30 10000 4.1 120 04:37 28.05.2020
2415 Clear 21 1024 32 10000 5.7 90 04:18 28.05.2020
2416 Clear 19 1024 48 10000 0.5 30 02:56 28.05.2020
2417 Clear 16 1024 55 10000 3.73 87 02:28 28.05.2020
2418 Clear 13 1024 58 10000 3.74 86 01:45 28.05.2020
2419 Clear 7 1023 70 10000 2.21 88 00:47 28.05.2020
2420 Clear 7 1023 70 10000 1.5 99 00:19 28.05.2020
2421 Clear 7 1022 75 10000 1.5 99 23:56 27.05.2020
2422 Clear 6 1022 81 10000 1.5 340 23:37 27.05.2020
2423 Clear 6 1022 81 10000 1.5 340 23:19 27.05.2020
2424 Clear 8 1021 70 10000 2.6 350 22:41 27.05.2020
2425 Clear 8 1021 70 10000 2.6 350 22:23 27.05.2020
2426 Clear 9 1021 70 10000 0.44 90 21:56 27.05.2020
2427 Clear 8 1021 65 10000 1.5 190 21:37 27.05.2020
2428 Clear 8 1021 65 10000 1.5 190 21:19 27.05.2020
2429 Clear 9 1021 66 10000 1.5 30 20:57 27.05.2020
2430 Clear 9 1021 61 10000 0.5 350 20:38 27.05.2020
2431 Clear 9 1020 66 10000 0.43 72 20:18 27.05.2020
2432 Clear 10 1021 66 10000 0.5 200 19:43 27.05.2020
2433 Clear 10 1021 66 10000 0.5 200 19:20 27.05.2020
2434 Clear 11 1021 62 10000 2.6 290 18:44 27.05.2020
2435 Clear 11 1021 62 10000 2.6 290 18:20 27.05.2020
2436 Clear 11 1021 62 10000 2.1 220 17:58 27.05.2020
2437 Clear 14 1021 58 10000 3.1 350 17:39 27.05.2020
2438 Clear 14 1021 58 10000 3.1 350 17:21 27.05.2020
2439 Clear 15 1021 58 10000 3.1 350 16:56 27.05.2020
2440 Clouds 13 1021 54 10000 4.1 330 16:38 27.05.2020
2441 Clouds 11 1021 53 10000 1 120 16:19 27.05.2020
2442 Clouds 15 1021 47 10000 2.6 50 15:47 27.05.2020
2443 Clouds 15 1021 47 10000 2.6 50 15:22 27.05.2020
2444 Clear 14 1021 47 10000 3.1 50 14:46 27.05.2020
2445 Clouds 14 1021 47 10000 3.1 50 14:22 27.05.2020
2446 Clouds 15 1021 44 10000 3.1 50 13:58 27.05.2020
2447 Clouds 15 1020 47 10000 3.1 70 13:39 27.05.2020
2448 Clouds 15 1020 47 10000 3.1 70 13:39 27.05.2020
2449 Clouds 15 1020 47 10000 3.1 70 13:20 27.05.2020
2450 Clouds 17 1020 42 10000 1.86 27 12:42 27.05.2020
2451 Clouds 17 1020 42 10000 2.07 18 12:23 27.05.2020
2452 Clouds 18 1019 39 10000 2.07 18 11:55 27.05.2020
2453 Clouds 18 1019 39 10000 2.07 18 11:55 27.05.2020
2454 Clouds 19 1019 37 10000 2.6 50 11:36 27.05.2020
2455 Clouds 19 1019 37 10000 2.6 50 11:36 27.05.2020
2456 Clouds 20 1018 34 10000 2.6 140 11:18 27.05.2020
2457 Clouds 21 1018 32 10000 2.6 60 10:42 27.05.2020
2458 Clouds 21 1018 32 10000 2.6 60 10:23 27.05.2020
2459 Clouds 22 1018 30 10000 2.1 80 09:56 27.05.2020
2460 Clouds 22 1018 30 10000 2.6 80 09:37 27.05.2020
2461 Clouds 22 1018 30 10000 2.6 80 09:19 27.05.2020
2462 Clouds 22 1018 30 10000 3.1 50 08:42 27.05.2020
2463 Clouds 22 1018 30 10000 3.1 50 08:23 27.05.2020
2464 Clouds 22 1018 30 10000 3.6 90 07:52 27.05.2020
2465 Clouds 22 1018 30 10000 4.1 90 07:34 27.05.2020
2466 Clouds 21 1019 30 10000 3.1 50 06:55 27.05.2020
2467 Clouds 21 1019 30 10000 3.6 70 06:24 27.05.2020
2468 Clouds 21 1019 30 10000 3.6 150 05:50 27.05.2020
2469 Clouds 22 1020 30 10000 3.1 80 05:24 27.05.2020
2470 Clouds 18 1022 45 10000 3.1 210 02:51 27.05.2020
2471 Clouds 18 1022 48 10000 2.6 260 02:25 27.05.2020
2472 Clouds 16 1022 55 10000 3.1 310 01:31 27.05.2020
2473 Clouds 16 1022 55 10000 3.1 310 01:31 27.05.2020
2474 Clouds 14 1022 58 10000 2.1 320 00:47 27.05.2020
2475 Clouds 14 1022 58 10000 2.1 320 00:21 27.05.2020
2476 Clouds 14 1021 58 10000 1.5 340 23:58 26.05.2020
2477 Clouds 14 1021 58 10000 1.5 340 23:58 26.05.2020
2478 Clouds 14 1021 58 10000 2.6 340 23:39 26.05.2020
2479 Clouds 15 1021 51 10000 2.6 340 23:20 26.05.2020
2480 Clouds 15 1020 51 10000 2.6 350 22:42 26.05.2020
2481 Clouds 15 1020 51 10000 2.6 350 22:23 26.05.2020
2482 Clouds 15 1020 51 10000 2.6 320 21:59 26.05.2020
2483 Clouds 14 1020 54 10000 1.7 229 21:40 26.05.2020
2484 Clouds 14 1020 54 10000 1.69 227 21:22 26.05.2020
2485 Clouds 15 1020 51 10000 1.69 227 20:58 26.05.2020
2486 Clouds 14 1020 54 10000 1.69 227 20:39 26.05.2020
2487 Clouds 14 1020 54 10000 1.82 229 20:20 26.05.2020
2488 Clouds 15 1020 51 10000 3.1 290 19:41 26.05.2020
2489 Clouds 15 1019 47 10000 1.5 300 19:20 26.05.2020
2490 Clouds 15 1019 47 10000 1.5 300 18:58 26.05.2020
2491 Clouds 15 1020 51 10000 1.5 250 18:39 26.05.2020
2492 Clouds 15 1020 47 10000 2.6 250 18:20 26.05.2020
2493 Clouds 15 1020 51 10000 2.6 280 17:40 26.05.2020
2494 Clouds 15 1020 47 10000 3.1 280 17:21 26.05.2020
2495 Clouds 15 1020 47 10000 1.5 320 16:48 26.05.2020
2496 Clouds 15 1019 47 10000 2.1 330 16:23 26.05.2020
2497 Clouds 15 1019 47 10000 2.1 330 15:58 26.05.2020
2498 Clouds 15 1019 47 10000 2.1 330 15:39 26.05.2020
2499 Clouds 15 1019 47 10000 2.1 330 15:19 26.05.2020
2500 Clouds 15 1019 47 10000 2.6 340 14:44 26.05.2020
2501 Clouds 15 1019 47 10000 2.6 340 14:44 26.05.2020
2502 Clouds 15 1019 47 10000 2.6 340 14:25 26.05.2020
2503 Clouds 15 1019 47 10000 2.1 350 13:57 26.05.2020
2504 Clouds 16 1019 44 10000 2.6 360 13:39 26.05.2020
2505 Clouds 16 1019 44 10000 2.6 360 13:21 26.05.2020
2506 Clouds 16 1019 44 10000 2.6 350 12:43 26.05.2020
2507 Clouds 16 1019 44 10000 2.6 350 12:22 26.05.2020
2508 Clouds 17 1019 42 10000 3.6 330 11:59 26.05.2020
2509 Clouds 17 1019 42 10000 4.6 330 11:40 26.05.2020
2510 Clouds 17 1019 42 10000 4.6 330 11:19 26.05.2020
2511 Clouds 17 1018 39 10000 4.6 330 10:44 26.05.2020
2512 Clouds 17 1018 39 10000 4.6 330 10:19 26.05.2020
2513 Clouds 18 1018 36 10000 4.1 320 09:41 26.05.2020
2514 Clouds 18 1018 36 10000 5.1 310 09:20 26.05.2020
2515 Clouds 18 1018 36 10000 4.6 310 08:44 26.05.2020
2516 Clouds 18 1018 36 10000 4.6 310 08:23 26.05.2020
2517 Clouds 18 1018 36 10000 4.6 280 08:00 26.05.2020
2518 Clouds 18 1018 36 10000 5.1 320 07:40 26.05.2020
2519 Clouds 18 1018 36 10000 5.1 320 07:40 26.05.2020
2520 Clouds 18 1018 36 10000 5.1 320 07:22 26.05.2020
2521 Clouds 18 1018 36 10000 5.7 320 06:47 26.05.2020
2522 Clouds 18 1018 34 10000 5.1 320 06:23 26.05.2020
2523 Clouds 18 1018 36 10000 5.1 340 05:35 26.05.2020
2524 Clouds 17 1020 39 10000 4.6 340 04:56 26.05.2020
2525 Clouds 16 1019 41 10000 6.2 360 04:37 26.05.2020
2526 Rain 16 1020 41 10000 5.7 350 04:18 26.05.2020
2527 Clouds 15 1021 41 10000 5.1 350 02:51 26.05.2020
2528 Clouds 14 1021 44 10000 0.5 310 01:49 26.05.2020
2529 Clouds 14 1021 44 10000 0.5 310 01:29 26.05.2020
2530 Clouds 12 1020 54 10000 0.5 350 00:39 26.05.2020
2531 Clouds 12 1020 54 10000 0.5 350 00:19 26.05.2020
2532 Clouds 12 1020 54 10000 2.1 190 23:56 25.05.2020
2533 Clouds 11 1019 57 10000 2.6 40 23:38 25.05.2020
2534 Clouds 12 1019 54 10000 2.6 70 23:19 25.05.2020
2535 Clouds 12 1019 54 10000 2.6 70 23:19 25.05.2020
2536 Clouds 12 1019 54 10000 2.6 70 22:55 25.05.2020
2537 Clouds 12 1019 54 10000 3.1 80 22:36 25.05.2020
2538 Clouds 12 1019 54 10000 3.1 80 22:36 25.05.2020
2539 Clouds 11 1019 57 10000 2.6 80 22:18 25.05.2020
2540 Clouds 11 1019 57 10000 2.6 80 21:56 25.05.2020
2541 Clouds 11 1019 57 10000 3.86 1 21:36 25.05.2020
2542 Clouds 11 1020 57 10000 1.5 250 21:18 25.05.2020
2543 Clouds 11 1020 57 10000 1.5 250 21:18 25.05.2020
2544 Clouds 10 1020 61 10000 2.6 260 20:43 25.05.2020
2545 Clouds 10 1020 61 10000 1 90 20:22 25.05.2020
2546 Clouds 10 1020 61 10000 1 90 19:59 25.05.2020
2547 Clouds 10 1020 61 10000 2.1 150 19:41 25.05.2020
2548 Clouds 10 1020 61 10000 2.1 150 19:19 25.05.2020
2549 Clouds 10 1020 61 10000 2.1 80 18:57 25.05.2020
2550 Clouds 10 1020 61 10000 3.1 50 18:38 25.05.2020
2551 Clouds 10 1020 61 10000 3.1 50 18:20 25.05.2020
2552 Clouds 11 1020 57 10000 2.1 30 17:44 25.05.2020
2553 Clouds 11 1020 57 10000 2.1 30 17:23 25.05.2020
2554 Clouds 11 1020 62 10000 2.6 60 16:57 25.05.2020
2555 Clouds 11 1020 57 10000 3.1 50 16:39 25.05.2020
2556 Clouds 11 1020 57 10000 3.1 50 16:20 25.05.2020
2557 Clouds 12 1020 54 10000 2.6 50 15:44 25.05.2020
2558 Clouds 12 1020 54 10000 2.6 50 15:20 25.05.2020
2559 Clouds 12 1020 58 10000 2.6 60 14:59 25.05.2020
2560 Clouds 13 1020 54 10000 2.6 70 14:38 25.05.2020
2561 Clouds 13 1020 54 10000 2.6 70 14:20 25.05.2020
2562 Clouds 14 1020 47 10000 2.6 70 13:40 25.05.2020
2563 Clouds 14 1020 47 10000 2.6 70 13:21 25.05.2020
2564 Clouds 15 1020 44 10000 2.6 90 12:58 25.05.2020
2565 Clouds 15 1019 44 10000 2.1 100 12:38 25.05.2020
2566 Clouds 15 1019 44 10000 2.1 100 12:20 25.05.2020
2567 Clouds 16 1018 41 10000 2.6 60 11:39 25.05.2020
2568 Clouds 16 1018 41 10000 2.6 60 11:20 25.05.2020
2569 Clouds 17 1018 39 10000 4.1 80 10:56 25.05.2020
2570 Clouds 17 1018 39 10000 4.1 80 10:56 25.05.2020
2571 Clouds 18 1018 36 10000 4.1 70 10:37 25.05.2020
2572 Clouds 18 1018 36 10000 4.1 70 10:19 25.05.2020
2573 Clouds 18 1018 36 10000 4.6 80 09:54 25.05.2020
2574 Clouds 19 1018 34 10000 4.6 50 09:36 25.05.2020
2575 Clouds 19 1018 32 10000 3.6 50 09:18 25.05.2020
2576 Clouds 20 1018 30 10000 4.1 70 08:39 25.05.2020
2577 Clouds 20 1018 30 10000 4.1 70 08:20 25.05.2020
2578 Clouds 19 1019 37 10000 4.1 50 07:49 25.05.2020
2579 Clouds 19 1019 37 10000 4.1 50 07:27 25.05.2020
2580 Clouds 18 1019 39 10000 3.6 60 06:57 25.05.2020
2581 Clouds 17 1020 42 10000 3.1 50 06:35 25.05.2020
2582 Clouds 17 1021 45 10000 3.6 30 05:24 25.05.2020
2583 Clouds 15 1022 54 10000 3.1 30 03:26 25.05.2020
2584 Clouds 13 1022 58 10000 4.1 60 02:47 25.05.2020
2585 Clouds 12 1022 62 10000 3.6 70 02:18 25.05.2020
2586 Clouds 10 1021 66 10000 1.5 100 01:41 25.05.2020
2587 Clouds 3 1021 74 10000 3.83 74 00:46 25.05.2020
2588 Clouds 3 1021 74 10000 2.09 74 00:24 25.05.2020
2589 Clouds 3 1022 79 10000 2.09 74 23:58 24.05.2020
2590 Clouds 3 1021 79 10000 2.09 74 23:38 24.05.2020
2591 Clouds 3 1021 79 10000 1.8 80 23:19 24.05.2020
2592 Clouds 4 1021 79 10000 1.8 80 22:42 24.05.2020
2593 Clouds 4 1021 79 10000 1.8 80 22:42 24.05.2020
2594 Clouds 4 1021 79 10000 1.55 98 22:20 24.05.2020
2595 Clouds 5 1022 80 10000 2.1 310 21:58 24.05.2020
2596 Clouds 5 1022 80 10000 1.5 310 21:40 24.05.2020
2597 Clouds 5 1022 80 10000 1.5 310 21:21 24.05.2020
2598 Clouds 6 1021 75 10000 1.17 120 20:57 24.05.2020
2599 Clouds 6 1021 75 10000 1 340 20:38 24.05.2020
2600 Clouds 6 1021 75 10000 1 340 20:38 24.05.2020
2601 Clouds 8 1022 70 10000 2.6 330 20:18 24.05.2020
2602 Clouds 8 1022 70 10000 2.6 330 19:56 24.05.2020
2603 Clouds 6 1022 70 10000 0.5 360 19:36 24.05.2020
2604 Clouds 7 1022 70 10000 2.1 40 19:18 24.05.2020
2605 Clouds 7 1023 65 10000 1 30 18:41 24.05.2020
2606 Clouds 7 1023 70 10000 1.47 118 18:23 24.05.2020
2607 Clouds 7 1023 70 10000 1.47 118 17:57 24.05.2020
2608 Clouds 6 1023 75 10000 1.47 118 17:37 24.05.2020
2609 Clouds 6 1023 76 10000 1.19 92 17:19 24.05.2020
2610 Clouds 7 1023 65 10000 2.6 120 16:54 24.05.2020
2611 Clouds 7 1023 65 10000 1.19 92 16:36 24.05.2020
2612 Clouds 8 1023 61 10000 2.1 160 16:18 24.05.2020
2613 Clouds 8 1023 61 10000 2.1 140 15:40 24.05.2020
2614 Clouds 8 1023 61 10000 2.1 140 15:20 24.05.2020
2615 Clouds 8 1023 61 10000 2.1 140 15:20 24.05.2020
2616 Clouds 9 1023 57 10000 2.6 150 14:58 24.05.2020
2617 Clouds 11 1023 57 10000 2.1 130 14:40 24.05.2020
2618 Clouds 11 1023 57 10000 2.1 130 14:21 24.05.2020
2619 Clouds 11 1023 53 10000 2.6 120 13:55 24.05.2020
2620 Clouds 12 1022 50 10000 3.6 130 13:36 24.05.2020
2621 Clouds 12 1022 50 10000 3.6 130 13:36 24.05.2020
2622 Clouds 12 1023 54 10000 3.6 150 13:18 24.05.2020
2623 Clouds 12 1023 54 10000 3.6 150 12:54 24.05.2020
2624 Clouds 13 1022 47 10000 3.1 130 12:36 24.05.2020
2625 Clouds 13 1022 47 10000 3.1 130 12:36 24.05.2020
2626 Clouds 13 1022 47 10000 3.1 130 12:18 24.05.2020
2627 Clouds 15 1022 44 10000 2.6 130 11:42 24.05.2020
2628 Clouds 15 1022 44 10000 2.6 130 11:42 24.05.2020
2629 Clouds 15 1022 44 10000 2.6 130 11:23 24.05.2020
2630 Clouds 16 1021 41 10000 4.1 130 10:59 24.05.2020
2631 Clouds 17 1022 39 10000 5.1 140 10:40 24.05.2020
2632 Clouds 17 1021 39 10000 5.1 130 10:22 24.05.2020
2633 Clouds 17 1021 39 10000 5.1 130 09:55 24.05.2020
2634 Clouds 18 1021 36 10000 5.1 150 09:37 24.05.2020
2635 Clouds 18 1022 36 10000 5.7 130 09:18 24.05.2020
2636 Clouds 18 1022 39 10000 5.7 130 08:40 24.05.2020
2637 Clear 18 1022 39 10000 5.7 130 08:22 24.05.2020
2638 Clear 18 1022 39 10000 5.1 150 07:54 24.05.2020
2639 Clear 19 1022 37 10000 5.1 130 07:36 24.05.2020
2640 Clear 18 1022 42 10000 5.7 160 07:18 24.05.2020
2641 Clear 18 1023 42 10000 5.1 170 06:38 24.05.2020
2642 Clear 17 1024 48 10000 4.1 130 05:43 24.05.2020
2643 Clouds 14 1026 58 10000 5.7 130 03:46 24.05.2020
2644 Clear 14 1026 58 10000 4.6 130 02:52 24.05.2020
2645 Clouds 11 1026 62 10000 4.1 160 02:18 24.05.2020
2646 Clouds 8 1025 61 10000 2.6 230 00:49 24.05.2020
2647 Clouds 5 1025 78 10000 2.6 280 00:27 24.05.2020
2648 Clouds 5 1025 78 10000 2.6 280 00:27 24.05.2020
2649 Clouds 4 1025 69 10000 4.1 300 23:59 23.05.2020
2650 Clear 4 1024 78 10000 2.1 280 23:36 23.05.2020
2651 Clear 4 1023 69 10000 3.1 270 23:18 23.05.2020
2652 Clear 4 1023 69 10000 3.1 270 22:55 23.05.2020
2653 Clear 5 1023 65 10000 2.6 300 22:37 23.05.2020
2654 Clear 5 1023 65 10000 2.1 280 22:18 23.05.2020
2655 Clear 5 1024 60 10000 3.1 280 21:42 23.05.2020
2656 Clear 5 1024 60 10000 3.1 280 21:21 23.05.2020
2657 Clear 4 1024 64 10000 3.1 280 20:59 23.05.2020
2658 Clear 4 1024 60 10000 3.1 290 20:39 23.05.2020
2659 Clear 4 1024 60 10000 3.1 290 20:20 23.05.2020
2660 Clear 5 1024 56 10000 2.1 250 19:58 23.05.2020
2661 Clear 5 1024 56 10000 2.1 250 19:40 23.05.2020
2662 Clear 4 1024 55 10000 2.1 240 19:18 23.05.2020
2663 Clear 5 1024 52 10000 2.1 220 18:41 23.05.2020
2664 Clear 6 1024 48 10000 1.5 230 18:22 23.05.2020
2665 Clear 6 1024 48 10000 1.5 230 17:58 23.05.2020
2666 Clear 5 1024 52 10000 2.1 300 17:40 23.05.2020
2667 Clear 5 1024 52 10000 2.1 300 17:20 23.05.2020
2668 Clear 5 1024 52 10000 1.5 310 16:59 23.05.2020
2669 Clear 7 1024 48 10000 3.37 143 16:40 23.05.2020
2670 Clear 6 1024 48 10000 3.58 143 16:20 23.05.2020
2671 Clear 6 1024 48 10000 3.58 143 15:56 23.05.2020
2672 Clear 7 1024 45 10000 3.58 143 15:37 23.05.2020
2673 Clear 7 1024 45 10000 3.3 145 15:19 23.05.2020
2674 Clear 9 1024 42 10000 3.1 160 14:41 23.05.2020
2675 Clear 9 1024 42 10000 3.1 160 14:23 23.05.2020
2676 Clear 10 1024 39 10000 3.6 170 13:42 23.05.2020
2677 Clear 10 1024 39 10000 3.6 170 13:19 23.05.2020
2678 Clear 11 1024 37 10000 2.6 170 12:58 23.05.2020
2679 Clear 11 1023 34 10000 2.6 180 12:39 23.05.2020
2680 Clear 12 1023 32 10000 2.6 170 12:19 23.05.2020
2681 Clear 14 1023 30 10000 3.1 150 11:43 23.05.2020
2682 Clear 14 1023 30 10000 3.1 150 11:22 23.05.2020
2683 Clear 15 1022 28 10000 4.1 140 10:58 23.05.2020
2684 Clear 16 1022 26 10000 4.6 150 10:39 23.05.2020
2685 Clear 16 1022 26 10000 4.6 150 10:20 23.05.2020
2686 Clear 16 1022 26 10000 4.6 150 09:59 23.05.2020
2687 Clear 16 1022 26 10000 4.6 150 09:59 23.05.2020
2688 Clear 17 1021 25 10000 4.6 130 09:40 23.05.2020
2689 Clear 17 1021 23 10000 4.1 140 09:21 23.05.2020
2690 Clear 17 1022 25 10000 4.6 150 08:44 23.05.2020
2691 Clear 17 1022 25 10000 4.6 150 08:20 23.05.2020
2692 Clear 16 1022 26 10000 4.6 170 07:57 23.05.2020
2693 Clear 17 1022 23 10000 5.1 150 07:37 23.05.2020
2694 Clear 16 1022 26 10000 3.6 160 07:19 23.05.2020
2695 Clear 15 1023 28 10000 5.7 150 06:38 23.05.2020
2696 Clear 15 1024 30 10000 5.7 150 05:26 23.05.2020
2697 Clear 13 1025 37 10000 6.2 130 03:43 23.05.2020
2698 Clear 12 1025 40 10000 4.6 140 02:58 23.05.2020
2699 Clear 8 1025 49 10000 2.6 160 01:58 23.05.2020
2700 Clear 6 1025 56 10000 1 270 01:23 23.05.2020
2701 Clear 3 1025 64 10000 2.1 280 00:47 23.05.2020
2702 Clear 3 1025 64 10000 2.1 280 00:26 23.05.2020
2703 Clear 1 1024 69 10000 2.1 270 23:57 22.05.2020
2704 Clear 3 1024 64 10000 2.6 300 23:39 22.05.2020
2705 Clear 2 1024 64 10000 2.6 280 23:19 22.05.2020
2706 Clear 2 1024 64 10000 2.6 280 23:19 22.05.2020
2707 Clear 3 1023 64 10000 2.1 290 22:44 22.05.2020
2708 Clear 3 1023 64 10000 2.1 290 22:22 22.05.2020
2709 Clear 2 1023 64 10000 2.1 290 21:57 22.05.2020
2710 Clear 2 1023 64 10000 2.1 270 21:39 22.05.2020
2711 Clear 2 1023 64 10000 2.1 270 21:20 22.05.2020
2712 Clear 3 1023 59 10000 2.6 270 20:46 22.05.2020
2713 Clear 3 1023 59 10000 2.6 270 20:21 22.05.2020
2714 Clear 3 1023 59 10000 2.6 290 19:59 22.05.2020
2715 Clear 3 1023 59 10000 2.1 300 19:37 22.05.2020
2716 Clear 2 1023 64 10000 1.5 240 19:18 22.05.2020
2717 Clear 3 1023 59 10000 2.6 126 18:39 22.05.2020
2718 Clear 3 1023 59 10000 2.6 126 18:39 22.05.2020
2719 Clear 3 1023 59 10000 3.03 123 18:19 22.05.2020
2720 Clear 4 1023 60 10000 3.03 123 17:56 22.05.2020
2721 Clear 5 1023 56 10000 3.03 123 17:36 22.05.2020
2722 Clear 5 1023 56 10000 2.1 180 17:18 22.05.2020
2723 Clear 6 1023 48 10000 2.6 170 16:43 22.05.2020
2724 Clear 6 1023 48 10000 2.6 170 16:20 22.05.2020
2725 Clear 6 1023 48 10000 2.6 170 16:20 22.05.2020
2726 Clear 6 1024 52 10000 2.1 170 15:57 22.05.2020
2727 Clear 6 1024 52 10000 2.1 170 15:57 22.05.2020
2728 Clear 7 1024 52 10000 2.6 170 15:39 22.05.2020
2729 Clear 7 1024 52 10000 2.6 170 15:19 22.05.2020
2730 Clear 8 1023 45 10000 2.6 170 14:43 22.05.2020
2731 Clear 8 1023 45 10000 2.6 170 14:43 22.05.2020
2732 Clear 8 1023 45 10000 2.6 170 14:24 22.05.2020
2733 Clear 10 1023 43 10000 2.6 130 13:45 22.05.2020
2734 Clear 10 1023 43 10000 2.6 130 13:20 22.05.2020
2735 Clear 11 1022 37 10000 3.1 130 12:44 22.05.2020
2736 Clear 11 1022 37 10000 3.1 130 12:25 22.05.2020
2737 Clear 12 1022 34 10000 3.6 130 11:58 22.05.2020
2738 Clear 13 1022 32 10000 3.6 130 11:40 22.05.2020
2739 Clear 13 1022 32 10000 3.6 130 11:19 22.05.2020
2740 Clear 14 1021 30 10000 5.1 130 10:41 22.05.2020
2741 Clear 14 1021 30 10000 5.1 130 10:22 22.05.2020
2742 Clear 15 1020 28 10000 5.7 120 09:59 22.05.2020
2743 Clear 16 1020 26 10000 5.7 130 09:40 22.05.2020
2744 Clear 16 1020 26 10000 6.2 120 09:18 22.05.2020
2745 Clear 17 1020 27 10000 4.6 160 08:43 22.05.2020
2746 Clouds 16 1019 29 10000 5.7 130 08:20 22.05.2020
2747 Clouds 16 1019 29 10000 5.7 130 07:56 22.05.2020
2748 Clouds 16 1020 31 10000 5.7 170 07:24 22.05.2020
2749 Clouds 16 1020 31 10000 5.1 150 06:56 22.05.2020
2750 Clouds 16 1021 31 10000 6.2 140 06:35 22.05.2020
2751 Clouds 14 1022 35 10000 6.2 130 05:38 22.05.2020
2752 Clouds 14 1023 35 10000 4.6 130 04:51 22.05.2020
2753 Clouds 12 1024 40 10000 6.7 120 04:20 22.05.2020
2754 Clouds 12 1024 40 10000 6.2 130 03:47 22.05.2020
2755 Clouds 11 1024 43 10000 5.7 120 02:59 22.05.2020
2756 Clouds 11 1024 40 10000 6.7 140 01:53 22.05.2020
2757 Clouds 11 1023 40 10000 4.6 130 01:25 22.05.2020
2758 Clouds 11 1023 43 10000 5.7 130 00:40 22.05.2020
2759 Clouds 11 1023 43 10000 5.7 130 00:22 22.05.2020
2760 Clouds 12 1023 50 10000 4.6 130 23:42 21.05.2020
2761 Clouds 12 1023 50 10000 4.6 130 23:24 21.05.2020
2762 Clouds 12 1022 50 10000 6.7 130 22:58 21.05.2020
2763 Clouds 12 1022 58 10000 5.7 120 22:38 21.05.2020
2764 Clouds 12 1022 58 10000 5.7 120 22:19 21.05.2020
2765 Clouds 12 1022 62 10000 6.2 130 21:55 21.05.2020
2766 Clouds 13 1022 62 10000 4.6 120 21:37 21.05.2020
2767 Clouds 13 1022 62 10000 4.6 120 21:18 21.05.2020
2768 Clouds 13 1022 58 10000 4.1 120 20:42 21.05.2020
2769 Clouds 13 1022 58 10000 4.1 120 20:22 21.05.2020
2770 Clouds 13 1022 58 10000 4.1 140 19:40 21.05.2020
2771 Clouds 13 1022 58 10000 4.1 140 19:40 21.05.2020
2772 Clouds 13 1022 58 10000 4.1 140 19:20 21.05.2020
2773 Clouds 12 1023 54 10000 2.6 180 18:59 21.05.2020
2774 Clouds 12 1022 54 10000 3.6 150 18:37 21.05.2020
2775 Clouds 12 1022 54 10000 2.6 180 18:19 21.05.2020
2776 Clouds 12 1022 54 10000 2.6 180 17:56 21.05.2020
2777 Clouds 12 1022 54 10000 2.6 150 17:37 21.05.2020
2778 Clouds 12 1023 54 10000 2.1 160 17:19 21.05.2020
2779 Clouds 12 1022 54 10000 3.1 160 16:44 21.05.2020
2780 Clouds 13 1022 50 10000 2.6 150 16:22 21.05.2020
2781 Clouds 14 1023 47 10000 2.6 140 15:44 21.05.2020
2782 Clouds 14 1023 47 10000 2.6 140 15:23 21.05.2020
2783 Clouds 14 1023 47 10000 3.1 150 14:43 21.05.2020
2784 Clouds 14 1023 47 10000 3.1 150 14:23 21.05.2020
2785 Clouds 15 1022 44 10000 3.6 140 13:58 21.05.2020
2786 Clouds 15 1023 44 10000 3.1 150 13:38 21.05.2020
2787 Clouds 15 1023 41 10000 2.6 140 13:19 21.05.2020
2788 Clouds 15 1022 41 10000 3.1 120 12:40 21.05.2020
2789 Clouds 16 1022 36 10000 3.6 130 12:22 21.05.2020
2790 Clouds 16 1022 36 10000 3.6 130 11:58 21.05.2020
2791 Clouds 16 1022 36 10000 4.1 140 11:39 21.05.2020
2792 Clouds 16 1022 36 10000 4.6 130 11:21 21.05.2020
2793 Clouds 17 1021 36 10000 5.7 130 10:45 21.05.2020
2794 Clouds 17 1021 36 10000 5.7 130 10:23 21.05.2020
2795 Clouds 17 1020 36 10000 6.2 110 09:59 21.05.2020
2796 Clouds 18 1020 34 10000 5.7 140 09:40 21.05.2020
2797 Clouds 18 1020 34 10000 5.7 140 09:40 21.05.2020
2798 Clouds 18 1020 34 10000 5.7 140 09:40 21.05.2020
2799 Clouds 18 1020 34 10000 5.7 140 09:22 21.05.2020
2800 Clouds 18 1020 34 10000 5.7 140 08:56 21.05.2020
2801 Clouds 18 1021 34 10000 4.6 140 08:37 21.05.2020
2802 Clouds 18 1021 34 10000 4.6 140 08:19 21.05.2020
2803 Clouds 18 1021 34 10000 5.1 110 07:41 21.05.2020
2804 Clouds 18 1021 34 10000 5.1 110 07:22 21.05.2020
2805 Clouds 17 1020 36 10000 5.1 120 06:37 21.05.2020
2806 Clouds 17 1022 36 10000 5.7 120 05:50 21.05.2020
2807 Clouds 15 1024 44 10000 7.2 110 03:49 21.05.2020
2808 Clouds 15 1024 44 10000 7.2 110 03:20 21.05.2020
2809 Clouds 15 1024 44 10000 7.2 110 03:20 21.05.2020
2810 Clouds 13 1024 50 10000 4.6 110 02:31 21.05.2020
2811 Clouds 12 1024 54 10000 3.6 120 01:51 21.05.2020
2812 Clouds 11 1024 57 10000 2.1 150 01:24 21.05.2020
2813 Clouds 10 1024 61 10000 1.5 140 00:54 21.05.2020
2814 Clouds 10 1023 57 10000 2.6 150 00:26 21.05.2020
2815 Clouds 10 1023 61 10000 2.6 130 23:58 20.05.2020
2816 Clouds 11 1023 57 10000 3.1 150 23:38 20.05.2020
2817 Clouds 11 1022 57 10000 2.6 120 23:18 20.05.2020
2818 Clouds 12 1022 54 10000 2.6 140 22:42 20.05.2020
2819 Clouds 12 1022 54 10000 2.6 140 22:42 20.05.2020
2820 Clouds 12 1022 54 10000 2.6 140 22:24 20.05.2020
2821 Clouds 12 1022 54 10000 2.6 140 22:24 20.05.2020
2822 Clouds 12 1022 54 10000 2.6 150 21:56 20.05.2020
2823 Clouds 12 1022 54 10000 2.6 150 21:56 20.05.2020
2824 Clouds 12 1022 54 10000 2.6 160 21:37 20.05.2020
2825 Clouds 12 1022 54 10000 2.1 180 21:19 20.05.2020
2826 Clouds 12 1021 54 10000 1.5 160 20:41 20.05.2020
2827 Clouds 12 1021 54 10000 1.5 160 20:23 20.05.2020
2828 Clouds 12 1021 54 10000 1.5 160 20:23 20.05.2020
2829 Clouds 13 1021 54 10000 3.1 160 19:42 20.05.2020
2830 Clouds 13 1021 54 10000 3.1 160 19:24 20.05.2020
2831 Clouds 13 1022 54 10000 2.6 120 18:58 20.05.2020
2832 Clouds 13 1022 54 10000 2.6 120 18:39 20.05.2020
2833 Clouds 13 1022 54 10000 2.6 120 18:20 20.05.2020
2834 Clouds 14 1022 50 10000 2.6 140 17:40 20.05.2020
2835 Clouds 14 1022 50 10000 2.6 140 17:21 20.05.2020
2836 Clouds 14 1022 50 10000 2.6 140 16:55 20.05.2020
2837 Clouds 14 1022 50 10000 3.1 150 16:36 20.05.2020
2838 Clouds 14 1023 50 10000 3.1 140 16:18 20.05.2020
2839 Clouds 14 1023 50 10000 3.6 150 15:42 20.05.2020
2840 Clouds 14 1023 50 10000 3.6 150 15:23 20.05.2020
2841 Clouds 14 1023 50 10000 3.1 150 14:43 20.05.2020
2842 Clouds 14 1023 50 10000 3.1 150 14:21 20.05.2020
2843 Clouds 15 1023 47 10000 3.1 140 13:42 20.05.2020
2844 Clouds 15 1023 47 10000 3.1 140 13:20 20.05.2020
2845 Clouds 15 1023 47 10000 3.1 150 12:58 20.05.2020
2846 Clouds 15 1022 51 10000 3.1 130 12:39 20.05.2020
2847 Clouds 15 1022 51 10000 3.1 130 12:19 20.05.2020
2848 Clouds 15 1022 54 10000 3.1 150 11:36 20.05.2020
2849 Clouds 15 1021 54 10000 3.1 130 11:18 20.05.2020
2850 Clouds 16 1021 51 10000 3.6 130 10:43 20.05.2020
2851 Clouds 16 1021 51 10000 4.6 150 10:20 20.05.2020
2852 Clouds 16 1021 51 10000 4.6 140 09:45 20.05.2020
2853 Clouds 16 1021 51 10000 4.6 140 09:22 20.05.2020
2854 Clouds 17 1021 48 10000 3.6 130 08:58 20.05.2020
2855 Clouds 17 1021 48 10000 3.6 140 08:40 20.05.2020
2856 Clouds 17 1021 48 10000 4.1 150 08:18 20.05.2020
2857 Clouds 17 1021 48 10000 5.1 150 07:47 20.05.2020
2858 Clouds 17 1020 48 10000 5.1 140 07:21 20.05.2020
2859 Clouds 17 1020 48 10000 4.6 140 06:43 20.05.2020
2860 Clouds 18 1022 42 10000 5.1 110 05:24 20.05.2020
2861 Clouds 17 1022 45 10000 4.1 140 04:33 20.05.2020
2862 Clouds 17 1023 45 10000 4.1 130 03:52 20.05.2020
2863 Clouds 16 1023 48 10000 4.1 150 02:31 20.05.2020
2864 Clouds 16 1023 44 10000 2.6 170 01:30 20.05.2020
2865 Clouds 16 1022 44 10000 2.1 120 00:45 20.05.2020
2866 Clouds 16 1022 44 10000 2.1 120 00:24 20.05.2020
2867 Clouds 16 1021 41 10000 4.1 130 23:43 19.05.2020
2868 Clouds 16 1020 38 10000 3.1 120 23:20 19.05.2020
2869 Clouds 16 1020 38 10000 3.1 120 22:56 19.05.2020
2870 Clouds 17 1020 36 10000 4.1 130 22:38 19.05.2020
2871 Clouds 17 1020 36 10000 4.1 130 22:19 19.05.2020
2872 Clouds 17 1020 36 10000 4.6 130 21:58 19.05.2020
2873 Clouds 17 1021 46 10000 4.1 130 21:38 19.05.2020
2874 Clouds 17 1021 46 10000 4.1 130 21:38 19.05.2020
2875 Clouds 17 1020 39 10000 5.1 140 21:19 19.05.2020
2876 Clouds 17 1020 38 10000 5.1 140 20:57 19.05.2020
2877 Clouds 17 1019 38 10000 6.2 150 20:39 19.05.2020
2878 Clouds 17 1019 37 10000 6.2 150 20:20 19.05.2020
2879 Clouds 17 1020 37 10000 5.1 170 19:55 19.05.2020
2880 Clouds 15 1019 38 10000 2.1 290 19:36 19.05.2020
2881 Clouds 15 1020 38 10000 1.5 330 19:18 19.05.2020
2882 Clouds 16 1020 39 10000 4.03 169 18:40 19.05.2020
2883 Clouds 16 1020 41 10000 1.87 102 18:20 19.05.2020
2884 Clouds 16 1020 36 10000 2.1 310 18:20 19.05.2020
2885 Clouds 17 1020 33 10000 2.6 340 17:43 19.05.2020
2886 Clouds 17 1020 33 10000 2.6 340 17:21 19.05.2020
2887 Clouds 17 1020 40 10000 2.6 280 16:59 19.05.2020
2888 Clouds 17 1020 40 10000 2.6 280 16:59 19.05.2020
2889 Clouds 17 1021 40 10000 2.1 260 16:38 19.05.2020
2890 Clouds 17 1021 38 10000 2.1 260 16:19 19.05.2020
2891 Clouds 18 1020 31 10000 2.6 150 15:47 19.05.2020
2892 Clouds 18 1020 31 10000 2.6 150 15:22 19.05.2020
2893 Clouds 18 1020 31 10000 2.6 170 14:57 19.05.2020
2894 Clouds 19 1019 29 10000 3.6 140 14:39 19.05.2020
2895 Clouds 19 1019 29 10000 3.6 140 14:20 19.05.2020
2896 Clouds 19 1019 29 10000 3.6 150 13:58 19.05.2020
2897 Clouds 19 1020 29 10000 3.1 150 13:39 19.05.2020
2898 Clouds 19 1020 29 10000 2.1 160 13:20 19.05.2020
2899 Clouds 19 1020 29 10000 2.1 160 12:56 19.05.2020
2900 Clouds 20 1019 28 10000 2.6 110 12:37 19.05.2020
2901 Clouds 20 1019 28 10000 2.6 110 12:19 19.05.2020
2902 Clouds 21 1018 26 10000 2.6 120 11:43 19.05.2020
2903 Clouds 21 1018 26 10000 2.6 120 11:23 19.05.2020
2904 Clouds 22 1018 24 10000 2.6 140 10:59 19.05.2020
2905 Clouds 23 1018 23 10000 3.6 160 10:40 19.05.2020
2906 Clouds 23 1018 23 10000 3.6 160 10:22 19.05.2020
2907 Clouds 24 1017 19 10000 4.6 150 09:47 19.05.2020
2908 Clouds 24 1017 19 10000 4.6 150 09:25 19.05.2020
2909 Clouds 24 1017 19 10000 4.6 150 08:49 19.05.2020
2910 Clouds 24 1017 18 10000 4.6 150 08:26 19.05.2020
2911 Clouds 24 1018 22 10000 5.1 180 07:59 19.05.2020
2912 Clouds 24 1017 22 10000 1 190 07:41 19.05.2020
2913 Clouds 25 1018 20 10000 3.6 190 07:23 19.05.2020
2914 Clouds 25 1018 22 10000 3.6 160 06:41 19.05.2020
2915 Clouds 25 1018 22 10000 3.6 160 06:41 19.05.2020
2916 Clouds 25 1019 23 10000 1.5 240 06:19 19.05.2020
2917 Clouds 24 1019 27 10000 3.6 120 05:39 19.05.2020
2918 Clouds 24 1019 25 10000 4.1 90 04:54 19.05.2020
2919 Clouds 20 1021 30 10000 1.5 70 02:59 19.05.2020
2920 Clouds 14 1021 35 10000 0.5 220 01:21 19.05.2020
2921 Clouds 10 1020 35 10000 2.1 310 00:40 19.05.2020
2922 Clouds 9 1020 49 10000 2.6 290 00:18 19.05.2020
2923 Clouds 8 1020 49 10000 2.1 310 23:40 18.05.2020
2924 Clouds 8 1020 49 10000 2.1 310 23:20 18.05.2020
2925 Clouds 9 1020 49 10000 1.34 115 22:56 18.05.2020
2926 Clouds 9 1020 49 10000 1.34 115 22:56 18.05.2020
2927 Clouds 10 1020 46 10000 2.6 310 22:38 18.05.2020
2928 Clouds 10 1020 46 10000 2.6 310 22:19 18.05.2020
2929 Clouds 8 1020 49 10000 3.6 260 21:42 18.05.2020
2930 Clouds 8 1020 49 10000 3.6 260 21:22 18.05.2020
2931 Clouds 9 1019 49 10000 1 40 20:57 18.05.2020
2932 Clouds 10 1019 52 10000 2.6 30 20:37 18.05.2020
2933 Clouds 10 1019 51 10000 2.1 350 20:19 18.05.2020
2934 Clouds 10 1019 48 10000 2.1 350 20:19 18.05.2020
2935 Clouds 10 1019 51 10000 2.1 350 19:54 18.05.2020
2936 Clouds 11 1019 51 10000 2.27 99 19:36 18.05.2020
2937 Clouds 10 1020 43 10000 2.09 97 19:18 18.05.2020
2938 Clouds 11 1020 43 10000 2.1 20 18:43 18.05.2020
2939 Clouds 11 1020 43 10000 1 360 18:20 18.05.2020
2940 Clouds 10 1020 43 10000 2.45 94 17:39 18.05.2020
2941 Clouds 12 1020 40 10000 2.1 340 17:18 18.05.2020
2942 Clouds 12 1020 40 10000 2.1 340 16:56 18.05.2020
2943 Clouds 12 1021 45 10000 1.5 340 16:37 18.05.2020
2944 Clouds 12 1020 37 10000 1.5 360 16:18 18.05.2020
2945 Clouds 12 1020 37 10000 1.5 360 16:18 18.05.2020
2946 Clouds 13 1020 37 10000 2.1 360 15:46 18.05.2020
2947 Clouds 13 1020 37 10000 2.1 360 15:25 18.05.2020
2948 Clouds 15 1021 38 10000 3.16 105 14:59 18.05.2020
2949 Clouds 13 1021 32 10000 2.94 103 14:40 18.05.2020
2950 Clouds 13 1021 32 10000 2.94 103 14:40 18.05.2020
2951 Clouds 13 1021 32 10000 3.04 111 14:22 18.05.2020
2952 Clouds 15 1021 33 10000 1.5 100 13:54 18.05.2020
2953 Clouds 16 1021 31 10000 2.6 120 13:36 18.05.2020
2954 Clouds 17 1020 29 10000 2.6 130 13:18 18.05.2020
2955 Clouds 17 1020 29 10000 2.6 130 12:54 18.05.2020
2956 Clouds 17 1020 29 10000 3.1 140 12:36 18.05.2020
2957 Clouds 18 1020 27 10000 3.1 120 12:18 18.05.2020
2958 Clouds 20 1019 24 10000 3.1 100 11:44 18.05.2020
2959 Clouds 20 1019 24 10000 3.1 100 11:25 18.05.2020
2960 Clouds 22 1019 30 10000 3.6 90 10:47 18.05.2020
2961 Clouds 22 1019 25 10000 3.6 90 10:27 18.05.2020
2962 Clouds 23 1019 25 10000 4.1 90 09:54 18.05.2020
2963 Clouds 23 1019 25 10000 6.2 80 09:36 18.05.2020
2964 Clear 24 1018 22 10000 5.7 90 09:18 18.05.2020
2965 Clear 24 1018 21 10000 6.7 60 08:42 18.05.2020
2966 Clear 24 1018 21 10000 6.7 60 08:42 18.05.2020
2967 Clouds 24 1018 21 10000 6.7 60 08:23 18.05.2020
2968 Clouds 24 1019 22 10000 4.1 80 07:48 18.05.2020
2969 Clouds 24 1019 22 10000 4.1 80 07:26 18.05.2020
2970 Clouds 24 1020 22 10000 5.7 80 06:48 18.05.2020
2971 Clouds 24 1020 22 10000 5.7 80 06:24 18.05.2020
2972 Clouds 22 1021 24 10000 5.1 90 05:45 18.05.2020
2973 Clouds 20 1023 28 10000 3.1 90 03:58 18.05.2020
2974 Clear 19 1023 29 10000 3.6 90 03:28 18.05.2020
2975 Clouds 15 1023 41 10000 4.52 92 01:56 18.05.2020
2976 Clouds 5 1023 60 10000 2.84 93 00:49 18.05.2020
2977 Clouds 5 1023 60 10000 1.9 99 00:19 18.05.2020
2978 Clouds 5 1023 60 10000 1.5 310 23:55 17.05.2020
2979 Clouds 5 1022 65 10000 2.1 290 23:37 17.05.2020
2980 Clouds 5 1022 65 10000 2.1 320 23:18 17.05.2020
2981 Clouds 5 1021 60 10000 2.1 310 22:40 17.05.2020
2982 Clouds 5 1021 60 10000 2.1 310 22:22 17.05.2020
2983 Clouds 5 1021 60 10000 2.1 270 21:59 17.05.2020
2984 Clouds 5 1021 60 10000 2.1 270 21:41 17.05.2020
2985 Clear 5 1021 60 10000 2.1 270 21:20 17.05.2020
2986 Clear 6 1021 56 10000 2.1 290 20:56 17.05.2020
2987 Clear 7 1022 56 10000 0.5 240 20:38 17.05.2020
2988 Clear 7 1022 56 10000 1.82 103 20:19 17.05.2020
2989 Clear 7 1022 56 10000 1.82 103 19:46 17.05.2020
2990 Clear 7 1022 56 10000 2.43 103 19:28 17.05.2020
2991 Clear 8 1022 49 10000 2.1 170 18:57 17.05.2020
2992 Clear 9 1023 49 10000 0.5 110 18:38 17.05.2020
2993 Clear 9 1023 49 10000 0.5 110 18:20 17.05.2020
2994 Clear 13 1023 43 10000 3.6 80 17:41 17.05.2020
2995 Clear 13 1023 43 10000 3.6 80 17:23 17.05.2020
2996 Clear 12 1023 46 10000 3.1 80 16:57 17.05.2020
2997 Clear 10 1023 49 10000 2.1 40 16:39 17.05.2020
2998 Clear 10 1023 47 10000 2.1 40 16:20 17.05.2020
2999 Clear 12 1024 47 10000 2.6 40 15:46 17.05.2020
3000 Clear 12 1024 45 10000 2.6 40 15:25 17.05.2020
3001 Clear 12 1024 46 10000 1.5 60 14:58 17.05.2020
3002 Clear 11 1024 43 10000 0.5 40 14:40 17.05.2020
3003 Clear 11 1024 43 10000 0.5 40 14:21 17.05.2020
3004 Clear 14 1023 44 10000 2.6 120 13:43 17.05.2020
3005 Clear 14 1023 42 10000 2.6 120 13:21 17.05.2020
3006 Clear 14 1023 42 10000 2.6 120 13:21 17.05.2020
3007 Clear 20 1021 28 10000 5.1 130 10:35 17.05.2020
3008 Clear 17 1025 29 10000 4.1 90 03:53 17.05.2020
3009 Clear 14 1025 35 10000 3.6 80 02:27 17.05.2020
3010 Clear 12 1025 40 10000 5.4 114 01:55 17.05.2020
3011 Clear 7 1024 56 10000 2.1 260 00:53 17.05.2020
3012 Clear 5 1024 60 10000 2.6 280 00:31 17.05.2020
3013 Clear 4 1024 64 10000 2.6 270 23:57 16.05.2020
3014 Clear 4 1023 60 10000 2.6 270 23:38 16.05.2020
3015 Clear 4 1023 60 10000 3.1 250 23:19 16.05.2020
3016 Clear 4 1023 64 10000 2.6 260 22:42 16.05.2020
3017 Clear 4 1023 64 10000 2.6 260 22:23 16.05.2020
3018 Clear 4 1023 64 10000 2.6 290 21:58 16.05.2020
3019 Clear 5 1023 60 10000 2.1 290 21:39 16.05.2020
3020 Clear 5 1023 60 10000 2.1 290 21:21 16.05.2020
3021 Clear 5 1023 56 10000 2.1 290 20:56 16.05.2020
3022 Clear 5 1023 56 10000 2.1 260 20:38 16.05.2020
3023 Clear 5 1023 56 10000 2.1 260 20:19 16.05.2020
3024 Clear 6 1023 52 10000 2.99 112 19:43 16.05.2020
3025 Clear 6 1023 52 10000 3.25 111 19:23 16.05.2020
3026 Clear 6 1023 52 10000 3.25 111 19:23 16.05.2020
3027 Clear 6 1023 48 10000 0.5 270 18:58 16.05.2020
3028 Clear 7 1024 52 10000 3.25 111 18:40 16.05.2020
3029 Clear 7 1024 52 10000 3.36 105 18:21 16.05.2020
3030 Clear 7 1024 48 10000 1.5 270 17:42 16.05.2020
3031 Clear 7 1024 48 10000 1.5 270 17:42 16.05.2020
3032 Clear 7 1024 48 10000 1.5 270 17:21 16.05.2020
3033 Clear 9 1024 49 10000 3.64 113 16:56 16.05.2020
3034 Clear 9 1024 49 10000 2.1 160 16:37 16.05.2020
3035 Clear 9 1025 45 10000 0.5 130 16:18 16.05.2020
3036 Clear 9 1024 49 10000 3.87 118 15:42 16.05.2020
3037 Clear 9 1024 49 10000 4.02 120 15:21 16.05.2020
3038 Clear 10 1024 43 10000 1 110 14:58 16.05.2020
3039 Clear 11 1024 43 10000 2.6 110 14:38 16.05.2020
3040 Clear 11 1024 43 10000 2.6 110 14:19 16.05.2020
3041 Clear 13 1024 37 10000 2.6 130 13:42 16.05.2020
3042 Clear 13 1024 37 10000 2.6 130 13:24 16.05.2020
3043 Clear 14 1024 35 10000 3.1 130 12:59 16.05.2020
3044 Clear 15 1023 41 10000 3.6 140 12:40 16.05.2020
3045 Clear 17 1023 29 10000 4.1 140 12:19 16.05.2020
3046 Clear 18 1022 38 10000 4.1 140 11:42 16.05.2020
3047 Clear 18 1022 35 10000 4.1 140 11:23 16.05.2020
3048 Clear 19 1022 35 10000 4.6 130 10:58 16.05.2020
3049 Clear 20 1021 35 10000 5.1 130 10:39 16.05.2020
3050 Clear 20 1021 28 10000 5.1 130 10:20 16.05.2020
3051 Clear 21 1021 28 10000 4.6 130 09:47 16.05.2020
3052 Clear 21 1021 25 10000 4.6 130 09:28 16.05.2020
3053 Clear 21 1021 27 10000 5.1 110 08:55 16.05.2020
3054 Clear 21 1021 27 10000 4.1 120 08:36 16.05.2020
3055 Clear 22 1021 26 10000 3.6 130 08:18 16.05.2020
3056 Clear 21 1021 26 10000 3.1 80 07:42 16.05.2020
3057 Clear 21 1021 26 10000 3.1 80 07:21 16.05.2020
3058 Clear 19 1022 26 10000 4.6 90 06:47 16.05.2020
3059 Clear 19 1022 26 10000 4.6 90 06:20 16.05.2020
3060 Clear 18 1023 26 10000 4.6 60 05:42 16.05.2020
3061 Clear 18 1023 27 10000 4.6 60 05:22 16.05.2020
3062 Clear 15 1025 33 10000 5.1 100 03:28 16.05.2020
3063 Clear 12 1026 40 10000 3.6 100 02:45 16.05.2020
3064 Clear 10 1025 43 10000 5.89 112 02:19 16.05.2020
3065 Clear 8 1025 49 10000 5.89 112 01:40 16.05.2020
3066 Clear 6 1025 52 10000 2.1 280 00:57 16.05.2020
3067 Clear 3 1024 59 10000 2.1 290 00:39 16.05.2020
3068 Clear 2 1024 59 10000 2.1 270 00:19 16.05.2020
3069 Clear 2 1024 55 10000 2.1 290 23:39 15.05.2020
3070 Clear 2 1024 55 10000 2.1 290 23:19 15.05.2020
3071 Clear 3 1023 55 10000 2.6 280 22:42 15.05.2020
3072 Clear 3 1023 55 10000 2.6 280 22:20 15.05.2020
3073 Clear 3 1023 55 10000 2.1 270 21:57 15.05.2020
3074 Clear 3 1023 55 10000 2.1 270 21:39 15.05.2020
3075 Clear 3 1023 55 10000 2.1 270 21:20 15.05.2020
3076 Clear 3 1023 55 10000 2.6 290 20:55 15.05.2020
3077 Clear 5 1023 52 10000 2.1 290 20:37 15.05.2020
3078 Clear 5 1024 52 10000 2.1 300 20:18 15.05.2020
3079 Clear 5 1024 48 10000 1.5 270 19:43 15.05.2020
3080 Clear 5 1024 48 10000 1.5 270 19:23 15.05.2020
3081 Clear 5 1024 48 10000 1.5 230 18:50 15.05.2020
3082 Clear 5 1024 48 10000 1.5 230 18:29 15.05.2020
3083 Clear 6 1024 45 10000 2.1 270 17:59 15.05.2020
3084 Clear 7 1024 45 10000 1.5 330 17:37 15.05.2020
3085 Clear 6 1024 48 10000 1.5 260 17:19 15.05.2020
3086 Clear 6 1024 48 10000 1.5 260 16:56 15.05.2020
3087 Clear 6 1024 45 10000 3.2 116 16:37 15.05.2020
3088 Clear 8 1024 45 10000 3.68 114 16:18 15.05.2020
3089 Clear 9 1024 42 10000 3.68 114 15:41 15.05.2020
3090 Clear 9 1024 39 10000 2.1 120 15:20 15.05.2020
3091 Clear 9 1024 39 10000 2.1 120 14:57 15.05.2020
3092 Clear 11 1024 37 10000 3.1 130 14:38 15.05.2020
3093 Clear 11 1024 37 10000 3.1 130 14:20 15.05.2020
3094 Clear 11 1024 34 10000 3.1 130 13:42 15.05.2020
3095 Clear 11 1024 34 10000 3.1 130 13:22 15.05.2020
3096 Clear 13 1024 32 10000 3.1 140 12:56 15.05.2020
3097 Clear 14 1023 30 10000 3.6 130 12:36 15.05.2020
3098 Clear 15 1023 28 10000 3.6 130 12:18 15.05.2020
3099 Clear 15 1023 28 10000 3.6 130 11:56 15.05.2020
3100 Clear 16 1022 29 10000 4.1 130 11:37 15.05.2020
3101 Clear 17 1022 27 10000 4.6 130 11:18 15.05.2020
3102 Clear 17 1022 27 10000 4.6 130 10:54 15.05.2020
3103 Clear 18 1022 23 10000 5.7 120 10:36 15.05.2020
3104 Clear 19 1021 22 10000 4.6 120 10:18 15.05.2020
3105 Clear 19 1021 24 10000 5.7 110 09:38 15.05.2020
3106 Clear 20 1021 22 10000 7.2 110 09:19 15.05.2020
3107 Clear 20 1021 22 10000 7.2 110 08:57 15.05.2020
3108 Clear 20 1021 22 10000 4.6 100 08:37 15.05.2020
3109 Clear 20 1021 22 10000 5.7 120 08:18 15.05.2020
3110 Clear 19 1022 25 10000 5.1 110 07:44 15.05.2020
3111 Clear 19 1022 25 10000 5.1 110 07:24 15.05.2020
3112 Clear 18 1022 27 10000 5.7 90 06:47 15.05.2020
3113 Clear 18 1023 27 10000 5.7 90 05:49 15.05.2020
3114 Clear 16 1024 30 10000 5.7 90 04:27 15.05.2020
3115 Clear 15 1025 30 10000 6.7 90 03:46 15.05.2020
3116 Clear 14 1026 34 10000 6.2 90 02:30 15.05.2020
3117 Clear 9 1026 45 10000 2.1 110 01:20 15.05.2020
3118 Clear 4 1025 51 10000 2.1 320 00:48 15.05.2020
3119 Clear 4 1025 51 10000 2.1 320 00:29 15.05.2020
3120 Clear 3 1025 51 10000 3.1 160 23:44 14.05.2020
3121 Clear 3 1025 51 10000 3.1 160 23:22 14.05.2020
3122 Clear 3 1024 47 10000 3.1 170 22:59 14.05.2020
3123 Clear 3 1025 47 10000 2.1 280 22:40 14.05.2020
3124 Clear 4 1024 48 10000 1 190 22:19 14.05.2020
3125 Clear 4 1024 48 10000 1 190 21:56 14.05.2020
3126 Clear 4 1024 44 10000 1.5 170 21:37 14.05.2020
3127 Clear 5 1024 41 10000 2.1 120 21:19 14.05.2020
3128 Clear 6 1024 48 10000 2.1 80 20:42 14.05.2020
3129 Clear 6 1024 48 10000 2.1 80 20:21 14.05.2020
3130 Clear 5 1024 44 10000 3.48 122 19:59 14.05.2020
3131 Clear 6 1024 45 10000 3.48 122 19:39 14.05.2020
3132 Clear 6 1024 45 10000 3.3 118 19:20 14.05.2020
3133 Clear 6 1024 41 10000 1.5 50 18:58 14.05.2020
3134 Clear 6 1024 41 10000 1.5 50 18:58 14.05.2020
3135 Clear 6 1024 41 10000 1.5 50 18:58 14.05.2020
3136 Clear 5 1024 41 10000 2.1 80 18:38 14.05.2020
3137 Clear 5 1024 41 10000 2.1 80 18:20 14.05.2020
3138 Clear 7 1025 42 10000 3.48 117 17:58 14.05.2020
3139 Clear 8 1025 39 10000 3.48 117 17:37 14.05.2020
3140 Clear 8 1025 39 10000 3.48 117 17:37 14.05.2020
3141 Clear 8 1025 36 10000 3.71 120 17:18 14.05.2020
3142 Clear 8 1025 36 10000 3.71 120 16:57 14.05.2020
3143 Clear 8 1025 33 10000 1.5 340 16:37 14.05.2020
3144 Clouds 8 1025 36 10000 4.1 123 16:18 14.05.2020
3145 Clouds 9 1025 34 10000 2.6 120 15:41 14.05.2020
3146 Clouds 9 1025 34 10000 2.6 120 15:21 14.05.2020
3147 Clouds 10 1025 31 10000 3.1 130 14:57 14.05.2020
3148 Clouds 11 1025 29 10000 2.6 130 14:39 14.05.2020
3149 Clouds 11 1025 29 10000 2.6 130 14:20 14.05.2020
3150 Clouds 12 1025 30 10000 2.6 150 13:57 14.05.2020
3151 Clouds 12 1025 30 10000 3.1 160 13:38 14.05.2020
3152 Clouds 12 1025 30 10000 3.1 160 13:38 14.05.2020
3153 Clouds 12 1025 30 10000 3.1 160 13:38 14.05.2020
3154 Clouds 14 1025 26 10000 3.1 140 13:19 14.05.2020
3155 Clouds 14 1025 26 10000 3.1 140 12:57 14.05.2020
3156 Clouds 15 1024 24 10000 3.6 140 12:38 14.05.2020
3157 Clouds 15 1024 24 10000 3.6 140 12:38 14.05.2020
3158 Clouds 16 1024 23 10000 3.6 130 12:18 14.05.2020
3159 Clouds 16 1024 23 10000 3.6 130 11:57 14.05.2020
3160 Clouds 17 1024 21 10000 3.6 130 11:38 14.05.2020
3161 Clouds 17 1024 21 10000 3.6 130 11:38 14.05.2020
3162 Clouds 18 1023 20 10000 5.1 130 11:19 14.05.2020
3163 Clouds 19 1023 19 10000 6.2 120 10:45 14.05.2020
3164 Clouds 19 1023 19 10000 6.2 120 10:26 14.05.2020
3165 Clouds 20 1022 18 10000 6.2 130 09:56 14.05.2020
3166 Clouds 20 1022 19 10000 7.7 140 09:38 14.05.2020
3167 Clouds 20 1022 19 10000 7.7 140 09:19 14.05.2020
3168 Clouds 20 1022 18 10000 6.2 100 08:40 14.05.2020
3169 Clouds 20 1022 18 10000 6.2 100 08:19 14.05.2020
3170 Clouds 20 1023 18 10000 5.7 100 07:45 14.05.2020
3171 Clouds 20 1023 18 10000 5.7 100 07:22 14.05.2020
3172 Clouds 20 1023 18 10000 5.7 90 06:53 14.05.2020
3173 Clouds 20 1023 18 10000 5.7 90 06:53 14.05.2020
3174 Clouds 20 1024 18 10000 5.7 130 06:27 14.05.2020
3175 Clouds 19 1024 22 10000 6.7 120 05:43 14.05.2020
3176 Clear 19 1024 22 10000 6.7 120 05:22 14.05.2020
3177 Clear 16 1026 26 10000 4.1 120 03:52 14.05.2020
3178 Clear 15 1026 28 10000 3.6 110 03:20 14.05.2020
3179 Clear 14 1026 30 10000 3.6 100 02:39 14.05.2020
3180 Clear 12 1026 32 10000 1.5 50 01:53 14.05.2020
3181 Clear 7 1025 39 10000 2.1 290 00:58 14.05.2020
3182 Clear 4 1025 41 10000 1.5 240 00:30 14.05.2020
3183 Clear 3 1025 44 10000 2.6 290 23:57 13.05.2020
3184 Clear 4 1024 41 10000 2.6 290 23:38 13.05.2020
3185 Clear 3 1024 44 10000 2.6 300 23:18 13.05.2020
3186 Clear 5 1024 41 10000 3.29 129 22:41 13.05.2020
3187 Clear 5 1024 41 10000 3.21 123 22:22 13.05.2020
3188 Clear 5 1024 41 10000 2.1 340 21:59 13.05.2020
3189 Clear 5 1024 38 10000 3.21 123 21:40 13.05.2020
3190 Clear 5 1024 38 10000 3.62 124 21:19 13.05.2020
3191 Clear 5 1024 35 10000 3.62 124 20:56 13.05.2020
3192 Clear 5 1024 38 10000 3.62 124 20:38 13.05.2020
3193 Clear 5 1024 38 10000 3.73 119 20:19 13.05.2020
3194 Clear 5 1024 32 10000 3.73 119 19:42 13.05.2020
3195 Clear 5 1024 32 10000 3.8 122 19:23 13.05.2020
3196 Clear 8 1024 33 10000 1 280 18:45 13.05.2020
3197 Clear 8 1024 33 10000 1 280 18:22 13.05.2020
3198 Clear 8 1024 33 10000 1 280 18:22 13.05.2020
3199 Clear 8 1024 33 10000 1 280 18:21 13.05.2020
3200 Clear 7 1024 30 10000 2.6 200 17:39 13.05.2020
3201 Clear 7 1024 30 10000 2.6 200 17:20 13.05.2020
3202 Clear 8 1024 28 10000 2.1 200 16:56 13.05.2020
3203 Clear 8 1025 28 10000 2.6 190 16:38 13.05.2020
3204 Clear 8 1025 31 10000 2.6 180 16:18 13.05.2020
3205 Clear 9 1025 29 10000 2.6 150 15:42 13.05.2020
3206 Clear 9 1025 29 10000 2.6 150 15:42 13.05.2020
3207 Clear 9 1025 29 10000 2.6 150 15:20 13.05.2020
3208 Clear 10 1024 25 10000 2.6 130 14:57 13.05.2020
3209 Clear 11 1025 27 10000 2.1 160 14:39 13.05.2020
3210 Clear 11 1025 27 10000 2.1 160 14:21 13.05.2020
3211 Clear 12 1024 25 10000 2.6 160 13:57 13.05.2020
3212 Clear 12 1024 25 10000 2.6 160 13:57 13.05.2020
3213 Clear 13 1024 22 10000 2.6 130 13:39 13.05.2020
3214 Clear 13 1024 22 10000 2.6 130 13:20 13.05.2020
3215 Clear 15 1023 21 10000 3.1 150 12:43 13.05.2020
3216 Clear 15 1023 21 10000 3.1 150 12:23 13.05.2020
3217 Clear 16 1023 19 10000 3.6 150 11:58 13.05.2020
3218 Clear 18 1023 17 10000 3.6 150 11:40 13.05.2020
3219 Clear 18 1023 17 10000 3.6 150 11:21 13.05.2020
3220 Clear 19 1022 15 10000 4.6 130 10:59 13.05.2020
3221 Clear 20 1022 14 10000 5.1 150 10:39 13.05.2020
3222 Clear 20 1022 14 10000 5.1 150 10:20 13.05.2020
3223 Clear 21 1022 13 10000 5.7 140 09:59 13.05.2020
3224 Clear 21 1022 13 10000 4.6 130 09:40 13.05.2020
3225 Clear 21 1022 13 10000 4.6 130 09:21 13.05.2020
3226 Clear 21 1022 13 10000 5.1 110 09:21 13.05.2020
3227 Clear 22 1022 13 10000 6.2 120 08:41 13.05.2020
3228 Clear 22 1022 13 10000 6.2 120 08:22 13.05.2020
3229 Clear 21 1022 13 10000 6.7 120 07:59 13.05.2020
3230 Clear 21 1022 14 10000 6.2 140 07:36 13.05.2020
3231 Clear 20 1022 15 10000 5.1 130 06:58 13.05.2020
3232 Clear 21 1022 15 10000 5.7 140 06:40 13.05.2020
3233 Clear 20 1024 18 10000 5.7 140 05:50 13.05.2020
3234 Clear 19 1024 20 10000 5.7 140 04:22 13.05.2020
3235 Clear 17 1025 23 10000 5.1 110 02:59 13.05.2020
3236 Clear 15 1025 26 10000 5.1 100 02:20 13.05.2020
3237 Clear 11 1025 32 10000 0.5 200 01:21 13.05.2020
3238 Clear 6 1024 41 10000 2.1 280 00:39 13.05.2020
3239 Clear 5 1024 38 10000 2.1 290 00:18 13.05.2020
3240 Clear 6 1023 41 10000 2.1 290 23:39 12.05.2020
3241 Clear 6 1023 41 10000 2.1 290 23:20 12.05.2020
3242 Clear 6 1023 38 10000 2.1 330 22:55 12.05.2020
3243 Clear 6 1023 38 10000 2.1 260 22:36 12.05.2020
3244 Clear 6 1022 38 10000 1.5 270 22:18 12.05.2020
3245 Clear 6 1022 38 10000 1.5 270 21:54 12.05.2020
3246 Clear 6 1022 35 10000 1.5 240 21:36 12.05.2020
3247 Clear 8 1022 36 10000 2.85 132 21:18 12.05.2020
3248 Clear 8 1022 33 10000 2.85 132 20:42 12.05.2020
3249 Clouds 8 1022 33 10000 2.65 127 20:23 12.05.2020
3250 Clouds 9 1022 36 10000 2.65 127 19:59 12.05.2020
3251 Clouds 9 1022 34 10000 2.65 127 19:41 12.05.2020
3252 Clouds 9 1022 34 10000 2.8 121 19:22 12.05.2020
3253 Clouds 9 1022 34 10000 2.8 121 18:58 12.05.2020
3254 Clouds 9 1022 34 10000 1 210 18:39 12.05.2020
3255 Clouds 9 1022 34 10000 1 210 18:21 12.05.2020
3256 Clouds 11 1022 27 10000 2.6 200 17:43 12.05.2020
3257 Clouds 12 1022 27 10000 2.1 130 17:24 12.05.2020
3258 Clouds 13 1022 28 10000 3.16 116 16:47 12.05.2020
3259 Clouds 13 1022 28 10000 3.17 114 16:26 12.05.2020
3260 Clouds 13 1022 26 10000 3.17 114 15:57 12.05.2020
3261 Clouds 14 1022 24 10000 3.17 114 15:39 12.05.2020
3262 Clouds 14 1022 24 10000 3.33 113 15:20 12.05.2020
3263 Clouds 14 1022 24 10000 2.6 120 14:58 12.05.2020
3264 Clouds 16 1022 23 10000 2.1 100 14:39 12.05.2020
3265 Clouds 16 1022 23 10000 2.1 100 14:20 12.05.2020
3266 Clouds 16 1022 23 10000 2.6 110 13:59 12.05.2020
3267 Clouds 17 1022 21 10000 3.1 120 13:41 12.05.2020
3268 Clouds 17 1022 21 10000 3.1 120 13:20 12.05.2020
3269 Clouds 17 1022 21 10000 3.1 120 12:58 12.05.2020
3270 Clouds 18 1022 18 10000 3.6 120 12:39 12.05.2020
3271 Clouds 18 1022 18 10000 3.6 120 12:21 12.05.2020
3272 Clouds 19 1021 17 10000 3.6 130 11:58 12.05.2020
3273 Clouds 20 1021 15 10000 3.6 130 11:39 12.05.2020
3274 Clouds 20 1021 15 10000 3.6 130 11:21 12.05.2020
3275 Clouds 20 1020 16 10000 4.1 130 10:58 12.05.2020
3276 Clouds 21 1020 14 10000 4.1 120 10:40 12.05.2020
3277 Clouds 21 1020 14 10000 4.1 120 10:21 12.05.2020
3278 Clouds 22 1019 13 10000 4.6 150 09:59 12.05.2020
3279 Clouds 23 1019 12 10000 3.6 110 09:39 12.05.2020
3280 Clouds 23 1019 12 10000 3.6 110 09:20 12.05.2020
3281 Clouds 22 1019 14 10000 3.1 140 08:54 12.05.2020
3282 Clouds 22 1019 14 10000 2.6 150 08:36 12.05.2020
3283 Clouds 22 1020 14 10000 2.1 130 08:18 12.05.2020
3284 Clouds 22 1020 14 10000 2.6 110 07:41 12.05.2020
3285 Clouds 22 1020 14 10000 2.6 110 07:21 12.05.2020
3286 Clouds 20 1020 18 10000 3.1 120 06:39 12.05.2020
3287 Clouds 20 1020 18 10000 3.1 120 06:21 12.05.2020
3288 Clouds 20 1022 19 10000 3.1 110 05:49 12.05.2020
3289 Clouds 20 1022 20 10000 3.1 80 04:54 12.05.2020
3290 Clouds 17 1024 27 10000 3.1 70 03:26 12.05.2020
3291 Clouds 16 1024 29 10000 4.6 80 02:28 12.05.2020
3292 Clouds 15 1023 30 10000 3.6 80 01:56 12.05.2020
3293 Clouds 13 1023 35 10000 2.6 80 01:20 12.05.2020
3294 Clouds 10 1023 43 10000 2.6 200 00:25 12.05.2020
3295 Clouds 10 1022 43 10000 1.5 200 23:58 11.05.2020
3296 Clouds 10 1022 43 10000 2.6 170 23:40 11.05.2020
3297 Clouds 10 1022 43 10000 2.6 170 23:20 11.05.2020
3298 Clouds 11 1022 40 10000 2.1 170 22:58 11.05.2020
3299 Clouds 12 1021 37 10000 2.6 140 22:40 11.05.2020
3300 Clouds 12 1021 37 10000 2.6 140 22:19 11.05.2020
3301 Clouds 11 1021 40 10000 2.6 40 21:55 11.05.2020
3302 Clouds 11 1021 40 10000 3.1 80 21:37 11.05.2020
3303 Clouds 11 1021 40 10000 3.1 70 21:18 11.05.2020
3304 Clouds 11 1021 40 10000 3.1 70 20:57 11.05.2020
3305 Clouds 11 1022 40 10000 2.6 100 20:38 11.05.2020
3306 Clouds 10 1022 43 10000 3.1 150 20:18 11.05.2020
3307 Clouds 10 1022 43 10000 2.6 140 19:41 11.05.2020
3308 Clouds 10 1022 43 10000 2.6 140 19:22 11.05.2020
3309 Clouds 11 1023 40 10000 3.1 89 18:58 11.05.2020
3310 Clouds 11 1023 40 10000 3.1 40 18:39 11.05.2020
3311 Clouds 12 1023 37 10000 2.6 50 18:20 11.05.2020
3312 Clouds 12 1023 37 10000 2.6 50 17:57 11.05.2020
3313 Clouds 12 1024 37 10000 2.1 120 17:39 11.05.2020
3314 Clouds 12 1024 37 10000 2.1 120 17:21 11.05.2020
3315 Clouds 13 1024 35 10000 3.1 130 16:56 11.05.2020
3316 Clouds 13 1024 35 10000 2.6 150 16:37 11.05.2020
3317 Clouds 14 1024 33 10000 2.6 120 16:19 11.05.2020
3318 Clouds 14 1024 33 10000 2.6 130 15:42 11.05.2020
3319 Clouds 14 1024 33 10000 2.6 130 15:20 11.05.2020
3320 Clouds 15 1024 30 10000 3.1 120 14:59 11.05.2020
3321 Clouds 15 1024 28 10000 3.1 110 14:41 11.05.2020
3322 Clouds 15 1024 28 10000 2.6 120 14:21 11.05.2020
3323 Clouds 15 1024 28 10000 2.6 120 13:54 11.05.2020
3324 Clouds 15 1024 28 10000 3.1 120 13:36 11.05.2020
3325 Clouds 16 1024 26 10000 3.6 120 13:18 11.05.2020
3326 Clouds 16 1024 26 10000 3.6 120 12:54 11.05.2020
3327 Clouds 16 1024 26 10000 3.6 120 12:54 11.05.2020
3328 Clouds 16 1023 26 10000 4.1 130 12:36 11.05.2020
3329 Clouds 16 1023 26 10000 3.6 130 12:18 11.05.2020
3330 Clouds 16 1023 26 10000 4.6 120 11:41 11.05.2020
3331 Clouds 16 1023 26 10000 4.6 120 11:22 11.05.2020
3332 Clouds 17 1023 25 10000 4.6 130 10:58 11.05.2020
3333 Clouds 17 1023 25 10000 4.6 130 10:58 11.05.2020
3334 Clouds 17 1022 27 10000 5.1 140 10:40 11.05.2020
3335 Clouds 17 1022 27 10000 5.1 140 10:21 11.05.2020
3336 Clouds 17 1022 27 10000 5.1 140 10:21 11.05.2020
3337 Clouds 18 1022 25 10000 5.1 130 09:58 11.05.2020
3338 Clouds 18 1022 25 10000 5.7 120 09:39 11.05.2020
3339 Clouds 18 1022 25 10000 5.1 120 09:19 11.05.2020
3340 Clouds 18 1022 25 10000 5.1 120 08:55 11.05.2020
3341 Clouds 19 1022 24 10000 5.1 130 08:36 11.05.2020
3342 Clouds 18 1022 23 10000 5.1 90 08:18 11.05.2020
3343 Clouds 18 1023 25 10000 5.1 110 07:41 11.05.2020
3344 Clouds 18 1023 25 10000 5.1 110 07:23 11.05.2020
3345 Clouds 18 1024 25 10000 5.7 100 06:39 11.05.2020
3346 Clouds 17 1024 29 10000 5.1 100 05:55 11.05.2020
3347 Clouds 17 1025 29 10000 6.2 100 05:23 11.05.2020
3348 Clouds 16 1026 31 10000 6.2 100 04:19 11.05.2020
3349 Clouds 13 1027 33 10000 6.2 90 02:37 11.05.2020
3350 Clouds 12 1026 37 10000 5.1 100 02:19 11.05.2020
3351 Clouds 12 1027 43 10000 4.1 110 01:23 11.05.2020
3352 Clouds 9 1026 49 10000 1.5 100 00:42 11.05.2020
3353 Clouds 8 1026 49 10000 2.6 120 00:19 11.05.2020
3354 Clouds 8 1026 49 10000 2.6 140 23:42 10.05.2020
3355 Clouds 8 1026 49 10000 2.6 140 23:20 10.05.2020
3356 Clouds 9 1025 45 10000 2.6 150 22:55 10.05.2020
3357 Clouds 10 1025 46 10000 3.1 140 22:37 10.05.2020
3358 Clouds 9 1025 49 10000 2.6 140 22:18 10.05.2020
3359 Clouds 10 1025 46 10000 2.6 120 21:43 10.05.2020
3360 Clouds 10 1025 46 10000 3.1 140 21:19 10.05.2020
3361 Clouds 11 1025 43 10000 3.6 120 20:43 10.05.2020
3362 Clouds 11 1025 43 10000 3.6 120 20:25 10.05.2020
3363 Clouds 11 1025 43 10000 3.6 120 20:25 10.05.2020
3364 Clouds 11 1025 43 10000 3.6 120 20:25 10.05.2020
3365 Clouds 12 1025 40 10000 5.1 110 19:59 10.05.2020
3366 Clouds 13 1025 37 10000 4.6 120 19:39 10.05.2020
3367 Clouds 13 1025 37 10000 4.6 120 19:21 10.05.2020
3368 Clouds 13 1024 37 10000 5.7 110 18:56 10.05.2020
3369 Clouds 13 1025 35 10000 5.7 120 18:37 10.05.2020
3370 Clouds 14 1025 33 10000 5.7 110 18:18 10.05.2020
3371 Clouds 14 1025 33 10000 5.7 110 17:58 10.05.2020
3372 Clouds 14 1025 33 10000 5.7 110 17:39 10.05.2020
3373 Clouds 14 1025 33 10000 4.1 130 17:20 10.05.2020
3374 Clouds 14 1025 33 10000 4.1 130 17:20 10.05.2020
3375 Clouds 14 1025 33 10000 4.6 120 16:54 10.05.2020
3376 Clouds 14 1025 33 10000 4.6 120 16:36 10.05.2020
3377 Clouds 14 1025 33 10000 5.1 110 16:18 10.05.2020
3378 Clouds 14 1026 30 10000 4.1 100 15:41 10.05.2020
3379 Clouds 14 1026 30 10000 4.1 100 15:22 10.05.2020
3380 Clouds 14 1026 30 10000 3.1 120 14:56 10.05.2020
3381 Clouds 15 1026 30 10000 3.1 120 14:38 10.05.2020
3382 Clouds 15 1026 30 10000 3.1 120 14:19 10.05.2020
3383 Clouds 14 1026 30 10000 4.1 100 13:57 10.05.2020
3384 Clouds 15 1026 30 10000 3.6 120 13:37 10.05.2020
3385 Clouds 15 1026 30 10000 4.6 130 13:18 10.05.2020
3386 Clouds 16 1025 29 10000 5.1 130 12:42 10.05.2020
3387 Clouds 16 1025 29 10000 5.1 130 12:23 10.05.2020
3388 Clouds 16 1025 29 10000 4.1 130 11:59 10.05.2020
3389 Clouds 16 1025 29 10000 4.6 130 11:40 10.05.2020
3390 Clouds 16 1025 29 10000 4.6 130 11:21 10.05.2020
3391 Clouds 17 1024 27 10000 5.7 130 10:55 10.05.2020
3392 Clouds 17 1024 27 10000 5.7 130 10:55 10.05.2020
3393 Clouds 17 1024 27 10000 5.7 130 10:55 10.05.2020
3394 Clouds 18 1024 25 10000 7.2 140 10:37 10.05.2020
3395 Clouds 18 1024 25 10000 7.2 140 10:37 10.05.2020
3396 Clear 18 1023 27 10000 7.2 130 10:19 10.05.2020
3397 Clear 19 1023 25 10000 7.2 120 09:42 10.05.2020
3398 Clear 19 1023 25 10000 7.2 120 09:23 10.05.2020
3399 Clear 19 1023 25 10000 7.2 130 08:57 10.05.2020
3400 Clear 19 1023 25 10000 7.2 120 08:39 10.05.2020
3401 Clear 19 1023 25 10000 7.2 120 08:20 10.05.2020
3402 Clear 19 1024 25 10000 6.2 120 07:40 10.05.2020
3403 Clear 19 1024 25 10000 7.2 130 07:19 10.05.2020
3404 Clear 19 1024 25 10000 7.2 130 06:50 10.05.2020
3405 Clear 19 1025 25 10000 6.7 130 06:26 10.05.2020
3406 Clear 18 1026 25 10000 7.2 130 05:45 10.05.2020
3407 Clear 17 1027 33 10000 7.7 120 04:45 10.05.2020
3408 Clear 17 1027 33 10000 7.7 120 04:25 10.05.2020
3409 Clear 16 1027 38 10000 7.7 110 03:47 10.05.2020
3410 Clear 16 1027 38 10000 8.2 110 02:59 10.05.2020
3411 Clear 15 1027 41 10000 8.7 110 02:25 10.05.2020
3412 Clouds 14 1027 47 10000 8.7 110 01:58 10.05.2020
3413 Clouds 13 1027 50 10000 6.7 110 01:39 10.05.2020
3414 Clouds 12 1026 54 10000 5.7 110 01:18 10.05.2020
3415 Clouds 12 1026 54 10000 5.7 110 00:52 10.05.2020
3416 Clouds 9 1026 66 10000 0.5 150 00:21 10.05.2020
3417 Clouds 8 1025 65 10000 2.1 70 23:40 09.05.2020
3418 Clouds 8 1025 65 10000 2.6 40 23:21 09.05.2020
3419 Clouds 8 1025 65 10000 2.6 40 22:58 09.05.2020
3420 Clouds 9 1025 61 10000 0.5 30 22:39 09.05.2020
3421 Clouds 9 1025 61 10000 0.5 30 22:21 09.05.2020
3422 Clouds 10 1024 61 10000 2.6 140 21:56 09.05.2020
3423 Clouds 11 1024 57 10000 3.6 150 21:37 09.05.2020
3424 Clouds 11 1024 57 10000 3.6 150 21:19 09.05.2020
3425 Clouds 11 1024 53 10000 3.1 130 20:56 09.05.2020
3426 Clouds 11 1024 53 10000 3.1 130 20:37 09.05.2020
3427 Clouds 11 1024 57 10000 2.6 140 20:18 09.05.2020
3428 Clouds 12 1024 54 10000 2.1 130 19:40 09.05.2020
3429 Clouds 12 1024 54 10000 2.1 130 19:20 09.05.2020
3430 Clouds 12 1024 54 10000 3.1 140 18:58 09.05.2020
3431 Clouds 12 1024 54 10000 3.6 140 18:40 09.05.2020
3432 Clouds 12 1024 54 10000 3.1 150 18:18 09.05.2020
3433 Clouds 12 1024 54 10000 3.1 150 18:18 09.05.2020
3434 Clouds 12 1024 50 10000 2.6 110 17:42 09.05.2020
3435 Clouds 12 1024 50 10000 2.6 110 17:22 09.05.2020
3436 Clouds 14 1024 47 10000 3.1 130 16:41 09.05.2020
3437 Clouds 14 1024 47 10000 3.1 130 16:20 09.05.2020
3438 Clouds 14 1024 47 10000 3.1 130 15:54 09.05.2020
3439 Clouds 15 1024 41 10000 3.1 130 15:36 09.05.2020
3440 Clouds 16 1024 38 10000 3.1 140 15:18 09.05.2020
3441 Clouds 17 1024 39 10000 3.6 140 14:42 09.05.2020
3442 Clouds 17 1023 36 10000 3.6 150 14:20 09.05.2020
3443 Clouds 17 1023 36 10000 3.6 150 13:58 09.05.2020
3444 Clouds 18 1023 34 10000 3.6 140 13:40 09.05.2020
3445 Clouds 18 1023 34 10000 3.6 140 13:20 09.05.2020
3446 Clouds 19 1022 32 10000 4.1 140 12:43 09.05.2020
3447 Clouds 19 1022 32 10000 4.1 140 12:23 09.05.2020
3448 Clouds 20 1022 30 10000 4.6 140 11:59 09.05.2020
3449 Clouds 20 1021 28 10000 4.1 140 11:41 09.05.2020
3450 Clouds 21 1021 26 10000 5.7 130 11:19 09.05.2020
3451 Clouds 21 1021 26 10000 5.1 130 10:47 09.05.2020
3452 Clouds 21 1021 26 10000 5.1 130 10:25 09.05.2020
3453 Clouds 22 1020 28 10000 5.7 130 09:58 09.05.2020
3454 Clouds 23 1020 28 10000 5.7 130 09:38 09.05.2020
3455 Clear 23 1020 20 10000 5.7 160 09:19 09.05.2020
3456 Clear 23 1020 20 10000 5.7 160 09:19 09.05.2020
3457 Clear 23 1020 20 10000 5.7 160 08:51 09.05.2020
3458 Clear 23 1020 20 10000 6.2 120 08:32 09.05.2020
3459 Clear 23 1020 18 10000 5.7 140 07:50 09.05.2020
3460 Clear 23 1020 18 10000 5.7 140 07:32 09.05.2020
3461 Clear 23 1020 17 10000 6.2 140 06:54 09.05.2020
3462 Clear 23 1021 18 10000 7.2 160 06:25 09.05.2020
3463 Clear 22 1022 18 10000 6.7 130 05:46 09.05.2020
3464 Clear 20 1023 19 10000 8.2 120 03:59 09.05.2020
3465 Clear 20 1023 19 10000 6.7 150 03:38 09.05.2020
3466 Clear 19 1023 22 10000 7.2 160 02:42 09.05.2020
3467 Clear 18 1023 23 10000 5.1 160 01:54 09.05.2020
3468 Clear 17 1022 25 10000 2.6 180 01:24 09.05.2020
3469 Clear 15 1022 30 10000 2.6 200 00:54 09.05.2020
3470 Clear 14 1021 33 6000 3.1 210 00:36 09.05.2020
3471 Clear 14 1021 33 10000 3.1 220 23:54 08.05.2020
3472 Clear 14 1020 35 10000 2.6 250 23:36 08.05.2020
3473 Clear 14 1019 35 10000 2.1 260 23:18 08.05.2020
3474 Clear 15 1019 33 10000 2.1 280 22:42 08.05.2020
3475 Clear 15 1019 33 10000 2.1 280 22:20 08.05.2020
3476 Clear 16 1018 31 10000 2.6 230 21:59 08.05.2020
3477 Clear 17 1018 29 10000 3.6 220 21:40 08.05.2020
3478 Clear 16 1018 34 10000 3.6 240 21:19 08.05.2020
3479 Clear 16 1018 34 10000 3.6 240 20:58 08.05.2020
3480 Clear 15 1018 30 10000 3.1 260 20:39 08.05.2020
3481 Clear 15 1018 30 10000 3.1 260 20:21 08.05.2020
3482 Clear 15 1017 28 10000 3.1 280 19:44 08.05.2020
3483 Clear 15 1017 28 10000 3.1 280 19:24 08.05.2020
3484 Clear 16 1017 25 10000 3.6 220 18:55 08.05.2020
3485 Clear 17 1017 23 10000 5.7 220 18:37 08.05.2020
3486 Clear 16 1016 26 10000 3.1 290 18:18 08.05.2020
3487 Clear 16 1016 26 10000 3.1 290 17:41 08.05.2020
3488 Clear 17 1016 25 10000 3.6 270 17:18 08.05.2020
3489 Clear 17 1016 25 10000 2.6 310 16:44 08.05.2020
3490 Clear 17 1016 25 10000 2.6 310 16:26 08.05.2020
3491 Clear 18 1016 25 10000 2.6 300 15:57 08.05.2020
3492 Clear 18 1016 23 10000 2.6 280 15:39 08.05.2020
3493 Clear 19 1016 24 10000 2.6 280 15:18 08.05.2020
3494 Clear 21 1016 22 10000 3.1 300 14:41 08.05.2020
3495 Clear 21 1016 22 10000 3.1 300 14:21 08.05.2020
3496 Clear 22 1016 19 10000 1 220 13:59 08.05.2020
3497 Clear 22 1016 19 10000 3.6 210 13:39 08.05.2020
3498 Clear 24 1016 19 10000 3.1 350 13:19 08.05.2020
3499 Clear 24 1015 19 10000 3.1 350 12:45 08.05.2020
3500 Clear 24 1015 19 10000 3.1 350 12:25 08.05.2020
3501 Clear 25 1015 16 10000 2.6 330 11:57 08.05.2020
3502 Clear 26 1014 15 10000 3.1 320 11:39 08.05.2020
3503 Clear 26 1014 15 10000 3.1 320 11:20 08.05.2020
3504 Clear 28 1014 14 10000 3.6 300 10:55 08.05.2020
3505 Clear 30 1014 13 10000 4.1 300 10:37 08.05.2020
3506 Clear 31 1014 12 10000 5.7 320 10:18 08.05.2020
3507 Clear 31 1014 11 10000 4.6 290 09:41 08.05.2020
3508 Clear 31 1014 11 10000 4.6 290 09:19 08.05.2020
3509 Clear 31 1014 11 10000 5.1 310 08:51 08.05.2020
3510 Clear 31 1014 11 10000 5.7 290 08:25 08.05.2020
3511 Clear 31 1014 11 10000 4.1 310 07:55 08.05.2020
3512 Clear 31 1014 12 10000 5.7 310 07:37 08.05.2020
3513 Clear 30 1014 13 10000 5.1 330 07:19 08.05.2020
3514 Clear 31 1015 12 10000 6.2 330 06:39 08.05.2020
3515 Clear 30 1015 13 10000 7.2 320 06:20 08.05.2020
3516 Clear 30 1016 14 10000 6.7 310 05:29 08.05.2020
3517 Clear 26 1018 16 10000 1.5 310 03:21 08.05.2020
3518 Clear 22 1018 15 10000 1.23 313 02:29 08.05.2020
3519 Clear 18 1018 17 10000 1.5 340 01:39 08.05.2020
3520 Clear 18 1018 17 10000 1.5 340 01:20 08.05.2020
3521 Clear 11 1017 27 10000 2.1 290 00:47 08.05.2020
3522 Clear 11 1017 27 10000 2.1 290 00:25 08.05.2020
3523 Clear 11 1016 27 10000 2.1 290 23:46 07.05.2020
3524 Clear 11 1016 27 10000 2.1 290 23:24 07.05.2020
3525 Clear 11 1016 27 10000 2.1 310 22:59 07.05.2020
3526 Clear 11 1016 29 10000 2.1 300 22:41 07.05.2020
3527 Clear 11 1016 29 10000 2.1 300 22:20 07.05.2020
3528 Clear 12 1016 25 10000 2.6 330 21:57 07.05.2020
3529 Clear 12 1016 25 10000 2.6 300 21:38 07.05.2020
3530 Clear 12 1016 25 10000 2.6 300 21:19 07.05.2020
3531 Clear 12 1016 25 10000 2.6 300 21:19 07.05.2020
3532 Clear 11 1016 27 10000 2.6 290 20:56 07.05.2020
3533 Clear 12 1016 25 10000 2.1 280 20:37 07.05.2020
3534 Clear 12 1016 27 10000 1 310 20:18 07.05.2020
3535 Clear 13 1016 26 10000 2.1 330 19:45 07.05.2020
3536 Clear 13 1016 26 10000 2.1 330 19:21 07.05.2020
3537 Clear 14 1017 22 10000 1.5 240 18:47 07.05.2020
3538 Clear 14 1017 22 10000 1.5 240 18:28 07.05.2020
3539 Clear 14 1017 22 10000 1 240 17:58 07.05.2020
3540 Clear 14 1017 22 10000 0.5 270 17:37 07.05.2020
3541 Clear 14 1017 22 10000 0.5 270 17:19 07.05.2020
3542 Clear 17 1018 18 10000 1.5 30 16:42 07.05.2020
3543 Clear 17 1018 18 10000 2.1 10 16:19 07.05.2020
3544 Clear 17 1018 18 10000 2.1 10 15:57 07.05.2020
3545 Clear 18 1018 17 10000 2.1 10 15:37 07.05.2020
3546 Clear 21 1018 14 10000 2.1 70 15:18 07.05.2020
3547 Clear 20 1018 15 10000 1.5 150 14:46 07.05.2020
3548 Clouds 20 1018 15 10000 1.5 150 14:23 07.05.2020
3549 Clouds 20 1017 18 10000 1.5 10 13:58 07.05.2020
3550 Clouds 19 1017 17 10000 3.1 130 13:40 07.05.2020
3551 Clouds 19 1017 17 10000 3.1 130 13:40 07.05.2020
3552 Clouds 20 1017 16 10000 0.94 332 13:20 07.05.2020
3553 Clouds 19 1017 17 10000 3.1 130 13:20 07.05.2020
3554 Clouds 23 1017 15 10000 2.1 40 12:40 07.05.2020
3555 Clouds 23 1017 15 10000 2.1 40 12:20 07.05.2020
3556 Clouds 25 1016 12 10000 0.89 288 11:39 07.05.2020
3557 Clouds 25 1016 12 10000 1.25 261 11:21 07.05.2020
3558 Clouds 28 1016 9 10000 2.1 300 10:57 07.05.2020
3559 Clouds 29 1016 10 10000 2.1 290 10:38 07.05.2020
3560 Clouds 30 1016 9 10000 1.5 280 10:18 07.05.2020
3561 Clouds 30 1016 9 10000 4.1 250 09:39 07.05.2020
3562 Clear 30 1016 9 10000 4.1 250 09:19 07.05.2020
3563 Clear 30 1016 9 10000 3.6 300 08:46 07.05.2020
3564 Clouds 30 1016 9 10000 3.6 300 08:24 07.05.2020
3565 Clouds 30 1016 9 10000 2.6 350 07:59 07.05.2020
3566 Clouds 30 1016 9 10000 4.1 270 07:40 07.05.2020
3567 Clouds 30 1016 9 10000 4.1 270 07:20 07.05.2020
3568 Clouds 29 1017 11 10000 4.6 300 06:38 07.05.2020
3569 Clouds 29 1017 12 10000 5.1 320 06:19 07.05.2020
3570 Clouds 28 1018 15 10000 8.2 320 04:41 07.05.2020
3571 Clouds 26 1019 19 10000 6.2 350 03:40 07.05.2020
3572 Clouds 26 1019 21 10000 5.7 340 03:18 07.05.2020
3573 Clouds 24 1019 22 10000 4.1 350 02:35 07.05.2020
3574 Clouds 22 1019 24 10000 2.6 330 01:37 07.05.2020
3575 Clouds 19 1018 29 10000 2.1 330 01:19 07.05.2020
3576 Clouds 16 1018 31 10000 2.1 340 00:42 07.05.2020
3577 Clouds 16 1018 31 10000 2.1 340 00:21 07.05.2020
3578 Clouds 12 1018 37 10000 1 300 23:44 06.05.2020
3579 Clouds 13 1018 35 10000 2.6 280 23:22 06.05.2020
3580 Clouds 13 1018 35 10000 2.6 280 22:56 06.05.2020
3581 Clouds 12 1017 32 10000 3.1 280 22:37 06.05.2020
3582 Clouds 17 1017 32 10000 2.6 260 22:18 06.05.2020
3583 Clouds 17 1017 32 10000 2.6 260 21:55 06.05.2020
3584 Clouds 17 1017 29 10000 2.1 340 21:36 06.05.2020
3585 Clouds 16 1017 33 10000 0.5 320 21:18 06.05.2020
3586 Clouds 16 1017 31 10000 1.5 320 20:39 06.05.2020
3587 Clear 16 1017 31 10000 1.5 320 20:21 06.05.2020
3588 Clear 12 1017 32 10000 1.5 190 19:56 06.05.2020
3589 Clear 12 1018 30 10000 3.1 190 19:38 06.05.2020
3590 Clear 13 1017 30 10000 2.1 130 19:19 06.05.2020
3591 Clear 13 1017 30 10000 2.1 130 18:58 06.05.2020
3592 Clear 13 1017 30 10000 2.1 130 18:58 06.05.2020
3593 Clear 13 1017 28 10000 4.65 4 18:38 06.05.2020
3594 Clear 13 1017 28 10000 4.65 4 18:38 06.05.2020
3595 Clear 14 1018 26 10000 4.22 9 18:20 06.05.2020
3596 Clear 14 1018 26 10000 4.22 9 17:55 06.05.2020
3597 Clear 20 1018 22 10000 1.5 10 17:37 06.05.2020
3598 Clear 20 1018 22 10000 1.5 10 17:37 06.05.2020
3599 Clear 19 1018 22 10000 2.6 10 17:18 06.05.2020
3600 Clear 19 1018 22 10000 2.6 10 16:57 06.05.2020
3601 Clear 20 1018 20 10000 2.6 20 16:39 06.05.2020
3602 Clear 20 1018 20 10000 2.6 20 16:20 06.05.2020
3603 Clear 21 1018 18 10000 4.1 350 15:48 06.05.2020
3604 Clear 21 1018 18 10000 4.1 350 15:23 06.05.2020
3605 Clear 20 1018 18 10000 1.5 320 14:59 06.05.2020
3606 Clear 20 1018 18 10000 2.6 20 14:39 06.05.2020
3607 Clear 19 1018 17 10000 3.1 40 14:19 06.05.2020
3608 Clear 19 1018 17 10000 3.1 40 14:19 06.05.2020
3609 Clouds 19 1018 17 10000 3.1 40 13:58 06.05.2020
3610 Clouds 18 1018 17 10000 2.1 30 13:39 06.05.2020
3611 Clouds 20 1017 15 10000 2.1 60 13:19 06.05.2020
3612 Clouds 23 1017 13 10000 2.1 340 12:43 06.05.2020
3613 Clouds 23 1017 13 10000 2.1 340 12:25 06.05.2020
3614 Clouds 25 1016 11 10000 2.1 10 11:42 06.05.2020
3615 Clouds 25 1016 11 10000 2.1 10 11:23 06.05.2020
3616 Clouds 27 1016 10 10000 2.6 360 10:58 06.05.2020
3617 Clouds 28 1016 10 10000 3.6 360 10:40 06.05.2020
3618 Clouds 29 1015 9 10000 3.6 350 10:20 06.05.2020
3619 Clouds 29 1015 9 10000 3.6 350 09:59 06.05.2020
3620 Clouds 29 1016 9 10000 4.6 330 09:38 06.05.2020
3621 Clear 29 1016 9 10000 4.6 330 09:20 06.05.2020
3622 Clear 30 1016 8 10000 3.1 330 08:44 06.05.2020
3623 Clouds 29 1017 10 10000 4.6 350 08:21 06.05.2020
3624 Clouds 29 1017 10 10000 4.6 350 07:56 06.05.2020
3625 Clouds 29 1017 9 10000 3.1 360 07:38 06.05.2020
3626 Clouds 28 1018 10 10000 4.1 10 07:19 06.05.2020
3627 Clouds 28 1018 11 10000 6.2 10 06:46 06.05.2020
3628 Clear 28 1018 11 10000 6.2 10 06:21 06.05.2020
3629 Clear 28 1018 11 10000 4.1 20 05:49 06.05.2020
3630 Clear 28 1018 11 10000 4.1 20 05:49 06.05.2020
3631 Clear 27 1019 11 10000 4.6 30 05:31 06.05.2020
3632 Clear 22 1022 18 10000 3.6 50 03:53 06.05.2020
3633 Clear 22 1022 18 10000 3.6 50 03:28 06.05.2020
3634 Clear 20 1022 22 10000 3.6 60 02:54 06.05.2020
3635 Clear 18 1022 23 10000 3.6 60 02:26 06.05.2020
3636 Clear 12 1023 27 10000 6.23 42 01:43 06.05.2020
3637 Clear 12 1023 27 10000 3.23 52 01:21 06.05.2020
3638 Clear 6 1022 38 10000 2.1 260 00:44 06.05.2020
3639 Clear 5 1022 38 10000 2.1 280 00:19 06.05.2020
3640 Clear 5 1022 38 10000 2.1 280 00:19 06.05.2020
3641 Clear 5 1022 38 10000 2.1 300 23:41 05.05.2020
3642 Clear 5 1022 38 10000 2.1 300 23:20 05.05.2020
3643 Clear 6 1022 38 10000 2.6 280 22:55 05.05.2020
3644 Clear 5 1022 41 10000 2.1 280 22:37 05.05.2020
3645 Clear 6 1021 35 10000 2.1 270 22:18 05.05.2020
3646 Clear 6 1021 35 10000 2.1 300 21:41 05.05.2020
3647 Clear 6 1021 35 10000 2.1 300 21:21 05.05.2020
3648 Clear 6 1021 35 10000 2.1 300 21:21 05.05.2020
3649 Clear 7 1021 36 10000 1 250 20:59 05.05.2020
3650 Clear 6 1021 35 10000 2.6 260 20:40 05.05.2020
3651 Clear 6 1021 35 10000 2.6 260 20:20 05.05.2020
3652 Clear 6 1021 33 10000 2.6 280 19:59 05.05.2020
3653 Clear 7 1021 30 10000 2.4 69 19:38 05.05.2020
3654 Clear 7 1021 30 10000 2.48 63 19:20 05.05.2020
3655 Clear 7 1021 33 10000 1.5 50 18:56 05.05.2020
3656 Clear 7 1021 33 10000 1.5 360 18:38 05.05.2020
3657 Clear 7 1021 33 10000 1.5 360 18:38 05.05.2020
3658 Clear 10 1021 29 10000 1.5 70 18:19 05.05.2020
3659 Clear 10 1022 25 10000 2.6 70 17:44 05.05.2020
3660 Clear 10 1022 25 10000 2.6 70 17:44 05.05.2020
3661 Clear 10 1022 25 10000 2.6 70 17:25 05.05.2020
3662 Clear 12 1022 27 10000 2.6 50 16:59 05.05.2020
3663 Clear 12 1022 25 10000 3.1 60 16:37 05.05.2020
3664 Clear 13 1022 26 10000 3.1 90 16:18 05.05.2020
3665 Clear 13 1022 26 10000 3.1 90 15:56 05.05.2020
3666 Clear 13 1022 24 10000 2.6 70 15:38 05.05.2020
3667 Clear 13 1022 24 10000 2.6 70 15:19 05.05.2020
3668 Clear 13 1022 24 10000 2.1 90 14:54 05.05.2020
3669 Clear 13 1022 24 10000 2.6 90 14:36 05.05.2020
3670 Clear 16 1022 19 10000 2.6 90 14:18 05.05.2020
3671 Clear 16 1022 19 10000 2.6 90 13:54 05.05.2020
3672 Clear 17 1022 18 10000 2.6 70 13:36 05.05.2020
3673 Clear 17 1021 17 10000 2.6 70 13:18 05.05.2020
3674 Clear 18 1021 16 10000 3.6 90 12:40 05.05.2020
3675 Clear 18 1021 16 10000 3.6 90 12:22 05.05.2020
3676 Clear 20 1021 14 10000 4.6 80 11:59 05.05.2020
3677 Clear 21 1021 13 10000 4.6 90 11:40 05.05.2020
3678 Clear 22 1020 12 10000 6.2 100 11:19 05.05.2020
3679 Clear 22 1020 12 10000 6.2 100 10:55 05.05.2020
3680 Clear 23 1020 12 10000 6.2 90 10:36 05.05.2020
3681 Clear 24 1020 12 10000 6.2 90 10:18 05.05.2020
3682 Clear 24 1020 13 10000 6.2 90 09:44 05.05.2020
3683 Clear 24 1020 13 10000 6.2 90 09:25 05.05.2020
3684 Clear 24 1020 13 10000 5.7 90 08:43 05.05.2020
3685 Clear 24 1020 13 10000 5.7 90 08:22 05.05.2020
3686 Clear 24 1020 14 10000 6.2 90 07:59 05.05.2020
3687 Clear 23 1020 13 10000 5.7 70 07:41 05.05.2020
3688 Clear 23 1020 13 10000 5.7 70 07:19 05.05.2020
3689 Clear 23 1021 16 10000 5.7 80 06:50 05.05.2020
3690 Clear 22 1021 17 10000 5.1 110 06:29 05.05.2020
3691 Clear 22 1021 17 10000 5.1 110 06:29 05.05.2020
3692 Clear 20 1023 20 10000 6.2 70 05:50 05.05.2020
3693 Clear 20 1024 24 10000 6.7 90 04:52 05.05.2020
3694 Clear 14 1025 35 10000 3.6 110 02:28 05.05.2020
3695 Clear 9 1025 45 10000 1.5 230 00:54 05.05.2020
3696 Clear 5 1024 60 10000 2.1 270 00:28 05.05.2020
3697 Clear 3 1023 69 10000 1.5 270 23:48 04.05.2020
3698 Clear 3 1023 69 10000 1.5 270 23:25 04.05.2020
3699 Clear 4 1023 64 10000 2.6 190 22:57 04.05.2020
3700 Clear 4 1023 64 10000 2.6 190 22:57 04.05.2020
3701 Clear 8 1023 52 10000 2.1 130 22:39 04.05.2020
3702 Clear 8 1023 52 10000 2.1 130 22:21 04.05.2020
3703 Clear 5 1023 60 10000 2.58 98 21:57 04.05.2020
3704 Clear 6 1023 60 10000 2.1 290 21:36 04.05.2020
3705 Clear 6 1023 60 10000 3.03 96 21:18 04.05.2020
3706 Clear 7 1023 65 10000 3.03 96 20:40 04.05.2020
3707 Clear 7 1023 65 10000 3.03 96 20:40 04.05.2020
3708 Clear 7 1023 65 10000 3.03 96 20:40 04.05.2020
3709 Clear 7 1023 65 10000 3.03 96 20:40 04.05.2020
3710 Clear 7 1023 65 10000 3.03 96 20:40 04.05.2020
3711 Clear 7 1023 56 10000 3.35 97 20:19 04.05.2020
3712 Clear 7 1023 48 10000 3.35 97 19:43 04.05.2020
3713 Clear 7 1023 37 10000 3.5 97 19:24 04.05.2020
3714 Clear 8 1023 61 10000 3.5 97 18:59 04.05.2020
3715 Clear 8 1023 37 10000 3.5 97 18:38 04.05.2020
3716 Clear 8 1023 37 10000 3.5 97 18:38 04.05.2020
3717 Clear 9 1024 36 10000 3.72 102 18:19 04.05.2020
3718 Clear 9 1024 36 10000 3.72 102 18:19 04.05.2020
3719 Clear 9 1024 45 10000 3.72 102 17:56 04.05.2020
3720 Clear 9 1024 36 10000 3.72 102 17:37 04.05.2020
3721 Clear 10 1024 34 10000 3.92 110 17:18 04.05.2020
3722 Clear 10 1024 53 10000 3.92 110 16:43 04.05.2020
3723 Clear 10 1024 53 10000 4.07 115 16:22 04.05.2020
3724 Clear 11 1024 53 10000 1.5 90 15:56 04.05.2020
3725 Clear 13 1024 43 10000 2.6 90 15:37 04.05.2020
3726 Clear 14 1025 44 10000 2.6 100 15:18 04.05.2020
3727 Clear 16 1024 38 10000 3.6 110 14:48 04.05.2020
3728 Clear 16 1024 38 10000 3.6 110 14:48 04.05.2020
3729 Clear 16 1024 38 10000 3.6 110 14:48 04.05.2020
3730 Clear 16 1024 38 10000 3.6 110 14:48 04.05.2020
3731 Clear 16 1024 38 10000 3.6 110 14:48 04.05.2020
3732 Clear 16 1024 38 10000 3.6 110 14:19 04.05.2020
3733 Clear 17 1024 33 10000 3.6 120 12:53 04.05.2020
3734 Clear 17 1023 33 10000 3.6 120 12:35 04.05.2020
3735 Clear 17 1023 33 10000 3.6 120 12:35 04.05.2020
3736 Clear 17 1023 33 10000 3.6 120 12:35 04.05.2020
3737 Clear 17 1023 33 10000 3.6 120 12:35 04.05.2020
3738 Clear 21 1022 26 10000 5.7 120 10:36 04.05.2020
3739 Clear 22 1021 24 10000 6.2 130 09:26 04.05.2020
3740 Clear 22 1021 24 10000 6.2 130 09:26 04.05.2020
3741 Clear 22 1021 24 10000 6.2 130 09:26 04.05.2020
3742 Clear 22 1021 24 10000 6.2 130 09:26 04.05.2020
3743 Clear 22 1021 24 10000 6.2 130 09:26 04.05.2020
3744 Clear 22 1021 26 10000 5.7 110 07:53 04.05.2020
3745 Clear 22 1022 28 10000 4.6 80 07:33 04.05.2020
3746 Clear 22 1022 28 10000 4.6 80 07:33 04.05.2020
3747 Clear 22 1022 28 10000 4.6 80 07:33 04.05.2020
3748 Clear 22 1022 28 10000 4.6 80 07:33 04.05.2020
3749 Clear 22 1022 28 10000 4.6 80 07:33 04.05.2020
3750 Clear 19 1024 39 10000 6.2 110 04:59 04.05.2020
3751 Clear 17 1025 51 10000 6.7 90 03:29 04.05.2020
3752 Clear 15 1025 58 10000 6.7 100 02:32 04.05.2020
3753 Clear 15 1025 58 10000 6.7 100 02:32 04.05.2020
3754 Clear 13 1025 58 10000 2.6 110 01:19 04.05.2020
3755 Clear 6 1024 75 10000 3.23 110 23:57 03.05.2020
3756 Clear 6 1024 75 10000 3.23 110 23:57 03.05.2020
3757 Clear 6 1024 75 10000 3.23 110 23:57 03.05.2020
3758 Clear 6 1024 75 10000 3.23 110 23:39 03.05.2020
3759 Clear 6 1024 75 10000 3.23 110 23:39 03.05.2020
3760 Clear 6 1024 75 10000 3.3 112 23:19 03.05.2020
3761 Clear 6 1024 75 10000 2.1 150 22:41 03.05.2020
3762 Clear 6 1024 75 10000 2.1 150 22:41 03.05.2020
3763 Clear 6 1024 75 10000 2.1 150 22:22 03.05.2020
3764 Clear 7 1023 70 10000 2.1 110 21:42 03.05.2020
3765 Clear 7 1023 70 10000 2.1 110 21:42 03.05.2020
3766 Clear 7 1023 70 10000 2.1 110 21:42 03.05.2020
3767 Clear 7 1023 70 10000 2.1 110 21:21 03.05.2020
3768 Clear 7 1023 70 10000 2.1 110 21:21 03.05.2020
3769 Clear 8 1023 70 10000 3.64 118 20:54 03.05.2020
3770 Clear 8 1023 70 10000 3.64 118 20:36 03.05.2020
3771 Clear 8 1023 65 10000 0.5 140 20:18 03.05.2020
3772 Clear 9 1023 66 10000 2.1 110 19:46 03.05.2020
3773 Clear 9 1023 66 10000 2.1 110 19:23 03.05.2020
3774 Clear 9 1023 66 10000 2.1 110 19:23 03.05.2020
3775 Clear 9 1023 66 10000 2.1 110 19:23 03.05.2020
3776 Clear 10 1024 61 10000 2.1 190 18:40 03.05.2020
3777 Clear 10 1024 61 10000 2.1 190 18:21 03.05.2020
3778 Clear 9 1024 61 10000 2.1 170 17:58 03.05.2020
3779 Clear 11 1024 57 10000 2.6 160 17:39 03.05.2020
3780 Clear 11 1024 57 10000 2.6 160 17:20 03.05.2020
3781 Clear 11 1024 53 10000 3.1 170 16:44 03.05.2020
3782 Clear 11 1024 53 10000 2.6 160 16:19 03.05.2020
3783 Clear 11 1024 53 10000 2.6 160 15:58 03.05.2020
3784 Clear 12 1024 54 10000 2.6 160 15:39 03.05.2020
3785 Clear 12 1024 54 10000 2.6 160 15:39 03.05.2020
3786 Clear 12 1024 54 10000 2.6 160 15:20 03.05.2020
3787 Clear 13 1024 50 10000 2.6 130 14:57 03.05.2020
3788 Clear 13 1024 50 10000 2.6 130 14:38 03.05.2020
3789 Clear 14 1024 47 10000 2.6 120 14:20 03.05.2020
3790 Clear 15 1024 44 10000 3.1 130 13:39 03.05.2020
3791 Clear 15 1024 44 10000 3.1 130 13:39 03.05.2020
3792 Clear 15 1024 44 10000 3.1 130 13:39 03.05.2020
3793 Clear 16 1023 41 10000 3.6 130 12:59 03.05.2020
3794 Clear 16 1023 41 10000 3.6 130 12:59 03.05.2020
3795 Clear 16 1023 41 10000 3.6 130 12:59 03.05.2020
3796 Clear 16 1023 41 10000 3.6 130 12:59 03.05.2020
3797 Clear 17 1023 39 10000 3.6 130 12:38 03.05.2020
3798 Clear 18 1022 36 10000 4.1 130 11:58 03.05.2020
3799 Clear 19 1022 34 10000 4.6 120 11:40 03.05.2020
3800 Clear 19 1022 34 10000 4.6 120 11:21 03.05.2020
3801 Clear 19 1022 34 10000 6.7 110 10:55 03.05.2020
3802 Clear 20 1021 32 10000 6.2 130 10:26 03.05.2020
3803 Clear 21 1021 32 10000 5.7 130 09:45 03.05.2020
3804 Clear 21 1021 32 10000 5.7 130 09:26 03.05.2020
3805 Clear 21 1021 32 10000 5.7 130 09:26 03.05.2020
3806 Clear 21 1021 32 10000 5.7 130 09:25 03.05.2020
3807 Clear 21 1021 32 10000 6.7 110 08:36 03.05.2020
3808 Clear 21 1021 35 10000 6.2 100 08:00 03.05.2020
3809 Clear 21 1021 35 10000 6.2 130 07:38 03.05.2020
3810 Clear 21 1021 35 10000 6.2 130 07:38 03.05.2020
3811 Clear 20 1022 40 10000 6.2 110 06:00 03.05.2020
3812 Clear 19 1023 42 10000 7.2 130 05:41 03.05.2020
3813 Clear 18 1024 48 10000 6.7 110 04:29 03.05.2020
3814 Clouds 18 1024 52 10000 6.7 120 03:55 03.05.2020
3815 Clear 15 1025 58 10000 7.2 100 02:38 03.05.2020
3816 Clear 14 1025 58 10000 4.6 110 02:19 03.05.2020
3817 Clear 14 1025 58 10000 4.6 110 02:19 03.05.2020
3818 Clear 12 1024 62 10000 3.1 110 01:41 03.05.2020
3819 Clear 12 1024 62 10000 3.1 110 01:22 03.05.2020
3820 Clear 8 1024 70 10000 7.54 118 00:40 03.05.2020
3821 Clear 8 1024 70 10000 3.68 125 00:21 03.05.2020
3822 Clear 7 1023 75 10000 1 310 23:49 02.05.2020
3823 Clear 7 1023 75 10000 1 310 23:30 02.05.2020
3824 Clear 7 1022 75 10000 2.1 310 22:59 02.05.2020
3825 Clear 7 1022 75 10000 2.1 350 22:41 02.05.2020
3826 Clear 7 1022 75 10000 2.1 350 22:22 02.05.2020
3827 Clear 7 1022 75 10000 3.82 124 21:54 02.05.2020
3828 Clear 7 1022 70 10000 3.82 124 21:36 02.05.2020
3829 Clear 8 1022 70 10000 3.65 125 21:18 02.05.2020
3830 Clear 8 1022 70 10000 3.65 125 20:54 02.05.2020
3831 Clear 8 1022 65 10000 2.1 180 20:36 02.05.2020
3832 Clear 8 1022 65 10000 2.1 180 20:36 02.05.2020
3833 Clear 8 1022 65 10000 2.6 180 20:18 02.05.2020
3834 Clear 8 1022 65 10000 2.6 180 20:18 02.05.2020
3835 Clear 9 1022 66 10000 2.6 170 19:39 02.05.2020
3836 Clear 9 1022 66 10000 2.6 170 19:20 02.05.2020
3837 Clear 9 1022 61 0 2.6 180 18:57 02.05.2020
3838 Clear 9 1022 61 10000 2.6 170 18:38 02.05.2020
3839 Clear 9 1022 61 10000 2.1 170 18:20 02.05.2020
3840 Clear 10 1023 61 10000 2.6 170 17:57 02.05.2020
3841 Clear 10 1023 61 10000 2.6 170 17:38 02.05.2020
3842 Clear 10 1023 61 10000 2.6 170 17:19 02.05.2020
3843 Clear 11 1023 57 10000 2.6 170 16:54 02.05.2020
3844 Clear 12 1023 54 10000 2.6 170 16:36 02.05.2020
3845 Clear 12 1023 54 10000 2.6 170 16:18 02.05.2020
3846 Clear 12 1023 54 10000 2.6 140 15:41 02.05.2020
3847 Clear 12 1023 54 10000 2.6 140 15:19 02.05.2020
3848 Clear 13 1023 50 10000 3.1 150 14:42 02.05.2020
3849 Clouds 13 1023 50 10000 3.1 150 14:24 02.05.2020
3850 Clouds 13 1023 50 10000 2.6 140 13:58 02.05.2020
3851 Clouds 14 1022 44 10000 2.6 140 13:39 02.05.2020
3852 Clouds 15 1022 41 10000 3.1 150 13:19 02.05.2020
3853 Clouds 16 1022 38 10000 3.6 130 12:41 02.05.2020
3854 Clouds 16 1022 38 10000 3.6 130 12:21 02.05.2020
3855 Clouds 17 1021 36 10000 4.1 130 11:57 02.05.2020
3856 Clouds 17 1021 33 10000 4.1 130 11:39 02.05.2020
3857 Clouds 17 1021 33 10000 4.1 130 11:20 02.05.2020
3858 Clouds 19 1020 29 10000 5.7 120 10:40 02.05.2020
3859 Clouds 19 1020 29 10000 5.7 120 10:40 02.05.2020
3860 Clouds 19 1020 29 10000 5.7 120 10:22 02.05.2020
3861 Clouds 20 1020 28 10000 5.7 130 09:59 02.05.2020
3862 Clouds 19 1020 26 10000 5.7 150 09:41 02.05.2020
3863 Clouds 19 1020 25 10000 5.7 150 09:22 02.05.2020
3864 Clouds 19 1020 25 10000 6.7 130 08:55 02.05.2020
3865 Clouds 20 1020 30 10000 6.2 110 08:37 02.05.2020
3866 Clouds 20 1020 30 10000 6.2 110 08:37 02.05.2020
3867 Clear 20 1020 28 10000 7.7 130 08:19 02.05.2020
3868 Clear 20 1020 28 10000 5.7 130 07:42 02.05.2020
3869 Clear 20 1020 28 10000 5.7 130 07:23 02.05.2020
3870 Clear 19 1021 32 10000 6.2 110 06:43 02.05.2020
3871 Clear 18 1022 34 10000 6.7 130 05:28 02.05.2020
3872 Clear 17 1023 36 10000 7.7 110 04:30 02.05.2020
3873 Clear 17 1023 39 10000 7.7 110 03:50 02.05.2020
3874 Clear 14 1024 44 10000 4.6 130 02:42 02.05.2020
3875 Clear 13 1024 47 10000 4.1 110 01:58 02.05.2020
3876 Clear 11 1023 50 10000 2.1 120 01:26 02.05.2020
3877 Clear 6 1023 40 10000 1.5 250 00:43 02.05.2020
3878 Clear 6 1023 46 10000 1.5 250 00:22 02.05.2020
3879 Clear 5 1022 65 10000 2.1 240 23:55 01.05.2020
3880 Clear 5 1022 65 10000 2.1 250 23:37 01.05.2020
3881 Clear 5 1022 65 10000 1.5 280 23:18 01.05.2020
3882 Clear 6 1021 60 10000 2.1 310 22:39 01.05.2020
3883 Clear 6 1021 60 10000 2.1 310 22:19 01.05.2020
3884 Clear 6 1021 60 10000 1.5 190 21:57 01.05.2020
3885 Clear 7 1021 44 10000 2.6 170 21:39 01.05.2020
3886 Clear 7 1020 56 10000 2.6 170 21:19 01.05.2020
3887 Clear 7 1020 56 10000 2.6 170 20:57 01.05.2020
3888 Clear 7 1020 56 10000 3.6 170 20:38 01.05.2020
3889 Clear 7 1021 56 10000 3.6 170 20:19 01.05.2020
3890 Clear 7 1021 56 10000 3.6 170 19:43 01.05.2020
3891 Clear 7 1021 56 10000 3.6 170 19:23 01.05.2020
3892 Clear 8 1021 52 10000 3.1 180 18:59 01.05.2020
3893 Clear 8 1021 52 10000 3.1 170 18:41 01.05.2020
3894 Clear 8 1021 52 10000 3.1 170 18:21 01.05.2020
3895 Clear 9 1022 49 10000 2.6 170 17:59 01.05.2020
3896 Clear 9 1022 49 10000 3.6 170 17:39 01.05.2020
3897 Clear 9 1022 49 10000 3.6 170 17:21 01.05.2020
3898 Clear 10 1023 38 10000 2.6 150 16:57 01.05.2020
3899 Clear 10 1023 38 10000 2.6 150 16:38 01.05.2020
3900 Clear 10 1023 38 10000 2.6 150 16:20 01.05.2020
3901 Clear 10 1023 46 10000 2.6 140 15:55 01.05.2020
3902 Clear 11 1023 38 10000 3.1 150 15:37 01.05.2020
3903 Clear 12 1023 37 10000 3.6 140 15:18 01.05.2020
3904 Clear 12 1023 37 10000 3.6 150 14:42 01.05.2020
3905 Clouds 12 1023 36 10000 3.6 150 14:23 01.05.2020
3906 Clouds 12 1023 35 10000 3.1 140 13:42 01.05.2020
3907 Clouds 12 1023 34 10000 3.1 140 13:23 01.05.2020
3908 Clouds 14 1023 34 10000 3.1 140 12:58 01.05.2020
3909 Clouds 15 1023 34 10000 3.1 130 12:40 01.05.2020
3910 Clouds 15 1023 32 10000 3.1 130 12:20 01.05.2020
3911 Clouds 15 1022 32 10000 3.6 130 11:59 01.05.2020
3912 Clouds 16 1022 32 10000 4.1 130 11:40 01.05.2020
3913 Clouds 17 1021 30 10000 5.7 130 11:19 01.05.2020
3914 Clouds 17 1021 30 10000 5.7 120 10:41 01.05.2020
3915 Clouds 18 1021 26 10000 5.7 150 10:20 01.05.2020
3916 Clouds 18 1021 26 10000 5.7 150 09:59 01.05.2020
3917 Clear 18 1020 26 10000 5.7 120 09:41 01.05.2020
3918 Clear 18 1020 24 10000 5.7 120 09:19 01.05.2020
3919 Clear 18 1020 24 10000 6.2 130 08:46 01.05.2020
3920 Clear 18 1020 23 10000 6.2 130 08:28 01.05.2020
3921 Clear 18 1020 23 10000 6.7 160 07:58 01.05.2020
3922 Clear 18 1021 31 10000 6.7 140 07:38 01.05.2020
3923 Clear 17 1021 33 10000 4.1 160 06:59 01.05.2020
3924 Clear 17 1022 33 10000 6.7 120 06:18 01.05.2020
3925 Clear 17 1023 33 10000 6.7 120 05:21 01.05.2020
3926 Clear 15 1025 41 10000 7.7 120 03:43 01.05.2020
3927 Clear 14 1025 41 10000 7.2 120 02:52 01.05.2020
3928 Clear 14 1025 41 10000 7.2 110 02:34 01.05.2020
3929 Clear 12 1025 33 10000 4.1 130 01:47 01.05.2020
3930 Clear 9 1024 36 10000 2.6 160 01:26 01.05.2020
3931 Clear 7 1024 52 10000 3.1 180 00:40 01.05.2020
3932 Clear 5 1024 56 10000 3.1 170 00:20 01.05.2020
3933 Clear 5 1024 56 10000 3.1 170 23:57 30.04.2020
3934 Clear 6 1023 56 10000 3.1 180 23:38 30.04.2020
3935 Clear 6 1023 56 10000 3.1 180 23:38 30.04.2020
3936 Clear 6 1023 56 10000 3.1 180 23:19 30.04.2020
3937 Clear 6 1023 52 10000 3.6 180 22:54 30.04.2020
3938 Clear 6 1023 56 10000 2.6 190 22:36 30.04.2020
3939 Clear 7 1023 52 10000 2.6 190 22:18 30.04.2020
3940 Clear 7 1023 52 10000 2.6 190 21:41 30.04.2020
3941 Clear 7 1023 52 10000 2.6 190 21:21 30.04.2020
3942 Clear 7 1023 52 10000 2.1 190 20:57 30.04.2020
3943 Clear 7 1023 52 10000 2.6 180 20:39 30.04.2020
3944 Clear 8 1023 45 10000 3.1 170 20:18 30.04.2020
3945 Clear 8 1023 49 10000 3.1 160 19:45 30.04.2020
3946 Clear 8 1023 49 10000 3.1 160 19:25 30.04.2020
3947 Clear 9 1023 45 10000 3.6 150 18:57 30.04.2020
3948 Clear 9 1024 42 10000 3.1 150 18:39 30.04.2020
3949 Clear 9 1024 42 10000 3.1 150 18:20 30.04.2020
3950 Clear 9 1024 42 10000 3.1 150 17:57 30.04.2020
3951 Clear 9 1024 42 10000 3.1 160 17:39 30.04.2020
3952 Clear 9 1024 42 10000 3.1 160 17:20 30.04.2020
3953 Clear 10 1024 39 10000 3.1 160 16:55 30.04.2020
3954 Clear 10 1024 39 10000 3.6 160 16:37 30.04.2020
3955 Clear 11 1024 37 10000 3.6 150 16:18 30.04.2020
3956 Clear 11 1024 37 10000 3.1 150 15:44 30.04.2020
3957 Clear 11 1024 37 10000 3.1 150 15:23 30.04.2020
3958 Clear 13 1024 30 10000 3.1 140 14:43 30.04.2020
3959 Clear 14 1024 28 10000 3.1 140 14:22 30.04.2020
3960 Clear 14 1024 28 10000 3.1 140 13:59 30.04.2020
3961 Clear 14 1024 28 10000 3.6 140 13:41 30.04.2020
3962 Clear 14 1024 28 10000 3.6 140 13:22 30.04.2020
3963 Clear 15 1024 28 10000 3.6 140 12:59 30.04.2020
3964 Clear 15 1023 28 10000 3.6 140 12:41 30.04.2020
3965 Clear 16 1023 26 10000 4.6 140 12:19 30.04.2020
3966 Clear 16 1022 29 10000 5.1 130 11:38 30.04.2020
3967 Clear 17 1022 27 10000 5.7 140 11:19 30.04.2020
3968 Clear 17 1022 27 10000 5.7 140 10:58 30.04.2020
3969 Clear 17 1022 25 10000 5.7 140 10:38 30.04.2020
3970 Clear 17 1022 25 10000 5.7 140 10:20 30.04.2020
3971 Clear 18 1022 22 10000 6.2 150 09:55 30.04.2020
3972 Clear 18 1021 22 10000 6.7 150 09:37 30.04.2020
3973 Clear 18 1021 22 10000 6.7 170 09:18 30.04.2020
3974 Clear 19 1021 22 10000 6.7 140 08:44 30.04.2020
3975 Clear 19 1021 22 10000 6.7 140 08:23 30.04.2020
3976 Clear 19 1022 22 10000 7.7 130 07:43 30.04.2020
3977 Clear 19 1022 22 10000 7.7 130 07:25 30.04.2020
3978 Clear 18 1022 23 10000 8.7 160 06:51 30.04.2020
3979 Clear 16 1023 29 10000 7.2 160 05:56 30.04.2020
3980 Clear 16 1023 29 10000 7.2 160 05:36 30.04.2020
3981 Clear 16 1024 29 10000 6.2 170 04:33 30.04.2020
3982 Clear 16 1024 29 10000 7.2 160 03:54 30.04.2020
3983 Clear 13 1024 37 10000 7.7 170 02:45 30.04.2020
3984 Clear 13 1024 37 10000 7.7 170 02:24 30.04.2020
3985 Clear 13 1024 43 10000 7.2 170 01:35 30.04.2020
3986 Clouds 12 1023 46 10000 4.6 170 00:42 30.04.2020
3987 Clear 12 1023 46 10000 5.1 170 00:19 30.04.2020
3988 Clear 12 1023 46 10000 5.1 170 23:56 29.04.2020
3989 Clear 12 1023 40 10000 5.1 170 23:36 29.04.2020
3990 Clear 12 1023 40 10000 4.6 180 23:18 29.04.2020
3991 Clear 12 1022 40 10000 5.1 180 22:40 29.04.2020
3992 Clear 12 1022 40 10000 5.1 180 22:21 29.04.2020
3993 Clear 13 1022 40 10000 4.6 170 21:57 29.04.2020
3994 Clear 13 1022 37 10000 4.6 170 21:37 29.04.2020
3995 Clear 14 1022 40 10000 5.1 170 21:18 29.04.2020
3996 Clear 14 1022 35 10000 6.7 180 20:41 29.04.2020
3997 Clear 14 1022 35 10000 6.7 180 20:20 29.04.2020
3998 Clear 15 1022 30 10000 7.2 180 19:59 29.04.2020
3999 Clear 15 1021 28 10000 6.2 180 19:41 29.04.2020
4000 Clouds 15 1021 28 10000 6.2 180 19:20 29.04.2020
4001 Clouds 16 1021 26 10000 7.2 180 18:43 29.04.2020
4002 Clouds 16 1021 26 10000 7.2 180 18:25 29.04.2020
4003 Clouds 17 1021 27 10000 7.2 190 17:57 29.04.2020
4004 Clouds 18 1021 30 10000 8.7 180 17:39 29.04.2020
4005 Clouds 18 1021 27 10000 8.7 180 17:21 29.04.2020
4006 Clouds 20 1020 32 10000 7.7 170 16:39 29.04.2020
4007 Clouds 20 1020 32 10000 7.7 170 16:39 29.04.2020
4008 Clouds 21 1019 35 10000 6.2 160 16:19 29.04.2020
4009 Clouds 21 1019 35 10000 6.2 160 15:57 29.04.2020
4010 Clouds 22 1019 35 10000 6.2 170 15:39 29.04.2020
4011 Clouds 22 1019 35 10000 6.2 170 15:21 29.04.2020
4012 Clouds 22 1019 37 10000 5.7 180 14:57 29.04.2020
4013 Clear 24 1018 29 10000 7.2 200 14:38 29.04.2020
4014 Clouds 24 1018 36 10000 5.1 190 14:18 29.04.2020
4015 Clear 25 1017 36 10000 4.6 180 13:42 29.04.2020
4016 Clear 25 1017 36 10000 4.6 180 13:20 29.04.2020
4017 Clear 25 1017 38 10000 5.7 180 12:59 29.04.2020
4018 Clear 26 1016 39 10000 5.7 180 12:39 29.04.2020
4019 Clear 26 1016 39 10000 7.2 180 12:19 29.04.2020
4020 Clear 27 1015 36 10000 9.3 190 11:40 29.04.2020
4021 Clear 27 1015 36 10000 9.3 190 11:21 29.04.2020
4022 Clear 27 1014 36 10000 10.3 180 10:59 29.04.2020
4023 Clouds 30 1013 28 10000 8.2 210 10:37 29.04.2020
4024 Clouds 30 1013 28 10000 8.2 210 10:37 29.04.2020
4025 Clear 32 1013 21 10000 7.7 220 10:19 29.04.2020
4026 Clouds 32 1012 21 10000 7.2 210 09:42 29.04.2020
4027 Clouds 32 1012 21 10000 7.2 210 09:23 29.04.2020
4028 Clouds 33 1012 19 10000 5.7 200 08:57 29.04.2020
4029 Clouds 33 1012 19 10000 5.7 200 08:57 29.04.2020
4030 Clouds 34 1012 18 10000 5.7 250 08:37 29.04.2020
4031 Clouds 34 1012 18 10000 5.7 250 08:19 29.04.2020
4032 Clouds 33 1013 21 10000 6.7 290 07:41 29.04.2020
4033 Clouds 33 1013 21 10000 6.7 290 07:23 29.04.2020
4034 Clouds 32 1013 22 10000 3.6 270 06:50 29.04.2020
4035 Clouds 32 1013 22 10000 3.6 270 06:30 29.04.2020
4036 Clouds 31 1015 23 10000 2.6 210 05:21 29.04.2020
4037 Clouds 30 1016 25 10000 2.6 230 04:39 29.04.2020
4038 Clouds 29 1016 28 10000 2.6 40 04:18 29.04.2020
4039 Clear 27 1016 32 10000 3.1 70 02:40 29.04.2020
4040 Clouds 25 1016 36 10000 3.6 70 01:44 29.04.2020
4041 Clouds 25 1016 36 10000 3.6 70 01:22 29.04.2020
4042 Clouds 20 1016 45 10000 2.1 200 00:41 29.04.2020
4043 Clouds 19 1016 48 10000 2.6 210 00:19 29.04.2020
4044 Clouds 20 1015 49 10000 1.5 240 23:48 28.04.2020
4045 Clouds 20 1015 49 10000 1.5 240 23:24 28.04.2020
4046 Clouds 19 1015 48 10000 2.1 260 22:55 28.04.2020
4047 Clouds 19 1015 48 10000 2.1 320 22:37 28.04.2020
4048 Clouds 19 1015 48 10000 1.24 42 22:18 28.04.2020
4049 Clouds 19 1015 48 10000 1.24 42 21:54 28.04.2020
4050 Clouds 19 1015 48 10000 1.24 42 21:54 28.04.2020
4051 Clouds 19 1015 48 10000 2.6 270 21:36 28.04.2020
4052 Clear 20 1014 45 10000 1.5 330 21:18 28.04.2020
4053 Clear 20 1015 45 10000 3.1 250 20:40 28.04.2020
4054 Clouds 20 1015 45 10000 3.1 250 20:21 28.04.2020
4055 Clouds 20 1014 45 10000 2.1 260 19:59 28.04.2020
4056 Clouds 21 1015 43 10000 3.1 300 19:41 28.04.2020
4057 Clouds 21 1015 43 10000 3.1 300 19:22 28.04.2020
4058 Clouds 22 1015 40 10000 2.6 280 18:58 28.04.2020
4059 Clouds 22 1015 40 10000 2.1 320 18:38 28.04.2020
4060 Clouds 22 1015 40 10000 1.5 250 18:19 28.04.2020
4061 Clouds 22 1015 40 10000 1.5 250 18:19 28.04.2020
4062 Clouds 23 1015 38 10000 2.6 220 17:38 28.04.2020
4063 Clouds 23 1015 38 10000 2.6 220 17:20 28.04.2020
4064 Clouds 24 1015 36 10000 3.6 180 16:59 28.04.2020
4065 Clouds 25 1015 31 10000 4.6 190 16:40 28.04.2020
4066 Clouds 25 1015 31 10000 4.6 190 16:22 28.04.2020
4067 Clouds 23 1015 33 10000 1.5 280 15:57 28.04.2020
4068 Clouds 24 1015 33 10000 4.59 222 15:38 28.04.2020
4069 Clouds 24 1015 33 10000 3.34 212 15:20 28.04.2020
4070 Clouds 26 1015 29 10000 3.34 212 14:56 28.04.2020
4071 Clouds 26 1015 29 10000 1.5 290 14:38 28.04.2020
4072 Clouds 27 1015 30 10000 3.64 219 14:19 28.04.2020
4073 Clouds 27 1015 30 10000 3.64 219 13:56 28.04.2020
4074 Clouds 28 1015 26 10000 2.1 170 13:37 28.04.2020
4075 Clouds 29 1014 25 10000 4.1 180 13:19 28.04.2020
4076 Clouds 30 1014 25 10000 4.6 180 12:43 28.04.2020
4077 Clouds 30 1014 25 10000 4.6 180 12:23 28.04.2020
4078 Clouds 30 1014 25 10000 4.6 180 12:23 28.04.2020
4079 Clouds 31 1013 20 10000 2.6 310 11:43 28.04.2020
4080 Clouds 31 1013 20 10000 2.6 310 11:24 28.04.2020
4081 Clouds 32 1013 19 10000 3.6 310 10:58 28.04.2020
4082 Clouds 34 1013 17 10000 5.1 300 10:38 28.04.2020
4083 Clouds 34 1013 17 10000 5.1 300 10:38 28.04.2020
4084 Clouds 34 1013 17 10000 2.6 340 10:19 28.04.2020
4085 Clouds 34 1013 17 10000 2.6 340 09:55 28.04.2020
4086 Clouds 35 1012 16 10000 3.1 250 09:36 28.04.2020
4087 Clouds 35 1012 16 10000 3.6 270 09:18 28.04.2020
4088 Clouds 35 1012 16 10000 4.1 330 08:40 28.04.2020
4089 Clouds 35 1012 16 10000 4.1 330 08:22 28.04.2020
4090 Clouds 34 1013 18 10000 4.1 280 07:44 28.04.2020
4091 Clouds 34 1013 18 10000 4.1 280 07:44 28.04.2020
4092 Clouds 34 1013 17 10000 4.1 200 07:19 28.04.2020
4093 Clouds 33 1014 19 10000 4.1 270 06:44 28.04.2020
4094 Clouds 34 1014 20 10000 5.1 300 05:56 28.04.2020
4095 Clouds 33 1015 19 10000 6.2 320 05:37 28.04.2020
4096 Clouds 32 1016 24 10000 3.6 300 04:39 28.04.2020
4097 Clouds 30 1017 27 10000 3.6 350 02:59 28.04.2020
4098 Clear 28 1017 30 10000 3.1 360 02:25 28.04.2020
4099 Clear 22 1017 43 10000 2.1 220 01:22 28.04.2020
4100 Clear 20 1016 45 10000 2.83 31 00:49 28.04.2020
4101 Clear 17 1016 55 10000 2.23 42 00:19 28.04.2020
4102 Clear 16 1016 55 10000 1.5 350 23:43 27.04.2020
4103 Clear 16 1016 55 10000 1.5 350 23:21 27.04.2020
4104 Clear 17 1016 51 10000 2.1 140 22:43 27.04.2020
4105 Clear 17 1016 51 10000 2.1 140 22:24 27.04.2020
4106 Clear 18 1015 52 10000 2.1 120 21:58 27.04.2020
4107 Clear 17 1015 51 10000 0.5 130 21:39 27.04.2020
4108 Clear 17 1015 51 10000 0.5 130 21:20 27.04.2020
4109 Clear 18 1015 52 10000 2.29 61 20:59 27.04.2020
4110 Clear 17 1016 55 10000 2.29 61 20:40 27.04.2020
4111 Clear 18 1016 52 10000 2.2 56 20:21 27.04.2020
4112 Clear 18 1016 52 10000 2.2 56 19:57 27.04.2020
4113 Clear 18 1016 48 10000 2.2 56 19:38 27.04.2020
4114 Clear 18 1016 48 10000 2.12 51 19:19 27.04.2020
4115 Clear 18 1016 48 10000 2.12 51 18:56 27.04.2020
4116 Clear 19 1017 48 10000 2.12 51 18:37 27.04.2020
4117 Clear 19 1017 48 10000 1.5 120 18:18 27.04.2020
4118 Clear 19 1017 48 10000 2.38 56 17:41 27.04.2020
4119 Clear 19 1017 48 10000 2.62 66 17:20 27.04.2020
4120 Clear 20 1017 42 10000 2.1 60 16:54 27.04.2020
4121 Clear 22 1018 40 10000 2.1 100 16:36 27.04.2020
4122 Clear 21 1018 43 10000 1.5 100 16:18 27.04.2020
4123 Clear 21 1018 43 10000 1.5 100 15:55 27.04.2020
4124 Clear 21 1018 43 10000 2.1 100 15:36 27.04.2020
4125 Clear 22 1018 40 10000 2.1 100 15:18 27.04.2020
4126 Clear 23 1018 38 10000 2.6 100 14:40 27.04.2020
4127 Clear 23 1018 38 10000 2.6 100 14:19 27.04.2020
4128 Clear 24 1018 33 10000 2.6 100 13:57 27.04.2020
4129 Clear 24 1018 33 10000 2.6 100 13:57 27.04.2020
4130 Clear 26 1018 31 10000 3.6 120 13:37 27.04.2020
4131 Clear 26 1017 31 10000 3.6 120 13:18 27.04.2020
4132 Clear 26 1017 31 10000 3.6 120 12:43 27.04.2020
4133 Clear 26 1017 31 10000 3.6 120 12:22 27.04.2020
4134 Clear 27 1017 30 10000 2.6 90 11:55 27.04.2020
4135 Clear 28 1016 28 10000 3.1 120 11:37 27.04.2020
4136 Clear 29 1016 26 10000 3.6 100 11:18 27.04.2020
4137 Clear 30 1016 25 10000 4.1 110 10:42 27.04.2020
4138 Clear 30 1016 25 10000 4.1 110 10:24 27.04.2020
4139 Clear 30 1015 25 10000 2.6 140 09:58 27.04.2020
4140 Clear 31 1015 23 10000 3.6 70 09:39 27.04.2020
4141 Clouds 30 1015 25 10000 2.6 100 09:18 27.04.2020
4142 Clouds 30 1016 25 10000 2.6 170 08:46 27.04.2020
4143 Clouds 30 1016 25 10000 2.6 170 08:27 27.04.2020
4144 Clouds 30 1016 27 10000 3.1 40 07:45 27.04.2020
4145 Clouds 30 1016 27 10000 3.1 40 07:23 27.04.2020
4146 Clouds 29 1017 26 10000 4.1 90 06:58 27.04.2020
4147 Clouds 28 1017 28 10000 4.6 90 06:28 27.04.2020
4148 Clouds 28 1018 28 10000 3.6 90 05:55 27.04.2020
4149 Clouds 26 1019 36 10000 5.7 120 04:55 27.04.2020
4150 Clouds 26 1020 41 10000 5.1 80 04:36 27.04.2020
4151 Clouds 23 1020 53 10000 4.6 90 03:45 27.04.2020
4152 Clouds 21 1021 64 10000 5.7 100 01:51 27.04.2020
4153 Clouds 20 1021 68 10000 5.1 110 01:20 27.04.2020
4154 Clouds 18 1020 77 10000 3.6 130 00:21 27.04.2020
4155 Clouds 18 1020 77 10000 3.6 130 23:59 26.04.2020
4156 Clouds 18 1020 77 10000 3.6 130 23:41 26.04.2020
4157 Clouds 18 1020 77 10000 3.1 140 23:22 26.04.2020
4158 Clouds 18 1020 77 10000 3.1 140 22:58 26.04.2020
4159 Clouds 18 1019 77 10000 3.1 140 22:39 26.04.2020
4160 Clouds 18 1019 77 10000 3.1 140 22:21 26.04.2020
4161 Clouds 19 1019 72 10000 3.1 140 21:58 26.04.2020
4162 Clouds 19 1019 72 10000 3.1 130 21:38 26.04.2020
4163 Clouds 20 1019 68 10000 3.6 130 21:18 26.04.2020
4164 Clouds 20 1019 68 10000 3.6 130 21:18 26.04.2020
4165 Clouds 20 1019 68 10000 3.6 130 20:55 26.04.2020
4166 Clouds 20 1019 72 10000 4.1 130 20:36 26.04.2020
4167 Clouds 21 1019 68 10000 5.1 130 20:18 26.04.2020
4168 Clouds 21 1019 68 10000 5.1 130 19:56 26.04.2020
4169 Clouds 21 1019 68 10000 5.1 130 19:56 26.04.2020
4170 Clouds 21 1019 68 10000 5.7 140 19:36 26.04.2020
4171 Clouds 21 1019 64 10000 4.1 130 19:18 26.04.2020
4172 Clouds 21 1019 64 10000 4.1 130 19:18 26.04.2020
4173 Clouds 21 1019 64 10000 4.1 130 19:18 26.04.2020
4174 Clouds 21 1019 46 10000 3.1 130 18:41 26.04.2020
4175 Clouds 21 1019 46 10000 3.1 130 18:23 26.04.2020
4176 Clouds 21 1019 40 10000 2.1 140 17:42 26.04.2020
4177 Clouds 21 1019 40 10000 2.1 140 17:22 26.04.2020
4178 Clouds 21 1019 35 10000 0.5 50 16:56 26.04.2020
4179 Clouds 22 1019 35 10000 3.1 100 16:38 26.04.2020
4180 Clouds 24 1019 36 10000 4.1 120 16:19 26.04.2020
4181 Clouds 24 1019 36 10000 4.1 120 15:56 26.04.2020
4182 Clouds 24 1020 33 10000 4.1 120 15:37 26.04.2020
4183 Clouds 24 1020 33 10000 4.1 120 15:37 26.04.2020
4184 Clouds 23 1020 28 10000 2.6 150 15:18 26.04.2020
4185 Clouds 24 1019 27 10000 3.1 120 14:41 26.04.2020
4186 Clouds 24 1019 27 10000 3.1 120 14:41 26.04.2020
4187 Clouds 25 1019 25 10000 3.1 130 14:19 26.04.2020
4188 Clouds 25 1019 25 10000 3.1 130 14:19 26.04.2020
4189 Clouds 25 1019 25 10000 3.1 130 13:58 26.04.2020
4190 Clouds 26 1019 21 10000 3.6 140 13:40 26.04.2020
4191 Clouds 27 1018 18 10000 3.6 140 13:21 26.04.2020
4192 Clouds 27 1018 18 10000 3.6 140 12:56 26.04.2020
4193 Clouds 28 1018 21 10000 4.1 130 12:37 26.04.2020
4194 Clouds 28 1018 16 10000 4.1 130 12:19 26.04.2020
4195 Clouds 28 1017 14 10000 4.1 140 11:54 26.04.2020
4196 Clouds 29 1017 13 10000 4.6 140 11:36 26.04.2020
4197 Clouds 31 1016 12 10000 5.7 130 11:18 26.04.2020
4198 Clouds 32 1016 11 10000 5.1 130 10:41 26.04.2020
4199 Clouds 32 1016 11 10000 5.1 130 10:23 26.04.2020
4200 Clouds 32 1016 11 10000 5.1 130 09:57 26.04.2020
4201 Clouds 32 1016 11 10000 5.1 120 09:37 26.04.2020
4202 Clouds 33 1016 10 10000 4.1 150 09:19 26.04.2020
4203 Clouds 33 1016 11 10000 3.1 130 08:41 26.04.2020
4204 Clouds 33 1016 11 10000 3.1 130 08:22 26.04.2020
4205 Clouds 33 1016 9 10000 3.6 160 07:48 26.04.2020
4206 Clouds 33 1016 9 10000 3.6 160 07:48 26.04.2020
4207 Clouds 33 1016 9 10000 3.6 160 07:23 26.04.2020
4208 Clouds 32 1016 11 10000 3.6 120 06:47 26.04.2020
4209 Clear 32 1016 11 10000 3.6 120 06:21 26.04.2020
4210 Clear 32 1017 11 10000 3.1 150 05:49 26.04.2020
4211 Clear 32 1017 11 10000 3.1 150 05:28 26.04.2020
4212 Clear 30 1019 12 10000 3.6 100 04:30 26.04.2020
4213 Clear 28 1019 14 10000 4.6 110 03:35 26.04.2020
4214 Clear 27 1020 15 10000 3.1 140 02:33 26.04.2020
4215 Clear 25 1019 17 10000 2.6 60 01:57 26.04.2020
4216 Clear 24 1019 14 10000 2.1 340 01:36 26.04.2020
4217 Clear 20 1018 14 10000 6.2 210 00:41 26.04.2020
4218 Clear 20 1018 20 10000 6.2 210 00:20 26.04.2020
4219 Clear 20 1018 20 10000 6.2 210 00:20 26.04.2020
4220 Clear 17 1017 20 10000 1.05 346 23:55 25.04.2020
4221 Clear 17 1017 20 10000 1.05 346 23:36 25.04.2020
4222 Clear 18 1016 20 10000 1.05 346 23:18 25.04.2020
4223 Clear 18 1016 20 10000 1.05 346 22:41 25.04.2020
4224 Clear 18 1016 20 10000 1.05 346 22:20 25.04.2020
4225 Clear 18 1016 20 10000 1 290 21:58 25.04.2020
4226 Clear 17 1016 20 10000 2.1 260 21:37 25.04.2020
4227 Clear 17 1016 18 10000 1.5 310 21:18 25.04.2020
4228 Clear 18 1016 18 10000 2.1 280 20:42 25.04.2020
4229 Clear 18 1016 18 10000 2.1 280 20:23 25.04.2020
4230 Clear 17 1016 18 10000 3.1 270 19:59 25.04.2020
4231 Clear 18 1016 27 10000 3.73 45 19:38 25.04.2020
4232 Clear 18 1016 27 10000 3.73 45 19:20 25.04.2020
4233 Clear 20 1016 24 10000 2.6 70 18:43 25.04.2020
4234 Clear 20 1016 24 10000 2.6 70 18:22 25.04.2020
4235 Clear 20 1017 17 10000 2.6 60 17:59 25.04.2020
4236 Clear 21 1017 22 10000 2.6 60 17:39 25.04.2020
4237 Clear 21 1017 22 10000 2.6 60 17:21 25.04.2020
4238 Clear 21 1017 22 10000 2.6 60 17:21 25.04.2020
4239 Clear 21 1017 17 10000 2.1 70 16:59 25.04.2020
4240 Clear 21 1018 22 10000 2.1 80 16:41 25.04.2020
4241 Clear 21 1018 22 10000 2.1 80 16:21 25.04.2020
4242 Clear 23 1018 20 10000 2.1 60 15:55 25.04.2020
4243 Clear 23 1018 17 10000 2.6 70 15:36 25.04.2020
4244 Clear 24 1018 19 10000 3.1 70 15:18 25.04.2020
4245 Clear 24 1018 19 10000 3.1 60 14:40 25.04.2020
4246 Clear 24 1017 19 10000 3.1 60 14:21 25.04.2020
4247 Clear 24 1017 19 10000 3.1 60 13:59 25.04.2020
4248 Clear 25 1017 17 10000 3.6 70 13:41 25.04.2020
4249 Clear 26 1017 16 10000 3.6 80 13:18 25.04.2020
4250 Clear 26 1017 16 10000 3.6 80 12:55 25.04.2020
4251 Clear 27 1017 15 10000 3.6 80 12:36 25.04.2020
4252 Clear 28 1016 16 10000 3.1 80 12:18 25.04.2020
4253 Clear 29 1016 16 10000 2.6 80 11:41 25.04.2020
4254 Clear 31 1016 14 10000 3.1 90 11:23 25.04.2020
4255 Clear 31 1016 14 10000 3.1 90 10:55 25.04.2020
4256 Clear 32 1015 16 10000 4.1 110 10:37 25.04.2020
4257 Clear 33 1016 13 10000 4.1 130 10:18 25.04.2020
4258 Clear 33 1016 13 10000 4.1 100 09:41 25.04.2020
4259 Clear 33 1016 13 10000 4.1 100 09:21 25.04.2020
4260 Clear 33 1016 13 10000 3.1 80 08:42 25.04.2020
4261 Clear 33 1016 13 10000 3.1 80 08:22 25.04.2020
4262 Clear 33 1016 13 10000 3.1 70 07:59 25.04.2020
4263 Clear 33 1016 13 10000 2.6 120 07:41 25.04.2020
4264 Clear 32 1016 13 10000 3.1 60 06:57 25.04.2020
4265 Clear 33 1017 14 10000 2.6 60 06:38 25.04.2020
4266 Clear 32 1018 14 10000 3.6 40 05:42 25.04.2020
4267 Clear 32 1018 14 10000 3.6 40 05:24 25.04.2020
4268 Clear 29 1019 21 10000 4.1 30 03:56 25.04.2020
4269 Clear 26 1020 27 10000 5.7 40 02:36 25.04.2020
4270 Clear 25 1020 29 10000 4.1 40 01:56 25.04.2020
4271 Clear 24 1020 29 10000 3.6 50 01:38 25.04.2020
4272 Clear 22 1019 33 10000 2.1 50 01:19 25.04.2020
4273 Clear 17 1019 42 10000 6.43 59 00:38 25.04.2020
4274 Clear 15 1019 47 10000 1 50 23:59 24.04.2020
4275 Clear 16 1019 44 10000 5.69 63 23:40 24.04.2020
4276 Clear 16 1019 44 10000 5.69 63 23:40 24.04.2020
4277 Clear 16 1019 44 10000 5.69 63 23:20 24.04.2020
4278 Clear 18 1018 39 10000 3.1 40 22:41 24.04.2020
4279 Clear 18 1018 39 10000 3.1 40 22:41 24.04.2020
4280 Clear 18 1018 39 10000 3.1 40 22:20 24.04.2020
4281 Clear 19 1018 37 10000 2.6 40 21:58 24.04.2020
4282 Clear 17 1018 45 10000 2.6 50 21:39 24.04.2020
4283 Clear 17 1018 45 10000 2.6 50 21:21 24.04.2020
4284 Clear 17 1018 48 10000 1 260 20:56 24.04.2020
4285 Clear 17 1018 45 10000 2.1 50 20:38 24.04.2020
4286 Clear 19 1018 42 10000 2.6 60 20:18 24.04.2020
4287 Clear 19 1018 39 10000 3.1 80 19:43 24.04.2020
4288 Clear 19 1018 39 10000 3.1 80 19:25 24.04.2020
4289 Clear 21 1019 35 10000 2.6 60 18:46 24.04.2020
4290 Clear 21 1019 35 10000 2.6 60 18:28 24.04.2020
4291 Clear 21 1019 35 10000 2.6 60 17:59 24.04.2020
4292 Clear 22 1019 33 10000 3.6 80 17:41 24.04.2020
4293 Clear 22 1019 33 10000 3.6 80 17:22 24.04.2020
4294 Clear 23 1019 31 10000 4.1 90 16:58 24.04.2020
4295 Clear 23 1019 31 10000 4.1 90 16:58 24.04.2020
4296 Clear 24 1019 29 10000 4.1 80 16:40 24.04.2020
4297 Clear 24 1019 29 10000 4.1 80 16:40 24.04.2020
4298 Clear 24 1019 29 10000 4.1 80 16:21 24.04.2020
4299 Clear 24 1019 29 10000 3.6 100 15:55 24.04.2020
4300 Clear 23 1019 31 10000 3.6 90 15:37 24.04.2020
4301 Clouds 24 1019 29 10000 3.1 90 15:18 24.04.2020
4302 Clouds 24 1019 29 10000 2.6 80 14:40 24.04.2020
4303 Clouds 26 1019 26 10000 2.6 100 14:20 24.04.2020
4304 Clouds 26 1019 26 10000 3.1 90 13:45 24.04.2020
4305 Clouds 26 1019 26 10000 3.1 90 13:27 24.04.2020
4306 Clouds 27 1019 24 10000 4.1 90 12:59 24.04.2020
4307 Clouds 28 1018 23 10000 3.6 90 12:41 24.04.2020
4308 Clouds 28 1018 23 10000 3.6 90 12:21 24.04.2020
4309 Clouds 29 1018 21 10000 4.1 80 11:57 24.04.2020
4310 Clouds 30 1018 20 10000 4.6 80 11:37 24.04.2020
4311 Clouds 31 1017 19 10000 4.6 70 11:19 24.04.2020
4312 Clouds 31 1017 19 10000 5.7 100 10:39 24.04.2020
4313 Clouds 31 1017 19 10000 5.7 100 10:20 24.04.2020
4314 Clouds 32 1017 18 10000 5.7 90 09:58 24.04.2020
4315 Clouds 32 1017 21 10000 5.7 110 09:39 24.04.2020
4316 Clear 32 1017 21 10000 5.7 110 09:21 24.04.2020
4317 Clear 33 1017 18 10000 4.6 100 08:54 24.04.2020
4318 Clear 33 1017 18 10000 5.1 70 08:36 24.04.2020
4319 Clear 32 1017 19 10000 5.7 120 08:18 24.04.2020
4320 Clear 33 1017 18 10000 5.1 100 07:43 24.04.2020
4321 Clear 33 1017 18 10000 5.1 100 07:23 24.04.2020
4322 Clear 33 1018 19 10000 5.7 80 06:49 24.04.2020
4323 Clear 33 1018 19 10000 5.7 80 06:30 24.04.2020
4324 Clear 33 1019 19 10000 7.2 90 05:42 24.04.2020
4325 Clear 31 1020 22 10000 5.7 90 03:57 24.04.2020
4326 Clear 29 1021 25 10000 5.1 50 02:56 24.04.2020
4327 Clouds 28 1021 26 10000 4.6 60 02:37 24.04.2020
4328 Clouds 25 1020 31 10000 3.1 80 01:47 24.04.2020
4329 Clouds 23 1020 33 10000 3.1 90 00:56 24.04.2020
4330 Clouds 20 1020 40 10000 2.57 75 00:20 24.04.2020
4331 Clouds 18 1019 45 10000 2.57 75 23:48 23.04.2020
4332 Clouds 18 1019 45 10000 2.57 75 23:28 23.04.2020
4333 Clouds 19 1019 45 10000 2.57 75 22:59 23.04.2020
4334 Clouds 19 1019 42 10000 2.57 75 22:41 23.04.2020
4335 Clouds 19 1019 42 10000 2.57 75 22:41 23.04.2020
4336 Clouds 19 1019 42 10000 2.57 75 22:21 23.04.2020
4337 Clouds 20 1018 42 10000 2.57 75 21:58 23.04.2020
4338 Clouds 20 1018 40 10000 2.57 75 21:40 23.04.2020
4339 Clouds 21 1018 37 10000 1.5 90 21:21 23.04.2020
4340 Clouds 21 1018 37 10000 1.5 90 20:58 23.04.2020
4341 Clouds 21 1018 37 10000 2.1 110 20:40 23.04.2020
4342 Clouds 22 1018 35 10000 3.1 120 20:20 23.04.2020
4343 Clouds 22 1018 35 10000 3.1 120 19:56 23.04.2020
4344 Clouds 23 1018 33 10000 2.6 130 19:38 23.04.2020
4345 Clouds 23 1018 33 10000 2.6 70 19:20 23.04.2020
4346 Clouds 24 1018 31 10000 2.1 70 18:43 23.04.2020
4347 Clouds 24 1018 31 10000 2.1 70 18:23 23.04.2020
4348 Clouds 25 1018 29 10000 3.1 50 17:59 23.04.2020
4349 Clouds 25 1018 29 10000 3.1 50 17:59 23.04.2020
4350 Clouds 26 1019 27 10000 3.6 100 17:39 23.04.2020
4351 Clouds 26 1019 27 10000 3.6 100 17:21 23.04.2020
4352 Clouds 26 1019 27 10000 4.1 80 16:57 23.04.2020
4353 Clouds 28 1019 24 10000 5.1 80 16:38 23.04.2020
4354 Clouds 28 1019 26 10000 4.1 100 16:18 23.04.2020
4355 Clouds 29 1019 25 10000 5.1 110 15:42 23.04.2020
4356 Clouds 29 1019 25 10000 5.1 110 15:22 23.04.2020
4357 Clouds 29 1019 25 10000 5.1 110 14:56 23.04.2020
4358 Clouds 30 1019 22 10000 5.1 110 14:37 23.04.2020
4359 Clouds 31 1018 20 10000 6.7 100 14:19 23.04.2020
4360 Clouds 31 1018 20 10000 6.7 100 13:55 23.04.2020
4361 Clouds 32 1018 19 10000 5.7 110 13:36 23.04.2020
4362 Clouds 32 1018 19 10000 5.7 110 13:36 23.04.2020
4363 Clouds 32 1018 19 10000 4.6 110 13:18 23.04.2020
4364 Clouds 33 1018 17 10000 6.2 120 12:42 23.04.2020
4365 Clouds 33 1018 17 10000 6.2 120 12:23 23.04.2020
4366 Clouds 33 1017 18 10000 5.1 130 11:55 23.04.2020
4367 Clouds 34 1016 18 10000 4.6 160 11:36 23.04.2020
4368 Clouds 34 1016 18 10000 3.6 140 11:18 23.04.2020
4369 Clouds 35 1016 16 10000 4.6 180 10:41 23.04.2020
4370 Clouds 35 1016 16 10000 4.6 180 10:20 23.04.2020
4371 Clouds 35 1016 16 10000 1.5 190 09:41 23.04.2020
4372 Clouds 35 1016 16 10000 1.5 190 09:20 23.04.2020
4373 Clear 36 1016 14 10000 2.6 220 08:55 23.04.2020
4374 Clear 36 1016 14 10000 2.6 220 08:37 23.04.2020
4375 Clear 36 1016 14 10000 2.6 140 08:18 23.04.2020
4376 Clear 35 1016 15 10000 2.1 290 07:41 23.04.2020
4377 Clear 35 1016 15 10000 2.1 290 07:22 23.04.2020
4378 Clear 35 1017 16 10000 3.6 70 06:46 23.04.2020
4379 Clear 35 1018 17 10000 3.1 320 05:56 23.04.2020
4380 Clear 33 1019 19 10000 3.1 350 05:22 23.04.2020
4381 Clear 33 1020 22 10000 3.1 360 04:50 23.04.2020
4382 Clear 28 1021 32 10000 2.6 360 02:24 23.04.2020
4383 Clear 24 1021 41 10000 5.04 30 01:41 23.04.2020
4384 Clear 21 1020 49 10000 5.04 30 00:57 23.04.2020
4385 Clear 19 1020 52 10000 3.5 43 00:29 23.04.2020
4386 Clear 18 1019 55 10000 2.6 40 23:59 22.04.2020
4387 Clear 18 1019 55 10000 2.1 60 23:41 22.04.2020
4388 Clear 18 1019 55 10000 2.1 60 23:22 22.04.2020
4389 Clear 20 1019 52 10000 1.5 90 22:41 22.04.2020
4390 Clear 20 1019 52 10000 1.5 90 22:20 22.04.2020
4391 Clear 19 1019 52 10000 3.5 43 21:59 22.04.2020
4392 Clear 19 1019 48 10000 1.5 130 21:41 22.04.2020
4393 Clear 19 1018 48 10000 4.32 67 21:22 22.04.2020
4394 Clear 19 1018 48 10000 4.32 67 20:59 22.04.2020
4395 Clear 19 1019 48 10000 2.1 140 20:41 22.04.2020
4396 Clear 20 1019 45 10000 1 100 20:18 22.04.2020
4397 Clear 20 1019 45 10000 1 100 19:57 22.04.2020
4398 Clear 20 1019 45 10000 1.5 80 19:37 22.04.2020
4399 Clear 20 1019 45 10000 4.32 67 19:18 22.04.2020
4400 Clear 20 1019 45 10000 4.32 67 18:56 22.04.2020
4401 Clear 21 1019 46 10000 4.32 67 18:37 22.04.2020
4402 Clear 22 1019 43 10000 2.1 10 18:19 22.04.2020
4403 Clear 22 1019 40 10000 2.1 90 17:43 22.04.2020
4404 Clear 22 1019 40 10000 2.1 90 17:43 22.04.2020
4405 Clear 22 1019 43 10000 2.1 70 17:25 22.04.2020
4406 Clear 23 1019 40 10000 2.6 90 16:56 22.04.2020
4407 Clear 23 1019 40 10000 2.6 90 16:36 22.04.2020
4408 Clear 25 1019 33 10000 3.1 80 16:18 22.04.2020
4409 Clear 25 1019 33 10000 3.1 80 16:18 22.04.2020
4410 Clear 25 1020 33 10000 3.6 100 15:40 22.04.2020
4411 Clear 25 1020 33 10000 3.6 100 15:21 22.04.2020
4412 Clear 26 1019 31 10000 3.1 80 14:56 22.04.2020
4413 Clear 26 1019 29 10000 3.6 80 14:37 22.04.2020
4414 Clear 26 1019 29 10000 3.6 80 14:37 22.04.2020
4415 Clear 27 1019 28 10000 3.1 80 14:19 22.04.2020
4416 Clear 27 1019 28 10000 3.1 80 14:19 22.04.2020
4417 Clear 27 1019 28 10000 3.1 80 13:44 22.04.2020
4418 Clear 29 1019 25 10000 4.1 90 13:20 22.04.2020
4419 Clear 29 1018 25 10000 4.1 90 12:44 22.04.2020
4420 Clear 29 1018 25 10000 4.1 90 12:44 22.04.2020
4421 Clear 29 1018 25 10000 4.1 90 12:26 22.04.2020
4422 Clear 30 1018 23 10000 4.1 90 11:59 22.04.2020
4423 Clear 31 1017 22 10000 4.6 100 11:39 22.04.2020
4424 Clear 32 1017 19 10000 5.7 100 11:20 22.04.2020
4425 Clear 33 1017 18 10000 4.1 100 10:46 22.04.2020
4426 Clear 33 1017 18 10000 4.1 100 10:25 22.04.2020
4427 Clear 33 1017 17 10000 4.1 80 09:56 22.04.2020
4428 Clear 33 1017 17 10000 3.1 80 09:38 22.04.2020
4429 Clear 34 1017 15 10000 3.1 50 09:19 22.04.2020
4430 Clear 34 1017 15 10000 3.1 50 08:54 22.04.2020
4431 Clear 34 1017 15 10000 3.6 100 08:36 22.04.2020
4432 Clear 34 1017 15 10000 4.6 110 08:18 22.04.2020
4433 Clear 34 1018 14 10000 3.6 120 07:44 22.04.2020
4434 Clear 34 1018 14 10000 3.6 120 07:21 22.04.2020
4435 Clear 33 1018 14 10000 3.6 80 06:44 22.04.2020
4436 Clear 32 1020 13 10000 5.7 90 05:45 22.04.2020
4437 Clear 32 1020 14 10000 4.6 50 04:59 22.04.2020
4438 Clear 30 1022 16 10000 4.6 60 03:40 22.04.2020
4439 Clouds 28 1022 17 10000 4.6 80 02:28 22.04.2020
4440 Clouds 28 1022 17 10000 4.6 80 02:28 22.04.2020
4441 Clouds 25 1022 17 10000 4.1 80 01:41 22.04.2020
4442 Clouds 25 1022 17 10000 4.1 80 01:21 22.04.2020
4443 Clouds 19 1021 34 10000 1.5 250 00:41 22.04.2020
4444 Clouds 19 1021 34 10000 1.5 250 00:20 22.04.2020
4445 Clouds 18 1020 36 10000 1.5 240 23:44 21.04.2020
4446 Clouds 18 1020 36 10000 1.5 240 23:22 21.04.2020
4447 Clouds 18 1020 36 10000 1.5 160 22:58 21.04.2020
4448 Clouds 19 1020 32 10000 2.6 130 22:39 21.04.2020
4449 Clouds 18 1019 36 10000 3.59 101 22:19 21.04.2020
4450 Clouds 18 1019 36 10000 2.1 350 21:43 21.04.2020
4451 Clouds 18 1019 36 10000 2.1 350 21:24 21.04.2020
4452 Clouds 18 1019 34 10000 1.5 70 20:59 21.04.2020
4453 Clouds 19 1019 34 10000 3.85 121 20:40 21.04.2020
4454 Clouds 19 1019 34 10000 3.89 116 20:22 21.04.2020
4455 Clouds 19 1019 34 10000 3.89 116 19:57 21.04.2020
4456 Clouds 20 1019 32 10000 1.5 110 19:37 21.04.2020
4457 Clouds 20 1019 32 10000 3.6 130 19:18 21.04.2020
4458 Clouds 20 1019 32 10000 3.6 130 18:54 21.04.2020
4459 Clouds 20 1019 34 10000 2.6 150 18:36 21.04.2020
4460 Clouds 21 1019 32 10000 2.6 130 18:18 21.04.2020
4461 Clouds 21 1019 35 10000 4.21 115 17:39 21.04.2020
4462 Clouds 22 1019 30 10000 1.5 100 17:19 21.04.2020
4463 Clouds 22 1019 30 10000 1.5 100 16:54 21.04.2020
4464 Clouds 22 1020 33 10000 1 60 16:36 21.04.2020
4465 Clouds 23 1020 28 10000 1.5 40 16:18 21.04.2020
4466 Clouds 23 1020 28 10000 1.5 40 15:54 21.04.2020
4467 Clouds 23 1020 28 10000 1.5 40 15:54 21.04.2020
4468 Clouds 24 1020 29 10000 2.6 60 15:36 21.04.2020
4469 Clouds 24 1020 29 10000 4.73 125 15:18 21.04.2020
4470 Clouds 25 1020 27 10000 0.5 120 14:43 21.04.2020
4471 Clouds 25 1020 27 10000 0.5 120 14:23 21.04.2020
4472 Clouds 26 1020 24 10000 2.1 120 13:55 21.04.2020
4473 Clouds 26 1019 24 10000 2.6 110 13:37 21.04.2020
4474 Clouds 28 1019 21 10000 2.6 110 13:18 21.04.2020
4475 Clouds 27 1019 24 10000 2.6 130 12:38 21.04.2020
4476 Clouds 29 1018 21 10000 2.6 100 12:19 21.04.2020
4477 Clouds 29 1018 21 10000 2.6 100 11:57 21.04.2020
4478 Clouds 30 1018 19 10000 3.1 100 11:38 21.04.2020
4479 Clouds 31 1018 19 10000 4.6 100 11:18 21.04.2020
4480 Clouds 31 1018 19 10000 4.6 100 10:58 21.04.2020
4481 Clouds 31 1017 19 10000 3.6 100 10:39 21.04.2020
4482 Clouds 31 1017 19 10000 3.6 90 10:20 21.04.2020
4483 Clouds 32 1017 18 10000 2.6 30 09:38 21.04.2020
4484 Clouds 32 1017 18 10000 2.6 30 09:20 21.04.2020
4485 Clouds 32 1017 18 10000 2.6 120 09:20 21.04.2020
4486 Clouds 32 1017 18 10000 2.6 120 08:58 21.04.2020
4487 Clouds 32 1017 19 10000 4.1 50 08:40 21.04.2020
4488 Clouds 32 1017 19 10000 4.1 50 08:19 21.04.2020
4489 Clouds 31 1017 19 10000 2.6 100 07:49 21.04.2020
4490 Clouds 31 1017 19 10000 2.6 100 07:24 21.04.2020
4491 Clouds 30 1017 22 10000 2.6 110 06:50 21.04.2020
4492 Clouds 31 1018 20 10000 4.1 100 06:22 21.04.2020
4493 Clouds 29 1019 23 10000 4.1 110 05:49 21.04.2020
4494 Clouds 28 1020 26 10000 4.6 100 04:21 21.04.2020
4495 Clouds 26 1021 31 10000 6.2 100 03:44 21.04.2020
4496 Clouds 23 1020 40 10000 6.2 80 01:46 21.04.2020
4497 Clouds 23 1020 40 10000 6.2 80 01:25 21.04.2020
4498 Clouds 22 1019 43 10000 6.7 90 00:37 21.04.2020
4499 Clouds 22 1019 43 10000 4.6 90 23:45 20.04.2020
4500 Clouds 22 1019 43 10000 4.6 90 23:25 20.04.2020
4501 Clouds 22 1019 46 10000 4.6 90 22:58 20.04.2020
4502 Clouds 23 1019 43 10000 5.7 110 22:39 20.04.2020
4503 Clouds 23 1019 43 10000 5.7 110 22:20 20.04.2020
4504 Clouds 23 1018 43 10000 6.7 110 21:57 20.04.2020
4505 Clouds 23 1019 40 10000 7.7 110 21:38 20.04.2020
4506 Clouds 24 1019 38 10000 6.7 110 21:19 20.04.2020
4507 Clouds 24 1019 38 10000 6.7 110 20:58 20.04.2020
4508 Clouds 24 1019 38 10000 7.7 110 20:38 20.04.2020
4509 Clouds 25 1019 36 10000 7.7 110 20:18 20.04.2020
4510 Clouds 25 1019 36 10000 7.7 110 20:18 20.04.2020
4511 Clouds 25 1019 36 10000 7.7 110 20:18 20.04.2020
4512 Clouds 25 1019 36 10000 7.7 110 19:57 20.04.2020
4513 Clouds 25 1019 36 10000 4.1 130 19:38 20.04.2020
4514 Clouds 25 1019 33 10000 7.2 110 19:19 20.04.2020
4515 Clouds 26 1019 31 10000 6.7 120 18:42 20.04.2020
4516 Clouds 26 1019 31 10000 6.7 120 18:23 20.04.2020
4517 Clouds 26 1019 31 10000 6.2 120 17:56 20.04.2020
4518 Clouds 26 1019 29 10000 7.7 120 17:37 20.04.2020
4519 Clouds 27 1019 26 10000 7.2 110 17:19 20.04.2020
4520 Clouds 27 1019 26 10000 7.2 110 16:58 20.04.2020
4521 Clouds 27 1019 26 10000 6.7 100 16:39 20.04.2020
4522 Clouds 28 1019 23 10000 7.7 110 16:18 20.04.2020
4523 Clouds 28 1019 23 10000 7.2 120 15:43 20.04.2020
4524 Clouds 28 1019 23 10000 7.2 120 15:23 20.04.2020
4525 Clouds 29 1018 23 10000 7.2 120 14:56 20.04.2020
4526 Clouds 29 1018 23 10000 6.7 120 14:38 20.04.2020
4527 Clouds 30 1017 23 10000 6.2 130 14:18 20.04.2020
4528 Clouds 31 1017 22 10000 6.7 120 13:41 20.04.2020
4529 Clouds 31 1017 22 10000 6.7 120 13:23 20.04.2020
4530 Clouds 32 1016 19 10000 7.2 130 12:58 20.04.2020
4531 Clouds 33 1015 18 10000 6.2 130 12:39 20.04.2020
4532 Clouds 33 1014 19 10000 5.7 130 12:18 20.04.2020
4533 Clouds 34 1014 17 10000 6.7 140 11:40 20.04.2020
4534 Clouds 34 1014 17 10000 6.7 140 11:21 20.04.2020
4535 Clouds 35 1013 16 10000 5.7 150 10:57 20.04.2020
4536 Clouds 36 1013 14 10000 0.5 240 10:38 20.04.2020
4537 Clouds 36 1013 15 10000 2.1 270 10:19 20.04.2020
4538 Clouds 36 1013 15 10000 2.1 270 09:55 20.04.2020
4539 Clouds 37 1012 14 10000 3.6 320 09:36 20.04.2020
4540 Clouds 36 1012 15 10000 1.5 260 09:18 20.04.2020
4541 Clouds 37 1013 14 10000 2.6 260 08:41 20.04.2020
4542 Clouds 37 1013 14 10000 2.6 260 08:21 20.04.2020
4543 Clouds 37 1013 14 10000 4.1 250 07:52 20.04.2020
4544 Clouds 37 1013 14 10000 4.1 250 07:29 20.04.2020
4545 Clouds 38 1013 14 10000 2.6 330 06:57 20.04.2020
4546 Clouds 37 1014 14 10000 4.1 280 06:36 20.04.2020
4547 Clouds 36 1015 15 10000 4.6 300 05:41 20.04.2020
4548 Clouds 33 1016 19 10000 8.7 330 03:49 20.04.2020
4549 Clouds 32 1016 21 10000 7.7 340 02:44 20.04.2020
4550 Clear 29 1015 25 10000 6.2 340 01:37 20.04.2020
4551 Clear 27 1015 28 10000 6.7 340 01:19 20.04.2020
4552 Clear 26 1015 27 10000 5.7 340 00:35 20.04.2020
4553 Clear 26 1014 27 10000 5.1 340 23:57 19.04.2020
4554 Clear 26 1014 27 10000 5.1 340 23:38 19.04.2020
4555 Clear 26 1014 27 10000 4.6 350 23:19 19.04.2020
4556 Clear 26 1014 27 10000 5.7 350 22:40 19.04.2020
4557 Clear 26 1014 27 10000 5.7 350 22:22 19.04.2020
4558 Clear 26 1013 27 10000 4.6 340 21:57 19.04.2020
4559 Clear 27 1013 26 10000 5.1 340 21:38 19.04.2020
4560 Clear 27 1013 26 10000 5.1 340 21:20 19.04.2020
4561 Clear 27 1013 28 10000 5.7 340 20:41 19.04.2020
4562 Clear 27 1013 28 10000 5.7 340 20:21 19.04.2020
4563 Clear 26 1013 27 10000 5.7 330 19:59 19.04.2020
4564 Clear 27 1013 26 10000 6.7 350 19:41 19.04.2020
4565 Clear 27 1014 26 10000 6.2 340 19:22 19.04.2020
4566 Clear 27 1014 26 10000 6.2 340 18:58 19.04.2020
4567 Clear 27 1014 28 10000 7.7 350 18:39 19.04.2020
4568 Clear 27 1014 28 10000 7.7 350 18:20 19.04.2020
4569 Clear 27 1014 26 10000 7.7 350 17:57 19.04.2020
4570 Clear 27 1014 28 10000 2.6 350 17:39 19.04.2020
4571 Clear 27 1014 28 10000 2.6 350 17:21 19.04.2020
4572 Clear 26 1014 31 10000 2.6 10 16:57 19.04.2020
4573 Clear 23 1014 33 10000 2.6 360 16:38 19.04.2020
4574 Clear 24 1015 31 10000 2.6 30 16:19 19.04.2020
4575 Clear 26 1015 27 10000 2.1 70 15:42 19.04.2020
4576 Clouds 26 1015 27 10000 2.1 70 15:22 19.04.2020
4577 Clouds 26 1015 27 10000 2.1 80 14:55 19.04.2020
4578 Clouds 27 1014 26 10000 3.1 70 14:37 19.04.2020
4579 Clouds 28 1014 24 10000 4.1 60 14:18 19.04.2020
4580 Clouds 28 1014 24 10000 4.1 70 13:39 19.04.2020
4581 Clouds 29 1014 23 10000 4.1 80 13:19 19.04.2020
4582 Clouds 29 1014 23 10000 4.1 80 12:50 19.04.2020
4583 Clouds 30 1013 22 10000 4.6 70 12:25 19.04.2020
4584 Clouds 30 1013 22 10000 4.6 70 12:25 19.04.2020
4585 Clouds 31 1013 20 10000 3.1 60 11:56 19.04.2020
4586 Clouds 32 1012 19 10000 1 210 11:37 19.04.2020
4587 Clouds 34 1012 17 10000 3.6 250 11:18 19.04.2020
4588 Clouds 34 1012 17 10000 3.6 250 10:55 19.04.2020
4589 Clouds 34 1011 17 10000 3.6 300 10:37 19.04.2020
4590 Clouds 35 1011 16 10000 2.6 260 10:18 19.04.2020
4591 Clouds 35 1011 16 10000 3.6 290 09:44 19.04.2020
4592 Clouds 35 1011 16 10000 3.6 290 09:25 19.04.2020
4593 Clouds 35 1012 16 10000 2.1 300 08:40 19.04.2020
4594 Clouds 35 1012 16 10000 2.1 300 08:21 19.04.2020
4595 Clouds 34 1012 18 10000 3.6 350 07:58 19.04.2020
4596 Clouds 34 1012 17 10000 2.6 230 07:39 19.04.2020
4597 Clouds 34 1012 17 10000 2.6 230 07:21 19.04.2020
4598 Clear 33 1014 19 10000 4.1 360 06:27 19.04.2020
4599 Clear 32 1015 19 10000 2.6 110 05:43 19.04.2020
4600 Clear 28 1016 24 10000 2.6 40 04:22 19.04.2020
4601 Clouds 25 1017 29 10000 3.6 60 02:52 19.04.2020
4602 Clouds 23 1017 35 10000 3.6 80 02:19 19.04.2020
4603 Clouds 21 1017 37 10000 2.6 90 01:31 19.04.2020
4604 Clouds 16 1016 51 10000 5.01 41 00:41 19.04.2020
4605 Clouds 16 1016 51 10000 3.9 59 00:20 19.04.2020
4606 Clouds 15 1016 54 10000 2.1 130 23:44 18.04.2020
4607 Clouds 15 1016 54 10000 2.1 130 23:21 18.04.2020
4608 Clouds 15 1016 54 10000 2.1 90 22:56 18.04.2020
4609 Clouds 16 1016 55 10000 2.6 100 22:38 18.04.2020
4610 Clouds 16 1016 55 10000 2.6 100 22:19 18.04.2020
4611 Clouds 16 1016 51 10000 2.6 110 21:55 18.04.2020
4612 Clouds 17 1016 48 10000 3.1 90 21:36 18.04.2020
4613 Clear 16 1016 55 10000 2.1 50 21:18 18.04.2020
4614 Clear 16 1016 55 10000 2.1 100 20:40 18.04.2020
4615 Clear 16 1016 55 10000 2.1 100 20:21 18.04.2020
4616 Clear 17 1016 48 10000 2.1 140 19:44 18.04.2020
4617 Clear 17 1016 48 10000 2.1 140 19:44 18.04.2020
4618 Clear 17 1016 48 10000 2.1 140 19:25 18.04.2020
4619 Clear 18 1016 48 10000 4.31 85 18:59 18.04.2020
4620 Clear 18 1017 48 10000 4.31 85 18:37 18.04.2020
4621 Clear 19 1017 45 10000 2.1 120 18:19 18.04.2020
4622 Clear 19 1017 45 10000 2.1 100 17:41 18.04.2020
4623 Clear 19 1017 45 10000 2.1 100 17:41 18.04.2020
4624 Clear 19 1017 45 10000 2.1 100 17:21 18.04.2020
4625 Clear 20 1017 42 10000 2.1 100 16:56 18.04.2020
4626 Clear 20 1017 42 10000 2.6 120 16:36 18.04.2020
4627 Clear 20 1017 42 10000 2.6 120 16:36 18.04.2020
4628 Clear 20 1017 42 10000 2.6 140 16:18 18.04.2020
4629 Clear 22 1017 37 10000 2.6 100 15:38 18.04.2020
4630 Clear 22 1017 37 10000 2.6 100 15:20 18.04.2020
4631 Clear 23 1017 35 10000 4.1 110 14:44 18.04.2020
4632 Clear 23 1017 35 10000 4.1 110 14:25 18.04.2020
4633 Clear 24 1016 33 10000 4.6 110 13:55 18.04.2020
4634 Clear 25 1016 31 10000 5.1 110 13:36 18.04.2020
4635 Clear 25 1016 31 10000 4.6 110 13:18 18.04.2020
4636 Clear 26 1016 29 10000 4.6 120 12:41 18.04.2020
4637 Clear 26 1016 29 10000 4.6 120 12:22 18.04.2020
4638 Clear 28 1015 26 10000 4.1 130 11:43 18.04.2020
4639 Clear 29 1015 25 10000 4.6 100 11:23 18.04.2020
4640 Clear 29 1015 25 10000 4.6 100 10:57 18.04.2020
4641 Clear 30 1015 23 10000 4.6 140 10:37 18.04.2020
4642 Clear 30 1015 23 10000 4.1 130 10:18 18.04.2020
4643 Clear 30 1015 23 10000 4.1 130 10:18 18.04.2020
4644 Clouds 30 1015 23 10000 4.6 100 09:42 18.04.2020
4645 Clouds 30 1015 23 10000 4.6 100 09:23 18.04.2020
4646 Clear 30 1015 23 10000 3.6 100 08:44 18.04.2020
4647 Clear 30 1015 23 10000 3.6 100 08:26 18.04.2020
4648 Clear 30 1015 23 10000 2.6 130 07:58 18.04.2020
4649 Clear 30 1015 23 10000 3.1 70 07:36 18.04.2020
4650 Clear 28 1016 24 10000 3.6 80 06:55 18.04.2020
4651 Clear 28 1016 26 10000 3.6 70 06:25 18.04.2020
4652 Clouds 27 1018 28 10000 4.6 60 05:36 18.04.2020
4653 Clear 26 1018 31 10000 4.6 110 04:46 18.04.2020
4654 Clear 26 1018 31 10000 4.6 110 04:25 18.04.2020
4655 Clouds 22 1020 40 10000 6.2 100 02:48 18.04.2020
4656 Clouds 22 1020 40 10000 6.2 100 02:23 18.04.2020
4657 Clouds 22 1020 40 10000 6.2 80 01:53 18.04.2020
4658 Clouds 20 1019 49 10000 5.1 90 01:33 18.04.2020
4659 Clouds 17 1019 55 10000 2.6 100 00:41 18.04.2020
4660 Clouds 17 1019 55 10000 2.6 100 00:20 18.04.2020
4661 Clouds 16 1019 59 10000 2.6 120 23:55 17.04.2020
4662 Clouds 16 1018 55 10000 2.6 80 23:36 17.04.2020
4663 Clouds 16 1018 55 10000 2.1 110 23:18 17.04.2020
4664 Clouds 16 1018 55 10000 2.1 110 22:54 17.04.2020
4665 Clouds 16 1018 55 10000 2.1 110 22:54 17.04.2020
4666 Clouds 16 1018 55 10000 2.1 90 22:36 17.04.2020
4667 Clouds 17 1018 51 10000 3.1 120 22:18 17.04.2020
4668 Clouds 17 1017 51 10000 3.1 110 21:41 17.04.2020
4669 Clear 17 1017 51 10000 3.1 110 21:21 17.04.2020
4670 Clear 17 1017 51 10000 3.1 110 21:21 17.04.2020
4671 Clear 17 1017 51 10000 2.6 110 20:56 17.04.2020
4672 Clear 18 1017 48 10000 2.6 90 20:37 17.04.2020
4673 Clear 17 1017 51 10000 2.6 110 20:18 17.04.2020
4674 Clear 17 1017 51 10000 2.6 110 20:18 17.04.2020
4675 Clear 17 1017 51 10000 2.6 110 19:56 17.04.2020
4676 Clear 18 1018 48 10000 2.6 100 19:38 17.04.2020
4677 Clear 19 1018 45 10000 3.1 90 19:19 17.04.2020
4678 Clear 17 1018 48 10000 1.5 120 18:42 17.04.2020
4679 Clear 17 1018 48 10000 1.5 120 18:22 17.04.2020
4680 Clear 18 1018 45 10000 1 110 17:38 17.04.2020
4681 Clear 18 1018 45 10000 1 110 17:20 17.04.2020
4682 Clear 20 1018 42 10000 2.1 80 16:59 17.04.2020
4683 Clear 20 1019 42 10000 1.5 40 16:41 17.04.2020
4684 Clear 20 1019 42 10000 1.5 40 16:22 17.04.2020
4685 Clear 21 1019 40 10000 3.1 90 15:40 17.04.2020
4686 Clear 21 1019 40 10000 3.1 90 15:22 17.04.2020
4687 Clear 22 1019 37 10000 3.1 120 14:55 17.04.2020
4688 Clear 23 1019 35 10000 2.6 110 14:36 17.04.2020
4689 Clear 22 1019 35 10000 2.6 120 14:18 17.04.2020
4690 Clear 23 1019 33 10000 3.1 130 13:40 17.04.2020
4691 Clear 23 1019 33 10000 3.1 130 13:40 17.04.2020
4692 Clear 23 1019 33 10000 3.1 130 13:20 17.04.2020
4693 Clear 25 1019 31 10000 3.6 130 12:48 17.04.2020
4694 Clear 25 1019 31 10000 3.6 130 12:28 17.04.2020
4695 Clear 26 1018 27 10000 4.1 120 11:59 17.04.2020
4696 Clear 27 1018 26 10000 4.1 130 11:40 17.04.2020
4697 Clear 28 1018 26 10000 4.6 120 11:19 17.04.2020
4698 Clear 29 1017 25 10000 5.7 130 10:40 17.04.2020
4699 Clear 29 1017 25 10000 6.2 120 10:21 17.04.2020
4700 Clear 29 1017 25 10000 6.2 120 09:55 17.04.2020
4701 Clear 29 1017 25 10000 6.2 120 09:37 17.04.2020
4702 Clear 30 1016 23 10000 5.1 110 09:18 17.04.2020
4703 Clear 30 1016 23 10000 5.1 110 08:47 17.04.2020
4704 Clear 30 1016 23 10000 5.1 110 08:47 17.04.2020
4705 Clear 30 1016 23 10000 5.1 110 08:27 17.04.2020
4706 Clear 30 1016 23 10000 6.2 140 07:57 17.04.2020
4707 Clear 30 1017 25 10000 6.7 90 07:39 17.04.2020
4708 Clear 29 1017 25 10000 5.1 110 07:18 17.04.2020
4709 Clear 30 1017 23 10000 6.2 110 06:43 17.04.2020
4710 Clear 29 1018 26 10000 4.6 130 05:58 17.04.2020
4711 Clouds 26 1020 36 10000 5.7 110 03:23 17.04.2020
4712 Clouds 25 1021 38 10000 6.7 90 02:50 17.04.2020
4713 Clouds 22 1021 49 10000 5.1 100 01:30 17.04.2020
4714 Clouds 20 1020 56 10000 2.6 150 00:59 17.04.2020
4715 Clouds 16 1020 59 10000 3.1 190 00:21 17.04.2020
4716 Clouds 17 1019 51 10000 3.1 150 23:47 16.04.2020
4717 Clouds 17 1019 51 10000 3.1 150 23:24 16.04.2020
4718 Clouds 17 1019 51 10000 3.1 150 23:24 16.04.2020
4719 Clouds 17 1019 55 10000 2.1 160 22:59 16.04.2020
4720 Clouds 18 1018 52 10000 2.6 100 22:39 16.04.2020
4721 Clouds 18 1018 52 10000 2.6 100 22:21 16.04.2020
4722 Clouds 17 1018 48 10000 2.1 120 21:57 16.04.2020
4723 Clouds 18 1018 48 10000 2.1 120 21:39 16.04.2020
4724 Clouds 19 1018 45 10000 2.6 150 21:19 16.04.2020
4725 Clouds 19 1018 45 10000 2.1 110 20:42 16.04.2020
4726 Clouds 19 1018 42 10000 3.1 170 20:22 16.04.2020
4727 Clouds 19 1018 42 10000 3.1 170 19:58 16.04.2020
4728 Clouds 19 1018 37 10000 3.6 150 19:39 16.04.2020
4729 Clouds 19 1018 34 10000 3.1 170 19:19 16.04.2020
4730 Clouds 20 1018 32 10000 1.5 130 18:46 16.04.2020
4731 Clouds 21 1019 30 10000 1.5 170 18:27 16.04.2020
4732 Clouds 21 1019 30 10000 1.5 170 18:00 16.04.2020
4733 Clouds 22 1019 28 10000 1.5 150 17:41 16.04.2020
4734 Clouds 22 1019 28 10000 1.5 150 17:21 16.04.2020
4735 Clouds 22 1019 24 10000 1 100 16:45 16.04.2020
4736 Clouds 22 1019 24 10000 1 100 16:26 16.04.2020
4737 Clouds 24 1018 22 10000 3.1 120 15:59 16.04.2020
4738 Clouds 24 1018 32 10000 3.1 150 15:39 16.04.2020
4739 Clouds 24 1018 20 10000 3.1 150 15:19 16.04.2020
4740 Clouds 25 1018 20 10000 6.17 140 14:55 16.04.2020
4741 Clouds 25 1018 20 10000 6.17 140 14:37 16.04.2020
4742 Clouds 26 1018 16 10000 1.5 70 14:18 16.04.2020
4743 Clouds 27 1017 14 10000 2.6 140 13:41 16.04.2020
4744 Clouds 27 1017 14 10000 2.6 140 13:23 16.04.2020
4745 Clouds 27 1017 14 10000 3.1 150 12:58 16.04.2020
4746 Clouds 28 1016 14 10000 3.1 150 12:39 16.04.2020
4747 Clouds 28 1016 14 10000 3.1 150 12:39 16.04.2020
4748 Clouds 30 1016 12 10000 3.6 160 12:20 16.04.2020
4749 Clouds 30 1016 12 10000 3.6 160 11:59 16.04.2020
4750 Clouds 31 1015 11 10000 3.6 150 11:40 16.04.2020
4751 Clouds 31 1015 11 10000 3.6 150 11:21 16.04.2020
4752 Clouds 34 1015 10 10000 3.6 160 10:55 16.04.2020
4753 Clouds 35 1015 14 10000 4.1 160 10:37 16.04.2020
4754 Clouds 35 1014 10 10000 4.6 190 10:18 16.04.2020
4755 Clouds 36 1014 9 10000 5.7 180 09:39 16.04.2020
4756 Clouds 36 1014 9 10000 5.7 180 09:20 16.04.2020
4757 Clouds 36 1014 9 10000 5.1 190 08:57 16.04.2020
4758 Clouds 36 1014 9 10000 7.7 170 08:39 16.04.2020
4759 Clouds 36 1014 9 10000 7.7 170 08:21 16.04.2020
4760 Clouds 37 1014 9 10000 5.7 200 07:43 16.04.2020
4761 Clouds 37 1014 9 10000 5.7 200 07:23 16.04.2020
4762 Clouds 36 1014 9 10000 4.6 180 06:41 16.04.2020
4763 Clear 36 1015 10 10000 4.1 170 06:23 16.04.2020
4764 Clear 36 1016 11 10000 4.6 280 04:54 16.04.2020
4765 Clear 34 1017 13 10000 5.1 310 03:29 16.04.2020
4766 Clear 33 1017 13 10000 5.1 330 02:59 16.04.2020
4767 Clear 31 1017 14 10000 2.1 340 02:39 16.04.2020
4768 Clear 24 1017 22 10000 4.55 317 01:40 16.04.2020
4769 Clear 21 1017 26 10000 4.55 317 00:57 16.04.2020
4770 Clear 16 1016 21 10000 1.5 280 00:26 16.04.2020
4771 Clear 16 1016 36 10000 3.79 329 23:55 15.04.2020
4772 Clear 16 1016 36 10000 3.79 329 23:37 15.04.2020
4773 Clear 16 1016 36 10000 3.79 329 23:19 15.04.2020
4774 Clear 16 1016 36 10000 3.79 329 22:39 15.04.2020
4775 Clear 16 1016 36 10000 3.79 329 22:20 15.04.2020
4776 Clear 16 1015 21 10000 2.1 330 21:56 15.04.2020
4777 Clear 17 1015 33 10000 3.33 325 21:38 15.04.2020
4778 Clear 17 1015 33 10000 3.79 329 21:38 15.04.2020
4779 Clear 17 1015 33 10000 3.21 348 21:19 15.04.2020
4780 Clear 17 1015 19 10000 1.5 280 20:54 15.04.2020
4781 Clear 17 1015 19 10000 1.5 280 20:54 15.04.2020
4782 Clear 18 1015 27 10000 2.1 290 20:36 15.04.2020
4783 Clear 18 1015 19 10000 3.1 280 20:18 15.04.2020
4784 Clear 18 1015 19 10000 1 290 19:41 15.04.2020
4785 Clear 18 1015 19 10000 1.5 330 19:20 15.04.2020
4786 Clear 18 1016 19 10000 1 320 18:42 15.04.2020
4787 Clear 18 1016 19 10000 1 310 18:23 15.04.2020
4788 Clear 18 1016 19 10000 1 310 17:58 15.04.2020
4789 Clear 19 1016 19 10000 1.5 250 17:39 15.04.2020
4790 Clear 19 1016 19 10000 1.5 250 17:20 15.04.2020
4791 Clear 19 1016 19 10000 0.5 320 16:56 15.04.2020
4792 Clear 19 1016 25 10000 1.5 310 16:37 15.04.2020
4793 Clear 19 1016 25 10000 1.5 310 16:37 15.04.2020
4794 Clear 20 1017 24 10000 2.16 21 16:19 15.04.2020
4795 Clear 20 1017 24 10000 2.16 21 15:57 15.04.2020
4796 Clear 21 1017 22 10000 0.5 240 15:38 15.04.2020
4797 Clear 21 1017 22 10000 0.5 240 15:19 15.04.2020
4798 Clear 22 1017 21 10000 1.5 300 14:56 15.04.2020
4799 Clear 22 1017 21 10000 2.91 87 14:38 15.04.2020
4800 Clear 22 1017 21 10000 2.91 87 14:38 15.04.2020
4801 Clear 22 1017 21 10000 2.91 87 14:20 15.04.2020
4802 Clear 23 1017 18 10000 2.1 80 13:56 15.04.2020
4803 Clear 25 1017 16 10000 2.1 70 13:37 15.04.2020
4804 Clear 26 1017 15 10000 2.6 80 13:18 15.04.2020
4805 Clear 28 1016 14 10000 2.6 100 12:42 15.04.2020
4806 Clear 29 1016 13 10000 3.1 130 12:23 15.04.2020
4807 Clear 29 1016 13 10000 3.1 130 12:23 15.04.2020
4808 Clear 29 1016 13 10000 3.1 130 11:58 15.04.2020
4809 Clear 31 1016 10 10000 0.63 125 11:39 15.04.2020
4810 Clear 33 1015 10 10000 0.63 125 11:21 15.04.2020
4811 Clear 34 1015 9 10000 1 60 10:40 15.04.2020
4812 Clear 34 1015 9 10000 1 60 10:21 15.04.2020
4813 Clear 34 1015 9 10000 2.6 180 09:58 15.04.2020
4814 Clear 34 1015 9 10000 2.6 90 09:40 15.04.2020
4815 Clear 34 1015 9 10000 2.6 90 09:21 15.04.2020
4816 Clear 34 1015 9 10000 1.5 110 08:58 15.04.2020
4817 Clear 35 1015 10 10000 1.5 330 08:39 15.04.2020
4818 Clear 35 1016 10 10000 3.6 190 08:19 15.04.2020
4819 Clear 34 1016 10 10000 2.6 10 07:51 15.04.2020
4820 Clear 34 1016 10 10000 2.6 10 07:31 15.04.2020
4821 Clear 34 1017 9 10000 3.1 360 06:33 15.04.2020
4822 Clear 32 1018 12 10000 3.6 360 05:50 15.04.2020
4823 Clear 32 1018 14 10000 3.6 340 04:49 15.04.2020
4824 Clear 31 1019 15 10000 3.1 340 04:24 15.04.2020
4825 Clouds 28 1020 20 10000 2.6 10 03:23 15.04.2020
4826 Clouds 26 1020 22 10000 3.1 50 02:52 15.04.2020
4827 Clouds 23 1020 25 10000 3.32 42 01:54 15.04.2020
4828 Clouds 19 1020 32 10000 3.32 42 01:25 15.04.2020
4829 Clouds 14 1020 44 10000 1.5 310 00:51 15.04.2020
4830 Clouds 14 1020 44 10000 1.5 310 00:30 15.04.2020
4831 Clouds 12 1020 46 10000 2.1 320 23:57 14.04.2020
4832 Clouds 12 1019 46 10000 2.1 310 23:38 14.04.2020
4833 Clouds 12 1019 46 10000 2.1 310 23:20 14.04.2020
4834 Clouds 12 1019 46 10000 1.5 300 22:58 14.04.2020
4835 Clouds 12 1019 46 10000 2.1 300 22:39 14.04.2020
4836 Clouds 13 1019 43 10000 2.6 310 22:21 14.04.2020
4837 Clouds 13 1019 43 10000 2.6 310 21:57 14.04.2020
4838 Clouds 13 1019 25 10000 2.1 280 21:39 14.04.2020
4839 Clouds 13 1019 24 10000 2.1 280 21:20 14.04.2020
4840 Clouds 13 1019 24 10000 1.5 250 20:58 14.04.2020
4841 Clouds 14 1018 24 10000 1.5 210 20:39 14.04.2020
4842 Clouds 14 1018 24 10000 1.5 210 20:21 14.04.2020
4843 Clouds 14 1018 24 10000 1.5 210 20:21 14.04.2020
4844 Clouds 14 1019 35 10000 2.6 240 19:41 14.04.2020
4845 Clouds 14 1019 35 10000 2.6 240 19:23 14.04.2020
4846 Clouds 15 1019 21 10000 2.83 78 18:59 14.04.2020
4847 Clouds 15 1019 33 10000 2.66 77 18:40 14.04.2020
4848 Clouds 16 1019 22 10000 3.67 93 18:21 14.04.2020
4849 Clouds 16 1019 22 10000 3.67 93 17:58 14.04.2020
4850 Clouds 16 1019 22 10000 3.67 93 17:38 14.04.2020
4851 Clouds 16 1019 19 10000 3.87 96 17:20 14.04.2020
4852 Clouds 18 1019 19 10000 1.5 60 16:57 14.04.2020
4853 Clouds 18 1020 27 10000 1.5 50 16:38 14.04.2020
4854 Clouds 18 1020 27 10000 1.5 50 16:19 14.04.2020
4855 Clouds 19 1020 22 10000 2.6 50 15:56 14.04.2020
4856 Clouds 21 1020 26 10000 2.1 110 15:37 14.04.2020
4857 Clouds 21 1020 26 10000 2.1 110 15:18 14.04.2020
4858 Clouds 21 1020 26 10000 3.6 90 14:55 14.04.2020
4859 Clouds 21 1020 26 10000 3.6 90 14:55 14.04.2020
4860 Clouds 22 1020 21 10000 3.6 110 14:37 14.04.2020
4861 Clouds 22 1020 18 10000 3.1 120 14:19 14.04.2020
4862 Clouds 23 1020 17 10000 3.6 130 13:43 14.04.2020
4863 Clouds 23 1020 17 10000 3.6 130 13:24 14.04.2020
4864 Clouds 24 1019 15 10000 3.1 110 12:54 14.04.2020
4865 Clouds 24 1019 16 10000 3.6 120 12:36 14.04.2020
4866 Clouds 25 1018 15 10000 3.1 140 12:18 14.04.2020
4867 Clouds 27 1018 12 10000 3.6 140 11:40 14.04.2020
4868 Clouds 27 1018 12 10000 3.6 140 11:20 14.04.2020
4869 Clouds 29 1017 13 10000 4.6 140 10:47 14.04.2020
4870 Clouds 29 1017 13 10000 4.6 140 10:28 14.04.2020
4871 Clouds 29 1017 12 10000 3.6 120 09:59 14.04.2020
4872 Clouds 29 1017 12 10000 4.1 110 09:40 14.04.2020
4873 Clouds 29 1017 12 10000 4.1 110 09:22 14.04.2020
4874 Clouds 30 1015 12 0 3.78 116 08:44 14.04.2020
4875 Clouds 30 1017 12 10000 3.6 130 08:24 14.04.2020
4876 Clouds 30 1017 12 10000 3.6 160 07:57 14.04.2020
4877 Clouds 29 1018 13 10000 3.1 130 07:34 14.04.2020
4878 Clouds 30 1018 13 10000 3.6 130 06:57 14.04.2020
4879 Clouds 29 1018 12 10000 2.6 70 06:35 14.04.2020
4880 Clouds 28 1017 15 0 2.95 90 04:49 14.04.2020
4881 Clouds 25 1021 22 10000 3.6 80 03:22 14.04.2020
4882 Clouds 19 1020 34 10000 2.1 80 02:18 14.04.2020
4883 Clouds 19 1020 34 10000 2.1 80 01:25 14.04.2020
4884 Clouds 15 1020 47 10000 4.15 64 00:42 14.04.2020
4885 Clouds 14 1019 50 10000 3.1 69 00:19 14.04.2020
4886 Clouds 14 1019 50 10000 3.1 69 23:47 13.04.2020
4887 Clouds 14 1019 50 10000 3.1 69 23:47 13.04.2020
4888 Clouds 14 1019 50 10000 3.1 69 23:27 13.04.2020
4889 Clouds 15 1019 44 10000 2.1 90 23:00 13.04.2020
4890 Clouds 15 1019 51 10000 1.5 50 22:41 13.04.2020
4891 Clouds 15 1019 51 10000 1.5 50 22:22 13.04.2020
4892 Clouds 16 1019 44 10000 3.1 80 21:57 13.04.2020
4893 Clouds 17 1019 42 10000 3.6 90 21:38 13.04.2020
4894 Clouds 17 1019 42 10000 3.6 90 21:20 13.04.2020
4895 Clouds 17 1019 45 10000 1.5 70 20:56 13.04.2020
4896 Clouds 15 1019 58 10000 4.2 93 20:38 13.04.2020
4897 Clouds 15 1019 58 10000 4.2 93 20:38 13.04.2020
4898 Clouds 16 1019 55 10000 0.5 60 20:18 13.04.2020
4899 Clouds 16 1019 55 10000 2.1 90 19:39 13.04.2020
4900 Clouds 18 1018 48 10000 2.6 90 19:20 13.04.2020
4901 Clouds 18 1018 48 10000 2.6 90 19:00 13.04.2020
4902 Clouds 19 1018 45 10000 2.1 90 18:39 13.04.2020
4903 Clouds 19 1019 45 10000 3.1 90 18:20 13.04.2020
4904 Clouds 19 1019 45 10000 3.1 90 17:59 13.04.2020
4905 Clouds 19 1019 45 10000 3.1 100 17:39 13.04.2020
4906 Clouds 19 1019 45 10000 3.1 100 17:20 13.04.2020
4907 Clouds 19 1019 45 10000 3.1 100 17:20 13.04.2020
4908 Clouds 20 1019 45 10000 3.1 120 16:59 13.04.2020
4909 Clouds 21 1019 43 10000 2.6 110 16:41 13.04.2020
4910 Clouds 21 1019 43 10000 2.6 110 16:21 13.04.2020
4911 Clouds 22 1019 40 10000 2.6 100 15:59 13.04.2020
4912 Clouds 22 1019 40 10000 2.6 80 15:41 13.04.2020
4913 Clouds 22 1019 40 10000 2.6 80 15:23 13.04.2020
4914 Clouds 23 1019 38 10000 3.1 80 14:56 13.04.2020
4915 Clouds 24 1019 36 10000 3.6 100 14:38 13.04.2020
4916 Clouds 25 1019 33 10000 4.6 110 14:20 13.04.2020
4917 Clouds 25 1019 33 10000 4.6 110 13:55 13.04.2020
4918 Clouds 26 1018 31 10000 5.1 110 13:37 13.04.2020
4919 Clouds 26 1018 31 10000 5.1 110 13:37 13.04.2020
4920 Clouds 26 1018 31 10000 4.6 110 13:18 13.04.2020
4921 Clouds 26 1018 31 10000 4.6 110 12:56 13.04.2020
4922 Clear 27 1017 30 10000 4.6 120 12:38 13.04.2020
4923 Clear 28 1017 28 10000 4.6 120 12:19 13.04.2020
4924 Clear 29 1016 25 10000 4.1 130 11:42 13.04.2020
4925 Clear 29 1016 25 10000 4.1 130 11:19 13.04.2020
4926 Clear 30 1016 23 10000 4.6 140 10:56 13.04.2020
4927 Clear 30 1016 23 10000 5.1 130 10:38 13.04.2020
4928 Clear 30 1016 23 10000 5.1 130 10:19 13.04.2020
4929 Clear 31 1015 20 10000 5.7 140 09:46 13.04.2020
4930 Clear 31 1015 20 10000 5.7 140 09:26 13.04.2020
4931 Clear 32 1015 19 10000 5.1 130 08:52 13.04.2020
4932 Clear 32 1015 19 10000 5.7 170 08:31 13.04.2020
4933 Clear 32 1015 19 10000 3.6 150 07:59 13.04.2020
4934 Clear 32 1015 19 10000 4.6 170 07:39 13.04.2020
4935 Clear 32 1016 18 10000 3.6 190 07:20 13.04.2020
4936 Clear 31 1016 19 10000 3.1 140 06:47 13.04.2020
4937 Clear 31 1016 19 10000 3.1 170 06:24 13.04.2020
4938 Clear 30 1017 22 10000 3.1 160 05:31 13.04.2020
4939 Clear 29 1018 25 10000 1.5 160 04:53 13.04.2020
4940 Clear 28 1018 28 10000 2.6 130 04:23 13.04.2020
4941 Clear 26 1019 31 10000 3.1 90 03:47 13.04.2020
4942 Clear 26 1019 31 10000 3.1 70 02:59 13.04.2020
4943 Clear 23 1019 38 10000 4.6 90 01:56 13.04.2020
4944 Clear 22 1019 40 10000 4.1 80 01:37 13.04.2020
4945 Clear 19 1019 45 10000 1.5 80 00:58 13.04.2020
4946 Clear 16 1018 51 10000 1.5 330 00:39 13.04.2020
4947 Clear 14 1018 54 10000 2.01 75 00:18 13.04.2020
4948 Clear 15 1018 51 10000 1.5 310 23:45 12.04.2020
4949 Clear 15 1018 51 10000 1.5 310 23:22 12.04.2020
4950 Clear 15 1018 51 10000 2.01 75 22:58 12.04.2020
4951 Clear 15 1017 51 10000 2.01 75 22:37 12.04.2020
4952 Clear 15 1017 51 10000 2.01 75 22:19 12.04.2020
4953 Clear 16 1017 48 10000 1.5 320 21:40 12.04.2020
4954 Clouds 16 1017 48 10000 1.5 320 21:21 12.04.2020
4955 Clouds 16 1017 44 10000 2.68 84 20:56 12.04.2020
4956 Clouds 17 1017 45 10000 2.6 350 20:38 12.04.2020
4957 Clouds 17 1017 45 10000 2.6 350 20:20 12.04.2020
4958 Clouds 17 1017 42 10000 2.68 84 19:55 12.04.2020
4959 Clouds 18 1017 42 10000 2.68 84 19:36 12.04.2020
4960 Clouds 17 1017 42 10000 2.1 250 19:18 12.04.2020
4961 Clouds 17 1017 42 10000 2.6 180 18:40 12.04.2020
4962 Clouds 18 1017 39 10000 3.1 160 18:21 12.04.2020
4963 Clouds 19 1017 37 10000 3.72 92 17:56 12.04.2020
4964 Clouds 19 1017 37 10000 3.72 92 17:38 12.04.2020
4965 Clouds 19 1017 37 10000 3.72 92 17:18 12.04.2020
4966 Clouds 19 1018 37 10000 3.72 92 16:56 12.04.2020
4967 Clouds 20 1018 34 10000 0.5 30 16:36 12.04.2020
4968 Clouds 21 1018 32 10000 1.5 40 16:18 12.04.2020
4969 Clouds 22 1018 30 10000 2.6 50 15:41 12.04.2020
4970 Clouds 22 1018 30 10000 2.6 50 15:21 12.04.2020
4971 Clouds 22 1018 28 10000 2.1 100 14:40 12.04.2020
4972 Clouds 23 1018 27 10000 2.1 120 14:22 12.04.2020
4973 Clouds 23 1018 27 10000 2.1 120 13:58 12.04.2020
4974 Clouds 24 1018 25 10000 3.1 140 13:37 12.04.2020
4975 Clouds 25 1017 23 10000 2.6 140 13:19 12.04.2020
4976 Clouds 26 1017 21 10000 3.1 150 12:46 12.04.2020
4977 Clouds 26 1017 21 10000 3.1 150 12:22 12.04.2020
4978 Clouds 27 1017 19 10000 2.6 150 11:59 12.04.2020
4979 Clouds 29 1016 17 10000 3.1 150 11:38 12.04.2020
4980 Clouds 29 1016 17 10000 3.1 150 11:19 12.04.2020
4981 Clouds 30 1016 16 10000 4.1 140 10:56 12.04.2020
4982 Clouds 31 1016 14 10000 3.6 160 10:38 12.04.2020
4983 Clouds 31 1016 14 10000 3.6 150 10:19 12.04.2020
4984 Clouds 31 1016 14 10000 3.6 150 09:56 12.04.2020
4985 Clouds 31 1016 14 10000 3.6 190 09:37 12.04.2020
4986 Clouds 31 1016 14 10000 3.6 190 09:19 12.04.2020
4987 Clouds 31 1016 14 10000 3.6 190 09:19 12.04.2020
4988 Clouds 32 1016 13 10000 3.6 190 08:47 12.04.2020
4989 Clouds 32 1016 13 10000 3.6 190 08:29 12.04.2020
4990 Clouds 32 1016 13 10000 4.1 140 07:47 12.04.2020
4991 Clouds 32 1016 13 10000 4.6 150 07:19 12.04.2020
4992 Clouds 32 1017 13 10000 4.1 100 06:42 12.04.2020
4993 Clouds 31 1017 12 10000 4.6 140 06:22 12.04.2020
4994 Clouds 30 1018 12 10000 2.6 160 05:42 12.04.2020
4995 Clouds 30 1019 12 10000 4.1 120 04:25 12.04.2020
4996 Clouds 29 1019 12 10000 2.6 150 03:29 12.04.2020
4997 Clouds 26 1020 14 10000 0.5 310 02:47 12.04.2020
4998 Clouds 26 1020 14 10000 0.5 310 02:27 12.04.2020
4999 Clouds 18 1019 31 10000 1.5 310 01:21 12.04.2020
5000 Clouds 15 1019 38 10000 2.1 330 00:42 12.04.2020
5001 Clear 14 1018 23 10000 2.6 300 00:21 12.04.2020
5002 Clear 14 1018 23 10000 2.6 300 23:47 11.04.2020
5003 Clear 14 1018 23 10000 2.6 300 23:26 11.04.2020
5004 Clear 14 1018 23 10000 2.6 310 22:57 11.04.2020
5005 Clear 14 1018 23 10000 2.6 290 22:37 11.04.2020
5006 Clear 14 1018 23 10000 2.6 270 22:18 11.04.2020
5007 Clear 14 1018 23 10000 2.6 270 21:54 11.04.2020
5008 Clouds 14 1018 24 10000 2.6 290 21:36 11.04.2020
5009 Clouds 14 1018 22 10000 2.6 290 21:18 11.04.2020
5010 Clouds 14 1018 35 10000 2.1 270 20:55 11.04.2020
5011 Clouds 15 1018 33 10000 2.1 270 20:36 11.04.2020
5012 Clouds 15 1018 33 10000 2.6 270 20:18 11.04.2020
5013 Clouds 15 1018 33 10000 2.6 270 19:54 11.04.2020
5014 Clouds 15 1018 33 10000 2.6 270 19:54 11.04.2020
5015 Clouds 14 1018 22 10000 3.1 270 19:36 11.04.2020
5016 Clouds 14 1018 35 10000 2.6 300 19:18 11.04.2020
5017 Clouds 14 1019 35 10000 3.1 280 18:55 11.04.2020
5018 Clouds 14 1019 35 10000 3.1 280 18:36 11.04.2020
5019 Clouds 16 1019 31 10000 2.21 87 18:18 11.04.2020
5020 Clouds 16 1019 31 10000 2.21 87 18:18 11.04.2020
5021 Clouds 16 1019 31 10000 2.21 87 17:56 11.04.2020
5022 Clouds 16 1019 31 10000 2.21 87 17:36 11.04.2020
5023 Clouds 16 1019 31 10000 2.21 87 17:18 11.04.2020
5024 Clouds 18 1019 27 10000 3.6 30 16:42 11.04.2020
5025 Clouds 17 1019 29 10000 2.1 30 16:21 11.04.2020
5026 Clouds 18 1019 25 10000 1 20 15:40 11.04.2020
5027 Clouds 18 1019 25 10000 1 20 15:40 11.04.2020
5028 Clear 18 1019 25 10000 1 20 15:20 11.04.2020
5029 Clear 20 1020 22 10000 1.5 360 14:57 11.04.2020
5030 Clear 20 1020 22 10000 1.5 360 14:57 11.04.2020
5031 Clear 21 1019 21 10000 2.1 360 14:39 11.04.2020
5032 Clear 21 1019 21 10000 2.1 360 14:20 11.04.2020
5033 Clear 21 1019 21 10000 2.1 360 14:20 11.04.2020
5034 Clear 22 1019 19 10000 2.6 120 13:41 11.04.2020
5035 Clear 22 1019 19 10000 2.6 120 13:23 11.04.2020
5036 Clear 22 1019 19 10000 3.1 120 12:57 11.04.2020
5037 Clear 24 1018 16 10000 3.1 110 12:37 11.04.2020
5038 Clear 25 1018 14 10000 2.6 90 12:18 11.04.2020
5039 Clear 27 1017 12 10000 3.6 120 11:41 11.04.2020
5040 Clear 27 1017 12 10000 3.6 120 11:20 11.04.2020
5041 Clear 28 1017 12 10000 4.1 130 10:56 11.04.2020
5042 Clear 29 1017 11 10000 4.1 140 10:37 11.04.2020
5043 Clear 29 1017 13 10000 4.1 120 10:18 11.04.2020
5044 Clear 30 1017 12 10000 4.6 140 09:41 11.04.2020
5045 Clear 30 1017 12 10000 4.6 140 09:22 11.04.2020
5046 Clear 30 1017 11 10000 4.1 140 08:59 11.04.2020
5047 Clear 30 1017 13 10000 4.1 140 08:41 11.04.2020
5048 Clear 30 1017 13 10000 4.1 140 08:23 11.04.2020
5049 Clear 29 1018 14 10000 4.6 140 07:42 11.04.2020
5050 Clear 29 1018 14 10000 4.1 150 07:23 11.04.2020
5051 Clear 29 1019 12 10000 4.6 150 06:37 11.04.2020
5052 Clouds 29 1019 14 10000 4.1 130 05:57 11.04.2020
5053 Clouds 27 1021 18 10000 4.6 140 04:26 11.04.2020
5054 Clear 25 1021 22 10000 2.6 80 02:53 11.04.2020
5055 Clear 20 1022 32 10000 1.5 300 01:27 11.04.2020
5056 Clear 18 1021 42 10000 2.1 310 00:57 11.04.2020
5057 Clear 15 1021 51 10000 3.1 340 00:38 11.04.2020
5058 Clear 12 1021 58 10000 1.5 310 00:18 11.04.2020
5059 Clear 13 1021 58 10000 1.5 300 23:42 10.04.2020
5060 Clear 13 1021 58 10000 1.5 300 23:19 10.04.2020
5061 Clear 14 1020 54 10000 3.1 340 22:58 10.04.2020
5062 Clear 13 1020 58 10000 2.1 230 22:38 10.04.2020
5063 Clear 13 1020 58 10000 2.1 230 22:20 10.04.2020
5064 Clear 13 1019 58 10000 2.24 107 21:42 10.04.2020
5065 Clear 13 1019 58 10000 2.24 107 21:42 10.04.2020
5066 Clear 13 1019 58 10000 2.69 93 21:21 10.04.2020
5067 Clear 14 1019 54 10000 1.5 230 20:59 10.04.2020
5068 Clear 14 1019 50 10000 2.1 300 20:40 10.04.2020
5069 Clear 14 1019 54 10000 2.1 270 20:20 10.04.2020
5070 Clear 14 1019 54 10000 2.1 270 19:56 10.04.2020
5071 Clear 15 1019 51 10000 1.5 300 19:38 10.04.2020
5072 Clear 15 1019 51 10000 2.69 93 19:19 10.04.2020
5073 Clear 15 1019 51 10000 2.69 93 18:56 10.04.2020
5074 Clear 16 1020 48 10000 3.1 350 18:38 10.04.2020
5075 Clear 17 1020 45 10000 2.6 350 18:19 10.04.2020
5076 Clear 17 1020 45 10000 2.6 350 17:57 10.04.2020
5077 Clear 16 1021 44 10000 2.6 360 17:39 10.04.2020
5078 Clear 16 1021 44 10000 2.6 360 17:19 10.04.2020
5079 Clear 16 1021 44 10000 1 190 16:44 10.04.2020
5080 Clear 16 1021 44 10000 1 190 16:23 10.04.2020
5081 Clear 16 1021 44 6000 2.1 160 15:59 10.04.2020
5082 Clear 17 1021 42 10000 2.6 150 15:39 10.04.2020
5083 Clear 17 1021 42 10000 2.6 150 15:21 10.04.2020
5084 Clear 19 1021 37 10000 2.1 100 14:59 10.04.2020
5085 Clear 19 1021 37 10000 2.6 80 14:40 10.04.2020
5086 Clear 19 1021 37 10000 2.6 80 14:22 10.04.2020
5087 Clear 21 1021 32 10000 3.1 110 13:49 10.04.2020
5088 Clear 21 1021 32 10000 3.1 110 13:23 10.04.2020
5089 Clear 22 1020 30 10000 3.1 110 12:59 10.04.2020
5090 Clear 22 1020 30 10000 3.1 130 12:41 10.04.2020
5091 Clear 23 1019 28 10000 3.1 130 12:21 10.04.2020
5092 Clear 25 1019 25 10000 3.6 120 11:43 10.04.2020
5093 Clear 25 1019 25 10000 3.6 120 11:24 10.04.2020
5094 Clear 26 1019 24 10000 4.1 150 10:59 10.04.2020
5095 Clear 26 1019 24 10000 4.1 120 10:41 10.04.2020
5096 Clear 26 1019 24 10000 4.1 120 10:22 10.04.2020
5097 Clear 27 1019 22 10000 4.1 130 09:43 10.04.2020
5098 Clear 27 1019 22 10000 4.1 130 09:23 10.04.2020
5099 Clear 28 1019 21 10000 5.1 100 08:50 10.04.2020
5100 Clear 28 1019 21 10000 5.1 100 08:27 10.04.2020
5101 Clear 27 1019 22 10000 3.6 100 07:57 10.04.2020
5102 Clear 27 1018 22 10000 5.7 130 07:39 10.04.2020
5103 Clear 27 1019 22 10000 6.2 130 07:20 10.04.2020
5104 Clear 26 1019 24 10000 4.6 140 06:38 10.04.2020
5105 Clear 26 1020 24 10000 5.7 130 06:19 10.04.2020
5106 Clear 25 1020 25 10000 5.1 110 05:30 10.04.2020
5107 Clear 25 1021 25 10000 6.2 110 04:55 10.04.2020
5108 Clear 23 1023 31 10000 5.1 110 03:35 10.04.2020
5109 Clear 22 1023 33 10000 4.6 90 02:51 10.04.2020
5110 Clear 21 1023 35 10000 5.1 70 02:33 10.04.2020
5111 Clear 17 1023 48 10000 1 230 01:47 10.04.2020
5112 Clear 17 1023 48 10000 1 230 01:27 10.04.2020
5113 Clear 13 1022 66 10000 2.1 320 00:46 10.04.2020
5114 Clear 11 1022 71 10000 2.6 340 00:20 10.04.2020
5115 Clear 10 1021 76 10000 3.08 104 23:42 09.04.2020
5116 Clear 10 1021 76 10000 3.08 104 23:24 09.04.2020
5117 Clear 11 1021 71 10000 2.6 310 22:57 09.04.2020
5118 Clear 11 1021 71 10000 2.1 310 22:39 09.04.2020
5119 Clear 11 1021 71 10000 2.1 310 22:21 09.04.2020
5120 Clear 12 1020 66 10000 2.1 280 21:40 09.04.2020
5121 Clear 12 1020 66 10000 2.1 280 21:21 09.04.2020
5122 Clear 11 1020 71 10000 2.1 290 20:54 09.04.2020
5123 Clear 11 1021 66 10000 1.5 310 20:36 09.04.2020
5124 Clear 12 1021 66 10000 2.1 260 20:18 09.04.2020
5125 Clear 12 1021 62 10000 2.6 280 19:39 09.04.2020
5126 Clear 13 1021 62 10000 2.6 330 19:21 09.04.2020
5127 Clear 14 1021 58 10000 2.1 310 18:42 09.04.2020
5128 Clear 13 1021 62 10000 3.8 110 18:21 09.04.2020
5129 Clear 13 1021 62 10000 3.8 110 17:58 09.04.2020
5130 Clear 14 1021 58 10000 3.8 110 17:39 09.04.2020
5131 Clear 14 1021 58 10000 3.8 110 17:19 09.04.2020
5132 Clear 14 1021 58 10000 3.8 110 17:19 09.04.2020
5133 Clear 15 1022 54 10000 3.8 110 16:40 09.04.2020
5134 Clear 15 1022 54 10000 2.1 340 16:20 09.04.2020
5135 Clear 15 1022 54 10000 2.1 340 15:56 09.04.2020
5136 Clear 15 1022 54 10000 0.5 110 15:37 09.04.2020
5137 Clouds 15 1022 54 10000 0.5 110 15:19 09.04.2020
5138 Clouds 16 1022 48 10000 2.6 140 14:42 09.04.2020
5139 Clouds 16 1022 48 10000 2.6 140 14:21 09.04.2020
5140 Clouds 18 1022 42 10000 2.6 130 13:58 09.04.2020
5141 Clouds 18 1021 42 10000 2.6 130 13:40 09.04.2020
5142 Clouds 18 1021 42 10000 2.6 130 13:21 09.04.2020
5143 Clouds 20 1021 37 10000 2.6 110 12:43 09.04.2020
5144 Clouds 21 1020 35 10000 4.1 100 12:24 09.04.2020
5145 Clouds 21 1020 35 10000 4.1 100 11:59 09.04.2020
5146 Clouds 22 1020 33 10000 5.1 90 11:41 09.04.2020
5147 Clouds 23 1020 31 10000 5.1 100 11:20 09.04.2020
5148 Clouds 22 1020 33 10000 5.1 90 11:20 09.04.2020
5149 Clouds 23 1020 31 10000 5.7 110 10:58 09.04.2020
5150 Clouds 23 1020 31 10000 5.7 110 10:39 09.04.2020
5151 Clouds 23 1019 33 10000 4.6 110 10:20 09.04.2020
5152 Clouds 23 1019 33 10000 4.6 110 09:56 09.04.2020
5153 Clouds 23 1019 33 10000 5.1 70 09:38 09.04.2020
5154 Clouds 23 1019 33 10000 5.1 70 09:19 09.04.2020
5155 Clouds 23 1019 33 10000 5.1 100 08:43 09.04.2020
5156 Clouds 23 1019 33 10000 5.1 100 08:23 09.04.2020
5157 Clouds 23 1019 31 10000 5.1 110 07:55 09.04.2020
5158 Clouds 23 1019 31 10000 5.7 130 07:27 09.04.2020
5159 Clouds 22 1020 37 10000 5.1 120 06:55 09.04.2020
5160 Clouds 22 1020 37 10000 6.7 110 05:59 09.04.2020
5161 Clouds 22 1020 37 10000 6.7 110 05:59 09.04.2020
5162 Clouds 22 1021 37 10000 6.7 110 05:38 09.04.2020
5163 Clouds 21 1022 43 10000 4.6 100 03:49 09.04.2020
5164 Rain 20 1023 49 10000 2.1 80 02:25 09.04.2020
5165 Clouds 19 1022 55 10000 2.6 150 01:40 09.04.2020
5166 Clouds 19 1022 52 10000 1.5 110 01:20 09.04.2020
5167 Clouds 18 1021 59 10000 2.1 110 00:40 09.04.2020
5168 Clouds 18 1021 59 10000 2.6 110 00:19 09.04.2020
5169 Clouds 18 1021 59 10000 2.6 110 23:56 08.04.2020
5170 Clouds 17 1021 67 10000 1.5 120 23:37 08.04.2020
5171 Clouds 17 1021 67 10000 1.5 120 23:19 08.04.2020
5172 Clouds 18 1020 52 10000 1.5 90 22:42 08.04.2020
5173 Clouds 18 1020 48 10000 4.72 118 22:24 08.04.2020
5174 Clouds 18 1020 52 10000 1 180 21:56 08.04.2020
5175 Clouds 18 1020 52 10000 1 180 21:37 08.04.2020
5176 Clouds 18 1020 52 10000 1 180 21:37 08.04.2020
5177 Clouds 18 1020 52 10000 4.84 128 21:19 08.04.2020
5178 Clouds 18 1020 52 10000 4.84 128 20:56 08.04.2020
5179 Clouds 18 1019 48 10000 2.1 180 20:38 08.04.2020
5180 Clouds 18 1019 48 10000 2.1 180 20:19 08.04.2020
5181 Clouds 18 1019 48 10000 4.84 128 19:41 08.04.2020
5182 Clouds 18 1019 48 10000 1 50 19:22 08.04.2020
5183 Clouds 19 1020 45 10000 2.1 80 18:55 08.04.2020
5184 Clouds 19 1020 45 10000 2.1 80 18:37 08.04.2020
5185 Clouds 19 1020 45 10000 2.6 120 18:19 08.04.2020
5186 Clouds 19 1020 45 10000 2.1 170 17:42 08.04.2020
5187 Clouds 19 1020 45 10000 1.5 150 17:22 08.04.2020
5188 Clouds 19 1020 45 10000 1.5 150 16:57 08.04.2020
5189 Clouds 20 1020 40 10000 2.1 130 16:39 08.04.2020
5190 Clouds 20 1021 42 10000 2.1 140 16:20 08.04.2020
5191 Clouds 20 1021 40 10000 1.5 130 15:39 08.04.2020
5192 Clouds 20 1021 40 10000 1.5 130 15:21 08.04.2020
5193 Clouds 21 1021 37 10000 2.6 130 14:58 08.04.2020
5194 Clouds 21 1021 37 10000 2.6 130 14:58 08.04.2020
5195 Clouds 21 1021 37 10000 2.6 130 14:39 08.04.2020
5196 Clouds 21 1021 37 10000 2.6 130 14:21 08.04.2020
5197 Clouds 22 1020 35 10000 2.6 120 13:44 08.04.2020
5198 Clouds 22 1020 33 10000 3.1 130 13:21 08.04.2020
5199 Clouds 22 1020 33 10000 3.1 130 12:57 08.04.2020
5200 Clouds 22 1019 33 10000 3.6 130 12:39 08.04.2020
5201 Clouds 22 1019 33 10000 4.6 120 12:18 08.04.2020
5202 Clouds 22 1019 33 10000 4.6 120 12:18 08.04.2020
5203 Clouds 22 1019 33 10000 4.6 120 12:18 08.04.2020
5204 Clouds 22 1019 33 10000 4.6 120 12:18 08.04.2020
5205 Clouds 22 1018 33 10000 4.6 120 11:42 08.04.2020
5206 Clouds 22 1018 33 10000 4.6 120 11:23 08.04.2020
5207 Clouds 23 1018 33 10000 5.1 130 10:58 08.04.2020
5208 Clouds 23 1018 33 10000 5.1 130 10:39 08.04.2020
5209 Clouds 24 1017 29 10000 6.2 130 10:20 08.04.2020
5210 Clouds 24 1017 29 10000 6.2 130 09:57 08.04.2020
5211 Clouds 24 1017 29 10000 6.2 130 09:39 08.04.2020
5212 Clouds 24 1017 29 10000 6.2 130 09:18 08.04.2020
5213 Clouds 24 1017 29 10000 6.2 130 09:18 08.04.2020
5214 Clouds 25 1017 27 10000 6.2 130 08:56 08.04.2020
5215 Clouds 25 1017 29 10000 6.2 120 08:38 08.04.2020
5216 Clouds 25 1017 29 10000 6.2 120 08:20 08.04.2020
5217 Clouds 24 1017 29 10000 5.7 130 07:42 08.04.2020
5218 Clouds 24 1018 29 10000 5.7 140 07:20 08.04.2020
5219 Clouds 24 1018 31 10000 5.1 130 06:22 08.04.2020
5220 Clouds 22 1020 33 10000 4.6 100 04:44 08.04.2020
5221 Clouds 21 1019 35 10000 5.1 90 02:49 08.04.2020
5222 Clouds 19 1020 42 10000 2.6 110 02:21 08.04.2020
5223 Clouds 18 1020 45 10000 6.31 110 01:51 08.04.2020
5224 Clouds 17 1020 48 10000 6.31 110 01:27 08.04.2020
5225 Clouds 15 1019 54 10000 1.5 250 00:41 08.04.2020
5226 Clouds 15 1019 54 10000 1.5 250 00:22 08.04.2020
5227 Clouds 14 1018 58 10000 2.1 10 23:40 07.04.2020
5228 Clouds 14 1018 58 10000 2.1 10 23:40 07.04.2020
5229 Clouds 14 1018 58 10000 2.1 10 23:21 07.04.2020
5230 Clouds 13 1018 58 10000 2.1 90 22:57 07.04.2020
5231 Clouds 13 1018 58 10000 3.79 107 22:39 07.04.2020
5232 Clouds 13 1018 58 10000 3.79 107 22:19 07.04.2020
5233 Clouds 13 1018 58 10000 2.1 270 21:56 07.04.2020
5234 Clouds 13 1018 58 10000 1.5 270 21:38 07.04.2020
5235 Clouds 13 1018 58 10000 1.5 270 21:20 07.04.2020
5236 Clouds 14 1017 54 10000 2.1 330 20:56 07.04.2020
5237 Clouds 14 1017 54 10000 2.1 330 20:38 07.04.2020
5238 Clouds 14 1017 54 10000 2.1 330 20:20 07.04.2020
5239 Clouds 13 1018 54 10000 2.6 280 19:56 07.04.2020
5240 Clouds 13 1018 54 10000 2.6 280 19:56 07.04.2020
5241 Clouds 13 1018 54 10000 2.6 280 19:36 07.04.2020
5242 Clouds 13 1018 54 10000 2.6 280 19:18 07.04.2020
5243 Clouds 13 1018 54 10000 2.6 260 18:54 07.04.2020
5244 Clouds 14 1018 50 10000 2.1 260 18:36 07.04.2020
5245 Clouds 14 1018 50 10000 2.1 260 18:18 07.04.2020
5246 Clouds 15 1018 47 10000 0.5 340 17:41 07.04.2020
5247 Clouds 16 1018 44 10000 2.1 280 17:20 07.04.2020
5248 Clouds 16 1018 44 10000 0.5 260 16:45 07.04.2020
5249 Clouds 16 1018 44 10000 0.5 260 16:27 07.04.2020
5250 Clouds 17 1018 42 10000 4.75 138 15:55 07.04.2020
5251 Clouds 18 1019 36 10000 2.1 100 15:36 07.04.2020
5252 Clouds 18 1019 36 10000 2.1 100 15:18 07.04.2020
5253 Clouds 20 1019 32 10000 2.6 100 14:39 07.04.2020
5254 Clouds 20 1019 32 10000 2.6 100 14:20 07.04.2020
5255 Clouds 21 1018 30 10000 3.1 120 13:43 07.04.2020
5256 Clouds 21 1018 30 10000 3.1 130 13:21 07.04.2020
5257 Clouds 21 1018 30 10000 3.1 130 12:59 07.04.2020
5258 Clouds 22 1017 26 10000 3.6 130 12:40 07.04.2020
5259 Clouds 23 1017 25 10000 3.6 120 12:21 07.04.2020
5260 Clouds 23 1017 25 10000 3.6 120 11:59 07.04.2020
5261 Clouds 23 1017 25 10000 3.6 120 11:59 07.04.2020
5262 Clouds 23 1017 25 10000 4.1 130 11:41 07.04.2020
5263 Clouds 23 1017 25 10000 4.1 130 11:21 07.04.2020
5264 Clouds 24 1016 22 10000 4.6 120 10:55 07.04.2020
5265 Clouds 25 1016 22 10000 5.1 130 10:36 07.04.2020
5266 Clouds 25 1016 23 10000 4.6 130 10:18 07.04.2020
5267 Clouds 25 1016 20 10000 4.1 130 09:43 07.04.2020
5268 Clouds 25 1016 20 10000 4.1 130 09:18 07.04.2020
5269 Clouds 25 1016 22 10000 5.1 110 08:41 07.04.2020
5270 Clouds 25 1016 22 10000 5.1 110 08:23 07.04.2020
5271 Clouds 25 1016 23 10000 3.6 150 07:57 07.04.2020
5272 Clouds 25 1016 23 10000 3.6 160 07:38 07.04.2020
5273 Clouds 26 1017 24 10000 4.1 150 07:20 07.04.2020
5274 Clouds 25 1017 22 10000 4.6 120 06:42 07.04.2020
5275 Clouds 25 1018 23 10000 4.1 120 06:18 07.04.2020
5276 Clouds 25 1018 23 10000 4.1 100 05:29 07.04.2020
5277 Clouds 23 1019 28 10000 3.6 130 04:35 07.04.2020
5278 Clouds 22 1020 33 10000 4.6 100 03:24 07.04.2020
5279 Clouds 20 1020 37 10000 3.6 90 02:47 07.04.2020
5280 Clouds 17 1021 48 10000 1.5 100 01:43 07.04.2020
5281 Clouds 15 1020 54 10000 5.26 102 01:23 07.04.2020
5282 Clouds 12 1020 66 10000 3.09 127 00:26 07.04.2020
5283 Clouds 10 1019 76 10000 3.09 127 23:44 06.04.2020
5284 Clouds 10 1019 76 10000 3.09 127 23:23 06.04.2020
5285 Clouds 10 1019 76 10000 3.09 127 22:56 06.04.2020
5286 Clouds 10 1018 76 10000 3.09 127 22:37 06.04.2020
5287 Clouds 10 1018 76 10000 3.09 127 22:19 06.04.2020
5288 Clouds 11 1018 71 10000 1 190 21:56 06.04.2020
5289 Clouds 11 1018 71 10000 2.1 190 21:37 06.04.2020
5290 Clouds 12 1018 66 10000 3.78 120 21:18 06.04.2020
5291 Clouds 12 1018 66 10000 2.6 360 20:41 06.04.2020
5292 Clouds 12 1018 66 10000 2.6 360 20:21 06.04.2020
5293 Clouds 12 1019 62 10000 2.1 310 19:58 06.04.2020
5294 Clouds 12 1019 66 10000 2.6 260 19:39 06.04.2020
5295 Clouds 13 1019 62 10000 2.1 210 19:20 06.04.2020
5296 Clouds 13 1019 62 10000 3.78 120 18:45 06.04.2020
5297 Clouds 13 1019 62 10000 0.5 220 18:24 06.04.2020
5298 Clouds 13 1019 62 10000 0.5 220 17:59 06.04.2020
5299 Clouds 13 1019 58 10000 2.1 230 17:41 06.04.2020
5300 Clouds 14 1018 54 10000 4.6 122 17:19 06.04.2020
5301 Clouds 15 1018 54 10000 4.6 122 16:49 06.04.2020
5302 Clouds 15 1018 54 10000 4.6 122 16:30 06.04.2020
5303 Clouds 18 1019 42 10000 1.5 20 14:59 06.04.2020
5304 Clouds 18 1019 42 10000 1.5 20 14:59 06.04.2020
5305 Clouds 18 1019 42 10000 1.5 20 14:59 06.04.2020
5306 Clouds 18 1019 42 10000 1.5 20 14:59 06.04.2020
5307 Clouds 18 1019 42 10000 1.5 20 14:59 06.04.2020
5308 Clouds 20 1019 37 10000 2.6 110 13:45 06.04.2020
5309 Clouds 20 1019 34 10000 3.6 120 13:22 06.04.2020
5310 Clouds 21 1019 35 10000 4.1 110 12:46 06.04.2020
5311 Clouds 22 1018 30 10000 4.1 120 12:20 06.04.2020
5312 Clouds 22 1018 30 10000 4.1 110 11:43 06.04.2020
5313 Clouds 23 1018 27 10000 4.6 110 11:25 06.04.2020
5314 Clouds 23 1018 27 10000 4.6 110 11:25 06.04.2020
5315 Clouds 23 1018 27 10000 4.6 110 11:25 06.04.2020
5316 Clouds 23 1018 27 10000 4.6 110 11:24 06.04.2020
5317 Clouds 23 1018 27 10000 4.6 110 11:24 06.04.2020
5318 Clouds 24 1017 25 10000 5.1 110 10:43 06.04.2020
5319 Clouds 24 1018 25 10000 4.6 120 10:43 06.04.2020
5320 Clouds 24 1017 25 10000 5.1 110 10:43 06.04.2020
5321 Clouds 24 1018 25 10000 4.6 120 10:43 06.04.2020
5322 Clouds 24 1018 25 10000 4.6 120 10:42 06.04.2020
5323 Clouds 24 1017 25 10000 5.1 110 10:21 06.04.2020
5324 Clouds 24 1017 25 10000 5.1 110 10:21 06.04.2020
5325 Clouds 24 1017 25 10000 5.1 110 10:21 06.04.2020
5326 Clouds 24 1017 25 10000 5.1 110 10:21 06.04.2020
5327 Clouds 24 1017 25 10000 5.1 110 10:21 06.04.2020
5328 Clouds 25 1017 25 10000 5.7 110 09:40 06.04.2020
5329 Clouds 25 1017 25 10000 5.7 110 09:40 06.04.2020
5330 Clouds 25 1017 25 10000 5.7 120 09:20 06.04.2020
5331 Clouds 25 1017 25 10000 5.7 120 09:20 06.04.2020
5332 Clouds 25 1017 23 10000 5.7 90 08:47 06.04.2020
5333 Clouds 25 1017 23 10000 4.6 80 08:29 06.04.2020
5334 Clouds 25 1017 23 10000 4.6 80 08:29 06.04.2020
5335 Clouds 25 1017 23 10000 4.6 80 08:29 06.04.2020
5336 Clouds 25 1017 23 10000 4.6 80 08:29 06.04.2020
5337 Clouds 25 1017 23 10000 4.6 80 08:29 06.04.2020
5338 Clouds 26 1018 22 10000 6.2 100 07:23 06.04.2020
5339 Clouds 25 1019 25 10000 5.7 90 06:27 06.04.2020
5340 Clouds 24 1019 27 10000 6.2 80 05:54 06.04.2020
5341 Clouds 23 1021 31 10000 5.7 110 03:57 06.04.2020
5342 Clouds 22 1022 33 10000 5.7 80 02:52 06.04.2020
5343 Clouds 19 1022 39 10000 5.7 70 01:56 06.04.2020
5344 Clouds 19 1022 39 10000 5.7 70 01:56 06.04.2020
5345 Clouds 19 1022 39 10000 5.7 70 01:56 06.04.2020
5346 Clouds 16 1021 51 10000 2.6 100 00:55 06.04.2020
5347 Clouds 12 1021 66 10000 1.5 170 00:28 06.04.2020
5348 Clouds 12 1021 66 10000 1.5 170 00:28 06.04.2020
5349 Clouds 10 1020 76 10000 3.6 180 23:52 05.04.2020
5350 Clouds 10 1020 76 10000 3.87 98 23:33 05.04.2020
5351 Clouds 10 1020 76 10000 3.87 98 22:58 05.04.2020
5352 Clouds 10 1020 76 10000 3.87 98 22:58 05.04.2020
5353 Clouds 10 1020 76 10000 3.87 98 22:40 05.04.2020
5354 Clouds 10 1020 76 10000 3.87 98 22:22 05.04.2020
5355 Clouds 11 1019 71 10000 3.87 98 21:59 05.04.2020
5356 Clouds 11 1019 71 10000 3.87 98 21:41 05.04.2020
5357 Clouds 11 1019 71 10000 3.87 98 21:41 05.04.2020
5358 Clouds 11 1019 71 10000 3.87 98 21:23 05.04.2020
5359 Clouds 12 1019 66 10000 1 160 20:22 05.04.2020
5360 Clouds 12 1019 66 10000 1 180 19:43 05.04.2020
5361 Clouds 13 1020 58 10000 2.6 190 19:22 05.04.2020
5362 Clouds 13 1020 62 10000 2.6 230 18:48 05.04.2020
5363 Clouds 13 1020 62 10000 4.57 108 18:18 05.04.2020
5364 Clouds 14 1020 58 10000 4.57 108 17:42 05.04.2020
5365 Clouds 14 1020 58 10000 4.57 108 17:42 05.04.2020
5366 Clouds 14 1020 58 10000 4.57 108 17:42 05.04.2020
5367 Clouds 14 1020 54 10000 4.57 108 17:42 05.04.2020
5368 Clouds 14 1020 54 10000 4.57 108 17:42 05.04.2020
5369 Clouds 14 1020 54 10000 4.57 108 17:21 05.04.2020
5370 Clouds 14 1020 54 10000 4.57 108 17:21 05.04.2020
5371 Clouds 14 1020 54 10000 4.57 108 17:21 05.04.2020
5372 Clouds 15 1020 54 10000 0.5 360 16:47 05.04.2020
5373 Clouds 15 1020 54 10000 0.5 360 16:47 05.04.2020
5374 Clouds 15 1020 54 10000 0.5 360 16:47 05.04.2020
5375 Clouds 16 1020 51 10000 2.1 350 16:18 05.04.2020
5376 Clouds 16 1020 48 10000 0.5 90 15:45 05.04.2020
5377 Clouds 17 1020 45 10000 1.5 110 15:25 05.04.2020
5378 Clouds 18 1020 39 10000 3.1 110 14:48 05.04.2020
5379 Clouds 18 1020 39 10000 3.1 110 14:48 05.04.2020
5380 Clouds 18 1020 39 10000 3.1 110 14:48 05.04.2020
5381 Clouds 18 1020 39 10000 3.1 110 14:48 05.04.2020
5382 Clouds 18 1020 39 10000 3.1 110 14:48 05.04.2020
5383 Clouds 20 1020 34 10000 3.6 120 13:58 05.04.2020
5384 Clouds 20 1019 34 10000 3.6 120 13:40 05.04.2020
5385 Clouds 20 1019 34 10000 3.6 120 13:40 05.04.2020
5386 Clouds 20 1019 34 10000 3.6 120 13:40 05.04.2020
5387 Clouds 20 1019 34 10000 3.6 120 13:37 05.04.2020
5388 Clouds 20 1019 34 10000 3.6 120 13:37 05.04.2020
5389 Clouds 22 1018 28 10000 3.6 130 11:58 05.04.2020
5390 Clouds 23 1018 27 10000 5.1 130 11:39 05.04.2020
5391 Clouds 23 1018 27 10000 5.1 130 11:19 05.04.2020
5392 Clouds 24 1017 25 10000 5.7 110 10:45 05.04.2020
5393 Clouds 24 1017 25 10000 5.7 110 10:45 05.04.2020
5394 Clouds 25 1017 23 10000 5.1 130 10:21 05.04.2020
5395 Clouds 25 1016 22 10000 5.1 130 09:52 05.04.2020
5396 Clouds 25 1016 22 10000 5.1 130 09:52 05.04.2020
5397 Clouds 26 1016 22 10000 5.1 140 09:25 05.04.2020
5398 Clouds 26 1016 22 10000 5.1 140 09:25 05.04.2020
5399 Clouds 26 1016 22 10000 5.1 140 09:25 05.04.2020
5400 Clouds 26 1016 22 10000 5.1 140 09:25 05.04.2020
5401 Clouds 26 1016 22 10000 5.1 140 09:25 05.04.2020
5402 Clouds 25 1017 22 10000 4.6 120 07:58 05.04.2020
5403 Clear 23 1019 28 10000 5.1 120 05:12 05.04.2020
5404 Clear 21 1020 32 10000 6.2 110 03:58 05.04.2020
5405 Clear 19 1021 39 10000 5.1 120 02:56 05.04.2020
5406 Clear 18 1021 45 10000 5.1 70 01:52 05.04.2020
5407 Clear 18 1021 45 10000 5.1 70 01:52 05.04.2020
5408 Clear 17 1021 48 10000 3.6 90 01:33 05.04.2020
5409 Clear 16 1021 51 10000 2.1 90 00:52 05.04.2020
5410 Clear 13 1020 66 10000 1.5 110 00:22 05.04.2020
5411 Clear 10 1020 76 10000 1 110 23:58 04.04.2020
5412 Clear 10 1020 76 10000 1 110 23:58 04.04.2020
5413 Clear 11 1020 71 10000 2.1 100 23:38 04.04.2020
5414 Clear 11 1020 71 10000 2.1 100 23:20 04.04.2020
5415 Clear 11 1020 71 10000 1.5 130 22:56 04.04.2020
5416 Clear 11 1019 71 10000 2.1 140 22:38 04.04.2020
5417 Clear 11 1019 71 10000 2.1 140 22:19 04.04.2020
5418 Clear 11 1019 71 10000 2.1 140 22:19 04.04.2020
5419 Clear 11 1019 71 10000 2.6 130 21:55 04.04.2020
5420 Clear 12 1019 66 10000 2.1 110 21:36 04.04.2020
5421 Clouds 12 1019 66 10000 2.1 110 21:18 04.04.2020
5422 Clouds 12 1019 62 10000 1.5 30 20:42 04.04.2020
5423 Clouds 12 1019 62 10000 1.5 40 20:23 04.04.2020
5424 Clouds 12 1019 62 10000 2.6 120 19:59 04.04.2020
5425 Clouds 12 1019 62 10000 3.1 130 19:38 04.04.2020
5426 Clouds 12 1019 62 10000 3.1 130 19:20 04.04.2020
5427 Clouds 13 1019 58 10000 2.6 120 18:58 04.04.2020
5428 Clouds 14 1019 54 10000 2.6 130 18:39 04.04.2020
5429 Clouds 14 1019 54 10000 2.6 130 18:19 04.04.2020
5430 Clouds 15 1019 47 10000 2.1 110 17:56 04.04.2020
5431 Clouds 15 1019 47 10000 2.1 100 17:38 04.04.2020
5432 Clouds 15 1019 47 10000 2.1 100 17:18 04.04.2020
5433 Clouds 16 1019 44 10000 2.6 130 16:42 04.04.2020
5434 Clouds 16 1019 44 10000 2.6 130 16:23 04.04.2020
5435 Clouds 17 1019 42 10000 3.1 120 15:57 04.04.2020
5436 Clouds 17 1019 39 10000 2.6 110 15:38 04.04.2020
5437 Clear 17 1019 39 10000 2.6 110 15:19 04.04.2020
5438 Clear 18 1019 36 10000 3.1 130 14:44 04.04.2020
5439 Clear 18 1019 34 10000 2.6 130 14:23 04.04.2020
5440 Clear 19 1019 32 10000 2.6 140 13:57 04.04.2020
5441 Clear 20 1018 28 10000 3.1 140 13:38 04.04.2020
5442 Clear 20 1018 28 10000 3.1 140 13:20 04.04.2020
5443 Clear 21 1018 27 10000 3.1 140 12:46 04.04.2020
5444 Clear 21 1017 22 10000 3.6 130 12:27 04.04.2020
5445 Clear 22 1017 19 10000 4.1 130 11:59 04.04.2020
5446 Clear 23 1016 20 10000 4.6 130 11:40 04.04.2020
5447 Clear 23 1016 20 10000 4.6 130 11:21 04.04.2020
5448 Clear 24 1016 23 10000 5.1 140 10:57 04.04.2020
5449 Clear 24 1016 23 10000 5.1 140 10:39 04.04.2020
5450 Clear 24 1016 25 10000 5.7 130 10:21 04.04.2020
5451 Clear 24 1016 29 10000 5.1 130 09:55 04.04.2020
5452 Clear 25 1016 27 10000 5.7 160 09:37 04.04.2020
5453 Clear 25 1016 27 10000 5.7 160 09:19 04.04.2020
5454 Clear 24 1016 29 10000 6.2 130 08:42 04.04.2020
5455 Clear 24 1016 29 10000 6.2 130 08:21 04.04.2020
5456 Clear 25 1016 31 10000 5.7 110 07:47 04.04.2020
5457 Clear 24 1016 33 10000 5.7 120 07:27 04.04.2020
5458 Clear 24 1016 36 10000 5.7 130 06:56 04.04.2020
5459 Clear 23 1016 38 10000 6.7 120 06:20 04.04.2020
5460 Clear 23 1017 40 10000 6.7 110 05:43 04.04.2020
5461 Clear 23 1017 40 10000 6.2 120 05:24 04.04.2020
5462 Clear 22 1018 43 10000 6.2 120 04:32 04.04.2020
5463 Clear 22 1019 46 10000 8.47 148 03:53 04.04.2020
5464 Clear 20 1019 52 10000 7.2 120 02:54 04.04.2020
5465 Clear 20 1019 52 10000 7.2 120 02:34 04.04.2020
5466 Clear 20 1019 52 10000 7.7 140 01:57 04.04.2020
5467 Clear 20 1018 56 10000 7.7 110 01:25 04.04.2020
5468 Clear 20 1018 56 10000 8.7 130 00:50 04.04.2020
5469 Clear 20 1017 56 10000 4.6 120 00:30 04.04.2020
5470 Clear 20 1016 56 10000 5.1 140 23:40 03.04.2020
5471 Clear 20 1016 56 10000 5.1 140 23:21 03.04.2020
5472 Clear 21 1015 52 10000 5.1 120 22:59 03.04.2020
5473 Clear 21 1015 52 10000 5.1 120 22:39 03.04.2020
5474 Clear 21 1015 52 10000 5.1 120 22:39 03.04.2020
5475 Clear 21 1015 52 10000 6.2 130 22:19 03.04.2020
5476 Clear 22 1014 49 10000 6.7 140 21:44 03.04.2020
5477 Clear 22 1014 49 10000 5.1 150 21:25 03.04.2020
5478 Clear 23 1013 43 10000 5.7 150 20:57 03.04.2020
5479 Clear 24 1013 41 10000 4.6 140 20:38 03.04.2020
5480 Clear 24 1013 41 10000 4.6 140 20:20 03.04.2020
5481 Clear 24 1012 47 10000 4.1 130 19:57 03.04.2020
5482 Clear 23 1012 53 10000 2.6 150 19:39 03.04.2020
5483 Clear 23 1012 53 10000 2.6 150 19:39 03.04.2020
5484 Clear 23 1012 53 10000 2.6 150 19:21 03.04.2020
5485 Clear 24 1012 47 10000 3.6 120 18:59 03.04.2020
5486 Clear 24 1012 47 10000 3.6 120 18:59 03.04.2020
5487 Clear 25 1012 47 10000 3.6 130 18:41 03.04.2020
5488 Clear 25 1012 47 10000 3.6 130 18:23 03.04.2020
5489 Clear 26 1012 47 10000 4.6 120 17:55 03.04.2020
5490 Clear 26 1011 39 10000 3.6 160 17:37 03.04.2020
5491 Clear 26 1011 39 10000 3.6 160 17:18 03.04.2020
5492 Clear 27 1011 36 10000 5.1 170 16:44 03.04.2020
5493 Clear 27 1011 42 10000 3.6 170 16:22 03.04.2020
5494 Clear 28 1011 39 7000 5.1 190 15:58 03.04.2020
5495 Clear 25 1010 61 10000 8.55 159 15:40 03.04.2020
5496 Clear 25 1010 61 10000 8.55 159 15:21 03.04.2020
5497 Clouds 28 1008 27 0 3.87 160 14:56 03.04.2020
5498 Clouds 28 1008 27 0 3.87 160 14:37 03.04.2020
5499 Clouds 29 1009 37 10000 1 130 14:19 03.04.2020
5500 Clouds 29 1009 37 10000 1 130 13:43 03.04.2020
5501 Clouds 29 1009 37 10000 1 130 13:25 03.04.2020
5502 Clouds 29 1009 37 10000 1.5 140 12:55 03.04.2020
5503 Clouds 30 1009 33 10000 2.1 160 12:37 03.04.2020
5504 Clouds 31 1008 31 10000 3.6 180 12:18 03.04.2020
5505 Clouds 31 1008 31 10000 5.1 180 11:41 03.04.2020
5506 Clouds 31 1008 31 10000 5.1 180 11:23 03.04.2020
5507 Clouds 32 1008 31 10000 5.7 180 10:59 03.04.2020
5508 Clouds 32 1007 33 10000 4.6 160 10:40 03.04.2020
5509 Clouds 32 1007 33 10000 4.6 160 10:21 03.04.2020
5510 Clouds 32 1007 33 10000 5.7 170 09:59 03.04.2020
5511 Clouds 33 1007 31 10000 6.7 170 09:40 03.04.2020
5512 Clouds 33 1007 31 10000 6.7 170 09:22 03.04.2020
5513 Clouds 34 1006 30 10000 6.7 170 08:57 03.04.2020
5514 Clouds 35 1007 26 10000 5.7 180 08:38 03.04.2020
5515 Clouds 35 1007 26 10000 5.7 180 08:20 03.04.2020
5516 Clouds 34 1007 28 10000 5.7 190 07:48 03.04.2020
5517 Clouds 34 1007 28 10000 3.6 190 07:29 03.04.2020
5518 Clouds 34 1008 32 10000 2.6 200 06:42 03.04.2020
5519 Clouds 34 1008 32 10000 2.6 200 06:23 03.04.2020
5520 Clouds 31 1009 35 10000 3.6 150 05:39 03.04.2020
5521 Clouds 29 1010 54 10000 3.1 190 03:42 03.04.2020
5522 Clouds 27 1010 65 10000 3.1 210 02:56 03.04.2020
5523 Clouds 26 1010 69 10000 3.6 210 02:27 03.04.2020
5524 Clouds 25 1010 73 10000 3.6 210 01:22 03.04.2020
5525 Clouds 24 1009 73 10000 2.6 180 00:37 03.04.2020
5526 Clouds 24 1009 73 10000 2.6 180 00:19 03.04.2020
5527 Clouds 25 1009 65 10000 3.1 220 23:42 02.04.2020
5528 Clouds 25 1008 65 10000 3.6 320 23:23 02.04.2020
5529 Clouds 24 1008 69 10000 2.51 193 22:58 02.04.2020
5530 Clouds 23 1008 73 10000 2.6 180 22:38 02.04.2020
5531 Clouds 23 1008 73 10000 2.6 180 22:20 02.04.2020
5532 Clouds 26 1007 61 10000 5.7 330 21:39 02.04.2020
5533 Clouds 26 1007 61 10000 5.7 330 21:20 02.04.2020
5534 Clouds 26 1007 61 10000 6.7 340 20:58 02.04.2020
5535 Clouds 26 1007 57 10000 5.7 340 20:40 02.04.2020
5536 Clouds 26 1007 57 10000 5.7 340 20:21 02.04.2020
5537 Clouds 27 1007 54 10000 6.2 330 19:44 02.04.2020
5538 Clouds 27 1007 54 10000 6.2 330 19:21 02.04.2020
5539 Clouds 27 1007 54 10000 6.7 340 18:58 02.04.2020
5540 Clouds 27 1008 54 10000 8.2 340 18:39 02.04.2020
5541 Clouds 27 1008 54 10000 8.2 340 18:39 02.04.2020
5542 Clouds 27 1008 54 10000 8.2 340 18:39 02.04.2020
5543 Clouds 27 1008 54 10000 8.2 340 18:20 02.04.2020
5544 Clouds 28 1008 48 10000 5.1 330 17:56 02.04.2020
5545 Clouds 28 1008 48 10000 4.1 340 17:38 02.04.2020
5546 Clouds 28 1008 48 10000 4.1 340 17:19 02.04.2020
5547 Clouds 29 1008 45 10000 6.2 340 16:55 02.04.2020
5548 Clouds 27 1008 54 10000 3.6 290 16:37 02.04.2020
5549 Clouds 27 1008 54 10000 3.6 290 16:19 02.04.2020
5550 Clouds 27 1008 57 10000 3.6 340 15:44 02.04.2020
5551 Clouds 27 1008 57 10000 5.7 350 15:21 02.04.2020
5552 Clouds 28 1009 54 10000 4.1 360 14:59 02.04.2020
5553 Clouds 28 1009 54 10000 4.1 360 14:40 02.04.2020
5554 Clouds 28 1009 54 10000 4.1 10 14:19 02.04.2020
5555 Rain 28 1009 51 10000 5.1 360 13:56 02.04.2020
5556 Clouds 29 1009 48 10000 4.1 10 13:38 02.04.2020
5557 Clouds 29 1009 48 10000 4.1 10 13:20 02.04.2020
5558 Clouds 29 1009 48 10000 3.6 40 12:55 02.04.2020
5559 Clouds 29 1009 48 10000 3.6 40 12:55 02.04.2020
5560 Clouds 30 1008 45 10000 3.1 340 12:36 02.04.2020
5561 Clouds 30 1008 45 10000 3.1 340 12:18 02.04.2020
5562 Clouds 31 1008 40 10000 4.1 10 11:55 02.04.2020
5563 Clouds 31 1008 40 10000 4.1 10 11:55 02.04.2020
5564 Clouds 32 1007 35 10000 4.1 350 11:36 02.04.2020
5565 Clouds 32 1007 35 10000 4.1 350 11:18 02.04.2020
5566 Clouds 33 1006 31 10000 6.2 350 10:54 02.04.2020
5567 Rain 35 1006 28 10000 6.2 310 10:36 02.04.2020
5568 Rain 35 1006 28 10000 6.2 310 10:18 02.04.2020
5569 Rain 35 1006 26 10000 7.2 290 09:42 02.04.2020
5570 Rain 36 1006 25 10000 7.7 300 09:24 02.04.2020
5571 Rain 36 1006 26 10000 6.7 310 08:58 02.04.2020
5572 Rain 36 1006 26 10000 6.7 310 08:39 02.04.2020
5573 Clouds 36 1006 28 10000 7.2 320 08:19 02.04.2020
5574 Rain 36 1007 30 10000 6.7 300 07:42 02.04.2020
5575 Rain 36 1007 30 10000 6.7 300 07:19 02.04.2020
5576 Rain 35 1008 32 10000 7.7 320 06:46 02.04.2020
5577 Rain 35 1008 32 10000 8.2 320 06:20 02.04.2020
5578 Rain 33 1010 38 10000 9.3 310 05:41 02.04.2020
5579 Rain 30 1011 45 10000 9.8 330 02:59 02.04.2020
5580 Clouds 27 1011 54 10000 8.2 330 01:30 02.04.2020
5581 Clouds 26 1011 57 10000 8.2 330 00:42 02.04.2020
5582 Clouds 26 1011 54 10000 7.7 340 00:24 02.04.2020
5583 Rain 26 1011 54 10000 6.2 340 23:41 01.04.2020
5584 Rain 26 1011 54 10000 6.7 330 23:20 01.04.2020
5585 Rain 26 1010 54 10000 6.7 340 22:58 01.04.2020
5586 Rain 26 1010 54 10000 6.7 340 22:58 01.04.2020
5587 Rain 26 1010 54 10000 6.7 340 22:39 01.04.2020
5588 Rain 26 1010 54 10000 5.7 340 22:21 01.04.2020
5589 Rain 25 1010 61 10000 5.7 350 21:42 01.04.2020
5590 Clouds 24 1010 69 10000 4.6 350 21:22 01.04.2020
5591 Clouds 24 1010 73 10000 4.1 330 20:58 01.04.2020
5592 Clouds 24 1010 73 10000 4.1 330 20:58 01.04.2020
5593 Clouds 24 1010 73 10000 4.1 330 20:40 01.04.2020
5594 Clouds 24 1010 73 10000 3.6 350 20:21 01.04.2020
5595 Clouds 23 1010 78 10000 4.1 360 20:00 01.04.2020
5596 Clouds 23 1010 78 10000 4.6 360 19:41 01.04.2020
5597 Clouds 23 1010 78 10000 4.6 360 19:21 01.04.2020
5598 Clouds 23 1011 78 10000 4.6 350 18:46 01.04.2020
5599 Clouds 23 1011 78 10000 2.6 10 18:26 01.04.2020
5600 Clouds 23 1011 83 10000 5.1 360 17:58 01.04.2020
5601 Clouds 22 1012 88 10000 3.1 360 17:39 01.04.2020
5602 Clouds 22 1012 88 10000 3.1 360 17:20 01.04.2020
5603 Clouds 22 1012 88 10000 2.1 50 16:59 01.04.2020
5604 Rain 22 1012 88 10000 2.6 40 16:40 01.04.2020
5605 Rain 22 1012 88 10000 2.6 40 16:22 01.04.2020
5606 Rain 22 1013 83 10000 3.1 360 15:58 01.04.2020
5607 Clouds 22 1012 88 10000 4.6 10 15:38 01.04.2020
5608 Clouds 22 1012 88 10000 4.6 10 15:20 01.04.2020
5609 Rain 21 1012 94 10000 5.1 30 14:56 01.04.2020
5610 Rain 22 1014 88 10000 7.2 330 14:38 01.04.2020
5611 Rain 22 1014 88 10000 7.2 330 14:19 01.04.2020
5612 Rain 22 1014 94 10000 3.6 350 13:57 01.04.2020
5613 Rain 23 1014 83 10000 6.2 200 13:37 01.04.2020
5614 Clouds 28 1013 45 10000 6.2 240 13:18 01.04.2020
5615 Clouds 28 1013 45 10000 6.2 240 12:43 01.04.2020
5616 Clouds 29 1011 42 10000 4.1 320 12:24 01.04.2020
5617 Clouds 29 1010 39 10000 5.7 360 11:59 01.04.2020
5618 Clouds 29 1009 39 10000 4.6 10 11:40 01.04.2020
5619 Clouds 29 1009 39 10000 4.6 10 11:21 01.04.2020
5620 Clouds 29 1009 39 10000 7.2 360 10:56 01.04.2020
5621 Clouds 30 1010 37 10000 8.2 350 10:37 01.04.2020
5622 Clouds 30 1010 37 10000 8.2 350 10:18 01.04.2020
5623 Clouds 30 1010 37 10000 7.2 350 09:40 01.04.2020
5624 Clouds 31 1010 35 10000 7.7 350 09:22 01.04.2020
5625 Clouds 31 1009 33 10000 8.2 360 08:59 01.04.2020
5626 Clouds 31 1009 33 10000 8.2 360 08:40 01.04.2020
5627 Clouds 31 1009 33 10000 8.2 360 08:40 01.04.2020
5628 Clouds 31 1010 35 10000 8.7 360 08:18 01.04.2020
5629 Clouds 31 1011 38 10000 7.2 10 07:42 01.04.2020
5630 Clouds 31 1011 38 10000 7.2 10 07:20 01.04.2020
5631 Clouds 31 1011 38 10000 7.7 360 06:47 01.04.2020
5632 Clouds 31 1011 35 10000 7.7 360 06:22 01.04.2020
5633 Clouds 29 1012 54 10000 7.2 60 05:53 01.04.2020
5634 Clouds 26 1014 69 10000 7.2 80 04:30 01.04.2020
5635 Clouds 24 1016 73 10000 5.1 150 03:27 01.04.2020
5636 Clouds 24 1015 69 10000 5.1 80 02:46 01.04.2020
5637 Clouds 23 1014 73 10000 6.7 40 01:53 01.04.2020
5638 Clouds 22 1014 78 10000 6.7 50 01:29 01.04.2020
5639 Clouds 21 1014 83 10000 5.7 70 00:48 01.04.2020
5640 Clouds 20 1014 88 10000 4.6 80 00:25 01.04.2020
5641 Rain 20 1014 88 10000 5.1 30 23:59 31.03.2020
5642 Clouds 21 1014 83 10000 2.6 110 23:41 31.03.2020
5643 Clouds 21 1014 83 10000 2.6 110 23:22 31.03.2020
5644 Clouds 21 1014 83 10000 10.3 200 22:41 31.03.2020
5645 Clouds 21 1014 83 10000 3.1 180 22:22 31.03.2020
5646 Clouds 21 1014 83 10000 3.1 180 21:58 31.03.2020
5647 Clouds 21 1011 77 10000 5.7 30 21:40 31.03.2020
5648 Clouds 21 1011 77 10000 5.7 30 21:21 31.03.2020
5649 Clouds 21 1011 77 10000 5.1 50 20:58 31.03.2020
5650 Clouds 21 1011 77 10000 5.1 50 20:38 31.03.2020
5651 Rain 21 1012 77 10000 3.6 110 20:19 31.03.2020
5652 Rain 21 1012 77 10000 3.6 110 19:57 31.03.2020
5653 Clouds 22 1012 73 10000 4.1 40 19:38 31.03.2020
5654 Clouds 21 1012 77 10000 5.1 60 19:19 31.03.2020
5655 Clouds 22 1013 73 10000 4.1 30 18:44 31.03.2020
5656 Clouds 21 1013 77 10000 5.7 30 18:21 31.03.2020
5657 Rain 21 1013 77 10000 5.7 30 17:58 31.03.2020
5658 Clouds 20 1014 82 10000 7.7 30 17:39 31.03.2020
5659 Clouds 20 1014 82 10000 7.7 30 17:21 31.03.2020
5660 Rain 20 1014 88 10000 9.8 20 16:56 31.03.2020
5661 Rain 19 1015 93 10000 9.3 50 16:37 31.03.2020
5662 Rain 19 1015 93 10000 9.3 50 16:18 31.03.2020
5663 Rain 19 1017 93 10000 4.6 60 15:56 31.03.2020
5664 Rain 20 1018 88 10000 3.6 120 15:37 31.03.2020
5665 Rain 20 1018 88 10000 3.6 120 15:37 31.03.2020
5666 Rain 20 1018 88 10000 3.6 120 15:18 31.03.2020
5667 Rain 20 1018 88 10000 5.7 180 14:42 31.03.2020
5668 Rain 20 1018 88 10000 4.6 200 14:23 31.03.2020
5669 Rain 20 1018 88 10000 5.1 180 13:59 31.03.2020
5670 Rain 20 1018 88 10000 5.1 180 13:40 31.03.2020
5671 Rain 21 1018 83 10000 6.2 180 13:19 31.03.2020
5672 Rain 22 1017 78 10000 5.1 180 12:46 31.03.2020
5673 Rain 23 1017 69 10000 5.1 200 12:20 31.03.2020
5674 Clouds 23 1017 69 10000 5.1 190 11:58 31.03.2020
5675 Rain 24 1016 60 10000 6.7 200 11:38 31.03.2020
5676 Rain 24 1016 60 10000 6.7 200 11:19 31.03.2020
5677 Clouds 25 1016 53 10000 3.6 210 10:55 31.03.2020
5678 Clouds 25 1016 53 10000 3.6 210 10:55 31.03.2020
5679 Rain 29 1014 37 10000 2.6 210 10:37 31.03.2020
5680 Rain 29 1014 37 10000 2.6 210 10:18 31.03.2020
5681 Rain 29 1013 35 10000 3.6 230 09:43 31.03.2020
5682 Clouds 30 1012 33 10000 5.1 230 09:25 31.03.2020
5683 Clouds 32 1013 25 10000 5.1 290 08:58 31.03.2020
5684 Clouds 32 1013 25 10000 5.1 290 08:40 31.03.2020
5685 Clouds 32 1011 25 10000 5.1 190 08:20 31.03.2020
5686 Clouds 32 1011 25 10000 5.1 190 08:20 31.03.2020
5687 Clouds 33 1011 24 10000 4.1 230 07:57 31.03.2020
5688 Clouds 33 1012 24 10000 2.6 250 07:38 31.03.2020
5689 Clouds 33 1012 24 10000 2.6 250 07:20 31.03.2020
5690 Clouds 33 1012 24 10000 3.1 350 06:51 31.03.2020
5691 Clouds 32 1012 25 10000 4.1 10 06:30 31.03.2020
5692 Clear 30 1014 28 10000 3.6 80 05:40 31.03.2020
5693 Clouds 26 1016 34 10000 6.2 70 03:43 31.03.2020
5694 Clouds 24 1017 41 10000 5.7 100 02:25 31.03.2020
5695 Clouds 23 1017 43 10000 3.6 110 01:46 31.03.2020
5696 Clouds 22 1017 46 10000 2.6 150 00:52 31.03.2020
5697 Clouds 21 1017 49 10000 3.6 220 00:25 31.03.2020
5698 Clear 21 1016 49 10000 0.5 310 23:59 30.03.2020
5699 Clear 20 1016 52 10000 3.76 120 23:38 30.03.2020
5700 Clear 20 1016 52 10000 3.76 120 23:18 30.03.2020
5701 Clear 19 1015 55 10000 3.76 120 22:56 30.03.2020
5702 Clear 19 1015 52 10000 3.76 120 22:37 30.03.2020
5703 Clear 19 1015 52 10000 3.76 120 22:18 30.03.2020
5704 Clear 19 1015 52 10000 0.5 330 21:55 30.03.2020
5705 Clear 20 1015 52 10000 1.5 280 21:36 30.03.2020
5706 Clouds 20 1015 52 10000 1.5 280 21:18 30.03.2020
5707 Clouds 20 1014 49 10000 1.5 180 20:42 30.03.2020
5708 Clouds 20 1014 49 10000 1.5 180 20:24 30.03.2020
5709 Clouds 20 1014 49 10000 1.5 180 20:24 30.03.2020
5710 Clouds 20 1014 49 10000 4.47 105 19:59 30.03.2020
5711 Clouds 20 1014 49 10000 2.6 150 19:40 30.03.2020
5712 Clouds 20 1014 49 10000 2.6 150 19:21 30.03.2020
5713 Clouds 21 1014 46 10000 2.6 130 18:57 30.03.2020
5714 Clouds 22 1014 43 10000 2.6 120 18:38 30.03.2020
5715 Clouds 22 1014 43 10000 2.6 120 18:20 30.03.2020
5716 Clouds 23 1014 40 10000 3.1 130 17:56 30.03.2020
5717 Clouds 23 1015 40 10000 3.6 160 17:37 30.03.2020
5718 Clouds 23 1015 40 10000 3.6 160 17:37 30.03.2020
5719 Clouds 23 1015 40 10000 3.6 160 17:18 30.03.2020
5720 Clouds 23 1014 40 10000 2.1 110 16:54 30.03.2020
5721 Clouds 25 1014 36 10000 3.1 110 16:36 30.03.2020
5722 Clouds 25 1014 36 10000 3.1 110 16:36 30.03.2020
5723 Clouds 25 1014 36 10000 3.1 110 16:18 30.03.2020
5724 Clouds 26 1015 34 10000 4.6 110 15:41 30.03.2020
5725 Clouds 26 1015 34 10000 4.6 110 15:22 30.03.2020
5726 Clouds 27 1015 30 10000 4.1 130 14:59 30.03.2020
5727 Clouds 28 1015 28 10000 3.6 100 14:38 30.03.2020
5728 Clouds 28 1015 28 10000 3.6 100 14:19 30.03.2020
5729 Clouds 28 1015 26 10000 4.6 90 13:58 30.03.2020
5730 Clouds 28 1015 26 10000 4.6 90 13:58 30.03.2020
5731 Clouds 28 1015 26 10000 4.6 90 13:39 30.03.2020
5732 Clouds 29 1014 26 10000 5.1 100 13:20 30.03.2020
5733 Clouds 29 1014 25 10000 4.6 110 12:45 30.03.2020
5734 Clouds 30 1014 23 10000 4.1 120 12:22 30.03.2020
5735 Clouds 30 1014 23 10000 4.6 110 11:59 30.03.2020
5736 Clouds 31 1014 20 10000 4.6 120 11:41 30.03.2020
5737 Clouds 31 1014 20 10000 4.6 120 11:22 30.03.2020
5738 Clouds 32 1014 19 10000 4.6 120 10:57 30.03.2020
5739 Clouds 33 1013 18 10000 5.1 120 10:37 30.03.2020
5740 Clouds 33 1013 18 10000 5.1 120 10:19 30.03.2020
5741 Clouds 33 1013 18 10000 4.1 130 09:40 30.03.2020
5742 Clouds 33 1013 18 10000 4.6 150 09:40 30.03.2020
5743 Clouds 33 1013 18 10000 4.1 130 09:20 30.03.2020
5744 Clouds 33 1013 19 10000 4.6 110 08:57 30.03.2020
5745 Clouds 34 1013 18 10000 5.7 110 08:38 30.03.2020
5746 Clouds 34 1013 18 10000 5.7 110 08:19 30.03.2020
5747 Clouds 33 1013 19 10000 3.6 110 07:43 30.03.2020
5748 Clouds 33 1013 18 10000 2.6 100 07:21 30.03.2020
5749 Clouds 32 1014 21 10000 4.1 150 06:43 30.03.2020
5750 Clouds 32 1014 21 10000 4.1 150 06:25 30.03.2020
5751 Clouds 31 1015 22 10000 3.1 130 05:43 30.03.2020
5752 Clouds 30 1016 23 10000 4.1 110 04:29 30.03.2020
5753 Clouds 29 1016 25 10000 4.6 140 03:57 30.03.2020
5754 Clouds 29 1016 25 10000 4.1 120 02:45 30.03.2020
5755 Clouds 28 1016 26 10000 4.6 130 01:57 30.03.2020
5756 Clouds 24 1015 33 10000 0.5 140 00:59 30.03.2020
5757 Clouds 22 1015 37 10000 2.1 200 00:28 30.03.2020
5758 Clouds 22 1014 35 10000 3.18 162 23:56 29.03.2020
5759 Clouds 23 1014 33 10000 2.6 350 23:37 29.03.2020
5760 Clouds 23 1014 33 10000 2.6 350 23:18 29.03.2020
5761 Clouds 23 1014 33 10000 0.5 40 22:40 29.03.2020
5762 Clouds 25 1013 29 10000 3.1 150 22:20 29.03.2020
5763 Clouds 24 1013 31 10000 3.6 160 21:59 29.03.2020
5764 Clouds 23 1012 33 10000 3.18 162 21:38 29.03.2020
5765 Clouds 23 1012 33 10000 2.85 21 21:20 29.03.2020
5766 Clouds 23 1012 33 10000 2.1 270 20:55 29.03.2020
5767 Clouds 23 1012 33 10000 2.1 270 20:55 29.03.2020
5768 Clouds 23 1012 33 10000 2.6 300 20:37 29.03.2020
5769 Clouds 23 1012 33 10000 2.6 300 20:18 29.03.2020
5770 Clouds 22 1012 35 10000 0.5 260 19:56 29.03.2020
5771 Clouds 23 1012 33 10000 3.34 11 19:38 29.03.2020
5772 Clouds 23 1012 33 10000 3.34 11 19:19 29.03.2020
5773 Clouds 25 1012 29 10000 2.1 50 18:55 29.03.2020
5774 Clouds 25 1012 29 10000 2.1 50 18:55 29.03.2020
5775 Clouds 25 1012 29 10000 2.1 50 18:37 29.03.2020
5776 Clouds 25 1012 29 10000 2.1 40 18:18 29.03.2020
5777 Clouds 25 1012 29 10000 2.1 40 17:55 29.03.2020
5778 Clouds 25 1012 27 10000 1 30 17:36 29.03.2020
5779 Clouds 25 1012 27 10000 1 30 17:18 29.03.2020
5780 Clouds 25 1012 27 10000 1 30 17:18 29.03.2020
5781 Clouds 26 1013 26 10000 1.5 90 16:55 29.03.2020
5782 Clouds 27 1013 26 10000 1 30 16:36 29.03.2020
5783 Clouds 27 1013 26 10000 1 30 16:36 29.03.2020
5784 Clouds 27 1013 26 10000 1 30 16:36 29.03.2020
5785 Clouds 27 1013 26 10000 1 30 16:36 29.03.2020
5786 Clouds 27 1013 26 10000 1 30 16:36 29.03.2020
5787 Clouds 27 1013 26 10000 1 30 16:18 29.03.2020
5788 Clouds 28 1013 23 10000 3.1 70 15:40 29.03.2020
5789 Clouds 28 1013 23 10000 3.1 70 15:21 29.03.2020
5790 Clouds 30 1013 20 10000 3.6 80 14:57 29.03.2020
5791 Clouds 31 1013 18 10000 4.6 70 14:38 29.03.2020
5792 Clear 31 1013 19 10000 4.1 70 14:19 29.03.2020
5793 Clear 31 1013 19 10000 4.1 70 13:55 29.03.2020
5794 Clear 31 1012 18 10000 4.1 80 13:37 29.03.2020
5795 Clear 31 1012 18 10000 4.1 80 13:19 29.03.2020
5796 Clear 33 1012 18 10000 3.1 130 12:54 29.03.2020
5797 Clear 33 1012 18 10000 3.1 130 12:54 29.03.2020
5798 Clear 33 1012 18 10000 3.1 130 12:36 29.03.2020
5799 Clear 34 1011 16 10000 3.1 130 12:18 29.03.2020
5800 Clear 35 1011 15 10000 3.1 130 11:39 29.03.2020
5801 Clear 35 1011 15 10000 3.1 130 11:21 29.03.2020
5802 Clear 36 1011 14 10000 5.7 200 10:40 29.03.2020
5803 Clear 36 1011 14 10000 5.7 200 10:21 29.03.2020
5804 Clear 37 1011 13 10000 3.1 170 09:59 29.03.2020
5805 Clouds 38 1010 13 10000 4.6 210 09:38 29.03.2020
5806 Clouds 38 1010 13 10000 4.6 210 09:19 29.03.2020
5807 Clouds 37 1010 13 10000 8.2 220 08:48 29.03.2020
5808 Clouds 37 1010 13 10000 4.1 170 08:27 29.03.2020
5809 Clouds 37 1011 13 10000 2.1 40 07:56 29.03.2020
5810 Clouds 37 1011 13 10000 2.6 140 07:37 29.03.2020
5811 Clouds 37 1011 13 10000 4.1 210 07:19 29.03.2020
5812 Clear 35 1013 13 10000 3.1 10 04:58 29.03.2020
5813 Clear 33 1014 15 10000 3.6 350 03:42 29.03.2020
5814 Clear 33 1014 16 10000 4.6 330 03:23 29.03.2020
5815 Clear 32 1015 17 10000 4.6 320 01:50 29.03.2020
5816 Clear 31 1015 19 10000 5.1 340 01:23 29.03.2020
5817 Clear 30 1015 20 10000 4.6 330 00:53 29.03.2020
5818 Clear 28 1014 24 10000 5.7 350 00:29 29.03.2020
5819 Clear 26 1014 27 10000 4.1 350 23:41 28.03.2020
5820 Clear 26 1014 27 10000 4.1 350 23:41 28.03.2020
5821 Clear 26 1014 27 10000 4.1 350 23:23 28.03.2020
5822 Clear 25 1013 29 10000 3.6 330 22:56 28.03.2020
5823 Clear 25 1013 29 10000 4.1 340 22:37 28.03.2020
5824 Clear 25 1013 29 10000 4.1 340 22:18 28.03.2020
5825 Clear 24 1013 31 10000 4.6 350 21:41 28.03.2020
5826 Clear 24 1013 31 10000 4.6 350 21:23 28.03.2020
5827 Clear 25 1012 29 10000 4.1 330 20:58 28.03.2020
5828 Clear 24 1012 31 10000 2.6 350 20:39 28.03.2020
5829 Clear 24 1012 31 10000 2.6 350 20:20 28.03.2020
5830 Clear 24 1012 31 10000 3.1 340 19:56 28.03.2020
5831 Clear 24 1012 31 10000 3.1 360 19:36 28.03.2020
5832 Clear 24 1012 31 10000 3.6 10 19:18 28.03.2020
5833 Clear 23 1012 33 10000 3.1 30 18:42 28.03.2020
5834 Clear 23 1012 33 10000 3.1 30 18:22 28.03.2020
5835 Clear 24 1012 31 10000 2.1 30 17:56 28.03.2020
5836 Clear 22 1013 35 10000 3.71 15 17:36 28.03.2020
5837 Clear 23 1013 33 10000 2.6 50 17:18 28.03.2020
5838 Clear 24 1013 31 10000 2.6 60 16:40 28.03.2020
5839 Clear 24 1013 31 10000 2.6 60 16:20 28.03.2020
5840 Clear 24 1013 31 10000 3.1 70 15:55 28.03.2020
5841 Clear 26 1014 27 10000 4.1 70 15:37 28.03.2020
5842 Clear 26 1014 27 10000 4.1 70 15:18 28.03.2020
5843 Clear 26 1014 27 10000 3.6 70 14:41 28.03.2020
5844 Clear 27 1014 26 10000 4.6 80 14:22 28.03.2020
5845 Clear 28 1014 24 10000 4.1 70 13:44 28.03.2020
5846 Clear 28 1014 24 10000 4.1 70 13:25 28.03.2020
5847 Clear 28 1014 23 10000 3.6 70 12:57 28.03.2020
5848 Clear 29 1014 23 10000 3.6 80 12:37 28.03.2020
5849 Clear 29 1014 23 10000 3.6 80 12:18 28.03.2020
5850 Clear 30 1013 20 10000 4.1 90 11:42 28.03.2020
5851 Clear 31 1013 19 10000 4.1 110 11:21 28.03.2020
5852 Clear 33 1012 17 10000 4.6 110 10:40 28.03.2020
5853 Clear 33 1012 17 10000 4.6 110 10:22 28.03.2020
5854 Clear 33 1012 18 10000 3.6 150 09:56 28.03.2020
5855 Clear 34 1012 16 10000 4.1 160 09:37 28.03.2020
5856 Clear 34 1012 16 10000 4.1 160 09:19 28.03.2020
5857 Clear 34 1012 17 10000 4.1 140 08:42 28.03.2020
5858 Clear 35 1012 16 10000 4.1 130 08:22 28.03.2020
5859 Clear 34 1012 16 10000 2.6 150 07:46 28.03.2020
5860 Clear 34 1013 16 10000 3.6 120 07:28 28.03.2020
5861 Clear 34 1014 15 10000 3.1 50 06:37 28.03.2020
5862 Clear 33 1014 16 10000 2.6 50 06:18 28.03.2020
5863 Clear 33 1015 15 10000 2.6 170 05:21 28.03.2020
5864 Clouds 32 1016 17 10000 3.6 60 04:42 28.03.2020
5865 Clouds 31 1016 16 10000 3.1 90 03:55 28.03.2020
5866 Clouds 29 1017 17 10000 3.1 80 02:26 28.03.2020
5867 Clear 28 1017 20 10000 3.1 60 01:43 28.03.2020
5868 Clear 27 1018 21 10000 3.6 60 01:18 28.03.2020
5869 Clear 26 1018 24 10000 2.6 10 00:45 28.03.2020
5870 Clear 21 1017 35 10000 3.04 59 23:59 27.03.2020
5871 Clear 19 1017 39 10000 1.5 250 23:41 27.03.2020
5872 Clear 19 1017 39 10000 1.5 250 23:41 27.03.2020
5873 Clear 19 1017 39 10000 1.5 250 23:21 27.03.2020
5874 Clear 17 1016 48 10000 1.5 230 22:56 27.03.2020
5875 Clear 17 1016 48 10000 0.5 350 22:38 27.03.2020
5876 Clear 17 1016 48 10000 0.5 350 22:20 27.03.2020
5877 Clear 17 1016 45 10000 3.32 60 21:45 27.03.2020
5878 Clear 17 1016 45 10000 0.5 40 21:25 27.03.2020
5879 Clear 18 1016 42 10000 2.6 70 20:59 27.03.2020
5880 Clear 19 1016 37 10000 2.6 70 20:41 27.03.2020
5881 Clear 19 1016 37 10000 2.6 70 20:21 27.03.2020
5882 Clear 19 1016 37 10000 2.6 60 19:58 27.03.2020
5883 Clear 20 1016 34 10000 3.1 90 19:40 27.03.2020
5884 Clear 20 1016 34 10000 3.1 90 19:20 27.03.2020
5885 Clear 21 1016 32 10000 3.1 90 18:44 27.03.2020
5886 Clear 21 1016 32 10000 3.1 90 18:25 27.03.2020
5887 Clear 22 1017 30 10000 3.1 90 17:59 27.03.2020
5888 Clear 22 1017 33 10000 3.1 100 17:39 27.03.2020
5889 Clear 22 1017 33 10000 2.6 60 17:20 27.03.2020
5890 Clear 22 1017 33 10000 3.1 80 16:44 27.03.2020
5891 Clear 22 1017 33 10000 3.1 80 16:25 27.03.2020
5892 Clear 23 1017 31 10000 3.1 70 15:56 27.03.2020
5893 Clear 23 1017 33 10000 3.6 80 15:38 27.03.2020
5894 Clear 23 1017 33 10000 3.6 80 15:19 27.03.2020
5895 Clear 24 1018 31 10000 3.1 80 14:43 27.03.2020
5896 Clear 25 1018 29 10000 3.6 90 14:24 27.03.2020
5897 Clear 26 1018 27 10000 4.1 100 13:55 27.03.2020
5898 Clear 27 1018 28 10000 4.6 110 13:37 27.03.2020
5899 Clear 27 1018 28 10000 4.6 110 13:18 27.03.2020
5900 Clear 28 1017 26 10000 5.7 100 12:43 27.03.2020
5901 Clear 28 1017 26 10000 5.7 100 12:19 27.03.2020
5902 Clear 29 1016 25 10000 6.2 110 11:55 27.03.2020
5903 Clear 29 1016 25 10000 6.2 110 11:36 27.03.2020
5904 Clear 30 1016 23 10000 4.6 120 11:18 27.03.2020
5905 Clear 30 1015 23 10000 6.2 120 10:42 27.03.2020
5906 Clear 30 1015 23 10000 6.2 120 10:22 27.03.2020
5907 Clouds 31 1015 23 10000 6.2 130 09:59 27.03.2020
5908 Clouds 32 1015 22 10000 5.1 140 09:40 27.03.2020
5909 Clouds 32 1015 22 10000 5.1 140 09:22 27.03.2020
5910 Clouds 32 1015 22 10000 5.1 130 08:59 27.03.2020
5911 Clouds 32 1015 22 10000 5.1 130 08:59 27.03.2020
5912 Clear 33 1015 21 10000 5.7 150 08:40 27.03.2020
5913 Clear 33 1015 21 10000 5.7 150 08:21 27.03.2020
5914 Clear 32 1015 22 10000 5.7 130 07:55 27.03.2020
5915 Clear 32 1015 22 10000 4.6 120 07:37 27.03.2020
5916 Clear 32 1015 22 10000 4.6 120 07:19 27.03.2020
5917 Clear 33 1016 21 10000 6.2 110 06:38 27.03.2020
5918 Clear 32 1016 22 10000 5.1 100 05:44 27.03.2020
5919 Clear 29 1019 28 10000 5.1 90 02:52 27.03.2020
5920 Clear 27 1019 32 10000 6.7 90 01:55 27.03.2020
5921 Clear 25 1019 36 10000 7.2 80 00:58 27.03.2020
5922 Clear 24 1019 38 10000 4.6 90 00:37 27.03.2020
5923 Clear 23 1019 40 10000 4.6 100 00:18 27.03.2020
5924 Clear 23 1019 40 10000 4.6 100 00:18 27.03.2020
5925 Clear 22 1019 43 10000 3.1 90 23:36 26.03.2020
5926 Clear 20 1019 45 10000 2.6 40 23:18 26.03.2020
5927 Clear 20 1019 45 10000 2.6 40 22:54 26.03.2020
5928 Clear 19 1018 48 10000 2.1 70 22:36 26.03.2020
5929 Clear 19 1018 48 10000 2.1 70 22:18 26.03.2020
5930 Clear 21 1018 43 10000 3.1 120 21:39 26.03.2020
5931 Clear 21 1018 43 10000 3.1 120 21:21 26.03.2020
5932 Clear 21 1018 43 10000 3.1 100 20:58 26.03.2020
5933 Clear 21 1017 43 10000 4.1 110 20:39 26.03.2020
5934 Clear 21 1017 43 10000 4.1 110 20:20 26.03.2020
5935 Clear 21 1017 43 10000 3.1 90 19:57 26.03.2020
5936 Clear 21 1017 46 10000 2.1 80 19:39 26.03.2020
5937 Clear 21 1017 46 10000 2.1 80 19:20 26.03.2020
5938 Clear 21 1018 46 10000 3.1 50 18:57 26.03.2020
5939 Clear 21 1018 49 10000 2.6 50 18:39 26.03.2020
5940 Clear 21 1018 49 10000 2.6 50 18:21 26.03.2020
5941 Clear 22 1018 46 10000 2.6 70 17:43 26.03.2020
5942 Clear 22 1018 46 10000 2.6 80 17:19 26.03.2020
5943 Clear 23 1018 43 10000 2.6 80 16:46 26.03.2020
5944 Clear 23 1018 43 10000 2.6 80 16:28 26.03.2020
5945 Clear 24 1019 41 10000 3.1 80 15:59 26.03.2020
5946 Clear 24 1019 41 10000 3.6 100 15:41 26.03.2020
5947 Clear 24 1019 41 10000 3.6 100 15:22 26.03.2020
5948 Clear 25 1019 36 10000 3.6 90 14:58 26.03.2020
5949 Clear 26 1019 36 10000 4.1 110 14:39 26.03.2020
5950 Clear 26 1019 36 10000 4.1 110 14:19 26.03.2020
5951 Clear 26 1019 36 10000 4.6 110 13:43 26.03.2020
5952 Clear 27 1018 34 10000 4.6 120 13:23 26.03.2020
5953 Clear 27 1018 34 10000 4.6 120 12:57 26.03.2020
5954 Clear 27 1018 34 10000 4.6 110 12:38 26.03.2020
5955 Clear 28 1018 32 10000 4.6 110 12:19 26.03.2020
5956 Clear 28 1017 32 10000 4.6 110 11:45 26.03.2020
5957 Clear 28 1017 32 10000 4.6 110 11:21 26.03.2020
5958 Clear 29 1017 30 10000 4.6 110 10:56 26.03.2020
5959 Clear 30 1017 28 10000 5.1 100 10:37 26.03.2020
5960 Clear 30 1017 28 10000 5.1 100 10:18 26.03.2020
5961 Clear 31 1017 29 10000 4.6 100 09:43 26.03.2020
5962 Clear 31 1016 27 10000 4.6 90 09:19 26.03.2020
5963 Clear 31 1016 27 10000 4.6 90 09:19 26.03.2020
5964 Clouds 31 1016 27 10000 4.6 50 08:54 26.03.2020
5965 Clouds 31 1016 27 10000 4.6 70 08:36 26.03.2020
5966 Clouds 31 1016 27 10000 4.6 70 08:18 26.03.2020
5967 Clouds 31 1017 27 10000 4.6 50 07:41 26.03.2020
5968 -273 0 0 0 0 0 07:20 26.03.2020
5969 Clear 32 1017 25 10000 6.2 90 06:47 26.03.2020
5970 Clouds 30 1018 30 10000 5.1 80 05:52 26.03.2020
5971 Clear 29 1019 30 10000 6.2 100 03:58 26.03.2020
5972 Clear 28 1020 32 10000 6.2 80 03:35 26.03.2020
5973 Clear 28 1020 32 10000 6.7 100 02:53 26.03.2020
5974 Clear 26 1020 31 10000 6.2 120 01:44 26.03.2020
5975 Clear 24 1020 38 10000 5.1 120 00:43 26.03.2020
5976 Clear 21 1020 52 10000 2.6 140 23:45 25.03.2020
5977 Clear 21 1020 52 10000 2.6 140 23:27 25.03.2020
5978 Clear 18 1019 63 10000 1.5 140 22:57 25.03.2020
5979 Clear 18 1019 63 10000 1.5 130 22:38 25.03.2020
5980 Clear 18 1019 63 10000 1.5 130 22:19 25.03.2020
5981 Clear 19 1019 59 10000 2.1 110 21:54 25.03.2020
5982 Clear 20 1018 56 10000 5.75 107 21:36 25.03.2020
5983 Clear 20 1018 56 10000 5.75 107 21:18 25.03.2020
5984 Clear 21 1018 52 10000 1.5 100 20:39 25.03.2020
5985 Clear 21 1018 52 10000 1.5 100 20:20 25.03.2020
5986 Clear 22 1018 49 10000 3.6 120 19:57 25.03.2020
5987 Clear 22 1018 49 10000 4.1 80 19:38 25.03.2020
5988 Clear 22 1018 49 10000 4.1 80 19:20 25.03.2020
5989 Clear 22 1018 49 10000 4.1 80 18:54 25.03.2020
5990 Clear 23 1019 46 10000 4.6 80 18:36 25.03.2020
5991 Clear 24 1019 41 10000 4.6 90 18:18 25.03.2020
5992 Clear 24 1019 41 10000 4.1 90 17:41 25.03.2020
5993 Clear 24 1019 41 10000 4.6 90 17:22 25.03.2020
5994 Clear 24 1019 41 10000 4.6 90 16:58 25.03.2020
5995 Clear 24 1020 41 10000 3.1 100 16:39 25.03.2020
5996 Clear 24 1020 41 10000 3.1 100 16:20 25.03.2020
5997 Clear 25 1019 36 10000 4.6 100 15:43 25.03.2020
5998 Clear 25 1019 36 10000 4.6 100 15:21 25.03.2020
5999 Clear 25 1019 36 10000 4.6 100 14:57 25.03.2020
6000 Clear 25 1019 36 10000 4.6 100 14:57 25.03.2020
6001 Clear 26 1019 34 10000 4.1 100 14:39 25.03.2020
6002 Clear 26 1019 34 10000 4.1 100 14:39 25.03.2020
6003 Clear 26 1019 34 10000 4.1 100 14:39 25.03.2020
6004 Clear 26 1019 34 10000 4.1 100 14:19 25.03.2020
6005 Clear 26 1019 34 10000 3.6 100 13:44 25.03.2020
6006 Clear 26 1019 34 10000 4.1 110 13:24 25.03.2020
6007 Clear 26 1019 34 10000 4.1 110 13:24 25.03.2020
6008 Clear 27 1018 32 10000 4.6 120 12:39 25.03.2020
6009 Clear 27 1018 32 10000 4.6 120 12:21 25.03.2020
6010 Clear 28 1018 30 10000 4.6 130 11:57 25.03.2020
6011 Clear 29 1017 28 10000 6.2 120 11:39 25.03.2020
6012 Clear 29 1017 28 10000 6.2 120 11:21 25.03.2020
6013 Clear 29 1017 28 10000 6.2 120 11:21 25.03.2020
6014 Clear 29 1017 28 10000 6.2 120 10:58 25.03.2020
6015 Clear 30 1017 27 10000 6.7 120 10:39 25.03.2020
6016 Clear 30 1017 27 10000 6.7 120 10:39 25.03.2020
6017 Clear 30 1017 27 10000 6.7 120 10:39 25.03.2020
6018 Clear 30 1017 27 10000 6.7 120 10:18 25.03.2020
6019 Clear 31 1016 25 10000 6.2 130 09:43 25.03.2020
6020 Clear 31 1016 25 10000 6.7 100 09:25 25.03.2020
6021 Clear 31 1016 25 10000 6.7 100 09:25 25.03.2020
6022 Clear 32 1016 24 10000 5.7 90 08:58 25.03.2020
6023 Clear 32 1016 24 10000 5.7 90 08:58 25.03.2020
6024 Clear 32 1016 24 10000 5.7 90 08:40 25.03.2020
6025 Clear 31 1016 25 10000 4.1 80 08:20 25.03.2020
6026 Clear 32 1016 24 10000 5.7 80 07:55 25.03.2020
6027 Clear 32 1016 24 10000 5.7 60 07:36 25.03.2020
6028 Clear 32 1016 24 10000 5.7 60 07:18 25.03.2020
6029 Clear 31 1016 25 10000 7.7 100 06:41 25.03.2020
6030 Clear 31 1016 25 10000 7.7 100 06:22 25.03.2020
6031 Clear 30 1017 27 10000 6.2 90 05:47 25.03.2020
6032 Clear 29 1018 28 10000 6.7 100 04:42 25.03.2020
6033 Clear 28 1019 30 10000 7.2 90 03:57 25.03.2020
6034 Clear 28 1019 30 10000 7.2 70 03:30 25.03.2020
6035 Clouds 25 1020 36 10000 7.2 90 01:40 25.03.2020
6036 Clouds 24 1020 38 10000 6.7 100 00:50 25.03.2020
6037 Clouds 23 1020 40 10000 8.2 100 00:27 25.03.2020
6038 Clouds 22 1019 40 10000 5.7 100 23:55 24.03.2020
6039 Clouds 20 1019 37 10000 3.6 90 23:28 24.03.2020
6040 Clouds 20 1019 37 10000 3.6 90 22:58 24.03.2020
6041 Clouds 21 1019 32 10000 2.6 110 22:38 24.03.2020
6042 Clouds 21 1019 32 10000 2.6 110 22:38 24.03.2020
6043 Clouds 21 1019 32 10000 2.6 110 22:20 24.03.2020
6044 Clouds 21 1018 32 10000 4.1 100 21:58 24.03.2020
6045 Clouds 22 1018 30 10000 4.6 100 21:40 24.03.2020
6046 Clouds 22 1018 30 10000 4.6 100 21:18 24.03.2020
6047 Clouds 22 1018 30 10000 4.6 100 21:18 24.03.2020
6048 Clouds 22 1018 28 10000 6.7 100 20:58 24.03.2020
6049 Clouds 22 1018 28 10000 7.2 100 20:39 24.03.2020
6050 Clouds 22 1018 28 10000 7.2 100 20:21 24.03.2020
6051 Clouds 22 1018 28 10000 7.2 110 19:46 24.03.2020
6052 Clouds 23 1018 27 8000 5.1 120 19:20 24.03.2020
6053 Clouds 23 1018 25 7000 7.2 110 18:56 24.03.2020
6054 Clouds 23 1018 25 6000 6.2 110 18:38 24.03.2020
6055 Clouds 23 1017 27 5000 6.2 120 18:19 24.03.2020
6056 Clouds 23 1017 27 5000 6.2 120 17:56 24.03.2020
6057 Clouds 23 1018 25 5000 6.7 120 17:37 24.03.2020
6058 Clouds 24 1018 23 6000 6.2 140 17:19 24.03.2020
6059 Clouds 24 1018 23 6000 6.2 140 16:54 24.03.2020
6060 Clouds 25 1018 22 6000 5.7 140 16:36 24.03.2020
6061 Clouds 25 1018 22 6000 5.7 140 16:36 24.03.2020
6062 Clouds 25 1018 22 6000 5.7 140 16:18 24.03.2020
6063 Clouds 26 1017 24 10000 7.7 120 15:42 24.03.2020
6064 Clouds 27 1017 24 10000 8.7 110 15:23 24.03.2020
6065 Clouds 28 1016 23 10000 8.7 120 14:44 24.03.2020
6066 Clouds 28 1016 23 10000 8.7 120 14:22 24.03.2020
6067 Clouds 29 1016 25 10000 8.2 120 13:58 24.03.2020
6068 Clouds 30 1015 27 10000 4.6 110 13:40 24.03.2020
6069 Clouds 30 1015 27 10000 4.6 110 13:21 24.03.2020
6070 Clouds 31 1015 23 10000 5.1 110 12:42 24.03.2020
6071 Clouds 31 1015 23 10000 5.1 110 12:23 24.03.2020
6072 Clouds 32 1014 21 10000 4.6 120 11:41 24.03.2020
6073 Clouds 32 1014 21 10000 4.6 120 11:21 24.03.2020
6074 Clouds 33 1014 19 10000 5.1 130 10:59 24.03.2020
6075 Clouds 33 1013 19 10000 6.2 130 10:40 24.03.2020
6076 Clouds 33 1013 19 10000 6.2 130 10:40 24.03.2020
6077 Clouds 33 1013 19 10000 6.2 130 10:18 24.03.2020
6078 Clouds 33 1013 19 10000 6.2 130 10:18 24.03.2020
6079 Clouds 34 1013 18 10000 4.6 130 09:44 24.03.2020
6080 Clouds 35 1013 16 10000 5.7 140 09:25 24.03.2020
6081 Clouds 35 1013 17 10000 6.7 110 08:57 24.03.2020
6082 Clouds 35 1013 17 10000 4.6 90 08:37 24.03.2020
6083 Clouds 35 1013 17 10000 4.6 90 08:18 24.03.2020
6084 Clouds 36 1013 14 10000 3.6 130 07:44 24.03.2020
6085 Clouds 36 1013 14 10000 3.6 80 07:22 24.03.2020
6086 Clouds 36 1013 14 10000 3.6 80 07:22 24.03.2020
6087 Clouds 36 1013 15 10000 3.6 60 06:38 24.03.2020
6088 Clouds 35 1014 19 10000 3.6 90 05:42 24.03.2020
6089 Clouds 34 1014 20 10000 5.1 80 04:51 24.03.2020
6090 Clouds 33 1016 24 10000 5.1 110 03:21 24.03.2020
6091 Clouds 31 1016 25 10000 4.6 110 02:37 24.03.2020
6092 Clouds 28 1017 32 10000 5.7 70 00:54 24.03.2020
6093 Clouds 27 1017 32 10000 4.6 100 00:27 24.03.2020
6094 Clouds 25 1017 36 10000 3.6 130 23:55 23.03.2020
6095 Clouds 21 1016 49 10000 1.5 160 23:37 23.03.2020
6096 Clouds 19 1016 52 10000 1 160 23:19 23.03.2020
6097 Clouds 19 1016 52 10000 2.1 80 22:43 23.03.2020
6098 Clouds 19 1016 52 10000 2.1 80 22:22 23.03.2020
6099 Clouds 20 1016 49 10000 4.1 170 21:55 23.03.2020
6100 Clouds 20 1016 49 10000 2.6 120 21:37 23.03.2020
6101 Clouds 20 1016 49 10000 2.6 120 21:18 23.03.2020
6102 Clouds 20 1015 49 10000 2.6 90 20:42 23.03.2020
6103 Clouds 21 1015 43 10000 2.6 130 20:24 23.03.2020
6104 Clouds 23 1015 40 10000 2.6 80 19:55 23.03.2020
6105 Clouds 23 1015 38 10000 3.6 60 19:37 23.03.2020
6106 Clouds 23 1015 38 10000 3.1 90 19:19 23.03.2020
6107 Clouds 24 1016 36 10000 3.1 80 18:43 23.03.2020
6108 Clouds 24 1016 36 10000 3.1 80 18:24 23.03.2020
6109 Clouds 24 1016 36 10000 3.1 80 17:59 23.03.2020
6110 Clouds 23 1016 38 10000 3.1 70 17:40 23.03.2020
6111 Clear 24 1016 33 10000 3.6 60 17:19 23.03.2020
6112 Clear 24 1016 33 10000 3.1 50 16:43 23.03.2020
6113 Clear 24 1016 33 10000 3.1 50 16:25 23.03.2020
6114 Clear 24 1016 33 10000 3.1 50 16:25 23.03.2020
6115 Clear 24 1016 36 10000 3.1 60 15:54 23.03.2020
6116 Clear 25 1017 31 10000 2.6 50 15:36 23.03.2020
6117 Clear 25 1017 31 10000 2.6 50 15:18 23.03.2020
6118 Clear 25 1017 31 10000 2.6 50 15:18 23.03.2020
6119 Clear 26 1017 31 10000 2.6 40 14:37 23.03.2020
6120 Clouds 26 1017 31 10000 2.6 40 14:19 23.03.2020
6121 Clouds 26 1017 31 10000 2.6 40 14:19 23.03.2020
6122 Clouds 26 1017 29 10000 2.1 80 13:55 23.03.2020
6123 Clouds 28 1017 26 10000 3.1 110 13:37 23.03.2020
6124 Clouds 28 1017 26 10000 3.1 110 13:19 23.03.2020
6125 Clouds 29 1017 25 10000 3.1 110 12:42 23.03.2020
6126 Clouds 29 1017 25 10000 3.1 110 12:22 23.03.2020
6127 Clouds 29 1017 25 10000 3.1 110 12:22 23.03.2020
6128 Clouds 30 1016 23 10000 3.6 110 11:56 23.03.2020
6129 Clouds 30 1016 22 10000 3.1 100 11:37 23.03.2020
6130 Clouds 31 1015 20 10000 3.6 90 11:18 23.03.2020
6131 Clouds 32 1015 19 10000 4.6 90 10:41 23.03.2020
6132 Clouds 32 1015 19 10000 4.6 90 10:23 23.03.2020
6133 Clouds 33 1015 18 10000 4.1 100 09:59 23.03.2020
6134 Clouds 34 1015 17 10000 4.1 90 09:40 23.03.2020
6135 Clouds 34 1015 17 10000 4.1 90 09:19 23.03.2020
6136 Clouds 34 1015 17 10000 4.1 100 08:38 23.03.2020
6137 Clear 34 1015 17 10000 4.1 100 08:19 23.03.2020
6138 Clear 34 1015 17 10000 4.1 120 07:51 23.03.2020
6139 Clear 34 1015 17 10000 6.7 90 07:32 23.03.2020
6140 Clear 34 1015 17 10000 5.1 40 06:55 23.03.2020
6141 Clear 34 1015 17 10000 5.1 40 06:33 23.03.2020
6142 Clear 34 1016 20 10000 5.7 80 05:43 23.03.2020
6143 Clear 32 1018 19 10000 7.2 110 03:54 23.03.2020
6144 Clear 30 1020 20 10000 7.2 90 02:43 23.03.2020
6145 Clouds 28 1020 23 10000 6.7 90 01:39 23.03.2020
6146 Clouds 25 1020 27 10000 3.6 90 00:45 23.03.2020
6147 Clouds 24 1020 31 10000 3.6 100 23:58 22.03.2020
6148 Clouds 20 1020 45 10000 1 80 23:40 22.03.2020
6149 Clouds 20 1020 45 10000 1 80 23:22 22.03.2020
6150 Clear 18 1020 52 10000 1.5 80 22:40 22.03.2020
6151 Clear 18 1020 52 10000 1.5 80 22:20 22.03.2020
6152 Clear 20 1019 42 10000 5.12 117 21:40 22.03.2020
6153 Clear 20 1019 42 10000 5.12 117 21:21 22.03.2020
6154 Clear 19 1019 48 10000 1.5 340 20:58 22.03.2020
6155 Clear 20 1018 45 10000 5.12 117 20:39 22.03.2020
6156 Clear 20 1018 45 10000 4.83 123 20:21 22.03.2020
6157 Clear 19 1018 48 10000 2.6 260 19:56 22.03.2020
6158 Clear 20 1018 45 10000 5.14 109 19:37 22.03.2020
6159 Clear 20 1018 45 10000 5.14 109 19:37 22.03.2020
6160 Clear 20 1018 45 10000 5.14 109 19:19 22.03.2020
6161 Clear 20 1018 45 10000 5.14 109 18:56 22.03.2020
6162 Clear 20 1018 49 10000 2.1 220 18:38 22.03.2020
6163 Clear 20 1018 49 10000 2.1 220 18:18 22.03.2020
6164 Clear 21 1018 46 10000 5.14 109 17:56 22.03.2020
6165 Clear 22 1018 40 10000 2.1 90 17:36 22.03.2020
6166 Clear 22 1018 40 10000 2.1 90 17:36 22.03.2020
6167 Clear 22 1018 40 10000 2.1 90 17:36 22.03.2020
6168 Clear 22 1018 40 10000 2.1 90 17:18 22.03.2020
6169 Clear 23 1018 38 10000 2.6 90 16:54 22.03.2020
6170 Clear 25 1019 31 10000 2.1 90 16:36 22.03.2020
6171 Clear 25 1019 31 10000 2.1 90 16:36 22.03.2020
6172 Clear 25 1019 31 10000 2.1 90 16:18 22.03.2020
6173 Clear 25 1019 31 10000 2.1 70 15:39 22.03.2020
6174 Clear 26 1019 29 10000 2.1 40 14:48 22.03.2020
6175 Clear 26 1019 29 10000 2.1 50 14:20 22.03.2020
6176 Clear 27 1019 28 10000 2.6 80 13:58 22.03.2020
6177 Clear 27 1019 28 10000 2.6 80 13:58 22.03.2020
6178 Clear 28 1019 26 10000 3.6 130 13:40 22.03.2020
6179 Clear 28 1019 26 10000 3.6 130 13:19 22.03.2020
6180 Clear 29 1018 25 10000 4.1 120 12:47 22.03.2020
6181 Clear 30 1018 23 10000 4.1 120 12:23 22.03.2020
6182 Clear 31 1018 20 10000 4.6 120 11:58 22.03.2020
6183 Clear 31 1018 20 10000 5.1 110 11:39 22.03.2020
6184 Clear 31 1018 20 10000 5.1 110 11:21 22.03.2020
6185 Clear 33 1017 18 10000 7.2 110 10:44 22.03.2020
6186 Clear 33 1017 18 10000 7.2 110 10:24 22.03.2020
6187 Clear 33 1017 18 10000 7.2 110 10:24 22.03.2020
6188 Clear 34 1017 17 10000 7.7 110 10:00 22.03.2020
6189 Clear 34 1016 17 10000 8.2 100 09:40 22.03.2020
6190 Clear 34 1016 17 10000 8.2 100 09:19 22.03.2020
6191 Clear 35 1016 16 10000 7.2 120 08:42 22.03.2020
6192 Clear 35 1016 15 10000 7.7 90 08:24 22.03.2020
6193 Clear 35 1016 15 10000 7.7 120 07:50 22.03.2020
6194 Clear 35 1016 16 10000 8.2 90 07:22 22.03.2020
6195 Clear 35 1017 17 10000 7.7 70 05:57 22.03.2020
6196 Clear 35 1018 16 10000 7.7 70 05:21 22.03.2020
6197 Clear 32 1021 22 10000 5.1 100 02:58 22.03.2020
6198 Clear 28 1021 24 10000 4.1 90 01:26 22.03.2020
6199 Clear 26 1021 27 10000 4.6 130 00:41 22.03.2020
6200 Clear 26 1021 27 10000 4.6 130 00:23 22.03.2020
6201 Clear 22 1021 46 10000 1.5 260 23:42 21.03.2020
6202 Clear 20 1020 49 10000 4.61 153 23:19 21.03.2020
6203 Clear 20 1020 49 10000 4.61 153 22:39 21.03.2020
6204 Clear 20 1020 49 10000 4.61 153 22:39 21.03.2020
6205 Clear 20 1020 49 10000 4.61 153 22:21 21.03.2020
6206 Clear 19 1020 55 10000 1.5 210 21:59 21.03.2020
6207 Clear 19 1020 55 10000 1.5 210 21:41 21.03.2020
6208 Clear 20 1019 49 10000 1 330 21:22 21.03.2020
6209 Clear 20 1019 49 10000 1 330 21:22 21.03.2020
6210 Clear 19 1019 52 10000 4.61 153 20:56 21.03.2020
6211 Clear 21 1019 46 10000 1.5 110 20:38 21.03.2020
6212 Clear 21 1019 46 10000 1.5 110 20:18 21.03.2020
6213 Clear 21 1019 46 10000 3.6 170 19:43 21.03.2020
6214 Clear 20 1018 49 10000 3.1 210 19:23 21.03.2020
6215 Clear 21 1018 46 10000 2.6 270 18:55 21.03.2020
6216 Clear 21 1018 46 10000 2.1 290 18:37 21.03.2020
6217 Clear 21 1018 46 10000 2.1 290 18:19 21.03.2020
6218 Clear 22 1018 43 10000 3.25 119 17:43 21.03.2020
6219 Clear 22 1018 43 10000 3.25 119 17:43 21.03.2020
6220 Clear 22 1018 43 10000 3.25 119 17:23 21.03.2020
6221 Clear 22 1019 43 10000 0.5 330 16:57 21.03.2020
6222 Clear 23 1019 40 10000 2.1 320 16:38 21.03.2020
6223 Clear 23 1019 40 10000 2.1 320 16:18 21.03.2020
6224 Clear 23 1019 40 10000 2.1 320 16:18 21.03.2020
6225 Clear 24 1019 36 10000 3.87 95 15:42 21.03.2020
6226 Clear 24 1019 36 10000 3.87 95 15:23 21.03.2020
6227 Clear 25 1019 31 10000 3.87 95 14:58 21.03.2020
6228 Clear 26 1019 29 10000 2.1 70 14:40 21.03.2020
6229 Clear 26 1019 29 10000 2.1 70 14:20 21.03.2020
6230 Clear 26 1019 29 10000 2.1 120 13:59 21.03.2020
6231 Clear 27 1019 28 10000 3.1 140 13:40 21.03.2020
6232 Clear 27 1019 28 10000 3.1 140 13:22 21.03.2020
6233 Clear 27 1019 28 10000 3.1 140 12:59 21.03.2020
6234 Clear 29 1018 23 10000 3.1 120 12:38 21.03.2020
6235 Clear 30 1018 22 10000 3.1 110 12:19 21.03.2020
6236 Clear 30 1018 22 10000 3.1 110 12:19 21.03.2020
6237 Clear 30 1018 22 10000 3.1 110 11:56 21.03.2020
6238 Clear 31 1018 20 10000 3.6 110 11:38 21.03.2020
6239 Clear 32 1017 19 10000 5.1 100 11:19 21.03.2020
6240 Clear 32 1017 19 10000 5.1 100 11:19 21.03.2020
6241 Clear 32 1017 19 10000 5.1 100 10:57 21.03.2020
6242 Clear 33 1017 18 10000 6.7 110 10:38 21.03.2020
6243 Clear 33 1017 18 10000 6.7 110 10:19 21.03.2020
6244 Clear 34 1017 17 10000 6.7 90 09:55 21.03.2020
6245 Clear 35 1017 15 10000 7.7 100 09:37 21.03.2020
6246 Clear 35 1017 15 10000 7.7 100 09:18 21.03.2020
6247 Clear 35 1016 15 10000 6.7 90 08:43 21.03.2020
6248 Clear 35 1016 14 10000 6.2 70 08:24 21.03.2020
6249 Clear 35 1016 14 10000 7.2 110 07:43 21.03.2020
6250 Clear 35 1016 15 10000 6.2 110 07:23 21.03.2020
6251 Clear 35 1017 15 10000 6.2 100 06:47 21.03.2020
6252 Clear 35 1017 15 10000 6.2 100 06:27 21.03.2020
6253 Clear 35 1018 14 10000 6.7 90 05:46 21.03.2020
6254 Clear 34 1018 15 10000 7.7 60 04:46 21.03.2020
6255 Clear 32 1020 19 10000 4.6 110 02:48 21.03.2020
6256 Clear 32 1021 19 10000 6.2 100 02:30 21.03.2020
6257 Clear 30 1021 22 10000 2.1 70 01:32 21.03.2020
6258 Clear 27 1021 28 10000 6.4 91 00:48 21.03.2020
6259 Clear 26 1020 29 10000 6.4 91 00:25 21.03.2020
6260 Clear 23 1020 35 10000 1.5 310 23:49 20.03.2020
6261 Clear 20 1020 45 10000 1.5 290 23:26 20.03.2020
6262 Clear 18 1020 48 10000 1.5 300 22:56 20.03.2020
6263 Clear 18 1020 52 10000 2.6 310 22:37 20.03.2020
6264 Clear 18 1020 52 10000 2.6 310 22:19 20.03.2020
6265 Clear 18 1019 52 10000 2.6 320 21:54 20.03.2020
6266 Clear 18 1019 48 10000 2.1 300 21:36 20.03.2020
6267 Clear 18 1019 48 10000 2.1 300 21:18 20.03.2020
6268 Clear 18 1019 48 10000 2.1 300 21:18 20.03.2020
6269 Clear 19 1019 45 10000 2.1 310 20:42 20.03.2020
6270 Clear 19 1019 45 10000 2.1 310 20:21 20.03.2020
6271 Clear 19 1019 48 10000 2.1 310 19:59 20.03.2020
6272 Clear 19 1018 45 10000 2.1 310 19:40 20.03.2020
6273 Clear 19 1018 45 10000 2.1 310 19:18 20.03.2020
6274 Clear 20 1019 42 10000 2.1 300 18:54 20.03.2020
6275 Clear 20 1019 42 10000 2.1 300 18:36 20.03.2020
6276 Clear 20 1019 42 10000 2.1 300 18:18 20.03.2020
6277 Clear 21 1019 37 10000 2.1 290 17:39 20.03.2020
6278 Clear 21 1019 40 10000 2.1 250 17:21 20.03.2020
6279 Clear 22 1019 35 10000 2.6 210 16:43 20.03.2020
6280 Clear 22 1019 35 10000 2.6 210 16:22 20.03.2020
6281 Clear 22 1019 37 10000 2.1 220 15:59 20.03.2020
6282 Clear 22 1019 37 10000 1.5 230 15:41 20.03.2020
6283 Clear 22 1019 37 10000 1.5 230 15:21 20.03.2020
6284 Clear 24 1020 31 10000 2.1 10 14:43 20.03.2020
6285 Clear 24 1020 31 10000 2.1 70 14:23 20.03.2020
6286 Clear 25 1020 29 10000 2.1 70 13:55 20.03.2020
6287 Clear 25 1020 29 10000 2.1 70 13:55 20.03.2020
6288 Clear 26 1020 26 10000 2.1 60 13:37 20.03.2020
6289 Clear 26 1020 26 10000 2.1 60 13:19 20.03.2020
6290 Clear 28 1019 23 10000 3.1 130 12:39 20.03.2020
6291 Clear 28 1019 23 10000 3.1 130 12:20 20.03.2020
6292 Clear 28 1019 23 10000 3.1 130 12:20 20.03.2020
6293 Clear 28 1019 23 10000 3.1 130 11:54 20.03.2020
6294 Clear 31 1019 18 10000 4.6 110 11:36 20.03.2020
6295 Clear 32 1018 17 10000 4.6 120 11:18 20.03.2020
6296 Clear 33 1018 15 10000 6.2 100 10:41 20.03.2020
6297 Clear 33 1018 15 10000 6.2 100 10:21 20.03.2020
6298 -273 0 0 0 0 0 10:21 20.03.2020
6299 Clear 34 1017 13 10000 7.2 110 09:55 20.03.2020
6300 Clear 34 1017 14 10000 6.7 120 09:37 20.03.2020
6301 Clear 34 1017 14 10000 6.7 120 09:18 20.03.2020
6302 Clear 35 1017 12 10000 7.2 90 08:41 20.03.2020
6303 Clear 35 1017 12 10000 7.2 90 08:22 20.03.2020
6304 Clear 35 1017 13 10000 7.7 100 07:48 20.03.2020
6305 Clear 35 1017 13 10000 7.7 100 07:26 20.03.2020
6306 Clear 35 1017 14 10000 7.7 80 06:51 20.03.2020
6307 Clear 36 1017 13 10000 5.7 100 06:32 20.03.2020
6308 Clear 34 1019 15 10000 6.2 110 04:51 20.03.2020
6309 Clear 33 1020 17 10000 7.7 110 03:20 20.03.2020
6310 Clouds 31 1021 20 10000 3.6 40 01:51 20.03.2020
6311 Clouds 28 1021 24 10000 3.1 60 00:46 20.03.2020
6312 Clouds 28 1021 24 10000 3.1 60 00:26 20.03.2020
6313 Clouds 20 1020 52 10000 2.6 70 23:45 19.03.2020
6314 Clouds 18 1020 59 10000 1.5 130 23:26 19.03.2020
6315 Clouds 20 1020 52 10000 2.6 70 23:26 19.03.2020
6316 Clouds 18 1020 59 10000 1.5 130 22:56 19.03.2020
6317 Clouds 17 1020 59 10000 3.96 52 22:38 19.03.2020
6318 Clouds 17 1020 59 10000 3.96 52 22:38 19.03.2020
6319 Clouds 17 1020 59 10000 3.96 52 22:18 19.03.2020
6320 Clouds 19 1019 52 10000 3.96 52 21:41 19.03.2020
6321 Clouds 19 1019 52 10000 3.96 52 21:20 19.03.2020
6322 Clouds 19 1019 52 10000 0.5 60 20:58 19.03.2020
6323 Clouds 19 1019 55 10000 3.96 52 20:39 19.03.2020
6324 Clouds 19 1019 55 10000 3.98 62 20:20 19.03.2020
6325 Clouds 21 1019 46 10000 2.1 350 19:55 19.03.2020
6326 Clouds 21 1019 46 10000 2.1 350 19:37 19.03.2020
6327 Clouds 20 1019 49 10000 1 350 19:18 19.03.2020
6328 Clouds 20 1019 49 10000 3.98 62 18:42 19.03.2020
6329 Clouds 20 1019 49 10000 3.98 62 18:22 19.03.2020
6330 Clouds 21 1019 43 10000 3.98 62 17:58 19.03.2020
6331 Clouds 21 1019 43 10000 3.98 62 17:39 19.03.2020
6332 Clear 22 1019 40 10000 4.55 69 17:19 19.03.2020
6333 Clear 23 1019 35 10000 2.1 50 16:43 19.03.2020
6334 Clear 23 1019 35 10000 2.1 50 16:23 19.03.2020
6335 Clear 24 1019 33 10000 2.6 70 15:45 19.03.2020
6336 Clear 24 1019 33 10000 2.6 80 15:26 19.03.2020
6337 Clear 25 1020 31 10000 3.1 80 14:55 19.03.2020
6338 Clear 25 1020 31 10000 3.1 110 14:37 19.03.2020
6339 Clear 25 1020 31 10000 3.1 110 14:18 19.03.2020
6340 Clear 27 1020 28 10000 3.6 80 13:39 19.03.2020
6341 Clear 27 1020 28 10000 3.6 80 13:19 19.03.2020
6342 Clear 28 1019 24 10000 3.1 80 12:44 19.03.2020
6343 Clear 28 1019 24 10000 3.1 80 12:24 19.03.2020
6344 Clear 28 1019 24 10000 3.1 80 11:59 19.03.2020
6345 Clear 31 1018 19 10000 5.1 100 11:41 19.03.2020
6346 Clear 33 1018 16 10000 4.1 110 11:23 19.03.2020
6347 Clear 34 1017 14 10000 5.1 90 10:44 19.03.2020
6348 Clear 34 1017 14 10000 5.1 90 10:22 19.03.2020
6349 Clear 35 1017 14 10000 5.1 100 09:59 19.03.2020
6350 Clear 35 1017 15 10000 4.1 100 09:40 19.03.2020
6351 Clear 35 1017 15 10000 4.1 100 09:22 19.03.2020
6352 Clear 35 1017 15 10000 4.1 90 08:47 19.03.2020
6353 Clear 36 1017 12 10000 4.1 100 08:23 19.03.2020
6354 Clear 36 1017 13 10000 2.6 100 07:49 19.03.2020
6355 Clear 35 1017 15 10000 5.1 70 07:31 19.03.2020
6356 Clear 35 1018 14 10000 2.6 130 06:55 19.03.2020
6357 Clear 35 1018 15 10000 5.7 70 06:18 19.03.2020
6358 Clear 34 1019 18 10000 5.1 60 05:23 19.03.2020
6359 Clear 34 1020 18 10000 3.6 120 04:41 19.03.2020
6360 Clear 33 1020 19 10000 3.6 70 03:39 19.03.2020
6361 Clear 31 1021 25 10000 3.6 40 01:45 19.03.2020
6362 Clear 26 1021 36 10000 2.6 80 00:38 19.03.2020
6363 Clear 23 1021 46 10000 7.13 32 23:58 18.03.2020
6364 Clear 21 1021 56 10000 7.13 32 23:39 18.03.2020
6365 Clear 19 1020 59 10000 5.5 44 23:18 18.03.2020
6366 Clear 19 1020 59 10000 2.1 260 22:42 18.03.2020
6367 Clear 19 1020 59 10000 2.1 260 22:22 18.03.2020
6368 Clear 19 1020 59 10000 2.1 260 21:55 18.03.2020
6369 Clear 19 1019 59 10000 1 310 21:37 18.03.2020
6370 Clear 19 1019 59 10000 1 310 21:18 18.03.2020
6371 Clear 19 1019 59 10000 5.5 44 20:54 18.03.2020
6372 Clear 20 1019 60 10000 5.5 44 20:36 18.03.2020
6373 Clear 20 1019 60 10000 4.22 68 20:18 18.03.2020
6374 Clear 21 1018 52 10000 4.22 68 19:40 18.03.2020
6375 Clear 21 1018 52 10000 4.22 68 19:21 18.03.2020
6376 Clear 21 1018 52 10000 1.5 350 18:56 18.03.2020
6377 Clear 22 1018 49 10000 4.22 68 18:37 18.03.2020
6378 Clear 22 1018 49 10000 4.22 68 18:18 18.03.2020
6379 Clear 23 1019 43 10000 2.6 140 17:41 18.03.2020
6380 Clear 24 1019 41 10000 2.6 140 17:22 18.03.2020
6381 Clear 24 1019 41 10000 2.6 140 16:59 18.03.2020
6382 Clear 24 1019 41 10000 2.6 140 16:59 18.03.2020
6383 Clear 25 1019 36 10000 2.6 90 16:40 18.03.2020
6384 Clear 25 1019 36 10000 2.6 90 16:20 18.03.2020
6385 Clear 25 1019 36 10000 2.6 70 15:56 18.03.2020
6386 Clear 25 1019 36 10000 2.6 70 15:37 18.03.2020
6387 Clear 25 1019 36 10000 2.6 70 15:18 18.03.2020
6388 Clear 26 1019 31 10000 3.1 60 14:42 18.03.2020
6389 Clear 26 1019 31 10000 3.1 60 14:21 18.03.2020
6390 Clear 27 1019 32 10000 2.6 100 13:40 18.03.2020
6391 Clear 27 1019 32 10000 2.6 100 13:19 18.03.2020
6392 Clear 27 1019 32 10000 2.6 100 13:19 18.03.2020
6393 Clear 29 1018 26 10000 3.6 90 12:43 18.03.2020
6394 Clear 29 1018 26 10000 3.6 90 12:21 18.03.2020
6395 Clear 29 1018 26 10000 3.6 90 11:58 18.03.2020
6396 Clear 32 1017 22 10000 4.6 90 11:37 18.03.2020
6397 Clear 32 1017 21 10000 5.1 80 11:18 18.03.2020
6398 Clear 32 1017 21 10000 5.1 80 10:55 18.03.2020
6399 Clear 34 1017 18 10000 4.6 80 10:36 18.03.2020
6400 Clear 34 1017 18 10000 4.6 80 10:18 18.03.2020
6401 Clear 35 1016 17 10000 3.6 100 09:41 18.03.2020
6402 Clear 35 1016 17 10000 3.6 100 09:22 18.03.2020
6403 Clear 35 1016 16 10000 3.6 160 08:54 18.03.2020
6404 Clear 35 1016 17 10000 2.6 150 08:36 18.03.2020
6405 Clear 35 1016 17 10000 2.6 150 08:18 18.03.2020
6406 Clear 35 1016 17 10000 6.2 110 07:39 18.03.2020
6407 Clear 35 1016 16 10000 3.6 130 07:21 18.03.2020
6408 Clear 36 1017 18 10000 2.6 350 06:42 18.03.2020
6409 Clear 34 1017 20 10000 2.6 150 05:43 18.03.2020
6410 Clear 34 1018 21 10000 2.1 330 04:58 18.03.2020
6411 Clear 33 1019 21 10000 5.7 50 03:21 18.03.2020
6412 Clear 32 1020 25 10000 6.2 40 02:37 18.03.2020
6413 Clear 31 1020 25 10000 6.2 60 01:43 18.03.2020
6414 Clear 27 1020 32 10000 4.6 100 00:45 18.03.2020
6415 Clear 27 1020 32 10000 4.6 100 00:21 18.03.2020
6416 Clear 26 1020 36 10000 3.6 90 23:42 17.03.2020
6417 Clear 22 1020 49 10000 2.6 80 23:21 17.03.2020
6418 Clear 19 1019 63 10000 1.5 110 22:46 17.03.2020
6419 Clear 19 1019 63 10000 1.5 110 22:28 17.03.2020
6420 Clear 20 1019 56 10000 2.1 110 21:46 17.03.2020
6421 Clear 21 1019 49 10000 5.66 51 21:25 17.03.2020
6422 Clear 20 1018 56 10000 1.5 80 20:58 17.03.2020
6423 Clear 20 1018 56 10000 5.66 51 20:38 17.03.2020
6424 Clear 20 1018 56 10000 5.26 70 20:19 17.03.2020
6425 Clear 20 1018 56 10000 0.5 130 19:42 17.03.2020
6426 Clear 20 1018 56 10000 2.6 170 19:20 17.03.2020
6427 Clear 20 1018 56 10000 2.6 170 18:58 17.03.2020
6428 Clear 21 1018 52 10000 0.5 200 18:39 17.03.2020
6429 Clear 21 1018 52 10000 5.26 70 18:21 17.03.2020
6430 Clear 21 1018 52 10000 5.26 70 17:56 17.03.2020
6431 Clear 21 1018 52 10000 5.26 70 17:38 17.03.2020
6432 Clear 22 1018 49 10000 3.94 99 17:18 17.03.2020
6433 Clear 22 1018 49 10000 3.94 99 16:42 17.03.2020
6434 Clear 22 1018 49 10000 3.94 99 16:19 17.03.2020
6435 Clear 22 1018 49 10000 3.94 99 16:19 17.03.2020
6436 Clear 23 1019 40 10000 2.1 90 15:45 17.03.2020
6437 Clear 23 1019 40 10000 2.1 90 15:22 17.03.2020
6438 Clear 25 1019 33 10000 2.1 90 14:44 17.03.2020
6439 Clear 26 1019 31 10000 3.1 90 14:26 17.03.2020
6440 Clear 26 1019 31 10000 3.6 90 13:58 17.03.2020
6441 Clear 27 1018 30 10000 3.6 90 13:39 17.03.2020
6442 Clear 27 1018 30 10000 3.6 90 13:21 17.03.2020
6443 Clear 28 1018 28 10000 3.6 80 12:44 17.03.2020
6444 Clear 28 1018 28 10000 3.6 80 12:24 17.03.2020
6445 Clear 30 1017 23 10000 4.1 80 11:48 17.03.2020
6446 Clear 30 1017 23 10000 4.1 80 11:29 17.03.2020
6447 Clear 31 1017 22 10000 4.1 80 10:58 17.03.2020
6448 Clear 31 1017 22 10000 4.1 80 10:58 17.03.2020
6449 Clear 32 1017 19 10000 5.1 70 10:40 17.03.2020
6450 Clear 32 1017 19 10000 5.1 70 10:22 17.03.2020
6451 Clear 33 1016 19 10000 4.6 60 09:59 17.03.2020
6452 Clear 33 1016 18 10000 4.1 120 09:40 17.03.2020
6453 Clear 33 1016 18 10000 4.1 120 09:19 17.03.2020
6454 Clear 34 1016 18 10000 5.1 70 08:48 17.03.2020
6455 Clear 33 1016 18 10000 5.1 90 08:23 17.03.2020
6456 Clear 34 1016 17 10000 4.6 80 07:56 17.03.2020
6457 Clear 33 1016 18 10000 4.6 90 07:38 17.03.2020
6458 Clear 33 1016 18 10000 4.6 90 07:19 17.03.2020
6459 Clear 33 1016 18 10000 7.7 80 06:38 17.03.2020
6460 Clear 32 1017 19 10000 3.6 130 05:58 17.03.2020
6461 Clear 30 1019 22 10000 3.6 50 03:56 17.03.2020
6462 Clear 30 1020 25 10000 7.7 90 02:46 17.03.2020
6463 Clear 28 1020 26 10000 6.2 80 01:44 17.03.2020
6464 Clear 27 1021 26 10000 6.2 80 01:25 17.03.2020
6465 Clear 24 1020 27 10000 6.94 95 00:38 17.03.2020
6466 Clear 18 1020 42 10000 1.5 290 23:45 16.03.2020
6467 Clear 18 1020 42 10000 1.5 290 23:27 16.03.2020
6468 Clear 16 1019 44 10000 2.1 320 22:41 16.03.2020
6469 Clear 16 1019 44 10000 2.1 320 22:23 16.03.2020
6470 Clear 16 1019 44 10000 2.1 290 21:57 16.03.2020
6471 Clear 16 1019 41 10000 2.1 290 21:39 16.03.2020
6472 Clear 16 1019 41 10000 2.1 290 21:21 16.03.2020
6473 Clear 16 1018 44 10000 2.1 300 20:56 16.03.2020
6474 Clear 17 1018 39 10000 2.1 310 20:37 16.03.2020
6475 Clear 17 1018 39 10000 2.1 310 20:18 16.03.2020
6476 Clear 16 1018 38 10000 2.6 290 19:40 16.03.2020
6477 Clear 16 1018 38 10000 2.6 290 19:20 16.03.2020
6478 Clear 17 1018 39 10000 2.6 260 18:43 16.03.2020
6479 Clear 18 1018 36 10000 2.1 260 18:21 16.03.2020
6480 Clear 18 1018 36 10000 2.1 260 17:55 16.03.2020
6481 Clear 18 1018 36 10000 1.5 230 17:37 16.03.2020
6482 Clear 18 1018 39 10000 3.85 121 17:18 16.03.2020
6483 Clear 18 1018 34 10000 3.85 121 16:42 16.03.2020
6484 Clear 18 1018 34 10000 3.85 121 16:24 16.03.2020
6485 Clear 19 1018 29 10000 3.85 121 15:44 16.03.2020
6486 Clear 20 1019 28 10000 3.85 121 15:26 16.03.2020
6487 Clear 21 1019 22 10000 2.1 90 14:49 16.03.2020
6488 Clear 22 1019 18 10000 2.6 80 14:27 16.03.2020
6489 Clear 22 1019 18 10000 2.1 90 13:57 16.03.2020
6490 Clear 23 1019 16 10000 2.6 90 13:39 16.03.2020
6491 Clear 23 1019 16 10000 2.6 90 13:20 16.03.2020
6492 Clear 25 1018 13 10000 3.1 80 12:44 16.03.2020
6493 Clear 25 1018 13 10000 3.1 80 12:23 16.03.2020
6494 Clear 27 1018 11 10000 3.6 140 11:46 16.03.2020
6495 Clear 27 1018 11 10000 3.6 140 11:27 16.03.2020
6496 Clear 28 1017 10 10000 4.1 130 10:55 16.03.2020
6497 Clear 29 1017 9 10000 5.1 130 10:37 16.03.2020
6498 Clear 29 1017 9 10000 5.1 130 10:18 16.03.2020
6499 Clear 31 1016 10 10000 4.6 140 09:40 16.03.2020
6500 Clear 31 1016 10 10000 4.6 140 09:20 16.03.2020
6501 Clear 31 1016 10 10000 4.6 110 08:47 16.03.2020
6502 Clear 31 1016 10 10000 5.7 110 08:24 16.03.2020
6503 Clear 31 1016 10 10000 4.1 130 07:45 16.03.2020
6504 Clear 31 1016 10 10000 5.1 130 07:21 16.03.2020
6505 Clear 31 1016 10 10000 4.1 130 06:46 16.03.2020
6506 Clear 31 1016 10 10000 4.1 130 06:23 16.03.2020
6507 Clear 29 1018 13 10000 6.7 90 04:53 16.03.2020
6508 Clear 25 1020 15 10000 6.2 100 01:49 16.03.2020
6509 Clear 24 1020 17 10000 5.7 80 00:48 16.03.2020
6510 Clear 23 1019 18 10000 4.1 90 00:28 16.03.2020
6511 Clear 18 1019 39 10000 6.66 99 23:41 15.03.2020
6512 Clear 18 1019 39 10000 4 101 23:19 15.03.2020
6513 Clear 16 1018 51 10000 4 101 22:42 15.03.2020
6514 Clear 16 1018 51 10000 4 101 22:42 15.03.2020
6515 Clear 16 1018 51 10000 4 101 22:22 15.03.2020
6516 Clear 17 1018 45 10000 4 101 21:40 15.03.2020
6517 Clear 17 1018 45 10000 4 101 21:22 15.03.2020
6518 Clear 17 1018 45 10000 4 101 20:58 15.03.2020
6519 Clear 17 1018 45 10000 4 101 20:58 15.03.2020
6520 Clear 18 1018 36 10000 1 50 20:40 15.03.2020
6521 Clear 18 1018 36 10000 1 50 20:20 15.03.2020
6522 Clear 19 1017 20 10000 0.5 10 19:56 15.03.2020
6523 Clear 18 1017 36 10000 1 90 19:38 15.03.2020
6524 Clear 18 1017 36 10000 1 90 19:19 15.03.2020
6525 Clear 18 1017 39 10000 2.1 110 18:55 15.03.2020
6526 Clear 20 1017 28 10000 3.1 130 18:36 15.03.2020
6527 Clear 20 1017 28 10000 3.1 130 18:18 15.03.2020
6528 Clear 21 1018 26 10000 3.1 120 17:40 15.03.2020
6529 Clear 21 1018 30 10000 2.6 130 17:20 15.03.2020
6530 Clear 21 1018 30 10000 2.6 130 16:56 15.03.2020
6531 Clear 20 1018 37 10000 2.6 130 16:37 15.03.2020
6532 Clear 20 1018 37 10000 2.6 130 16:18 15.03.2020
6533 Clear 22 1018 28 10000 2.6 100 15:43 15.03.2020
6534 Clear 22 1018 28 10000 2.6 100 15:25 15.03.2020
6535 Clear 22 1018 28 10000 2.6 100 14:47 15.03.2020
6536 Clear 23 1018 27 10000 2.1 100 14:28 15.03.2020
6537 Clear 24 1018 25 10000 3.1 90 13:59 15.03.2020
6538 Clear 25 1018 23 10000 3.6 90 13:39 15.03.2020
6539 Clear 25 1018 23 10000 3.6 90 13:21 15.03.2020
6540 Clear 26 1018 19 10000 3.6 110 12:57 15.03.2020
6541 Clear 26 1017 21 10000 4.1 110 12:38 15.03.2020
6542 Clear 27 1017 19 10000 4.1 120 12:20 15.03.2020
6543 Clouds 28 1017 20 10000 4.6 130 11:40 15.03.2020
6544 Clouds 28 1016 20 10000 5.1 120 11:22 15.03.2020
6545 Clouds 28 1016 20 10000 5.1 120 10:56 15.03.2020
6546 Clouds 29 1016 20 10000 5.7 120 10:38 15.03.2020
6547 Clouds 29 1016 20 10000 5.7 120 10:20 15.03.2020
6548 Clouds 30 1015 20 10000 7.2 130 09:40 15.03.2020
6549 Clouds 30 1015 20 10000 7.2 130 09:22 15.03.2020
6550 Clouds 31 1015 19 10000 6.2 140 08:45 15.03.2020
6551 Clouds 32 1015 19 10000 5.7 140 08:21 15.03.2020
6552 Clouds 32 1015 18 10000 6.7 120 07:51 15.03.2020
6553 Clouds 32 1015 19 10000 5.7 120 07:32 15.03.2020
6554 Clouds 31 1015 20 9000 4.6 100 06:53 15.03.2020
6555 Clouds 32 1016 21 10000 5.7 140 06:18 15.03.2020
6556 Clouds 30 1016 23 7000 3.1 130 05:19 15.03.2020
6557 Clouds 30 1016 23 7000 3.1 130 04:43 15.03.2020
6558 Clouds 30 1017 25 7000 3.6 140 04:24 15.03.2020
6559 Clouds 28 1017 28 7000 3.1 90 03:48 15.03.2020
6560 Clouds 26 1018 34 5000 4.1 100 02:38 15.03.2020
6561 Clouds 25 1019 36 5000 4.6 110 01:34 15.03.2020
6562 Clouds 24 1019 41 5000 4.1 110 00:46 15.03.2020
6563 Clouds 23 1018 43 5000 5.1 110 00:24 15.03.2020
6564 Clouds 23 1018 43 6000 3.6 110 23:55 14.03.2020
6565 Clouds 22 1018 49 6000 3.1 120 23:37 14.03.2020
6566 Clouds 20 1018 56 8000 3.1 150 23:18 14.03.2020
6567 Clouds 21 1017 49 8000 2.6 110 22:42 14.03.2020
6568 Clouds 21 1017 49 8000 2.6 110 22:23 14.03.2020
6569 Clouds 21 1017 49 9000 1.5 90 21:56 14.03.2020
6570 Clouds 21 1017 49 10000 2.1 100 21:36 14.03.2020
6571 Clouds 21 1017 49 10000 2.1 100 21:18 14.03.2020
6572 Clouds 22 1016 46 10000 2.6 110 20:58 14.03.2020
6573 Clouds 23 1016 43 10000 4.1 110 20:40 14.03.2020
6574 Clouds 23 1016 43 10000 4.1 110 20:19 14.03.2020
6575 Clouds 23 1016 43 10000 6.2 110 19:43 14.03.2020
6576 Clouds 24 1016 41 10000 5.7 110 19:25 14.03.2020
6577 Clear 24 1016 41 10000 5.1 120 18:42 14.03.2020
6578 Clear 24 1016 41 10000 5.1 120 18:24 14.03.2020
6579 Clear 25 1016 38 10000 3.6 120 17:58 14.03.2020
6580 Clear 25 1016 38 10000 3.6 120 17:38 14.03.2020
6581 Clouds 26 1016 34 10000 3.6 120 17:20 14.03.2020
6582 Clouds 26 1016 34 10000 3.6 120 17:20 14.03.2020
6583 Clouds 26 1016 34 10000 4.6 120 16:41 14.03.2020
6584 Clouds 26 1016 34 10000 4.6 120 16:23 14.03.2020
6585 Clouds 27 1016 30 10000 6.2 130 15:58 14.03.2020
6586 Clouds 27 1016 30 10000 4.6 140 15:27 14.03.2020
6587 Clouds 28 1016 26 10000 4.6 130 14:58 14.03.2020
6588 Clouds 28 1016 26 10000 5.1 130 14:36 14.03.2020
6589 Clouds 28 1016 26 10000 5.1 130 14:18 14.03.2020
6590 Clouds 29 1016 26 10000 6.2 130 13:42 14.03.2020
6591 Clouds 29 1016 26 10000 6.2 130 13:23 14.03.2020
6592 Clouds 30 1015 27 10000 4.6 130 12:47 14.03.2020
6593 Clouds 30 1015 27 10000 4.6 130 12:27 14.03.2020
6594 Clear 30 1014 27 10000 4.6 130 11:59 14.03.2020
6595 Clear 30 1014 27 10000 4.6 130 11:39 14.03.2020
6596 Clear 30 1014 27 10000 4.6 130 11:20 14.03.2020
6597 Clear 32 1013 22 10000 6.7 130 10:46 14.03.2020
6598 Clear 32 1013 22 10000 6.7 130 10:27 14.03.2020
6599 Clear 32 1013 22 10000 6.7 140 09:57 14.03.2020
6600 Clear 33 1013 21 10000 6.7 130 09:39 14.03.2020
6601 Clear 33 1013 21 10000 6.7 130 09:19 14.03.2020
6602 Clear 33 1013 19 10000 8.7 130 08:45 14.03.2020
6603 Clear 34 1013 20 10000 6.7 130 08:22 14.03.2020
6604 Clear 34 1013 20 10000 8.2 100 07:39 14.03.2020
6605 Clear 34 1013 20 10000 8.2 100 07:20 14.03.2020
6606 Clear 35 1013 21 10000 7.7 110 06:41 14.03.2020
6607 Clear 33 1014 22 10000 6.2 120 05:49 14.03.2020
6608 Clear 33 1015 24 10000 3.1 120 04:43 14.03.2020
6609 Clear 32 1016 25 10000 3.6 70 03:24 14.03.2020
6610 Clear 30 1016 28 10000 4.1 110 02:28 14.03.2020
6611 Clear 28 1017 37 10000 3.1 120 01:20 14.03.2020
6612 Clear 25 1017 47 10000 3.1 180 23:56 13.03.2020
6613 Clear 22 1016 60 10000 1.5 270 23:31 13.03.2020
6614 Clear 21 1016 68 10000 0.5 230 22:52 13.03.2020
6615 Clear 20 1016 72 10000 1.5 290 22:27 13.03.2020
6616 Clear 21 1015 68 10000 2.47 69 21:45 13.03.2020
6617 Clear 21 1015 68 10000 2.47 69 21:22 13.03.2020
6618 Clear 22 1015 60 10000 1.5 290 20:59 13.03.2020
6619 Clear 22 1014 60 10000 1 300 20:41 13.03.2020
6620 Clear 22 1014 60 10000 1 300 20:21 13.03.2020
6621 Clear 22 1014 60 10000 4.18 67 19:49 13.03.2020
6622 Clear 22 1014 60 10000 0.5 90 19:30 13.03.2020
6623 Clear 23 1014 53 10000 2.1 100 18:51 13.03.2020
6624 Clouds 24 1014 44 10000 1.5 90 18:32 13.03.2020
6625 Clear 25 1014 41 10000 2.6 90 17:59 13.03.2020
6626 Clear 25 1014 41 10000 3.1 90 17:41 13.03.2020
6627 Clear 25 1014 44 10000 3.1 80 17:20 13.03.2020
6628 Clear 26 1014 41 10000 2.6 80 16:42 13.03.2020
6629 Clear 26 1014 41 10000 2.6 80 16:24 13.03.2020
6630 Clear 26 1015 41 10000 2.1 80 15:59 13.03.2020
6631 Clear 27 1015 36 10000 2.6 100 15:39 13.03.2020
6632 Clear 27 1015 36 10000 2.6 100 15:20 13.03.2020
6633 Clear 27 1015 36 10000 2.1 90 14:44 13.03.2020
6634 Clear 27 1015 36 10000 2.1 80 14:23 13.03.2020
6635 Clear 28 1015 32 10000 1.5 90 13:58 13.03.2020
6636 Clear 28 1015 34 10000 2.6 90 13:39 13.03.2020
6637 Clear 28 1015 34 10000 2.6 90 13:20 13.03.2020
6638 Clear 29 1015 30 10000 3.6 80 12:55 13.03.2020
6639 Clear 30 1014 30 10000 4.1 80 12:36 13.03.2020
6640 Clear 30 1014 30 10000 4.1 80 12:18 13.03.2020
6641 Clear 32 1013 22 10000 4.6 110 11:42 13.03.2020
6642 Clear 33 1013 21 10000 6.7 110 11:24 13.03.2020
6643 Clear 33 1013 21 10000 6.7 110 10:57 13.03.2020
6644 Clear 34 1013 20 10000 6.2 130 10:38 13.03.2020
6645 Clear 34 1013 20 10000 6.2 130 10:20 13.03.2020
6646 Clear 35 1012 17 10000 7.2 110 09:43 13.03.2020
6647 Clear 35 1012 17 10000 7.2 110 09:24 13.03.2020
6648 Clear 35 1012 16 10000 6.7 130 08:46 13.03.2020
6649 Clear 36 1012 15 10000 6.2 140 08:23 13.03.2020
6650 Clear 36 1012 15 10000 6.2 140 08:23 13.03.2020
6651 Clear 36 1012 15 10000 6.7 120 07:52 13.03.2020
6652 Clear 36 1012 15 10000 6.7 130 07:28 13.03.2020
6653 Clear 36 1013 16 10000 4.1 80 06:57 13.03.2020
6654 Clear 36 1013 18 10000 4.6 140 06:32 13.03.2020
6655 Clear 35 1014 19 10000 4.6 150 05:55 13.03.2020
6656 Clear 34 1014 20 10000 4.1 160 05:24 13.03.2020
6657 Clear 34 1015 18 10000 3.1 160 04:38 13.03.2020
6658 Clear 34 1016 21 10000 3.1 110 03:42 13.03.2020
6659 Clear 31 1016 27 10000 3.6 30 01:47 13.03.2020
6660 Clear 30 1016 30 10000 2.1 10 01:19 13.03.2020
6661 Clear 28 1017 34 10000 3 77 00:54 13.03.2020
6662 Clear 26 1016 39 10000 0.5 290 00:27 13.03.2020
6663 Clear 23 1016 53 10000 2.1 280 23:55 12.03.2020
6664 Clear 23 1016 53 10000 2.1 280 23:28 12.03.2020
6665 Clear 21 1016 64 10000 3.1 260 22:57 12.03.2020
6666 Clear 20 1015 68 10000 2.6 270 22:39 12.03.2020
6667 Clear 20 1015 68 10000 2.6 270 22:21 12.03.2020
6668 Clear 21 1015 64 10000 1 210 21:45 12.03.2020
6669 Clear 21 1015 64 10000 2.7 66 21:27 12.03.2020
6670 Clear 22 1014 56 10000 3.1 30 20:57 12.03.2020
6671 Clear 23 1014 49 10000 2.6 40 20:38 12.03.2020
6672 Clear 23 1014 49 10000 2.6 40 20:19 12.03.2020
6673 Clear 22 1014 56 10000 2.02 78 19:40 12.03.2020
6674 Clear 22 1014 56 10000 2.02 78 19:20 12.03.2020
6675 Clear 23 1014 49 10000 2.02 78 18:44 12.03.2020